<?xml version="1.0" encoding="UTF-8" standalone="no" ?>
<gpx xmlns="http://www.topografix.com/GPX/1/1" xmlns:xsi="http://www.w3.org/2001/XMLSchema-instance" xsi:schemaLocation="http://www.topografix.com/GPX/1/1 http://www.topografix.com/GPX/1/1/gpx.xsd" version="1.1" creator="VisuGPX - https://www.visugpx.com">
  <metadata>
    <name>CAMINO PRIMITIVO&quot; O CADAVO-BALEIRA - LUGO&quot;</name>
    <desc><![CDATA[Parcours relativement facile avec moins de dénivelé que les jours précedent. L'arrivée à LUGO est bienvenue et la découverte de cette ville entourée de Remparts encore préservés est  passionnante. Elle vaut que l'on prolonge son séjour d'une journée.]]></desc>
  </metadata>
  <trk>
    <name><![CDATA[2016-07-14-01]]></name>
    <trkseg>
      <trkpt lat="43.01539" lon="-7.24587">
        <ele>702.7</ele>
        <time>2016-07-14T05:20:02Z</time>
      </trkpt>
      <trkpt lat="43.01555" lon="-7.24591">
        <ele>701</ele>
        <time>2016-07-14T05:20:14Z</time>
      </trkpt>
      <trkpt lat="43.01569" lon="-7.24597">
        <ele>701</ele>
        <time>2016-07-14T05:20:27Z</time>
      </trkpt>
      <trkpt lat="43.01578" lon="-7.24601">
        <ele>700</ele>
        <time>2016-07-14T05:20:32Z</time>
      </trkpt>
      <trkpt lat="43.01586" lon="-7.24608">
        <ele>706.3</ele>
        <time>2016-07-14T05:20:41Z</time>
      </trkpt>
      <trkpt lat="43.01594" lon="-7.24615">
        <ele>711.6</ele>
        <time>2016-07-14T05:20:48Z</time>
      </trkpt>
      <trkpt lat="43.01604" lon="-7.24619">
        <ele>715</ele>
        <time>2016-07-14T05:20:56Z</time>
      </trkpt>
      <trkpt lat="43.01614" lon="-7.24619">
        <ele>717.6</ele>
        <time>2016-07-14T05:21:13Z</time>
      </trkpt>
      <trkpt lat="43.01623" lon="-7.24622">
        <ele>719.6</ele>
        <time>2016-07-14T05:21:20Z</time>
      </trkpt>
      <trkpt lat="43.01633" lon="-7.24623">
        <ele>720.5</ele>
        <time>2016-07-14T05:21:28Z</time>
      </trkpt>
      <trkpt lat="43.01643" lon="-7.24621">
        <ele>720.8</ele>
        <time>2016-07-14T05:21:36Z</time>
      </trkpt>
      <trkpt lat="43.01652" lon="-7.24622">
        <ele>720.3</ele>
        <time>2016-07-14T05:22:14Z</time>
      </trkpt>
      <trkpt lat="43.01655" lon="-7.24633">
        <ele>720.1</ele>
        <time>2016-07-14T05:22:23Z</time>
      </trkpt>
      <trkpt lat="43.01656" lon="-7.24646">
        <ele>719.8</ele>
        <time>2016-07-14T05:22:31Z</time>
      </trkpt>
      <trkpt lat="43.01653" lon="-7.24658">
        <ele>719.9</ele>
        <time>2016-07-14T05:22:43Z</time>
      </trkpt>
      <trkpt lat="43.01645" lon="-7.24668">
        <ele>719.3</ele>
        <time>2016-07-14T05:22:54Z</time>
      </trkpt>
      <trkpt lat="43.01638" lon="-7.24677">
        <ele>718.3</ele>
        <time>2016-07-14T05:23:01Z</time>
      </trkpt>
      <trkpt lat="43.0163" lon="-7.24685">
        <ele>717.3</ele>
        <time>2016-07-14T05:23:07Z</time>
      </trkpt>
      <trkpt lat="43.01622" lon="-7.24692">
        <ele>716.6</ele>
        <time>2016-07-14T05:23:13Z</time>
      </trkpt>
      <trkpt lat="43.01618" lon="-7.24704">
        <ele>716.1</ele>
        <time>2016-07-14T05:23:19Z</time>
      </trkpt>
      <trkpt lat="43.01614" lon="-7.24717">
        <ele>715.6</ele>
        <time>2016-07-14T05:23:25Z</time>
      </trkpt>
      <trkpt lat="43.01612" lon="-7.24731">
        <ele>714.7</ele>
        <time>2016-07-14T05:23:31Z</time>
      </trkpt>
      <trkpt lat="43.01614" lon="-7.24745">
        <ele>714</ele>
        <time>2016-07-14T05:23:37Z</time>
      </trkpt>
      <trkpt lat="43.01619" lon="-7.24756">
        <ele>713.3</ele>
        <time>2016-07-14T05:23:42Z</time>
      </trkpt>
      <trkpt lat="43.01623" lon="-7.24769">
        <ele>712.4</ele>
        <time>2016-07-14T05:23:48Z</time>
      </trkpt>
      <trkpt lat="43.01621" lon="-7.24782">
        <ele>711.8</ele>
        <time>2016-07-14T05:23:54Z</time>
      </trkpt>
      <trkpt lat="43.01612" lon="-7.24789">
        <ele>710.7</ele>
        <time>2016-07-14T05:24:01Z</time>
      </trkpt>
      <trkpt lat="43.01603" lon="-7.24793">
        <ele>709.4</ele>
        <time>2016-07-14T05:24:08Z</time>
      </trkpt>
      <trkpt lat="43.01594" lon="-7.24797">
        <ele>708.1</ele>
        <time>2016-07-14T05:24:15Z</time>
      </trkpt>
      <trkpt lat="43.01585" lon="-7.248">
        <ele>706.1</ele>
        <time>2016-07-14T05:24:23Z</time>
      </trkpt>
      <trkpt lat="43.01576" lon="-7.24806">
        <ele>705</ele>
        <time>2016-07-14T05:24:29Z</time>
      </trkpt>
      <trkpt lat="43.01568" lon="-7.24813">
        <ele>703.8</ele>
        <time>2016-07-14T05:24:35Z</time>
      </trkpt>
      <trkpt lat="43.0156" lon="-7.24821">
        <ele>702.9</ele>
        <time>2016-07-14T05:24:41Z</time>
      </trkpt>
      <trkpt lat="43.01554" lon="-7.24833">
        <ele>701.9</ele>
        <time>2016-07-14T05:24:48Z</time>
      </trkpt>
      <trkpt lat="43.01548" lon="-7.24842">
        <ele>701.4</ele>
        <time>2016-07-14T05:24:53Z</time>
      </trkpt>
      <trkpt lat="43.01541" lon="-7.24852">
        <ele>701</ele>
        <time>2016-07-14T05:24:59Z</time>
      </trkpt>
      <trkpt lat="43.01535" lon="-7.24862">
        <ele>700.7</ele>
        <time>2016-07-14T05:25:05Z</time>
      </trkpt>
      <trkpt lat="43.01527" lon="-7.24872">
        <ele>700.2</ele>
        <time>2016-07-14T05:25:11Z</time>
      </trkpt>
      <trkpt lat="43.0152" lon="-7.24882">
        <ele>699.9</ele>
        <time>2016-07-14T05:25:17Z</time>
      </trkpt>
      <trkpt lat="43.01514" lon="-7.24891">
        <ele>699.6</ele>
        <time>2016-07-14T05:25:23Z</time>
      </trkpt>
      <trkpt lat="43.01507" lon="-7.249">
        <ele>699.5</ele>
        <time>2016-07-14T05:25:29Z</time>
      </trkpt>
      <trkpt lat="43.01501" lon="-7.2491">
        <ele>699.4</ele>
        <time>2016-07-14T05:25:35Z</time>
      </trkpt>
      <trkpt lat="43.01493" lon="-7.2492">
        <ele>699.4</ele>
        <time>2016-07-14T05:25:42Z</time>
      </trkpt>
      <trkpt lat="43.01486" lon="-7.24929">
        <ele>699.4</ele>
        <time>2016-07-14T05:25:48Z</time>
      </trkpt>
      <trkpt lat="43.0148" lon="-7.24939">
        <ele>699.4</ele>
        <time>2016-07-14T05:25:54Z</time>
      </trkpt>
      <trkpt lat="43.01472" lon="-7.24949">
        <ele>699.3</ele>
        <time>2016-07-14T05:26:01Z</time>
      </trkpt>
      <trkpt lat="43.01468" lon="-7.2496">
        <ele>699</ele>
        <time>2016-07-14T05:26:07Z</time>
      </trkpt>
      <trkpt lat="43.01465" lon="-7.24972">
        <ele>698.6</ele>
        <time>2016-07-14T05:26:13Z</time>
      </trkpt>
      <trkpt lat="43.01461" lon="-7.24983">
        <ele>698.3</ele>
        <time>2016-07-14T05:26:20Z</time>
      </trkpt>
      <trkpt lat="43.01456" lon="-7.24996">
        <ele>698</ele>
        <time>2016-07-14T05:26:27Z</time>
      </trkpt>
      <trkpt lat="43.0145" lon="-7.25005">
        <ele>698</ele>
        <time>2016-07-14T05:26:34Z</time>
      </trkpt>
      <trkpt lat="43.01443" lon="-7.25016">
        <ele>698.4</ele>
        <time>2016-07-14T05:26:41Z</time>
      </trkpt>
      <trkpt lat="43.01436" lon="-7.25025">
        <ele>699.2</ele>
        <time>2016-07-14T05:26:49Z</time>
      </trkpt>
      <trkpt lat="43.01431" lon="-7.25036">
        <ele>699.7</ele>
        <time>2016-07-14T05:26:56Z</time>
      </trkpt>
      <trkpt lat="43.01425" lon="-7.25048">
        <ele>700.4</ele>
        <time>2016-07-14T05:27:03Z</time>
      </trkpt>
      <trkpt lat="43.01419" lon="-7.25059">
        <ele>701.5</ele>
        <time>2016-07-14T05:27:10Z</time>
      </trkpt>
      <trkpt lat="43.01413" lon="-7.2507">
        <ele>702.2</ele>
        <time>2016-07-14T05:27:17Z</time>
      </trkpt>
      <trkpt lat="43.01407" lon="-7.2508">
        <ele>702.8</ele>
        <time>2016-07-14T05:27:24Z</time>
      </trkpt>
      <trkpt lat="43.01401" lon="-7.25089">
        <ele>703.5</ele>
        <time>2016-07-14T05:27:30Z</time>
      </trkpt>
      <trkpt lat="43.01394" lon="-7.25099">
        <ele>704</ele>
        <time>2016-07-14T05:27:36Z</time>
      </trkpt>
      <trkpt lat="43.01387" lon="-7.25109">
        <ele>704.5</ele>
        <time>2016-07-14T05:27:43Z</time>
      </trkpt>
      <trkpt lat="43.01381" lon="-7.2512">
        <ele>705.2</ele>
        <time>2016-07-14T05:27:50Z</time>
      </trkpt>
      <trkpt lat="43.01377" lon="-7.25133">
        <ele>706</ele>
        <time>2016-07-14T05:27:57Z</time>
      </trkpt>
      <trkpt lat="43.01374" lon="-7.25146">
        <ele>707</ele>
        <time>2016-07-14T05:28:04Z</time>
      </trkpt>
      <trkpt lat="43.0137" lon="-7.25159">
        <ele>707.2</ele>
        <time>2016-07-14T05:28:11Z</time>
      </trkpt>
      <trkpt lat="43.01367" lon="-7.25173">
        <ele>707.8</ele>
        <time>2016-07-14T05:28:18Z</time>
      </trkpt>
      <trkpt lat="43.01363" lon="-7.25186">
        <ele>708.5</ele>
        <time>2016-07-14T05:28:25Z</time>
      </trkpt>
      <trkpt lat="43.01359" lon="-7.25198">
        <ele>709.1</ele>
        <time>2016-07-14T05:28:32Z</time>
      </trkpt>
      <trkpt lat="43.01356" lon="-7.25211">
        <ele>709.6</ele>
        <time>2016-07-14T05:28:39Z</time>
      </trkpt>
      <trkpt lat="43.01352" lon="-7.25224">
        <ele>710</ele>
        <time>2016-07-14T05:28:46Z</time>
      </trkpt>
      <trkpt lat="43.01348" lon="-7.25237">
        <ele>710.2</ele>
        <time>2016-07-14T05:28:53Z</time>
      </trkpt>
      <trkpt lat="43.01344" lon="-7.2525">
        <ele>710.8</ele>
        <time>2016-07-14T05:29:00Z</time>
      </trkpt>
      <trkpt lat="43.0134" lon="-7.25262">
        <ele>711.2</ele>
        <time>2016-07-14T05:29:07Z</time>
      </trkpt>
      <trkpt lat="43.01335" lon="-7.25275">
        <ele>711.6</ele>
        <time>2016-07-14T05:29:14Z</time>
      </trkpt>
      <trkpt lat="43.01331" lon="-7.25286">
        <ele>712.1</ele>
        <time>2016-07-14T05:29:20Z</time>
      </trkpt>
      <trkpt lat="43.01326" lon="-7.25299">
        <ele>712.5</ele>
        <time>2016-07-14T05:29:27Z</time>
      </trkpt>
      <trkpt lat="43.01321" lon="-7.25311">
        <ele>712.9</ele>
        <time>2016-07-14T05:29:34Z</time>
      </trkpt>
      <trkpt lat="43.01315" lon="-7.25322">
        <ele>713.2</ele>
        <time>2016-07-14T05:29:41Z</time>
      </trkpt>
      <trkpt lat="43.01309" lon="-7.25333">
        <ele>713.5</ele>
        <time>2016-07-14T05:29:48Z</time>
      </trkpt>
      <trkpt lat="43.01304" lon="-7.25344">
        <ele>713.8</ele>
        <time>2016-07-14T05:29:55Z</time>
      </trkpt>
      <trkpt lat="43.01297" lon="-7.25354">
        <ele>714</ele>
        <time>2016-07-14T05:30:02Z</time>
      </trkpt>
      <trkpt lat="43.01292" lon="-7.25363">
        <ele>714.1</ele>
        <time>2016-07-14T05:30:09Z</time>
      </trkpt>
      <trkpt lat="43.01286" lon="-7.25374">
        <ele>714.2</ele>
        <time>2016-07-14T05:30:16Z</time>
      </trkpt>
      <trkpt lat="43.0128" lon="-7.25385">
        <ele>714.9</ele>
        <time>2016-07-14T05:30:24Z</time>
      </trkpt>
      <trkpt lat="43.01274" lon="-7.25394">
        <ele>715.7</ele>
        <time>2016-07-14T05:30:31Z</time>
      </trkpt>
      <trkpt lat="43.01269" lon="-7.25405">
        <ele>716.8</ele>
        <time>2016-07-14T05:30:39Z</time>
      </trkpt>
      <trkpt lat="43.01264" lon="-7.25416">
        <ele>717.7</ele>
        <time>2016-07-14T05:30:47Z</time>
      </trkpt>
      <trkpt lat="43.01259" lon="-7.25427">
        <ele>718.9</ele>
        <time>2016-07-14T05:30:55Z</time>
      </trkpt>
      <trkpt lat="43.01253" lon="-7.25438">
        <ele>720.1</ele>
        <time>2016-07-14T05:31:03Z</time>
      </trkpt>
      <trkpt lat="43.01247" lon="-7.25448">
        <ele>721</ele>
        <time>2016-07-14T05:31:11Z</time>
      </trkpt>
      <trkpt lat="43.01241" lon="-7.25458">
        <ele>722.3</ele>
        <time>2016-07-14T05:31:19Z</time>
      </trkpt>
      <trkpt lat="43.01237" lon="-7.2547">
        <ele>724</ele>
        <time>2016-07-14T05:31:27Z</time>
      </trkpt>
      <trkpt lat="43.01236" lon="-7.25484">
        <ele>725.1</ele>
        <time>2016-07-14T05:31:35Z</time>
      </trkpt>
      <trkpt lat="43.01238" lon="-7.25497">
        <ele>726.3</ele>
        <time>2016-07-14T05:31:43Z</time>
      </trkpt>
      <trkpt lat="43.01242" lon="-7.25508">
        <ele>727.4</ele>
        <time>2016-07-14T05:31:51Z</time>
      </trkpt>
      <trkpt lat="43.01247" lon="-7.2552">
        <ele>728.1</ele>
        <time>2016-07-14T05:31:58Z</time>
      </trkpt>
      <trkpt lat="43.01251" lon="-7.25532">
        <ele>729.3</ele>
        <time>2016-07-14T05:32:06Z</time>
      </trkpt>
      <trkpt lat="43.01253" lon="-7.25544">
        <ele>729.9</ele>
        <time>2016-07-14T05:32:13Z</time>
      </trkpt>
      <trkpt lat="43.01255" lon="-7.25557">
        <ele>730.5</ele>
        <time>2016-07-14T05:32:21Z</time>
      </trkpt>
      <trkpt lat="43.01257" lon="-7.25569">
        <ele>731.2</ele>
        <time>2016-07-14T05:32:28Z</time>
      </trkpt>
      <trkpt lat="43.01259" lon="-7.25583">
        <ele>731.9</ele>
        <time>2016-07-14T05:32:36Z</time>
      </trkpt>
      <trkpt lat="43.01257" lon="-7.25595">
        <ele>732.3</ele>
        <time>2016-07-14T05:32:44Z</time>
      </trkpt>
      <trkpt lat="43.01256" lon="-7.25608">
        <ele>733.2</ele>
        <time>2016-07-14T05:32:52Z</time>
      </trkpt>
      <trkpt lat="43.01254" lon="-7.2562">
        <ele>734</ele>
        <time>2016-07-14T05:32:59Z</time>
      </trkpt>
      <trkpt lat="43.01253" lon="-7.25634">
        <ele>734.6</ele>
        <time>2016-07-14T05:33:07Z</time>
      </trkpt>
      <trkpt lat="43.0125" lon="-7.25646">
        <ele>735</ele>
        <time>2016-07-14T05:33:14Z</time>
      </trkpt>
      <trkpt lat="43.01248" lon="-7.25659">
        <ele>735.7</ele>
        <time>2016-07-14T05:33:22Z</time>
      </trkpt>
      <trkpt lat="43.01246" lon="-7.25671">
        <ele>736</ele>
        <time>2016-07-14T05:33:29Z</time>
      </trkpt>
      <trkpt lat="43.01244" lon="-7.25684">
        <ele>737.2</ele>
        <time>2016-07-14T05:33:36Z</time>
      </trkpt>
      <trkpt lat="43.01242" lon="-7.25696">
        <ele>738.2</ele>
        <time>2016-07-14T05:33:44Z</time>
      </trkpt>
      <trkpt lat="43.01243" lon="-7.25708">
        <ele>738.9</ele>
        <time>2016-07-14T05:33:51Z</time>
      </trkpt>
      <trkpt lat="43.01246" lon="-7.2572">
        <ele>739.3</ele>
        <time>2016-07-14T05:33:58Z</time>
      </trkpt>
      <trkpt lat="43.0125" lon="-7.25733">
        <ele>740.1</ele>
        <time>2016-07-14T05:34:07Z</time>
      </trkpt>
      <trkpt lat="43.01253" lon="-7.25744">
        <ele>740.6</ele>
        <time>2016-07-14T05:34:15Z</time>
      </trkpt>
      <trkpt lat="43.01255" lon="-7.25757">
        <ele>742</ele>
        <time>2016-07-14T05:34:25Z</time>
      </trkpt>
      <trkpt lat="43.01256" lon="-7.25771">
        <ele>743.6</ele>
        <time>2016-07-14T05:34:35Z</time>
      </trkpt>
      <trkpt lat="43.01256" lon="-7.25783">
        <ele>744.9</ele>
        <time>2016-07-14T05:34:47Z</time>
      </trkpt>
      <trkpt lat="43.01254" lon="-7.25796">
        <ele>747</ele>
        <time>2016-07-14T05:35:00Z</time>
      </trkpt>
      <trkpt lat="43.01251" lon="-7.25809">
        <ele>748.8</ele>
        <time>2016-07-14T05:35:09Z</time>
      </trkpt>
      <trkpt lat="43.01247" lon="-7.2582">
        <ele>750.5</ele>
        <time>2016-07-14T05:35:18Z</time>
      </trkpt>
      <trkpt lat="43.01244" lon="-7.25832">
        <ele>751.9</ele>
        <time>2016-07-14T05:35:27Z</time>
      </trkpt>
      <trkpt lat="43.01239" lon="-7.25843">
        <ele>753.2</ele>
        <time>2016-07-14T05:35:35Z</time>
      </trkpt>
      <trkpt lat="43.01235" lon="-7.25854">
        <ele>754.2</ele>
        <time>2016-07-14T05:35:44Z</time>
      </trkpt>
      <trkpt lat="43.01228" lon="-7.25865">
        <ele>755.9</ele>
        <time>2016-07-14T05:35:54Z</time>
      </trkpt>
      <trkpt lat="43.01223" lon="-7.25876">
        <ele>758.2</ele>
        <time>2016-07-14T05:36:06Z</time>
      </trkpt>
      <trkpt lat="43.01218" lon="-7.25887">
        <ele>760.6</ele>
        <time>2016-07-14T05:36:18Z</time>
      </trkpt>
      <trkpt lat="43.01216" lon="-7.25899">
        <ele>762.5</ele>
        <time>2016-07-14T05:36:28Z</time>
      </trkpt>
      <trkpt lat="43.01214" lon="-7.25913">
        <ele>764.2</ele>
        <time>2016-07-14T05:36:39Z</time>
      </trkpt>
      <trkpt lat="43.01216" lon="-7.25925">
        <ele>765.7</ele>
        <time>2016-07-14T05:36:48Z</time>
      </trkpt>
      <trkpt lat="43.01216" lon="-7.25938">
        <ele>767.2</ele>
        <time>2016-07-14T05:36:57Z</time>
      </trkpt>
      <trkpt lat="43.01218" lon="-7.2595">
        <ele>768.8</ele>
        <time>2016-07-14T05:37:05Z</time>
      </trkpt>
      <trkpt lat="43.01219" lon="-7.25963">
        <ele>770.8</ele>
        <time>2016-07-14T05:37:16Z</time>
      </trkpt>
      <trkpt lat="43.01221" lon="-7.25975">
        <ele>771.8</ele>
        <time>2016-07-14T05:37:24Z</time>
      </trkpt>
      <trkpt lat="43.01224" lon="-7.25989">
        <ele>773.3</ele>
        <time>2016-07-14T05:37:33Z</time>
      </trkpt>
      <trkpt lat="43.01228" lon="-7.26">
        <ele>774.4</ele>
        <time>2016-07-14T05:37:41Z</time>
      </trkpt>
      <trkpt lat="43.0123" lon="-7.26012">
        <ele>775.3</ele>
        <time>2016-07-14T05:37:49Z</time>
      </trkpt>
      <trkpt lat="43.01232" lon="-7.26025">
        <ele>776.1</ele>
        <time>2016-07-14T05:37:57Z</time>
      </trkpt>
      <trkpt lat="43.01232" lon="-7.26037">
        <ele>776.9</ele>
        <time>2016-07-14T05:38:05Z</time>
      </trkpt>
      <trkpt lat="43.01232" lon="-7.26051">
        <ele>778.3</ele>
        <time>2016-07-14T05:38:14Z</time>
      </trkpt>
      <trkpt lat="43.01229" lon="-7.26063">
        <ele>779.4</ele>
        <time>2016-07-14T05:38:23Z</time>
      </trkpt>
      <trkpt lat="43.01226" lon="-7.26075">
        <ele>779.9</ele>
        <time>2016-07-14T05:38:31Z</time>
      </trkpt>
      <trkpt lat="43.01222" lon="-7.26087">
        <ele>780.5</ele>
        <time>2016-07-14T05:38:39Z</time>
      </trkpt>
      <trkpt lat="43.01215" lon="-7.26097">
        <ele>781.5</ele>
        <time>2016-07-14T05:38:47Z</time>
      </trkpt>
      <trkpt lat="43.01212" lon="-7.26108">
        <ele>782.7</ele>
        <time>2016-07-14T05:38:56Z</time>
      </trkpt>
      <trkpt lat="43.01209" lon="-7.2612">
        <ele>783.9</ele>
        <time>2016-07-14T05:39:06Z</time>
      </trkpt>
      <trkpt lat="43.01206" lon="-7.26132">
        <ele>785.1</ele>
        <time>2016-07-14T05:39:14Z</time>
      </trkpt>
      <trkpt lat="43.01203" lon="-7.26145">
        <ele>786.2</ele>
        <time>2016-07-14T05:39:22Z</time>
      </trkpt>
      <trkpt lat="43.012" lon="-7.26158">
        <ele>787.6</ele>
        <time>2016-07-14T05:39:30Z</time>
      </trkpt>
      <trkpt lat="43.01196" lon="-7.26169">
        <ele>789.2</ele>
        <time>2016-07-14T05:39:38Z</time>
      </trkpt>
      <trkpt lat="43.01195" lon="-7.26182">
        <ele>790.2</ele>
        <time>2016-07-14T05:39:46Z</time>
      </trkpt>
      <trkpt lat="43.01193" lon="-7.26196">
        <ele>791.7</ele>
        <time>2016-07-14T05:39:54Z</time>
      </trkpt>
      <trkpt lat="43.01193" lon="-7.2621">
        <ele>792.9</ele>
        <time>2016-07-14T05:40:02Z</time>
      </trkpt>
      <trkpt lat="43.01191" lon="-7.26222">
        <ele>794.5</ele>
        <time>2016-07-14T05:40:12Z</time>
      </trkpt>
      <trkpt lat="43.0119" lon="-7.26235">
        <ele>795.9</ele>
        <time>2016-07-14T05:40:21Z</time>
      </trkpt>
      <trkpt lat="43.01187" lon="-7.26247">
        <ele>797.8</ele>
        <time>2016-07-14T05:40:32Z</time>
      </trkpt>
      <trkpt lat="43.01183" lon="-7.26258">
        <ele>799.5</ele>
        <time>2016-07-14T05:40:42Z</time>
      </trkpt>
      <trkpt lat="43.0118" lon="-7.26271">
        <ele>801.7</ele>
        <time>2016-07-14T05:40:54Z</time>
      </trkpt>
      <trkpt lat="43.01177" lon="-7.26284">
        <ele>803.5</ele>
        <time>2016-07-14T05:41:04Z</time>
      </trkpt>
      <trkpt lat="43.01175" lon="-7.26297">
        <ele>805.1</ele>
        <time>2016-07-14T05:41:13Z</time>
      </trkpt>
      <trkpt lat="43.01171" lon="-7.26309">
        <ele>806.7</ele>
        <time>2016-07-14T05:41:21Z</time>
      </trkpt>
      <trkpt lat="43.01169" lon="-7.26322">
        <ele>808.4</ele>
        <time>2016-07-14T05:41:31Z</time>
      </trkpt>
      <trkpt lat="43.01166" lon="-7.26334">
        <ele>810.1</ele>
        <time>2016-07-14T05:41:40Z</time>
      </trkpt>
      <trkpt lat="43.01162" lon="-7.26345">
        <ele>811.8</ele>
        <time>2016-07-14T05:41:49Z</time>
      </trkpt>
      <trkpt lat="43.01159" lon="-7.26357">
        <ele>813.6</ele>
        <time>2016-07-14T05:41:58Z</time>
      </trkpt>
      <trkpt lat="43.01156" lon="-7.26369">
        <ele>816.7</ele>
        <time>2016-07-14T05:42:18Z</time>
      </trkpt>
      <trkpt lat="43.01153" lon="-7.26382">
        <ele>818</ele>
        <time>2016-07-14T05:42:28Z</time>
      </trkpt>
      <trkpt lat="43.01154" lon="-7.26395">
        <ele>818.9</ele>
        <time>2016-07-14T05:42:37Z</time>
      </trkpt>
      <trkpt lat="43.01157" lon="-7.26408">
        <ele>820.2</ele>
        <time>2016-07-14T05:42:46Z</time>
      </trkpt>
      <trkpt lat="43.01161" lon="-7.2642">
        <ele>822.2</ele>
        <time>2016-07-14T05:42:56Z</time>
      </trkpt>
      <trkpt lat="43.01166" lon="-7.2643">
        <ele>823.5</ele>
        <time>2016-07-14T05:43:05Z</time>
      </trkpt>
      <trkpt lat="43.01172" lon="-7.26441">
        <ele>824.4</ele>
        <time>2016-07-14T05:43:13Z</time>
      </trkpt>
      <trkpt lat="43.01178" lon="-7.26451">
        <ele>825.3</ele>
        <time>2016-07-14T05:43:22Z</time>
      </trkpt>
      <trkpt lat="43.01184" lon="-7.26461">
        <ele>826.6</ele>
        <time>2016-07-14T05:43:29Z</time>
      </trkpt>
      <trkpt lat="43.01191" lon="-7.26471">
        <ele>827.7</ele>
        <time>2016-07-14T05:43:37Z</time>
      </trkpt>
      <trkpt lat="43.01199" lon="-7.26479">
        <ele>828.6</ele>
        <time>2016-07-14T05:43:45Z</time>
      </trkpt>
      <trkpt lat="43.01206" lon="-7.26488">
        <ele>829.3</ele>
        <time>2016-07-14T05:43:52Z</time>
      </trkpt>
      <trkpt lat="43.01213" lon="-7.26496">
        <ele>830</ele>
        <time>2016-07-14T05:44:00Z</time>
      </trkpt>
      <trkpt lat="43.01221" lon="-7.26504">
        <ele>830.4</ele>
        <time>2016-07-14T05:44:07Z</time>
      </trkpt>
      <trkpt lat="43.01228" lon="-7.26512">
        <ele>830.6</ele>
        <time>2016-07-14T05:44:15Z</time>
      </trkpt>
      <trkpt lat="43.01236" lon="-7.26519">
        <ele>830.9</ele>
        <time>2016-07-14T05:44:22Z</time>
      </trkpt>
      <trkpt lat="43.01244" lon="-7.26527">
        <ele>831</ele>
        <time>2016-07-14T05:44:30Z</time>
      </trkpt>
      <trkpt lat="43.01252" lon="-7.26535">
        <ele>831</ele>
        <time>2016-07-14T05:44:37Z</time>
      </trkpt>
      <trkpt lat="43.0126" lon="-7.26544">
        <ele>831.3</ele>
        <time>2016-07-14T05:44:45Z</time>
      </trkpt>
      <trkpt lat="43.01267" lon="-7.26553">
        <ele>831.6</ele>
        <time>2016-07-14T05:44:54Z</time>
      </trkpt>
      <trkpt lat="43.01274" lon="-7.26561">
        <ele>831.8</ele>
        <time>2016-07-14T05:45:02Z</time>
      </trkpt>
      <trkpt lat="43.01281" lon="-7.26568">
        <ele>832.2</ele>
        <time>2016-07-14T05:45:09Z</time>
      </trkpt>
      <trkpt lat="43.01288" lon="-7.26577">
        <ele>832.7</ele>
        <time>2016-07-14T05:45:16Z</time>
      </trkpt>
      <trkpt lat="43.01294" lon="-7.26587">
        <ele>833.3</ele>
        <time>2016-07-14T05:45:23Z</time>
      </trkpt>
      <trkpt lat="43.01299" lon="-7.26598">
        <ele>832.9</ele>
        <time>2016-07-14T05:45:30Z</time>
      </trkpt>
      <trkpt lat="43.01305" lon="-7.26609">
        <ele>834.1</ele>
        <time>2016-07-14T05:45:38Z</time>
      </trkpt>
      <trkpt lat="43.01311" lon="-7.26619">
        <ele>834.7</ele>
        <time>2016-07-14T05:45:46Z</time>
      </trkpt>
      <trkpt lat="43.01316" lon="-7.26631">
        <ele>835.5</ele>
        <time>2016-07-14T05:45:56Z</time>
      </trkpt>
      <trkpt lat="43.0132" lon="-7.26643">
        <ele>836</ele>
        <time>2016-07-14T05:46:04Z</time>
      </trkpt>
      <trkpt lat="43.01324" lon="-7.26656">
        <ele>836.8</ele>
        <time>2016-07-14T05:46:12Z</time>
      </trkpt>
      <trkpt lat="43.01329" lon="-7.26668">
        <ele>837.6</ele>
        <time>2016-07-14T05:46:20Z</time>
      </trkpt>
      <trkpt lat="43.01333" lon="-7.26681">
        <ele>838.4</ele>
        <time>2016-07-14T05:46:28Z</time>
      </trkpt>
      <trkpt lat="43.01337" lon="-7.26694">
        <ele>839.2</ele>
        <time>2016-07-14T05:46:36Z</time>
      </trkpt>
      <trkpt lat="43.01342" lon="-7.26706">
        <ele>840.4</ele>
        <time>2016-07-14T05:46:44Z</time>
      </trkpt>
      <trkpt lat="43.01346" lon="-7.26717">
        <ele>841.1</ele>
        <time>2016-07-14T05:46:51Z</time>
      </trkpt>
      <trkpt lat="43.01354" lon="-7.26725">
        <ele>841.4</ele>
        <time>2016-07-14T05:46:58Z</time>
      </trkpt>
      <trkpt lat="43.0136" lon="-7.26735">
        <ele>841.7</ele>
        <time>2016-07-14T05:47:06Z</time>
      </trkpt>
      <trkpt lat="43.01368" lon="-7.26741">
        <ele>842.3</ele>
        <time>2016-07-14T05:47:13Z</time>
      </trkpt>
      <trkpt lat="43.01375" lon="-7.2675">
        <ele>842.7</ele>
        <time>2016-07-14T05:47:20Z</time>
      </trkpt>
      <trkpt lat="43.01383" lon="-7.26757">
        <ele>843.3</ele>
        <time>2016-07-14T05:47:27Z</time>
      </trkpt>
      <trkpt lat="43.01392" lon="-7.2676">
        <ele>844.1</ele>
        <time>2016-07-14T05:47:34Z</time>
      </trkpt>
      <trkpt lat="43.01401" lon="-7.26765">
        <ele>846</ele>
        <time>2016-07-14T05:48:43Z</time>
      </trkpt>
      <trkpt lat="43.01409" lon="-7.26772">
        <ele>846.5</ele>
        <time>2016-07-14T05:48:50Z</time>
      </trkpt>
      <trkpt lat="43.01417" lon="-7.26779">
        <ele>846.9</ele>
        <time>2016-07-14T05:48:57Z</time>
      </trkpt>
      <trkpt lat="43.01425" lon="-7.26788">
        <ele>847.1</ele>
        <time>2016-07-14T05:49:04Z</time>
      </trkpt>
      <trkpt lat="43.0143" lon="-7.26799">
        <ele>847.3</ele>
        <time>2016-07-14T05:49:11Z</time>
      </trkpt>
      <trkpt lat="43.01437" lon="-7.26809">
        <ele>847.4</ele>
        <time>2016-07-14T05:49:18Z</time>
      </trkpt>
      <trkpt lat="43.01445" lon="-7.26818">
        <ele>847.5</ele>
        <time>2016-07-14T05:49:26Z</time>
      </trkpt>
      <trkpt lat="43.01452" lon="-7.26828">
        <ele>848.4</ele>
        <time>2016-07-14T05:49:34Z</time>
      </trkpt>
      <trkpt lat="43.01458" lon="-7.26838">
        <ele>849.3</ele>
        <time>2016-07-14T05:49:42Z</time>
      </trkpt>
      <trkpt lat="43.01465" lon="-7.26848">
        <ele>850</ele>
        <time>2016-07-14T05:49:50Z</time>
      </trkpt>
      <trkpt lat="43.01473" lon="-7.26857">
        <ele>850.7</ele>
        <time>2016-07-14T05:49:57Z</time>
      </trkpt>
      <trkpt lat="43.0148" lon="-7.26864">
        <ele>851</ele>
        <time>2016-07-14T05:50:04Z</time>
      </trkpt>
      <trkpt lat="43.01488" lon="-7.26872">
        <ele>851.1</ele>
        <time>2016-07-14T05:50:11Z</time>
      </trkpt>
      <trkpt lat="43.01495" lon="-7.2688">
        <ele>851.3</ele>
        <time>2016-07-14T05:50:18Z</time>
      </trkpt>
      <trkpt lat="43.01504" lon="-7.26888">
        <ele>852</ele>
        <time>2016-07-14T05:50:26Z</time>
      </trkpt>
      <trkpt lat="43.01511" lon="-7.26895">
        <ele>852</ele>
        <time>2016-07-14T05:50:33Z</time>
      </trkpt>
      <trkpt lat="43.01518" lon="-7.26904">
        <ele>852.1</ele>
        <time>2016-07-14T05:50:40Z</time>
      </trkpt>
      <trkpt lat="43.01525" lon="-7.26914">
        <ele>852.4</ele>
        <time>2016-07-14T05:50:47Z</time>
      </trkpt>
      <trkpt lat="43.01532" lon="-7.26923">
        <ele>853.2</ele>
        <time>2016-07-14T05:50:54Z</time>
      </trkpt>
      <trkpt lat="43.0154" lon="-7.26932">
        <ele>853.8</ele>
        <time>2016-07-14T05:51:01Z</time>
      </trkpt>
      <trkpt lat="43.01547" lon="-7.2694">
        <ele>854.4</ele>
        <time>2016-07-14T05:51:08Z</time>
      </trkpt>
      <trkpt lat="43.01555" lon="-7.26947">
        <ele>855.1</ele>
        <time>2016-07-14T05:51:15Z</time>
      </trkpt>
      <trkpt lat="43.01564" lon="-7.26956">
        <ele>855.8</ele>
        <time>2016-07-14T05:51:23Z</time>
      </trkpt>
      <trkpt lat="43.01571" lon="-7.26965">
        <ele>856.2</ele>
        <time>2016-07-14T05:51:30Z</time>
      </trkpt>
      <trkpt lat="43.01579" lon="-7.26973">
        <ele>856.8</ele>
        <time>2016-07-14T05:51:37Z</time>
      </trkpt>
      <trkpt lat="43.01586" lon="-7.2698">
        <ele>857.7</ele>
        <time>2016-07-14T05:51:44Z</time>
      </trkpt>
      <trkpt lat="43.01594" lon="-7.26988">
        <ele>858.3</ele>
        <time>2016-07-14T05:51:50Z</time>
      </trkpt>
      <trkpt lat="43.01603" lon="-7.26993">
        <ele>858.9</ele>
        <time>2016-07-14T05:51:57Z</time>
      </trkpt>
      <trkpt lat="43.01612" lon="-7.26998">
        <ele>859.4</ele>
        <time>2016-07-14T05:52:04Z</time>
      </trkpt>
      <trkpt lat="43.0162" lon="-7.27005">
        <ele>859.8</ele>
        <time>2016-07-14T05:52:11Z</time>
      </trkpt>
      <trkpt lat="43.01628" lon="-7.27012">
        <ele>860</ele>
        <time>2016-07-14T05:52:18Z</time>
      </trkpt>
      <trkpt lat="43.01636" lon="-7.27019">
        <ele>860.2</ele>
        <time>2016-07-14T05:52:24Z</time>
      </trkpt>
      <trkpt lat="43.01645" lon="-7.27025">
        <ele>860.3</ele>
        <time>2016-07-14T05:52:30Z</time>
      </trkpt>
      <trkpt lat="43.01654" lon="-7.27031">
        <ele>860.3</ele>
        <time>2016-07-14T05:52:36Z</time>
      </trkpt>
      <trkpt lat="43.01663" lon="-7.27036">
        <ele>860.3</ele>
        <time>2016-07-14T05:52:42Z</time>
      </trkpt>
      <trkpt lat="43.01672" lon="-7.2704">
        <ele>859.9</ele>
        <time>2016-07-14T05:52:48Z</time>
      </trkpt>
      <trkpt lat="43.01682" lon="-7.27043">
        <ele>859.6</ele>
        <time>2016-07-14T05:52:55Z</time>
      </trkpt>
      <trkpt lat="43.01691" lon="-7.27045">
        <ele>859.4</ele>
        <time>2016-07-14T05:53:02Z</time>
      </trkpt>
      <trkpt lat="43.017" lon="-7.27047">
        <ele>858.8</ele>
        <time>2016-07-14T05:53:08Z</time>
      </trkpt>
      <trkpt lat="43.0171" lon="-7.2705">
        <ele>858.3</ele>
        <time>2016-07-14T05:53:15Z</time>
      </trkpt>
      <trkpt lat="43.01719" lon="-7.27052">
        <ele>858.1</ele>
        <time>2016-07-14T05:53:21Z</time>
      </trkpt>
      <trkpt lat="43.01728" lon="-7.27053">
        <ele>857.8</ele>
        <time>2016-07-14T05:53:27Z</time>
      </trkpt>
      <trkpt lat="43.01738" lon="-7.27055">
        <ele>857.5</ele>
        <time>2016-07-14T05:53:34Z</time>
      </trkpt>
      <trkpt lat="43.01748" lon="-7.27058">
        <ele>857.2</ele>
        <time>2016-07-14T05:53:41Z</time>
      </trkpt>
      <trkpt lat="43.01757" lon="-7.27061">
        <ele>856.7</ele>
        <time>2016-07-14T05:53:48Z</time>
      </trkpt>
      <trkpt lat="43.01766" lon="-7.27065">
        <ele>856.6</ele>
        <time>2016-07-14T05:53:54Z</time>
      </trkpt>
      <trkpt lat="43.01776" lon="-7.27069">
        <ele>856.4</ele>
        <time>2016-07-14T05:54:01Z</time>
      </trkpt>
      <trkpt lat="43.01785" lon="-7.27074">
        <ele>856.1</ele>
        <time>2016-07-14T05:54:08Z</time>
      </trkpt>
      <trkpt lat="43.01794" lon="-7.27079">
        <ele>855.9</ele>
        <time>2016-07-14T05:54:14Z</time>
      </trkpt>
      <trkpt lat="43.01802" lon="-7.27085">
        <ele>855.8</ele>
        <time>2016-07-14T05:54:21Z</time>
      </trkpt>
      <trkpt lat="43.01811" lon="-7.27089">
        <ele>855.6</ele>
        <time>2016-07-14T05:54:27Z</time>
      </trkpt>
      <trkpt lat="43.0182" lon="-7.27093">
        <ele>855.7</ele>
        <time>2016-07-14T05:54:33Z</time>
      </trkpt>
      <trkpt lat="43.01829" lon="-7.27096">
        <ele>855.7</ele>
        <time>2016-07-14T05:54:39Z</time>
      </trkpt>
      <trkpt lat="43.01839" lon="-7.27099">
        <ele>855.6</ele>
        <time>2016-07-14T05:54:45Z</time>
      </trkpt>
      <trkpt lat="43.01848" lon="-7.27104">
        <ele>855.6</ele>
        <time>2016-07-14T05:54:51Z</time>
      </trkpt>
      <trkpt lat="43.01856" lon="-7.27111">
        <ele>855.5</ele>
        <time>2016-07-14T05:54:57Z</time>
      </trkpt>
      <trkpt lat="43.01864" lon="-7.27119">
        <ele>855.4</ele>
        <time>2016-07-14T05:55:04Z</time>
      </trkpt>
      <trkpt lat="43.01871" lon="-7.27126">
        <ele>855.4</ele>
        <time>2016-07-14T05:55:11Z</time>
      </trkpt>
      <trkpt lat="43.01879" lon="-7.27135">
        <ele>855.6</ele>
        <time>2016-07-14T05:55:18Z</time>
      </trkpt>
      <trkpt lat="43.01885" lon="-7.27145">
        <ele>855.5</ele>
        <time>2016-07-14T05:55:24Z</time>
      </trkpt>
      <trkpt lat="43.01893" lon="-7.27153">
        <ele>855.4</ele>
        <time>2016-07-14T05:55:30Z</time>
      </trkpt>
      <trkpt lat="43.019" lon="-7.27163">
        <ele>856.1</ele>
        <time>2016-07-14T05:55:37Z</time>
      </trkpt>
      <trkpt lat="43.01907" lon="-7.27172">
        <ele>856.6</ele>
        <time>2016-07-14T05:55:44Z</time>
      </trkpt>
      <trkpt lat="43.01914" lon="-7.27182">
        <ele>857.5</ele>
        <time>2016-07-14T05:55:51Z</time>
      </trkpt>
      <trkpt lat="43.01921" lon="-7.27192">
        <ele>858</ele>
        <time>2016-07-14T05:55:58Z</time>
      </trkpt>
      <trkpt lat="43.01928" lon="-7.27201">
        <ele>858.4</ele>
        <time>2016-07-14T05:56:05Z</time>
      </trkpt>
      <trkpt lat="43.01935" lon="-7.2721">
        <ele>858.7</ele>
        <time>2016-07-14T05:56:13Z</time>
      </trkpt>
      <trkpt lat="43.01943" lon="-7.2722">
        <ele>858.9</ele>
        <time>2016-07-14T05:56:20Z</time>
      </trkpt>
      <trkpt lat="43.01949" lon="-7.27229">
        <ele>859.3</ele>
        <time>2016-07-14T05:56:26Z</time>
      </trkpt>
      <trkpt lat="43.01956" lon="-7.27238">
        <ele>859.6</ele>
        <time>2016-07-14T05:56:33Z</time>
      </trkpt>
      <trkpt lat="43.01963" lon="-7.27247">
        <ele>860.1</ele>
        <time>2016-07-14T05:56:39Z</time>
      </trkpt>
      <trkpt lat="43.01969" lon="-7.27258">
        <ele>860.4</ele>
        <time>2016-07-14T05:56:46Z</time>
      </trkpt>
      <trkpt lat="43.01975" lon="-7.27269">
        <ele>860.7</ele>
        <time>2016-07-14T05:56:53Z</time>
      </trkpt>
      <trkpt lat="43.01981" lon="-7.27279">
        <ele>861</ele>
        <time>2016-07-14T05:57:00Z</time>
      </trkpt>
      <trkpt lat="43.01987" lon="-7.27289">
        <ele>861.3</ele>
        <time>2016-07-14T05:57:07Z</time>
      </trkpt>
      <trkpt lat="43.01995" lon="-7.27298">
        <ele>862.2</ele>
        <time>2016-07-14T05:57:15Z</time>
      </trkpt>
      <trkpt lat="43.02002" lon="-7.27306">
        <ele>862.6</ele>
        <time>2016-07-14T05:57:22Z</time>
      </trkpt>
      <trkpt lat="43.02009" lon="-7.27314">
        <ele>862.9</ele>
        <time>2016-07-14T05:57:29Z</time>
      </trkpt>
      <trkpt lat="43.02016" lon="-7.27324">
        <ele>863.1</ele>
        <time>2016-07-14T05:57:36Z</time>
      </trkpt>
      <trkpt lat="43.02023" lon="-7.27334">
        <ele>863.5</ele>
        <time>2016-07-14T05:57:43Z</time>
      </trkpt>
      <trkpt lat="43.02029" lon="-7.27345">
        <ele>863.9</ele>
        <time>2016-07-14T05:57:50Z</time>
      </trkpt>
      <trkpt lat="43.02035" lon="-7.27356">
        <ele>864.3</ele>
        <time>2016-07-14T05:57:57Z</time>
      </trkpt>
      <trkpt lat="43.0204" lon="-7.27367">
        <ele>864.8</ele>
        <time>2016-07-14T05:58:04Z</time>
      </trkpt>
      <trkpt lat="43.02046" lon="-7.27377">
        <ele>865.3</ele>
        <time>2016-07-14T05:58:11Z</time>
      </trkpt>
      <trkpt lat="43.02053" lon="-7.27387">
        <ele>865.4</ele>
        <time>2016-07-14T05:58:18Z</time>
      </trkpt>
      <trkpt lat="43.02059" lon="-7.27397">
        <ele>865.7</ele>
        <time>2016-07-14T05:58:25Z</time>
      </trkpt>
      <trkpt lat="43.02066" lon="-7.27407">
        <ele>866.1</ele>
        <time>2016-07-14T05:58:32Z</time>
      </trkpt>
      <trkpt lat="43.02073" lon="-7.27417">
        <ele>866.5</ele>
        <time>2016-07-14T05:58:39Z</time>
      </trkpt>
      <trkpt lat="43.0208" lon="-7.27426">
        <ele>866.8</ele>
        <time>2016-07-14T05:58:46Z</time>
      </trkpt>
      <trkpt lat="43.02087" lon="-7.27435">
        <ele>866.7</ele>
        <time>2016-07-14T05:58:53Z</time>
      </trkpt>
      <trkpt lat="43.02094" lon="-7.27444">
        <ele>867.8</ele>
        <time>2016-07-14T05:59:00Z</time>
      </trkpt>
      <trkpt lat="43.02102" lon="-7.27453">
        <ele>868.1</ele>
        <time>2016-07-14T05:59:07Z</time>
      </trkpt>
      <trkpt lat="43.02109" lon="-7.27462">
        <ele>868.5</ele>
        <time>2016-07-14T05:59:14Z</time>
      </trkpt>
      <trkpt lat="43.02116" lon="-7.27471">
        <ele>869.1</ele>
        <time>2016-07-14T05:59:21Z</time>
      </trkpt>
      <trkpt lat="43.02123" lon="-7.2748">
        <ele>869.6</ele>
        <time>2016-07-14T05:59:28Z</time>
      </trkpt>
      <trkpt lat="43.0213" lon="-7.27489">
        <ele>870</ele>
        <time>2016-07-14T05:59:35Z</time>
      </trkpt>
      <trkpt lat="43.02136" lon="-7.27501">
        <ele>870.5</ele>
        <time>2016-07-14T05:59:43Z</time>
      </trkpt>
      <trkpt lat="43.02142" lon="-7.27512">
        <ele>870.9</ele>
        <time>2016-07-14T05:59:51Z</time>
      </trkpt>
      <trkpt lat="43.02148" lon="-7.27523">
        <ele>871.1</ele>
        <time>2016-07-14T05:59:58Z</time>
      </trkpt>
      <trkpt lat="43.02154" lon="-7.27532">
        <ele>871.6</ele>
        <time>2016-07-14T06:00:05Z</time>
      </trkpt>
      <trkpt lat="43.02159" lon="-7.27543">
        <ele>872.1</ele>
        <time>2016-07-14T06:00:11Z</time>
      </trkpt>
      <trkpt lat="43.02164" lon="-7.27555">
        <ele>872.5</ele>
        <time>2016-07-14T06:00:18Z</time>
      </trkpt>
      <trkpt lat="43.02169" lon="-7.27566">
        <ele>872.5</ele>
        <time>2016-07-14T06:00:24Z</time>
      </trkpt>
      <trkpt lat="43.02173" lon="-7.27579">
        <ele>872.3</ele>
        <time>2016-07-14T06:00:31Z</time>
      </trkpt>
      <trkpt lat="43.02178" lon="-7.27592">
        <ele>872.4</ele>
        <time>2016-07-14T06:00:38Z</time>
      </trkpt>
      <trkpt lat="43.02182" lon="-7.27605">
        <ele>872.5</ele>
        <time>2016-07-14T06:00:45Z</time>
      </trkpt>
      <trkpt lat="43.02187" lon="-7.27618">
        <ele>872.5</ele>
        <time>2016-07-14T06:00:52Z</time>
      </trkpt>
      <trkpt lat="43.02191" lon="-7.27629">
        <ele>872.8</ele>
        <time>2016-07-14T06:00:58Z</time>
      </trkpt>
      <trkpt lat="43.02197" lon="-7.2764">
        <ele>873.1</ele>
        <time>2016-07-14T06:01:05Z</time>
      </trkpt>
      <trkpt lat="43.02204" lon="-7.2765">
        <ele>873.3</ele>
        <time>2016-07-14T06:01:12Z</time>
      </trkpt>
      <trkpt lat="43.0221" lon="-7.2766">
        <ele>873.6</ele>
        <time>2016-07-14T06:01:19Z</time>
      </trkpt>
      <trkpt lat="43.02217" lon="-7.2767">
        <ele>874</ele>
        <time>2016-07-14T06:01:26Z</time>
      </trkpt>
      <trkpt lat="43.02223" lon="-7.27681">
        <ele>874.3</ele>
        <time>2016-07-14T06:01:33Z</time>
      </trkpt>
      <trkpt lat="43.02228" lon="-7.27691">
        <ele>874.7</ele>
        <time>2016-07-14T06:01:40Z</time>
      </trkpt>
      <trkpt lat="43.02233" lon="-7.27703">
        <ele>874.8</ele>
        <time>2016-07-14T06:01:47Z</time>
      </trkpt>
      <trkpt lat="43.02239" lon="-7.27713">
        <ele>874.8</ele>
        <time>2016-07-14T06:01:54Z</time>
      </trkpt>
      <trkpt lat="43.02244" lon="-7.27725">
        <ele>874.8</ele>
        <time>2016-07-14T06:02:01Z</time>
      </trkpt>
      <trkpt lat="43.0225" lon="-7.27736">
        <ele>874.8</ele>
        <time>2016-07-14T06:02:08Z</time>
      </trkpt>
      <trkpt lat="43.02255" lon="-7.27747">
        <ele>874.7</ele>
        <time>2016-07-14T06:02:14Z</time>
      </trkpt>
      <trkpt lat="43.02261" lon="-7.27759">
        <ele>874.7</ele>
        <time>2016-07-14T06:02:20Z</time>
      </trkpt>
      <trkpt lat="43.02267" lon="-7.27768">
        <ele>874.7</ele>
        <time>2016-07-14T06:02:26Z</time>
      </trkpt>
      <trkpt lat="43.02275" lon="-7.27776">
        <ele>874.9</ele>
        <time>2016-07-14T06:02:33Z</time>
      </trkpt>
      <trkpt lat="43.02283" lon="-7.27785">
        <ele>874.9</ele>
        <time>2016-07-14T06:02:40Z</time>
      </trkpt>
      <trkpt lat="43.0229" lon="-7.27793">
        <ele>875.3</ele>
        <time>2016-07-14T06:02:47Z</time>
      </trkpt>
      <trkpt lat="43.02297" lon="-7.278">
        <ele>875.3</ele>
        <time>2016-07-14T06:02:54Z</time>
      </trkpt>
      <trkpt lat="43.02306" lon="-7.27808">
        <ele>875.2</ele>
        <time>2016-07-14T06:03:01Z</time>
      </trkpt>
      <trkpt lat="43.02313" lon="-7.27817">
        <ele>875.1</ele>
        <time>2016-07-14T06:03:07Z</time>
      </trkpt>
      <trkpt lat="43.0232" lon="-7.27826">
        <ele>875.1</ele>
        <time>2016-07-14T06:03:13Z</time>
      </trkpt>
      <trkpt lat="43.02328" lon="-7.27835">
        <ele>875.1</ele>
        <time>2016-07-14T06:03:20Z</time>
      </trkpt>
      <trkpt lat="43.02335" lon="-7.27844">
        <ele>875.4</ele>
        <time>2016-07-14T06:03:26Z</time>
      </trkpt>
      <trkpt lat="43.02342" lon="-7.27852">
        <ele>875.1</ele>
        <time>2016-07-14T06:03:32Z</time>
      </trkpt>
      <trkpt lat="43.0235" lon="-7.27861">
        <ele>874.9</ele>
        <time>2016-07-14T06:03:39Z</time>
      </trkpt>
      <trkpt lat="43.02357" lon="-7.2787">
        <ele>874.8</ele>
        <time>2016-07-14T06:03:45Z</time>
      </trkpt>
      <trkpt lat="43.02364" lon="-7.27878">
        <ele>875.1</ele>
        <time>2016-07-14T06:03:52Z</time>
      </trkpt>
      <trkpt lat="43.02372" lon="-7.27886">
        <ele>875.6</ele>
        <time>2016-07-14T06:03:59Z</time>
      </trkpt>
      <trkpt lat="43.0238" lon="-7.27894">
        <ele>875.9</ele>
        <time>2016-07-14T06:04:05Z</time>
      </trkpt>
      <trkpt lat="43.02387" lon="-7.27902">
        <ele>876.2</ele>
        <time>2016-07-14T06:04:12Z</time>
      </trkpt>
      <trkpt lat="43.02394" lon="-7.27911">
        <ele>876.5</ele>
        <time>2016-07-14T06:04:19Z</time>
      </trkpt>
      <trkpt lat="43.02402" lon="-7.27921">
        <ele>876.9</ele>
        <time>2016-07-14T06:04:27Z</time>
      </trkpt>
      <trkpt lat="43.02408" lon="-7.27932">
        <ele>877.3</ele>
        <time>2016-07-14T06:04:34Z</time>
      </trkpt>
      <trkpt lat="43.02413" lon="-7.27944">
        <ele>877.5</ele>
        <time>2016-07-14T06:04:41Z</time>
      </trkpt>
      <trkpt lat="43.02418" lon="-7.27955">
        <ele>877.4</ele>
        <time>2016-07-14T06:04:48Z</time>
      </trkpt>
      <trkpt lat="43.02422" lon="-7.27966">
        <ele>877.3</ele>
        <time>2016-07-14T06:04:56Z</time>
      </trkpt>
      <trkpt lat="43.02421" lon="-7.27979">
        <ele>877.2</ele>
        <time>2016-07-14T06:05:27Z</time>
      </trkpt>
      <trkpt lat="43.02427" lon="-7.27989">
        <ele>877.6</ele>
        <time>2016-07-14T06:05:40Z</time>
      </trkpt>
      <trkpt lat="43.02431" lon="-7.28001">
        <ele>877.8</ele>
        <time>2016-07-14T06:05:48Z</time>
      </trkpt>
      <trkpt lat="43.02434" lon="-7.28013">
        <ele>877.7</ele>
        <time>2016-07-14T06:05:55Z</time>
      </trkpt>
      <trkpt lat="43.02439" lon="-7.28024">
        <ele>877.6</ele>
        <time>2016-07-14T06:06:03Z</time>
      </trkpt>
      <trkpt lat="43.02445" lon="-7.28035">
        <ele>877.5</ele>
        <time>2016-07-14T06:06:10Z</time>
      </trkpt>
      <trkpt lat="43.02451" lon="-7.28046">
        <ele>877.5</ele>
        <time>2016-07-14T06:06:17Z</time>
      </trkpt>
      <trkpt lat="43.02457" lon="-7.28056">
        <ele>877.8</ele>
        <time>2016-07-14T06:06:25Z</time>
      </trkpt>
      <trkpt lat="43.02463" lon="-7.28068">
        <ele>878.1</ele>
        <time>2016-07-14T06:06:33Z</time>
      </trkpt>
      <trkpt lat="43.02469" lon="-7.28078">
        <ele>878.2</ele>
        <time>2016-07-14T06:06:40Z</time>
      </trkpt>
      <trkpt lat="43.02475" lon="-7.28087">
        <ele>878.3</ele>
        <time>2016-07-14T06:06:46Z</time>
      </trkpt>
      <trkpt lat="43.02479" lon="-7.28099">
        <ele>878.5</ele>
        <time>2016-07-14T06:06:53Z</time>
      </trkpt>
      <trkpt lat="43.02483" lon="-7.28111">
        <ele>878.9</ele>
        <time>2016-07-14T06:06:59Z</time>
      </trkpt>
      <trkpt lat="43.02486" lon="-7.28123">
        <ele>879.2</ele>
        <time>2016-07-14T06:07:05Z</time>
      </trkpt>
      <trkpt lat="43.02491" lon="-7.28134">
        <ele>879.1</ele>
        <time>2016-07-14T06:07:11Z</time>
      </trkpt>
      <trkpt lat="43.02495" lon="-7.28145">
        <ele>878.7</ele>
        <time>2016-07-14T06:07:17Z</time>
      </trkpt>
      <trkpt lat="43.025" lon="-7.28157">
        <ele>878.3</ele>
        <time>2016-07-14T06:07:23Z</time>
      </trkpt>
      <trkpt lat="43.02504" lon="-7.2817">
        <ele>877.3</ele>
        <time>2016-07-14T06:07:29Z</time>
      </trkpt>
      <trkpt lat="43.0251" lon="-7.28179">
        <ele>876.3</ele>
        <time>2016-07-14T06:07:35Z</time>
      </trkpt>
      <trkpt lat="43.02517" lon="-7.28188">
        <ele>875.4</ele>
        <time>2016-07-14T06:07:41Z</time>
      </trkpt>
      <trkpt lat="43.02523" lon="-7.28198">
        <ele>874.1</ele>
        <time>2016-07-14T06:07:48Z</time>
      </trkpt>
      <trkpt lat="43.02531" lon="-7.28208">
        <ele>872.3</ele>
        <time>2016-07-14T06:07:55Z</time>
      </trkpt>
      <trkpt lat="43.02538" lon="-7.28216">
        <ele>871.3</ele>
        <time>2016-07-14T06:08:02Z</time>
      </trkpt>
      <trkpt lat="43.02546" lon="-7.28224">
        <ele>870.1</ele>
        <time>2016-07-14T06:08:09Z</time>
      </trkpt>
      <trkpt lat="43.02553" lon="-7.28232">
        <ele>868.9</ele>
        <time>2016-07-14T06:08:16Z</time>
      </trkpt>
      <trkpt lat="43.02562" lon="-7.28238">
        <ele>868.1</ele>
        <time>2016-07-14T06:08:23Z</time>
      </trkpt>
      <trkpt lat="43.0257" lon="-7.28243">
        <ele>867.4</ele>
        <time>2016-07-14T06:08:30Z</time>
      </trkpt>
      <trkpt lat="43.02579" lon="-7.28248">
        <ele>866.2</ele>
        <time>2016-07-14T06:08:37Z</time>
      </trkpt>
      <trkpt lat="43.02588" lon="-7.28253">
        <ele>865</ele>
        <time>2016-07-14T06:08:44Z</time>
      </trkpt>
      <trkpt lat="43.02598" lon="-7.28258">
        <ele>864.1</ele>
        <time>2016-07-14T06:08:51Z</time>
      </trkpt>
      <trkpt lat="43.02607" lon="-7.28262">
        <ele>863.2</ele>
        <time>2016-07-14T06:08:58Z</time>
      </trkpt>
      <trkpt lat="43.02616" lon="-7.28265">
        <ele>862</ele>
        <time>2016-07-14T06:09:06Z</time>
      </trkpt>
      <trkpt lat="43.02627" lon="-7.28268">
        <ele>861</ele>
        <time>2016-07-14T06:09:14Z</time>
      </trkpt>
      <trkpt lat="43.02636" lon="-7.28271">
        <ele>860.4</ele>
        <time>2016-07-14T06:09:21Z</time>
      </trkpt>
      <trkpt lat="43.02646" lon="-7.28274">
        <ele>859.6</ele>
        <time>2016-07-14T06:09:28Z</time>
      </trkpt>
      <trkpt lat="43.02655" lon="-7.28279">
        <ele>859.1</ele>
        <time>2016-07-14T06:09:34Z</time>
      </trkpt>
      <trkpt lat="43.02663" lon="-7.28285">
        <ele>858.5</ele>
        <time>2016-07-14T06:09:41Z</time>
      </trkpt>
      <trkpt lat="43.02673" lon="-7.2829">
        <ele>857.7</ele>
        <time>2016-07-14T06:09:48Z</time>
      </trkpt>
      <trkpt lat="43.02681" lon="-7.28295">
        <ele>856.6</ele>
        <time>2016-07-14T06:09:54Z</time>
      </trkpt>
      <trkpt lat="43.02691" lon="-7.28301">
        <ele>855.8</ele>
        <time>2016-07-14T06:10:00Z</time>
      </trkpt>
      <trkpt lat="43.027" lon="-7.28306">
        <ele>855.3</ele>
        <time>2016-07-14T06:10:06Z</time>
      </trkpt>
      <trkpt lat="43.0271" lon="-7.28312">
        <ele>854.9</ele>
        <time>2016-07-14T06:10:12Z</time>
      </trkpt>
      <trkpt lat="43.02719" lon="-7.28317">
        <ele>854.3</ele>
        <time>2016-07-14T06:10:18Z</time>
      </trkpt>
      <trkpt lat="43.02727" lon="-7.28324">
        <ele>853.7</ele>
        <time>2016-07-14T06:10:26Z</time>
      </trkpt>
      <trkpt lat="43.02735" lon="-7.2833">
        <ele>853.4</ele>
        <time>2016-07-14T06:10:32Z</time>
      </trkpt>
      <trkpt lat="43.02743" lon="-7.28339">
        <ele>852.6</ele>
        <time>2016-07-14T06:10:38Z</time>
      </trkpt>
      <trkpt lat="43.02751" lon="-7.28346">
        <ele>851.7</ele>
        <time>2016-07-14T06:10:45Z</time>
      </trkpt>
      <trkpt lat="43.02759" lon="-7.28354">
        <ele>850.9</ele>
        <time>2016-07-14T06:10:52Z</time>
      </trkpt>
      <trkpt lat="43.02767" lon="-7.28361">
        <ele>850.2</ele>
        <time>2016-07-14T06:10:58Z</time>
      </trkpt>
      <trkpt lat="43.02774" lon="-7.2837">
        <ele>849.6</ele>
        <time>2016-07-14T06:11:04Z</time>
      </trkpt>
      <trkpt lat="43.02781" lon="-7.28379">
        <ele>849</ele>
        <time>2016-07-14T06:11:10Z</time>
      </trkpt>
      <trkpt lat="43.02787" lon="-7.2839">
        <ele>848</ele>
        <time>2016-07-14T06:11:16Z</time>
      </trkpt>
      <trkpt lat="43.02793" lon="-7.284">
        <ele>847.3</ele>
        <time>2016-07-14T06:11:22Z</time>
      </trkpt>
      <trkpt lat="43.02798" lon="-7.28413">
        <ele>846.5</ele>
        <time>2016-07-14T06:11:29Z</time>
      </trkpt>
      <trkpt lat="43.02804" lon="-7.28425">
        <ele>845.6</ele>
        <time>2016-07-14T06:11:36Z</time>
      </trkpt>
      <trkpt lat="43.02809" lon="-7.28436">
        <ele>844.7</ele>
        <time>2016-07-14T06:11:43Z</time>
      </trkpt>
      <trkpt lat="43.02813" lon="-7.28448">
        <ele>843.7</ele>
        <time>2016-07-14T06:11:50Z</time>
      </trkpt>
      <trkpt lat="43.02819" lon="-7.28459">
        <ele>842.6</ele>
        <time>2016-07-14T06:11:57Z</time>
      </trkpt>
      <trkpt lat="43.02823" lon="-7.28471">
        <ele>841.7</ele>
        <time>2016-07-14T06:12:03Z</time>
      </trkpt>
      <trkpt lat="43.02829" lon="-7.28481">
        <ele>841</ele>
        <time>2016-07-14T06:12:09Z</time>
      </trkpt>
      <trkpt lat="43.02836" lon="-7.2849">
        <ele>840.2</ele>
        <time>2016-07-14T06:12:15Z</time>
      </trkpt>
      <trkpt lat="43.02842" lon="-7.285">
        <ele>838.9</ele>
        <time>2016-07-14T06:12:22Z</time>
      </trkpt>
      <trkpt lat="43.02847" lon="-7.28512">
        <ele>837.7</ele>
        <time>2016-07-14T06:12:29Z</time>
      </trkpt>
      <trkpt lat="43.02852" lon="-7.28525">
        <ele>836.6</ele>
        <time>2016-07-14T06:12:36Z</time>
      </trkpt>
      <trkpt lat="43.02856" lon="-7.28536">
        <ele>835.6</ele>
        <time>2016-07-14T06:12:43Z</time>
      </trkpt>
      <trkpt lat="43.02862" lon="-7.28548">
        <ele>834.4</ele>
        <time>2016-07-14T06:12:50Z</time>
      </trkpt>
      <trkpt lat="43.02868" lon="-7.28559">
        <ele>833.1</ele>
        <time>2016-07-14T06:12:56Z</time>
      </trkpt>
      <trkpt lat="43.02874" lon="-7.2857">
        <ele>831.8</ele>
        <time>2016-07-14T06:13:03Z</time>
      </trkpt>
      <trkpt lat="43.0288" lon="-7.2858">
        <ele>830.4</ele>
        <time>2016-07-14T06:13:09Z</time>
      </trkpt>
      <trkpt lat="43.02884" lon="-7.28592">
        <ele>828.7</ele>
        <time>2016-07-14T06:13:16Z</time>
      </trkpt>
      <trkpt lat="43.02889" lon="-7.28604">
        <ele>827.2</ele>
        <time>2016-07-14T06:13:23Z</time>
      </trkpt>
      <trkpt lat="43.02895" lon="-7.28615">
        <ele>826</ele>
        <time>2016-07-14T06:13:30Z</time>
      </trkpt>
      <trkpt lat="43.029" lon="-7.28626">
        <ele>824.5</ele>
        <time>2016-07-14T06:13:37Z</time>
      </trkpt>
      <trkpt lat="43.02906" lon="-7.28637">
        <ele>822.8</ele>
        <time>2016-07-14T06:13:44Z</time>
      </trkpt>
      <trkpt lat="43.02912" lon="-7.28649">
        <ele>821</ele>
        <time>2016-07-14T06:13:51Z</time>
      </trkpt>
      <trkpt lat="43.02919" lon="-7.28658">
        <ele>819</ele>
        <time>2016-07-14T06:13:58Z</time>
      </trkpt>
      <trkpt lat="43.02927" lon="-7.28666">
        <ele>817.2</ele>
        <time>2016-07-14T06:14:05Z</time>
      </trkpt>
      <trkpt lat="43.02935" lon="-7.28673">
        <ele>815.6</ele>
        <time>2016-07-14T06:14:12Z</time>
      </trkpt>
      <trkpt lat="43.02942" lon="-7.28681">
        <ele>814.3</ele>
        <time>2016-07-14T06:14:19Z</time>
      </trkpt>
      <trkpt lat="43.0295" lon="-7.28688">
        <ele>813</ele>
        <time>2016-07-14T06:14:26Z</time>
      </trkpt>
      <trkpt lat="43.02959" lon="-7.28695">
        <ele>811.5</ele>
        <time>2016-07-14T06:14:32Z</time>
      </trkpt>
      <trkpt lat="43.02968" lon="-7.28701">
        <ele>809.9</ele>
        <time>2016-07-14T06:14:39Z</time>
      </trkpt>
      <trkpt lat="43.02976" lon="-7.28708">
        <ele>808.6</ele>
        <time>2016-07-14T06:14:45Z</time>
      </trkpt>
      <trkpt lat="43.02984" lon="-7.28712">
        <ele>807.2</ele>
        <time>2016-07-14T06:14:51Z</time>
      </trkpt>
      <trkpt lat="43.02993" lon="-7.28717">
        <ele>806</ele>
        <time>2016-07-14T06:14:56Z</time>
      </trkpt>
      <trkpt lat="43.03003" lon="-7.28719">
        <ele>804.4</ele>
        <time>2016-07-14T06:15:03Z</time>
      </trkpt>
      <trkpt lat="43.03012" lon="-7.28723">
        <ele>803.3</ele>
        <time>2016-07-14T06:15:09Z</time>
      </trkpt>
      <trkpt lat="43.03021" lon="-7.28726">
        <ele>802.5</ele>
        <time>2016-07-14T06:15:15Z</time>
      </trkpt>
      <trkpt lat="43.03029" lon="-7.28729">
        <ele>801.8</ele>
        <time>2016-07-14T06:15:20Z</time>
      </trkpt>
      <trkpt lat="43.03039" lon="-7.28733">
        <ele>800.7</ele>
        <time>2016-07-14T06:15:27Z</time>
      </trkpt>
      <trkpt lat="43.03047" lon="-7.28737">
        <ele>799.9</ele>
        <time>2016-07-14T06:15:33Z</time>
      </trkpt>
      <trkpt lat="43.03057" lon="-7.28742">
        <ele>798.5</ele>
        <time>2016-07-14T06:15:41Z</time>
      </trkpt>
      <trkpt lat="43.03067" lon="-7.28743">
        <ele>796.7</ele>
        <time>2016-07-14T06:15:48Z</time>
      </trkpt>
      <trkpt lat="43.03077" lon="-7.28741">
        <ele>795.4</ele>
        <time>2016-07-14T06:15:55Z</time>
      </trkpt>
      <trkpt lat="43.03085" lon="-7.28738">
        <ele>794.6</ele>
        <time>2016-07-14T06:16:00Z</time>
      </trkpt>
      <trkpt lat="43.03094" lon="-7.28734">
        <ele>793.6</ele>
        <time>2016-07-14T06:16:07Z</time>
      </trkpt>
      <trkpt lat="43.03104" lon="-7.28734">
        <ele>792.6</ele>
        <time>2016-07-14T06:16:14Z</time>
      </trkpt>
      <trkpt lat="43.03114" lon="-7.28735">
        <ele>791.5</ele>
        <time>2016-07-14T06:16:21Z</time>
      </trkpt>
      <trkpt lat="43.03123" lon="-7.28738">
        <ele>790.3</ele>
        <time>2016-07-14T06:16:28Z</time>
      </trkpt>
      <trkpt lat="43.03129" lon="-7.28748">
        <ele>789.4</ele>
        <time>2016-07-14T06:16:36Z</time>
      </trkpt>
      <trkpt lat="43.03132" lon="-7.2876">
        <ele>788</ele>
        <time>2016-07-14T06:16:46Z</time>
      </trkpt>
      <trkpt lat="43.03135" lon="-7.28772">
        <ele>786.6</ele>
        <time>2016-07-14T06:16:56Z</time>
      </trkpt>
      <trkpt lat="43.03137" lon="-7.28785">
        <ele>785.7</ele>
        <time>2016-07-14T06:17:06Z</time>
      </trkpt>
      <trkpt lat="43.0314" lon="-7.28797">
        <ele>785.3</ele>
        <time>2016-07-14T06:17:15Z</time>
      </trkpt>
      <trkpt lat="43.03144" lon="-7.28809">
        <ele>784.9</ele>
        <time>2016-07-14T06:17:25Z</time>
      </trkpt>
      <trkpt lat="43.03146" lon="-7.28821">
        <ele>784.7</ele>
        <time>2016-07-14T06:17:32Z</time>
      </trkpt>
      <trkpt lat="43.0315" lon="-7.28833">
        <ele>784.2</ele>
        <time>2016-07-14T06:17:39Z</time>
      </trkpt>
      <trkpt lat="43.03154" lon="-7.28845">
        <ele>784.1</ele>
        <time>2016-07-14T06:17:47Z</time>
      </trkpt>
      <trkpt lat="43.03158" lon="-7.28858">
        <ele>784</ele>
        <time>2016-07-14T06:17:55Z</time>
      </trkpt>
      <trkpt lat="43.03162" lon="-7.2887">
        <ele>784</ele>
        <time>2016-07-14T06:18:01Z</time>
      </trkpt>
      <trkpt lat="43.03166" lon="-7.28882">
        <ele>783.9</ele>
        <time>2016-07-14T06:18:08Z</time>
      </trkpt>
      <trkpt lat="43.03173" lon="-7.28893">
        <ele>783.8</ele>
        <time>2016-07-14T06:18:15Z</time>
      </trkpt>
      <trkpt lat="43.03178" lon="-7.28904">
        <ele>783.7</ele>
        <time>2016-07-14T06:18:21Z</time>
      </trkpt>
      <trkpt lat="43.03184" lon="-7.28913">
        <ele>783.6</ele>
        <time>2016-07-14T06:18:28Z</time>
      </trkpt>
      <trkpt lat="43.03189" lon="-7.28924">
        <ele>783.4</ele>
        <time>2016-07-14T06:18:36Z</time>
      </trkpt>
      <trkpt lat="43.03195" lon="-7.28934">
        <ele>783.4</ele>
        <time>2016-07-14T06:18:45Z</time>
      </trkpt>
      <trkpt lat="43.03202" lon="-7.28943">
        <ele>783</ele>
        <time>2016-07-14T06:18:52Z</time>
      </trkpt>
      <trkpt lat="43.0321" lon="-7.28952">
        <ele>782.3</ele>
        <time>2016-07-14T06:19:00Z</time>
      </trkpt>
      <trkpt lat="43.03218" lon="-7.28959">
        <ele>781.9</ele>
        <time>2016-07-14T06:19:07Z</time>
      </trkpt>
      <trkpt lat="43.03226" lon="-7.28968">
        <ele>781.1</ele>
        <time>2016-07-14T06:19:14Z</time>
      </trkpt>
      <trkpt lat="43.03234" lon="-7.28974">
        <ele>780.5</ele>
        <time>2016-07-14T06:19:20Z</time>
      </trkpt>
      <trkpt lat="43.03241" lon="-7.28982">
        <ele>779.8</ele>
        <time>2016-07-14T06:19:27Z</time>
      </trkpt>
      <trkpt lat="43.03249" lon="-7.2899">
        <ele>778.9</ele>
        <time>2016-07-14T06:19:34Z</time>
      </trkpt>
      <trkpt lat="43.03256" lon="-7.28999">
        <ele>778.2</ele>
        <time>2016-07-14T06:19:41Z</time>
      </trkpt>
      <trkpt lat="43.03264" lon="-7.29007">
        <ele>777.3</ele>
        <time>2016-07-14T06:19:48Z</time>
      </trkpt>
      <trkpt lat="43.03273" lon="-7.29012">
        <ele>776.3</ele>
        <time>2016-07-14T06:19:56Z</time>
      </trkpt>
      <trkpt lat="43.03282" lon="-7.29016">
        <ele>775.7</ele>
        <time>2016-07-14T06:20:02Z</time>
      </trkpt>
      <trkpt lat="43.03291" lon="-7.29019">
        <ele>775.2</ele>
        <time>2016-07-14T06:20:08Z</time>
      </trkpt>
      <trkpt lat="43.033" lon="-7.29024">
        <ele>774.8</ele>
        <time>2016-07-14T06:20:14Z</time>
      </trkpt>
      <trkpt lat="43.03308" lon="-7.2903">
        <ele>774.5</ele>
        <time>2016-07-14T06:20:20Z</time>
      </trkpt>
      <trkpt lat="43.03316" lon="-7.29036">
        <ele>774.1</ele>
        <time>2016-07-14T06:20:28Z</time>
      </trkpt>
      <trkpt lat="43.0332" lon="-7.29047">
        <ele>773</ele>
        <time>2016-07-14T06:20:41Z</time>
      </trkpt>
      <trkpt lat="43.03321" lon="-7.29059">
        <ele>771.7</ele>
        <time>2016-07-14T06:20:50Z</time>
      </trkpt>
      <trkpt lat="43.03321" lon="-7.29072">
        <ele>769.8</ele>
        <time>2016-07-14T06:20:59Z</time>
      </trkpt>
      <trkpt lat="43.0332" lon="-7.29085">
        <ele>768.1</ele>
        <time>2016-07-14T06:21:08Z</time>
      </trkpt>
      <trkpt lat="43.03319" lon="-7.29098">
        <ele>766.9</ele>
        <time>2016-07-14T06:21:16Z</time>
      </trkpt>
      <trkpt lat="43.0332" lon="-7.29112">
        <ele>765.4</ele>
        <time>2016-07-14T06:21:24Z</time>
      </trkpt>
      <trkpt lat="43.0332" lon="-7.29124">
        <ele>764.3</ele>
        <time>2016-07-14T06:21:31Z</time>
      </trkpt>
      <trkpt lat="43.03319" lon="-7.29138">
        <ele>763.2</ele>
        <time>2016-07-14T06:21:38Z</time>
      </trkpt>
      <trkpt lat="43.03317" lon="-7.2915">
        <ele>762.1</ele>
        <time>2016-07-14T06:21:45Z</time>
      </trkpt>
      <trkpt lat="43.03317" lon="-7.29162">
        <ele>761.2</ele>
        <time>2016-07-14T06:21:51Z</time>
      </trkpt>
      <trkpt lat="43.03316" lon="-7.29175">
        <ele>760.2</ele>
        <time>2016-07-14T06:21:57Z</time>
      </trkpt>
      <trkpt lat="43.03316" lon="-7.29189">
        <ele>759</ele>
        <time>2016-07-14T06:22:04Z</time>
      </trkpt>
      <trkpt lat="43.03315" lon="-7.29201">
        <ele>757.3</ele>
        <time>2016-07-14T06:22:10Z</time>
      </trkpt>
      <trkpt lat="43.03315" lon="-7.29215">
        <ele>755.9</ele>
        <time>2016-07-14T06:22:17Z</time>
      </trkpt>
      <trkpt lat="43.03315" lon="-7.29229">
        <ele>754.3</ele>
        <time>2016-07-14T06:22:24Z</time>
      </trkpt>
      <trkpt lat="43.03315" lon="-7.29242">
        <ele>753.1</ele>
        <time>2016-07-14T06:22:30Z</time>
      </trkpt>
      <trkpt lat="43.03315" lon="-7.29256">
        <ele>751.5</ele>
        <time>2016-07-14T06:22:37Z</time>
      </trkpt>
      <trkpt lat="43.03315" lon="-7.29268">
        <ele>750.2</ele>
        <time>2016-07-14T06:22:43Z</time>
      </trkpt>
      <trkpt lat="43.03315" lon="-7.29282">
        <ele>748.9</ele>
        <time>2016-07-14T06:22:50Z</time>
      </trkpt>
      <trkpt lat="43.03314" lon="-7.29296">
        <ele>747.3</ele>
        <time>2016-07-14T06:22:57Z</time>
      </trkpt>
      <trkpt lat="43.03313" lon="-7.2931">
        <ele>745.9</ele>
        <time>2016-07-14T06:23:04Z</time>
      </trkpt>
      <trkpt lat="43.03313" lon="-7.29324">
        <ele>744.4</ele>
        <time>2016-07-14T06:23:11Z</time>
      </trkpt>
      <trkpt lat="43.03313" lon="-7.29336">
        <ele>743</ele>
        <time>2016-07-14T06:23:17Z</time>
      </trkpt>
      <trkpt lat="43.03313" lon="-7.29349">
        <ele>740.9</ele>
        <time>2016-07-14T06:23:24Z</time>
      </trkpt>
      <trkpt lat="43.03314" lon="-7.29363">
        <ele>739.6</ele>
        <time>2016-07-14T06:23:31Z</time>
      </trkpt>
      <trkpt lat="43.03317" lon="-7.29376">
        <ele>737.8</ele>
        <time>2016-07-14T06:23:38Z</time>
      </trkpt>
      <trkpt lat="43.03319" lon="-7.29391">
        <ele>737</ele>
        <time>2016-07-14T06:23:45Z</time>
      </trkpt>
      <trkpt lat="43.0332" lon="-7.29403">
        <ele>736.2</ele>
        <time>2016-07-14T06:23:51Z</time>
      </trkpt>
      <trkpt lat="43.03321" lon="-7.29416">
        <ele>735.8</ele>
        <time>2016-07-14T06:23:57Z</time>
      </trkpt>
      <trkpt lat="43.03323" lon="-7.2943">
        <ele>735</ele>
        <time>2016-07-14T06:24:03Z</time>
      </trkpt>
      <trkpt lat="43.03325" lon="-7.29443">
        <ele>734.1</ele>
        <time>2016-07-14T06:24:09Z</time>
      </trkpt>
      <trkpt lat="43.03328" lon="-7.29455">
        <ele>732.7</ele>
        <time>2016-07-14T06:24:15Z</time>
      </trkpt>
      <trkpt lat="43.0333" lon="-7.29469">
        <ele>731.7</ele>
        <time>2016-07-14T06:24:22Z</time>
      </trkpt>
      <trkpt lat="43.03332" lon="-7.29482">
        <ele>730.9</ele>
        <time>2016-07-14T06:24:29Z</time>
      </trkpt>
      <trkpt lat="43.03335" lon="-7.29495">
        <ele>729.8</ele>
        <time>2016-07-14T06:24:36Z</time>
      </trkpt>
      <trkpt lat="43.03339" lon="-7.29508">
        <ele>728.7</ele>
        <time>2016-07-14T06:24:43Z</time>
      </trkpt>
      <trkpt lat="43.03345" lon="-7.29519">
        <ele>727.5</ele>
        <time>2016-07-14T06:24:50Z</time>
      </trkpt>
      <trkpt lat="43.03351" lon="-7.29531">
        <ele>726.1</ele>
        <time>2016-07-14T06:24:57Z</time>
      </trkpt>
      <trkpt lat="43.03356" lon="-7.29541">
        <ele>724.7</ele>
        <time>2016-07-14T06:25:03Z</time>
      </trkpt>
      <trkpt lat="43.03365" lon="-7.2955">
        <ele>723.3</ele>
        <time>2016-07-14T06:25:10Z</time>
      </trkpt>
      <trkpt lat="43.03374" lon="-7.29552">
        <ele>721.7</ele>
        <time>2016-07-14T06:25:17Z</time>
      </trkpt>
      <trkpt lat="43.03382" lon="-7.29554">
        <ele>720.3</ele>
        <time>2016-07-14T06:25:23Z</time>
      </trkpt>
      <trkpt lat="43.03392" lon="-7.29556">
        <ele>718.6</ele>
        <time>2016-07-14T06:25:30Z</time>
      </trkpt>
      <trkpt lat="43.03401" lon="-7.2956">
        <ele>717</ele>
        <time>2016-07-14T06:25:39Z</time>
      </trkpt>
      <trkpt lat="43.0341" lon="-7.29564">
        <ele>714.8</ele>
        <time>2016-07-14T06:25:47Z</time>
      </trkpt>
      <trkpt lat="43.03419" lon="-7.29571">
        <ele>713.3</ele>
        <time>2016-07-14T06:25:54Z</time>
      </trkpt>
      <trkpt lat="43.03427" lon="-7.29578">
        <ele>711.5</ele>
        <time>2016-07-14T06:26:01Z</time>
      </trkpt>
      <trkpt lat="43.03435" lon="-7.29583">
        <ele>710</ele>
        <time>2016-07-14T06:26:08Z</time>
      </trkpt>
      <trkpt lat="43.03442" lon="-7.29593">
        <ele>708.4</ele>
        <time>2016-07-14T06:26:15Z</time>
      </trkpt>
      <trkpt lat="43.03448" lon="-7.29602">
        <ele>707.1</ele>
        <time>2016-07-14T06:26:21Z</time>
      </trkpt>
      <trkpt lat="43.03457" lon="-7.2961">
        <ele>705.4</ele>
        <time>2016-07-14T06:26:28Z</time>
      </trkpt>
      <trkpt lat="43.03467" lon="-7.29616">
        <ele>703.8</ele>
        <time>2016-07-14T06:26:35Z</time>
      </trkpt>
      <trkpt lat="43.03477" lon="-7.29618">
        <ele>702.6</ele>
        <time>2016-07-14T06:26:41Z</time>
      </trkpt>
      <trkpt lat="43.03487" lon="-7.29623">
        <ele>701.1</ele>
        <time>2016-07-14T06:26:47Z</time>
      </trkpt>
      <trkpt lat="43.03495" lon="-7.2963">
        <ele>700</ele>
        <time>2016-07-14T06:26:53Z</time>
      </trkpt>
      <trkpt lat="43.03503" lon="-7.29637">
        <ele>699.1</ele>
        <time>2016-07-14T06:26:59Z</time>
      </trkpt>
      <trkpt lat="43.0351" lon="-7.29646">
        <ele>698.5</ele>
        <time>2016-07-14T06:27:05Z</time>
      </trkpt>
      <trkpt lat="43.03517" lon="-7.29655">
        <ele>697.7</ele>
        <time>2016-07-14T06:27:11Z</time>
      </trkpt>
      <trkpt lat="43.03522" lon="-7.29667">
        <ele>696.9</ele>
        <time>2016-07-14T06:27:18Z</time>
      </trkpt>
      <trkpt lat="43.03528" lon="-7.29679">
        <ele>696.6</ele>
        <time>2016-07-14T06:27:25Z</time>
      </trkpt>
      <trkpt lat="43.03532" lon="-7.29691">
        <ele>696</ele>
        <time>2016-07-14T06:27:32Z</time>
      </trkpt>
      <trkpt lat="43.03536" lon="-7.29704">
        <ele>695.6</ele>
        <time>2016-07-14T06:27:39Z</time>
      </trkpt>
      <trkpt lat="43.03539" lon="-7.29717">
        <ele>695.1</ele>
        <time>2016-07-14T06:27:47Z</time>
      </trkpt>
      <trkpt lat="43.03542" lon="-7.29729">
        <ele>694.7</ele>
        <time>2016-07-14T06:27:53Z</time>
      </trkpt>
      <trkpt lat="43.03546" lon="-7.2974">
        <ele>694.3</ele>
        <time>2016-07-14T06:28:00Z</time>
      </trkpt>
      <trkpt lat="43.03548" lon="-7.29754">
        <ele>693.7</ele>
        <time>2016-07-14T06:28:07Z</time>
      </trkpt>
      <trkpt lat="43.03548" lon="-7.29767">
        <ele>693.2</ele>
        <time>2016-07-14T06:28:13Z</time>
      </trkpt>
      <trkpt lat="43.03548" lon="-7.29779">
        <ele>692.5</ele>
        <time>2016-07-14T06:28:19Z</time>
      </trkpt>
      <trkpt lat="43.03549" lon="-7.29793">
        <ele>691.9</ele>
        <time>2016-07-14T06:28:26Z</time>
      </trkpt>
      <trkpt lat="43.03548" lon="-7.29806">
        <ele>691.4</ele>
        <time>2016-07-14T06:28:33Z</time>
      </trkpt>
      <trkpt lat="43.0355" lon="-7.29818">
        <ele>690</ele>
        <time>2016-07-14T06:28:48Z</time>
      </trkpt>
      <trkpt lat="43.03551" lon="-7.29831">
        <ele>689</ele>
        <time>2016-07-14T06:29:15Z</time>
      </trkpt>
      <trkpt lat="43.0355" lon="-7.29844">
        <ele>688.8</ele>
        <time>2016-07-14T06:29:22Z</time>
      </trkpt>
      <trkpt lat="43.03551" lon="-7.29857">
        <ele>688.3</ele>
        <time>2016-07-14T06:29:29Z</time>
      </trkpt>
      <trkpt lat="43.03554" lon="-7.2987">
        <ele>688.1</ele>
        <time>2016-07-14T06:29:36Z</time>
      </trkpt>
      <trkpt lat="43.03557" lon="-7.29883">
        <ele>687.9</ele>
        <time>2016-07-14T06:29:43Z</time>
      </trkpt>
      <trkpt lat="43.0356" lon="-7.29895">
        <ele>687.6</ele>
        <time>2016-07-14T06:29:49Z</time>
      </trkpt>
      <trkpt lat="43.03563" lon="-7.29909">
        <ele>687.2</ele>
        <time>2016-07-14T06:29:56Z</time>
      </trkpt>
      <trkpt lat="43.03566" lon="-7.29922">
        <ele>686.8</ele>
        <time>2016-07-14T06:30:03Z</time>
      </trkpt>
      <trkpt lat="43.03568" lon="-7.29936">
        <ele>686.5</ele>
        <time>2016-07-14T06:30:10Z</time>
      </trkpt>
      <trkpt lat="43.03569" lon="-7.29949">
        <ele>686.3</ele>
        <time>2016-07-14T06:30:17Z</time>
      </trkpt>
      <trkpt lat="43.03569" lon="-7.29962">
        <ele>686.3</ele>
        <time>2016-07-14T06:30:23Z</time>
      </trkpt>
      <trkpt lat="43.03572" lon="-7.29974">
        <ele>686.3</ele>
        <time>2016-07-14T06:30:30Z</time>
      </trkpt>
      <trkpt lat="43.03575" lon="-7.29987">
        <ele>686.4</ele>
        <time>2016-07-14T06:30:38Z</time>
      </trkpt>
      <trkpt lat="43.03578" lon="-7.29999">
        <ele>686.6</ele>
        <time>2016-07-14T06:30:45Z</time>
      </trkpt>
      <trkpt lat="43.03578" lon="-7.30011">
        <ele>686.7</ele>
        <time>2016-07-14T06:30:52Z</time>
      </trkpt>
      <trkpt lat="43.03578" lon="-7.30024">
        <ele>686.9</ele>
        <time>2016-07-14T06:31:08Z</time>
      </trkpt>
      <trkpt lat="43.03583" lon="-7.30035">
        <ele>686.8</ele>
        <time>2016-07-14T06:31:17Z</time>
      </trkpt>
      <trkpt lat="43.03584" lon="-7.30048">
        <ele>686.8</ele>
        <time>2016-07-14T06:31:35Z</time>
      </trkpt>
      <trkpt lat="43.0358" lon="-7.30035">
        <ele>687</ele>
        <time>2016-07-14T06:32:15Z</time>
      </trkpt>
      <trkpt lat="43.03571" lon="-7.30036">
        <ele>685.7</ele>
        <time>2016-07-14T06:32:42Z</time>
      </trkpt>
      <trkpt lat="43.03591" lon="-7.29982">
        <ele>685</ele>
        <time>2016-07-14T06:33:22Z</time>
      </trkpt>
      <trkpt lat="43.03572" lon="-7.29987">
        <ele>685</ele>
        <time>2016-07-14T06:33:42Z</time>
      </trkpt>
      <trkpt lat="43.03539" lon="-7.30049">
        <ele>685</ele>
        <time>2016-07-14T06:34:00Z</time>
      </trkpt>
      <trkpt lat="43.03506" lon="-7.30066">
        <ele>685</ele>
        <time>2016-07-14T06:34:12Z</time>
      </trkpt>
      <trkpt lat="43.03555" lon="-7.30048">
        <ele>685</ele>
        <time>2016-07-14T06:34:22Z</time>
      </trkpt>
      <trkpt lat="43.03581" lon="-7.30001">
        <ele>685</ele>
        <time>2016-07-14T06:34:34Z</time>
      </trkpt>
      <trkpt lat="43.03582" lon="-7.30014">
        <ele>685</ele>
        <time>2016-07-14T06:35:08Z</time>
      </trkpt>
      <trkpt lat="43.03571" lon="-7.30021">
        <ele>685</ele>
        <time>2016-07-14T06:36:23Z</time>
      </trkpt>
      <trkpt lat="43.0354" lon="-7.30048">
        <ele>685</ele>
        <time>2016-07-14T06:36:48Z</time>
      </trkpt>
      <trkpt lat="43.03538" lon="-7.30032">
        <ele>685</ele>
        <time>2016-07-14T06:37:35Z</time>
      </trkpt>
      <trkpt lat="43.03582" lon="-7.30021">
        <ele>684</ele>
        <time>2016-07-14T06:37:49Z</time>
      </trkpt>
      <trkpt lat="43.03567" lon="-7.30041">
        <ele>685</ele>
        <time>2016-07-14T06:38:11Z</time>
      </trkpt>
      <trkpt lat="43.03576" lon="-7.30042">
        <ele>685.8</ele>
        <time>2016-07-14T06:38:32Z</time>
      </trkpt>
      <trkpt lat="43.03584" lon="-7.30048">
        <ele>685.6</ele>
        <time>2016-07-14T06:43:17Z</time>
      </trkpt>
      <trkpt lat="43.03578" lon="-7.30039">
        <ele>685.8</ele>
        <time>2016-07-14T06:44:23Z</time>
      </trkpt>
      <trkpt lat="43.03586" lon="-7.30046">
        <ele>685.7</ele>
        <time>2016-07-14T06:47:50Z</time>
      </trkpt>
      <trkpt lat="43.03584" lon="-7.30059">
        <ele>685.2</ele>
        <time>2016-07-14T06:47:58Z</time>
      </trkpt>
      <trkpt lat="43.03576" lon="-7.30067">
        <ele>684.8</ele>
        <time>2016-07-14T06:48:05Z</time>
      </trkpt>
      <trkpt lat="43.03567" lon="-7.3007">
        <ele>684</ele>
        <time>2016-07-14T06:48:14Z</time>
      </trkpt>
      <trkpt lat="43.03566" lon="-7.30083">
        <ele>681.7</ele>
        <time>2016-07-14T06:48:40Z</time>
      </trkpt>
      <trkpt lat="43.03562" lon="-7.30096">
        <ele>682</ele>
        <time>2016-07-14T06:48:47Z</time>
      </trkpt>
      <trkpt lat="43.03556" lon="-7.30107">
        <ele>681.4</ele>
        <time>2016-07-14T06:48:54Z</time>
      </trkpt>
      <trkpt lat="43.0355" lon="-7.30119">
        <ele>680.7</ele>
        <time>2016-07-14T06:49:01Z</time>
      </trkpt>
      <trkpt lat="43.03547" lon="-7.30131">
        <ele>679.8</ele>
        <time>2016-07-14T06:49:07Z</time>
      </trkpt>
      <trkpt lat="43.03545" lon="-7.30144">
        <ele>678.6</ele>
        <time>2016-07-14T06:49:13Z</time>
      </trkpt>
      <trkpt lat="43.03544" lon="-7.30157">
        <ele>677.6</ele>
        <time>2016-07-14T06:49:20Z</time>
      </trkpt>
      <trkpt lat="43.03541" lon="-7.30171">
        <ele>677</ele>
        <time>2016-07-14T06:49:27Z</time>
      </trkpt>
      <trkpt lat="43.03538" lon="-7.30183">
        <ele>676.5</ele>
        <time>2016-07-14T06:49:33Z</time>
      </trkpt>
      <trkpt lat="43.03535" lon="-7.30195">
        <ele>675.4</ele>
        <time>2016-07-14T06:49:39Z</time>
      </trkpt>
      <trkpt lat="43.0353" lon="-7.30207">
        <ele>674.7</ele>
        <time>2016-07-14T06:49:45Z</time>
      </trkpt>
      <trkpt lat="43.03527" lon="-7.3022">
        <ele>673.9</ele>
        <time>2016-07-14T06:49:51Z</time>
      </trkpt>
      <trkpt lat="43.03523" lon="-7.30232">
        <ele>673.4</ele>
        <time>2016-07-14T06:49:57Z</time>
      </trkpt>
      <trkpt lat="43.0352" lon="-7.30245">
        <ele>672.7</ele>
        <time>2016-07-14T06:50:04Z</time>
      </trkpt>
      <trkpt lat="43.03517" lon="-7.30258">
        <ele>672.2</ele>
        <time>2016-07-14T06:50:11Z</time>
      </trkpt>
      <trkpt lat="43.03513" lon="-7.30271">
        <ele>671.9</ele>
        <time>2016-07-14T06:50:18Z</time>
      </trkpt>
      <trkpt lat="43.03511" lon="-7.30285">
        <ele>671.7</ele>
        <time>2016-07-14T06:50:25Z</time>
      </trkpt>
      <trkpt lat="43.03506" lon="-7.30296">
        <ele>671.4</ele>
        <time>2016-07-14T06:50:31Z</time>
      </trkpt>
      <trkpt lat="43.03502" lon="-7.30309">
        <ele>671.1</ele>
        <time>2016-07-14T06:50:38Z</time>
      </trkpt>
      <trkpt lat="43.03498" lon="-7.30321">
        <ele>671</ele>
        <time>2016-07-14T06:50:44Z</time>
      </trkpt>
      <trkpt lat="43.03497" lon="-7.30335">
        <ele>670.4</ele>
        <time>2016-07-14T06:51:28Z</time>
      </trkpt>
      <trkpt lat="43.03492" lon="-7.30347">
        <ele>670.4</ele>
        <time>2016-07-14T06:51:36Z</time>
      </trkpt>
      <trkpt lat="43.03487" lon="-7.30357">
        <ele>670.1</ele>
        <time>2016-07-14T06:51:43Z</time>
      </trkpt>
      <trkpt lat="43.03482" lon="-7.30368">
        <ele>669.9</ele>
        <time>2016-07-14T06:51:49Z</time>
      </trkpt>
      <trkpt lat="43.03477" lon="-7.3038">
        <ele>669.7</ele>
        <time>2016-07-14T06:51:57Z</time>
      </trkpt>
      <trkpt lat="43.03472" lon="-7.30391">
        <ele>669.5</ele>
        <time>2016-07-14T06:52:04Z</time>
      </trkpt>
      <trkpt lat="43.03466" lon="-7.30402">
        <ele>668.5</ele>
        <time>2016-07-14T06:52:12Z</time>
      </trkpt>
      <trkpt lat="43.03459" lon="-7.30413">
        <ele>668</ele>
        <time>2016-07-14T06:52:18Z</time>
      </trkpt>
      <trkpt lat="43.03454" lon="-7.30424">
        <ele>667.7</ele>
        <time>2016-07-14T06:52:24Z</time>
      </trkpt>
      <trkpt lat="43.0345" lon="-7.30435">
        <ele>667.4</ele>
        <time>2016-07-14T06:52:30Z</time>
      </trkpt>
      <trkpt lat="43.03446" lon="-7.30447">
        <ele>667</ele>
        <time>2016-07-14T06:52:36Z</time>
      </trkpt>
      <trkpt lat="43.03443" lon="-7.3046">
        <ele>666</ele>
        <time>2016-07-14T06:52:42Z</time>
      </trkpt>
      <trkpt lat="43.03438" lon="-7.30472">
        <ele>665.3</ele>
        <time>2016-07-14T06:52:48Z</time>
      </trkpt>
      <trkpt lat="43.03434" lon="-7.30485">
        <ele>664.8</ele>
        <time>2016-07-14T06:52:54Z</time>
      </trkpt>
      <trkpt lat="43.03429" lon="-7.30496">
        <ele>664.5</ele>
        <time>2016-07-14T06:52:59Z</time>
      </trkpt>
      <trkpt lat="43.03424" lon="-7.30508">
        <ele>664.2</ele>
        <time>2016-07-14T06:53:05Z</time>
      </trkpt>
      <trkpt lat="43.03418" lon="-7.3052">
        <ele>663.7</ele>
        <time>2016-07-14T06:53:11Z</time>
      </trkpt>
      <trkpt lat="43.03412" lon="-7.30531">
        <ele>663.2</ele>
        <time>2016-07-14T06:53:17Z</time>
      </trkpt>
      <trkpt lat="43.03407" lon="-7.30542">
        <ele>662.6</ele>
        <time>2016-07-14T06:53:23Z</time>
      </trkpt>
      <trkpt lat="43.03401" lon="-7.30552">
        <ele>661.8</ele>
        <time>2016-07-14T06:53:29Z</time>
      </trkpt>
      <trkpt lat="43.03396" lon="-7.30563">
        <ele>661.4</ele>
        <time>2016-07-14T06:53:35Z</time>
      </trkpt>
      <trkpt lat="43.03391" lon="-7.30575">
        <ele>660.9</ele>
        <time>2016-07-14T06:53:41Z</time>
      </trkpt>
      <trkpt lat="43.03384" lon="-7.30583">
        <ele>660.3</ele>
        <time>2016-07-14T06:53:47Z</time>
      </trkpt>
      <trkpt lat="43.03378" lon="-7.30592">
        <ele>659.9</ele>
        <time>2016-07-14T06:53:53Z</time>
      </trkpt>
      <trkpt lat="43.03371" lon="-7.30602">
        <ele>659.4</ele>
        <time>2016-07-14T06:54:00Z</time>
      </trkpt>
      <trkpt lat="43.03364" lon="-7.30611">
        <ele>658.8</ele>
        <time>2016-07-14T06:54:06Z</time>
      </trkpt>
      <trkpt lat="43.03357" lon="-7.30619">
        <ele>658</ele>
        <time>2016-07-14T06:54:12Z</time>
      </trkpt>
      <trkpt lat="43.03349" lon="-7.30627">
        <ele>657.5</ele>
        <time>2016-07-14T06:54:19Z</time>
      </trkpt>
      <trkpt lat="43.03342" lon="-7.30637">
        <ele>656.6</ele>
        <time>2016-07-14T06:54:27Z</time>
      </trkpt>
      <trkpt lat="43.03336" lon="-7.30646">
        <ele>656.1</ele>
        <time>2016-07-14T06:54:35Z</time>
      </trkpt>
      <trkpt lat="43.03328" lon="-7.30655">
        <ele>655.8</ele>
        <time>2016-07-14T06:54:43Z</time>
      </trkpt>
      <trkpt lat="43.0332" lon="-7.30664">
        <ele>655.5</ele>
        <time>2016-07-14T06:54:50Z</time>
      </trkpt>
      <trkpt lat="43.03313" lon="-7.30672">
        <ele>654.9</ele>
        <time>2016-07-14T06:54:55Z</time>
      </trkpt>
      <trkpt lat="43.03306" lon="-7.30682">
        <ele>654.4</ele>
        <time>2016-07-14T06:55:01Z</time>
      </trkpt>
      <trkpt lat="43.03298" lon="-7.30691">
        <ele>653.9</ele>
        <time>2016-07-14T06:55:07Z</time>
      </trkpt>
      <trkpt lat="43.03292" lon="-7.307">
        <ele>653.4</ele>
        <time>2016-07-14T06:55:13Z</time>
      </trkpt>
      <trkpt lat="43.03285" lon="-7.30709">
        <ele>652.8</ele>
        <time>2016-07-14T06:55:19Z</time>
      </trkpt>
      <trkpt lat="43.03278" lon="-7.30717">
        <ele>652.4</ele>
        <time>2016-07-14T06:55:25Z</time>
      </trkpt>
      <trkpt lat="43.03271" lon="-7.30726">
        <ele>651.8</ele>
        <time>2016-07-14T06:55:31Z</time>
      </trkpt>
      <trkpt lat="43.03264" lon="-7.30734">
        <ele>651.3</ele>
        <time>2016-07-14T06:55:37Z</time>
      </trkpt>
      <trkpt lat="43.03257" lon="-7.30742">
        <ele>650.8</ele>
        <time>2016-07-14T06:55:43Z</time>
      </trkpt>
      <trkpt lat="43.03249" lon="-7.30751">
        <ele>650.5</ele>
        <time>2016-07-14T06:55:49Z</time>
      </trkpt>
      <trkpt lat="43.03242" lon="-7.3076">
        <ele>649.9</ele>
        <time>2016-07-14T06:55:55Z</time>
      </trkpt>
      <trkpt lat="43.03235" lon="-7.30769">
        <ele>649.1</ele>
        <time>2016-07-14T06:56:01Z</time>
      </trkpt>
      <trkpt lat="43.03228" lon="-7.30778">
        <ele>648.5</ele>
        <time>2016-07-14T06:56:07Z</time>
      </trkpt>
      <trkpt lat="43.03221" lon="-7.30787">
        <ele>648.3</ele>
        <time>2016-07-14T06:56:13Z</time>
      </trkpt>
      <trkpt lat="43.03214" lon="-7.30796">
        <ele>647.5</ele>
        <time>2016-07-14T06:56:20Z</time>
      </trkpt>
      <trkpt lat="43.03208" lon="-7.30806">
        <ele>646.7</ele>
        <time>2016-07-14T06:56:26Z</time>
      </trkpt>
      <trkpt lat="43.03202" lon="-7.30815">
        <ele>645.6</ele>
        <time>2016-07-14T06:56:32Z</time>
      </trkpt>
      <trkpt lat="43.03198" lon="-7.30826">
        <ele>644.7</ele>
        <time>2016-07-14T06:56:38Z</time>
      </trkpt>
      <trkpt lat="43.03191" lon="-7.30837">
        <ele>644.1</ele>
        <time>2016-07-14T06:56:44Z</time>
      </trkpt>
      <trkpt lat="43.03185" lon="-7.30847">
        <ele>643.7</ele>
        <time>2016-07-14T06:56:50Z</time>
      </trkpt>
      <trkpt lat="43.03179" lon="-7.30857">
        <ele>643.1</ele>
        <time>2016-07-14T06:56:56Z</time>
      </trkpt>
      <trkpt lat="43.03173" lon="-7.30867">
        <ele>642.6</ele>
        <time>2016-07-14T06:57:02Z</time>
      </trkpt>
      <trkpt lat="43.03168" lon="-7.30879">
        <ele>641.9</ele>
        <time>2016-07-14T06:57:09Z</time>
      </trkpt>
      <trkpt lat="43.03162" lon="-7.30889">
        <ele>640.7</ele>
        <time>2016-07-14T06:57:15Z</time>
      </trkpt>
      <trkpt lat="43.03157" lon="-7.30899">
        <ele>640.3</ele>
        <time>2016-07-14T06:57:21Z</time>
      </trkpt>
      <trkpt lat="43.03152" lon="-7.30909">
        <ele>639.8</ele>
        <time>2016-07-14T06:57:27Z</time>
      </trkpt>
      <trkpt lat="43.03146" lon="-7.30922">
        <ele>639.4</ele>
        <time>2016-07-14T06:57:34Z</time>
      </trkpt>
      <trkpt lat="43.03141" lon="-7.30932">
        <ele>638.4</ele>
        <time>2016-07-14T06:57:40Z</time>
      </trkpt>
      <trkpt lat="43.03135" lon="-7.30943">
        <ele>637.3</ele>
        <time>2016-07-14T06:57:47Z</time>
      </trkpt>
      <trkpt lat="43.0313" lon="-7.30954">
        <ele>636.6</ele>
        <time>2016-07-14T06:57:54Z</time>
      </trkpt>
      <trkpt lat="43.03125" lon="-7.30965">
        <ele>636.1</ele>
        <time>2016-07-14T06:58:00Z</time>
      </trkpt>
      <trkpt lat="43.03119" lon="-7.30976">
        <ele>635.4</ele>
        <time>2016-07-14T06:58:07Z</time>
      </trkpt>
      <trkpt lat="43.03113" lon="-7.30986">
        <ele>635</ele>
        <time>2016-07-14T06:58:13Z</time>
      </trkpt>
      <trkpt lat="43.03108" lon="-7.30997">
        <ele>634.5</ele>
        <time>2016-07-14T06:58:19Z</time>
      </trkpt>
      <trkpt lat="43.03102" lon="-7.31007">
        <ele>634</ele>
        <time>2016-07-14T06:58:28Z</time>
      </trkpt>
      <trkpt lat="43.031" lon="-7.31019">
        <ele>631.6</ele>
        <time>2016-07-14T06:59:19Z</time>
      </trkpt>
      <trkpt lat="43.03096" lon="-7.3103">
        <ele>631.7</ele>
        <time>2016-07-14T06:59:26Z</time>
      </trkpt>
      <trkpt lat="43.03093" lon="-7.31043">
        <ele>631.5</ele>
        <time>2016-07-14T06:59:33Z</time>
      </trkpt>
      <trkpt lat="43.03089" lon="-7.31055">
        <ele>631.3</ele>
        <time>2016-07-14T06:59:40Z</time>
      </trkpt>
      <trkpt lat="43.03087" lon="-7.31067">
        <ele>631.1</ele>
        <time>2016-07-14T06:59:46Z</time>
      </trkpt>
      <trkpt lat="43.03085" lon="-7.3108">
        <ele>631</ele>
        <time>2016-07-14T06:59:52Z</time>
      </trkpt>
      <trkpt lat="43.03085" lon="-7.31094">
        <ele>630.8</ele>
        <time>2016-07-14T06:59:59Z</time>
      </trkpt>
      <trkpt lat="43.03083" lon="-7.31106">
        <ele>631.2</ele>
        <time>2016-07-14T07:00:50Z</time>
      </trkpt>
      <trkpt lat="43.03086" lon="-7.31119">
        <ele>630.8</ele>
        <time>2016-07-14T07:00:58Z</time>
      </trkpt>
      <trkpt lat="43.03084" lon="-7.31132">
        <ele>629</ele>
        <time>2016-07-14T07:01:34Z</time>
      </trkpt>
      <trkpt lat="43.03082" lon="-7.31145">
        <ele>628.8</ele>
        <time>2016-07-14T07:01:40Z</time>
      </trkpt>
      <trkpt lat="43.03082" lon="-7.31159">
        <ele>628.7</ele>
        <time>2016-07-14T07:01:47Z</time>
      </trkpt>
      <trkpt lat="43.03083" lon="-7.31171">
        <ele>628.8</ele>
        <time>2016-07-14T07:01:53Z</time>
      </trkpt>
      <trkpt lat="43.03083" lon="-7.31185">
        <ele>628.9</ele>
        <time>2016-07-14T07:01:59Z</time>
      </trkpt>
      <trkpt lat="43.03082" lon="-7.31198">
        <ele>628.6</ele>
        <time>2016-07-14T07:02:05Z</time>
      </trkpt>
      <trkpt lat="43.03082" lon="-7.31211">
        <ele>628.1</ele>
        <time>2016-07-14T07:02:12Z</time>
      </trkpt>
      <trkpt lat="43.0308" lon="-7.31225">
        <ele>627.7</ele>
        <time>2016-07-14T07:02:19Z</time>
      </trkpt>
      <trkpt lat="43.03079" lon="-7.31239">
        <ele>627.4</ele>
        <time>2016-07-14T07:02:25Z</time>
      </trkpt>
      <trkpt lat="43.03079" lon="-7.31253">
        <ele>626.9</ele>
        <time>2016-07-14T07:02:31Z</time>
      </trkpt>
      <trkpt lat="43.03076" lon="-7.31265">
        <ele>626.3</ele>
        <time>2016-07-14T07:02:37Z</time>
      </trkpt>
      <trkpt lat="43.03076" lon="-7.31279">
        <ele>625.9</ele>
        <time>2016-07-14T07:02:43Z</time>
      </trkpt>
      <trkpt lat="43.03073" lon="-7.31291">
        <ele>625.6</ele>
        <time>2016-07-14T07:02:49Z</time>
      </trkpt>
      <trkpt lat="43.0307" lon="-7.31304">
        <ele>625.2</ele>
        <time>2016-07-14T07:02:55Z</time>
      </trkpt>
      <trkpt lat="43.03067" lon="-7.31316">
        <ele>624.3</ele>
        <time>2016-07-14T07:03:01Z</time>
      </trkpt>
      <trkpt lat="43.03065" lon="-7.31328">
        <ele>623.5</ele>
        <time>2016-07-14T07:03:07Z</time>
      </trkpt>
      <trkpt lat="43.03063" lon="-7.31341">
        <ele>623</ele>
        <time>2016-07-14T07:03:13Z</time>
      </trkpt>
      <trkpt lat="43.0306" lon="-7.31353">
        <ele>623</ele>
        <time>2016-07-14T07:03:19Z</time>
      </trkpt>
      <trkpt lat="43.03058" lon="-7.31366">
        <ele>622.6</ele>
        <time>2016-07-14T07:03:26Z</time>
      </trkpt>
      <trkpt lat="43.03057" lon="-7.31379">
        <ele>621.9</ele>
        <time>2016-07-14T07:03:32Z</time>
      </trkpt>
      <trkpt lat="43.03055" lon="-7.31392">
        <ele>621</ele>
        <time>2016-07-14T07:03:39Z</time>
      </trkpt>
      <trkpt lat="43.03053" lon="-7.31405">
        <ele>620</ele>
        <time>2016-07-14T07:03:45Z</time>
      </trkpt>
      <trkpt lat="43.03051" lon="-7.31417">
        <ele>619.3</ele>
        <time>2016-07-14T07:03:51Z</time>
      </trkpt>
      <trkpt lat="43.03049" lon="-7.3143">
        <ele>618.7</ele>
        <time>2016-07-14T07:03:57Z</time>
      </trkpt>
      <trkpt lat="43.03047" lon="-7.31442">
        <ele>618.2</ele>
        <time>2016-07-14T07:04:03Z</time>
      </trkpt>
      <trkpt lat="43.03044" lon="-7.31454">
        <ele>617.9</ele>
        <time>2016-07-14T07:04:09Z</time>
      </trkpt>
      <trkpt lat="43.03041" lon="-7.31467">
        <ele>617.2</ele>
        <time>2016-07-14T07:04:18Z</time>
      </trkpt>
      <trkpt lat="43.03043" lon="-7.31479">
        <ele>616.7</ele>
        <time>2016-07-14T07:04:24Z</time>
      </trkpt>
      <trkpt lat="43.03039" lon="-7.31491">
        <ele>616.4</ele>
        <time>2016-07-14T07:04:30Z</time>
      </trkpt>
      <trkpt lat="43.03034" lon="-7.31502">
        <ele>616</ele>
        <time>2016-07-14T07:04:36Z</time>
      </trkpt>
      <trkpt lat="43.03028" lon="-7.31513">
        <ele>615.7</ele>
        <time>2016-07-14T07:04:42Z</time>
      </trkpt>
      <trkpt lat="43.03023" lon="-7.31524">
        <ele>615.1</ele>
        <time>2016-07-14T07:04:48Z</time>
      </trkpt>
      <trkpt lat="43.03018" lon="-7.31535">
        <ele>614.7</ele>
        <time>2016-07-14T07:04:54Z</time>
      </trkpt>
      <trkpt lat="43.03013" lon="-7.31546">
        <ele>614.3</ele>
        <time>2016-07-14T07:05:00Z</time>
      </trkpt>
      <trkpt lat="43.03008" lon="-7.31557">
        <ele>613.6</ele>
        <time>2016-07-14T07:05:06Z</time>
      </trkpt>
      <trkpt lat="43.03003" lon="-7.31567">
        <ele>613.2</ele>
        <time>2016-07-14T07:05:12Z</time>
      </trkpt>
      <trkpt lat="43.02996" lon="-7.31579">
        <ele>612.3</ele>
        <time>2016-07-14T07:05:19Z</time>
      </trkpt>
      <trkpt lat="43.02991" lon="-7.3159">
        <ele>611.2</ele>
        <time>2016-07-14T07:05:25Z</time>
      </trkpt>
      <trkpt lat="43.02985" lon="-7.31601">
        <ele>610.4</ele>
        <time>2016-07-14T07:05:31Z</time>
      </trkpt>
      <trkpt lat="43.0298" lon="-7.31612">
        <ele>609.7</ele>
        <time>2016-07-14T07:05:37Z</time>
      </trkpt>
      <trkpt lat="43.02974" lon="-7.31622">
        <ele>609</ele>
        <time>2016-07-14T07:05:43Z</time>
      </trkpt>
      <trkpt lat="43.02969" lon="-7.31632">
        <ele>608.5</ele>
        <time>2016-07-14T07:05:49Z</time>
      </trkpt>
      <trkpt lat="43.02966" lon="-7.31644">
        <ele>607.7</ele>
        <time>2016-07-14T07:05:55Z</time>
      </trkpt>
      <trkpt lat="43.02962" lon="-7.31656">
        <ele>607.2</ele>
        <time>2016-07-14T07:06:01Z</time>
      </trkpt>
      <trkpt lat="43.0296" lon="-7.31669">
        <ele>606.7</ele>
        <time>2016-07-14T07:06:07Z</time>
      </trkpt>
      <trkpt lat="43.02957" lon="-7.31681">
        <ele>606.2</ele>
        <time>2016-07-14T07:06:13Z</time>
      </trkpt>
      <trkpt lat="43.02953" lon="-7.31694">
        <ele>605.3</ele>
        <time>2016-07-14T07:06:20Z</time>
      </trkpt>
      <trkpt lat="43.02949" lon="-7.31706">
        <ele>604.8</ele>
        <time>2016-07-14T07:06:26Z</time>
      </trkpt>
      <trkpt lat="43.02945" lon="-7.31718">
        <ele>604.2</ele>
        <time>2016-07-14T07:06:32Z</time>
      </trkpt>
      <trkpt lat="43.02941" lon="-7.31732">
        <ele>603.8</ele>
        <time>2016-07-14T07:06:38Z</time>
      </trkpt>
      <trkpt lat="43.02936" lon="-7.31743">
        <ele>603.4</ele>
        <time>2016-07-14T07:06:45Z</time>
      </trkpt>
      <trkpt lat="43.02934" lon="-7.31756">
        <ele>602.9</ele>
        <time>2016-07-14T07:06:51Z</time>
      </trkpt>
      <trkpt lat="43.02931" lon="-7.31769">
        <ele>602.2</ele>
        <time>2016-07-14T07:06:58Z</time>
      </trkpt>
      <trkpt lat="43.02928" lon="-7.31783">
        <ele>601.6</ele>
        <time>2016-07-14T07:07:05Z</time>
      </trkpt>
      <trkpt lat="43.02924" lon="-7.31794">
        <ele>601.1</ele>
        <time>2016-07-14T07:07:11Z</time>
      </trkpt>
      <trkpt lat="43.02921" lon="-7.31807">
        <ele>600.5</ele>
        <time>2016-07-14T07:07:18Z</time>
      </trkpt>
      <trkpt lat="43.02918" lon="-7.3182">
        <ele>599.5</ele>
        <time>2016-07-14T07:07:24Z</time>
      </trkpt>
      <trkpt lat="43.02915" lon="-7.31833">
        <ele>599</ele>
        <time>2016-07-14T07:07:30Z</time>
      </trkpt>
      <trkpt lat="43.02913" lon="-7.31845">
        <ele>598.6</ele>
        <time>2016-07-14T07:07:36Z</time>
      </trkpt>
      <trkpt lat="43.0291" lon="-7.31857">
        <ele>598.2</ele>
        <time>2016-07-14T07:07:42Z</time>
      </trkpt>
      <trkpt lat="43.02907" lon="-7.3187">
        <ele>597.8</ele>
        <time>2016-07-14T07:07:49Z</time>
      </trkpt>
      <trkpt lat="43.02904" lon="-7.31882">
        <ele>597.2</ele>
        <time>2016-07-14T07:07:56Z</time>
      </trkpt>
      <trkpt lat="43.02902" lon="-7.31896">
        <ele>596.8</ele>
        <time>2016-07-14T07:08:03Z</time>
      </trkpt>
      <trkpt lat="43.029" lon="-7.3191">
        <ele>596.1</ele>
        <time>2016-07-14T07:08:10Z</time>
      </trkpt>
      <trkpt lat="43.02897" lon="-7.31924">
        <ele>595.5</ele>
        <time>2016-07-14T07:08:17Z</time>
      </trkpt>
      <trkpt lat="43.02895" lon="-7.31936">
        <ele>595.1</ele>
        <time>2016-07-14T07:08:23Z</time>
      </trkpt>
      <trkpt lat="43.02892" lon="-7.3195">
        <ele>594.2</ele>
        <time>2016-07-14T07:08:30Z</time>
      </trkpt>
      <trkpt lat="43.02893" lon="-7.31962">
        <ele>593.6</ele>
        <time>2016-07-14T07:08:37Z</time>
      </trkpt>
      <trkpt lat="43.02892" lon="-7.31975">
        <ele>593.2</ele>
        <time>2016-07-14T07:08:44Z</time>
      </trkpt>
      <trkpt lat="43.02896" lon="-7.31987">
        <ele>592.8</ele>
        <time>2016-07-14T07:08:50Z</time>
      </trkpt>
      <trkpt lat="43.02901" lon="-7.31999">
        <ele>592.7</ele>
        <time>2016-07-14T07:08:57Z</time>
      </trkpt>
      <trkpt lat="43.02907" lon="-7.32008">
        <ele>592.5</ele>
        <time>2016-07-14T07:09:06Z</time>
      </trkpt>
      <trkpt lat="43.02912" lon="-7.32019">
        <ele>592.5</ele>
        <time>2016-07-14T07:09:13Z</time>
      </trkpt>
      <trkpt lat="43.02917" lon="-7.32031">
        <ele>592.7</ele>
        <time>2016-07-14T07:09:21Z</time>
      </trkpt>
      <trkpt lat="43.02921" lon="-7.32044">
        <ele>592.7</ele>
        <time>2016-07-14T07:09:28Z</time>
      </trkpt>
      <trkpt lat="43.02926" lon="-7.32056">
        <ele>592.6</ele>
        <time>2016-07-14T07:09:34Z</time>
      </trkpt>
      <trkpt lat="43.0293" lon="-7.32068">
        <ele>592.5</ele>
        <time>2016-07-14T07:09:40Z</time>
      </trkpt>
      <trkpt lat="43.02935" lon="-7.32078">
        <ele>592.5</ele>
        <time>2016-07-14T07:09:46Z</time>
      </trkpt>
      <trkpt lat="43.02939" lon="-7.3209">
        <ele>592.6</ele>
        <time>2016-07-14T07:09:52Z</time>
      </trkpt>
      <trkpt lat="43.02939" lon="-7.32104">
        <ele>592.8</ele>
        <time>2016-07-14T07:10:00Z</time>
      </trkpt>
      <trkpt lat="43.0294" lon="-7.32117">
        <ele>592.7</ele>
        <time>2016-07-14T07:10:09Z</time>
      </trkpt>
      <trkpt lat="43.02935" lon="-7.32127">
        <ele>592.6</ele>
        <time>2016-07-14T07:10:16Z</time>
      </trkpt>
      <trkpt lat="43.02932" lon="-7.32139">
        <ele>592.3</ele>
        <time>2016-07-14T07:10:23Z</time>
      </trkpt>
      <trkpt lat="43.02931" lon="-7.32153">
        <ele>591.5</ele>
        <time>2016-07-14T07:10:30Z</time>
      </trkpt>
      <trkpt lat="43.02931" lon="-7.32166">
        <ele>590.7</ele>
        <time>2016-07-14T07:10:36Z</time>
      </trkpt>
      <trkpt lat="43.02932" lon="-7.32181">
        <ele>590</ele>
        <time>2016-07-14T07:10:43Z</time>
      </trkpt>
      <trkpt lat="43.02932" lon="-7.32194">
        <ele>589.8</ele>
        <time>2016-07-14T07:10:49Z</time>
      </trkpt>
      <trkpt lat="43.02932" lon="-7.32208">
        <ele>588.9</ele>
        <time>2016-07-14T07:10:56Z</time>
      </trkpt>
      <trkpt lat="43.02934" lon="-7.32221">
        <ele>588.2</ele>
        <time>2016-07-14T07:11:03Z</time>
      </trkpt>
      <trkpt lat="43.02937" lon="-7.32233">
        <ele>588</ele>
        <time>2016-07-14T07:11:10Z</time>
      </trkpt>
      <trkpt lat="43.0294" lon="-7.32246">
        <ele>587.9</ele>
        <time>2016-07-14T07:11:17Z</time>
      </trkpt>
      <trkpt lat="43.02943" lon="-7.32258">
        <ele>587.4</ele>
        <time>2016-07-14T07:11:24Z</time>
      </trkpt>
      <trkpt lat="43.02946" lon="-7.32271">
        <ele>587.1</ele>
        <time>2016-07-14T07:11:31Z</time>
      </trkpt>
      <trkpt lat="43.02945" lon="-7.32285">
        <ele>587.3</ele>
        <time>2016-07-14T07:11:38Z</time>
      </trkpt>
      <trkpt lat="43.02949" lon="-7.32299">
        <ele>587.4</ele>
        <time>2016-07-14T07:11:45Z</time>
      </trkpt>
      <trkpt lat="43.02949" lon="-7.32312">
        <ele>587.5</ele>
        <time>2016-07-14T07:11:52Z</time>
      </trkpt>
      <trkpt lat="43.02949" lon="-7.32325">
        <ele>587.5</ele>
        <time>2016-07-14T07:11:59Z</time>
      </trkpt>
      <trkpt lat="43.0295" lon="-7.32337">
        <ele>587.2</ele>
        <time>2016-07-14T07:12:06Z</time>
      </trkpt>
      <trkpt lat="43.02951" lon="-7.32351">
        <ele>587.1</ele>
        <time>2016-07-14T07:12:13Z</time>
      </trkpt>
      <trkpt lat="43.02952" lon="-7.32365">
        <ele>587.3</ele>
        <time>2016-07-14T07:12:19Z</time>
      </trkpt>
      <trkpt lat="43.02953" lon="-7.32378">
        <ele>587.4</ele>
        <time>2016-07-14T07:12:25Z</time>
      </trkpt>
      <trkpt lat="43.02956" lon="-7.3239">
        <ele>587.9</ele>
        <time>2016-07-14T07:12:32Z</time>
      </trkpt>
      <trkpt lat="43.02959" lon="-7.32403">
        <ele>588.5</ele>
        <time>2016-07-14T07:12:39Z</time>
      </trkpt>
      <trkpt lat="43.0296" lon="-7.32415">
        <ele>588.9</ele>
        <time>2016-07-14T07:12:46Z</time>
      </trkpt>
      <trkpt lat="43.0296" lon="-7.32428">
        <ele>589.6</ele>
        <time>2016-07-14T07:12:53Z</time>
      </trkpt>
      <trkpt lat="43.02949" lon="-7.32429">
        <ele>591.1</ele>
        <time>2016-07-14T07:13:04Z</time>
      </trkpt>
      <trkpt lat="43.02939" lon="-7.32426">
        <ele>591.7</ele>
        <time>2016-07-14T07:13:11Z</time>
      </trkpt>
      <trkpt lat="43.0293" lon="-7.32428">
        <ele>592.4</ele>
        <time>2016-07-14T07:13:36Z</time>
      </trkpt>
      <trkpt lat="43.02926" lon="-7.32439">
        <ele>592.8</ele>
        <time>2016-07-14T07:14:21Z</time>
      </trkpt>
      <trkpt lat="43.02926" lon="-7.32452">
        <ele>593</ele>
        <time>2016-07-14T07:14:31Z</time>
      </trkpt>
      <trkpt lat="43.02926" lon="-7.32465">
        <ele>593.7</ele>
        <time>2016-07-14T07:14:39Z</time>
      </trkpt>
      <trkpt lat="43.02926" lon="-7.32477">
        <ele>594.5</ele>
        <time>2016-07-14T07:14:47Z</time>
      </trkpt>
      <trkpt lat="43.02926" lon="-7.3249">
        <ele>596.1</ele>
        <time>2016-07-14T07:14:55Z</time>
      </trkpt>
      <trkpt lat="43.02924" lon="-7.32503">
        <ele>597.9</ele>
        <time>2016-07-14T07:15:04Z</time>
      </trkpt>
      <trkpt lat="43.02923" lon="-7.32517">
        <ele>599.7</ele>
        <time>2016-07-14T07:15:16Z</time>
      </trkpt>
      <trkpt lat="43.02926" lon="-7.32528">
        <ele>600.5</ele>
        <time>2016-07-14T07:15:21Z</time>
      </trkpt>
      <trkpt lat="43.02926" lon="-7.32542">
        <ele>601.6</ele>
        <time>2016-07-14T07:15:28Z</time>
      </trkpt>
      <trkpt lat="43.02926" lon="-7.32555">
        <ele>602.5</ele>
        <time>2016-07-14T07:15:35Z</time>
      </trkpt>
      <trkpt lat="43.02927" lon="-7.32568">
        <ele>603.7</ele>
        <time>2016-07-14T07:15:42Z</time>
      </trkpt>
      <trkpt lat="43.02927" lon="-7.32581">
        <ele>604.9</ele>
        <time>2016-07-14T07:15:50Z</time>
      </trkpt>
      <trkpt lat="43.02924" lon="-7.32594">
        <ele>605.8</ele>
        <time>2016-07-14T07:15:58Z</time>
      </trkpt>
      <trkpt lat="43.02921" lon="-7.32606">
        <ele>606.5</ele>
        <time>2016-07-14T07:16:07Z</time>
      </trkpt>
      <trkpt lat="43.02917" lon="-7.32618">
        <ele>607.5</ele>
        <time>2016-07-14T07:16:22Z</time>
      </trkpt>
      <trkpt lat="43.02922" lon="-7.32608">
        <ele>607.6</ele>
        <time>2016-07-14T07:17:15Z</time>
      </trkpt>
      <trkpt lat="43.02915" lon="-7.326">
        <ele>608</ele>
        <time>2016-07-14T07:17:44Z</time>
      </trkpt>
      <trkpt lat="43.02916" lon="-7.32613">
        <ele>607.8</ele>
        <time>2016-07-14T07:18:55Z</time>
      </trkpt>
      <trkpt lat="43.02918" lon="-7.32626">
        <ele>607.8</ele>
        <time>2016-07-14T07:19:03Z</time>
      </trkpt>
      <trkpt lat="43.02921" lon="-7.32638">
        <ele>606.8</ele>
        <time>2016-07-14T07:19:18Z</time>
      </trkpt>
      <trkpt lat="43.02926" lon="-7.32647">
        <ele>605.5</ele>
        <time>2016-07-14T07:19:41Z</time>
      </trkpt>
      <trkpt lat="43.02928" lon="-7.3266">
        <ele>604.7</ele>
        <time>2016-07-14T07:20:08Z</time>
      </trkpt>
      <trkpt lat="43.02927" lon="-7.32672">
        <ele>604</ele>
        <time>2016-07-14T07:20:19Z</time>
      </trkpt>
      <trkpt lat="43.02928" lon="-7.32686">
        <ele>603.3</ele>
        <time>2016-07-14T07:20:28Z</time>
      </trkpt>
      <trkpt lat="43.0293" lon="-7.32698">
        <ele>602.2</ele>
        <time>2016-07-14T07:21:09Z</time>
      </trkpt>
      <trkpt lat="43.02934" lon="-7.32709">
        <ele>602</ele>
        <time>2016-07-14T07:21:17Z</time>
      </trkpt>
      <trkpt lat="43.0294" lon="-7.32718">
        <ele>601.9</ele>
        <time>2016-07-14T07:21:29Z</time>
      </trkpt>
      <trkpt lat="43.02945" lon="-7.3273">
        <ele>602.2</ele>
        <time>2016-07-14T07:21:41Z</time>
      </trkpt>
      <trkpt lat="43.02946" lon="-7.32742">
        <ele>601.8</ele>
        <time>2016-07-14T07:22:00Z</time>
      </trkpt>
      <trkpt lat="43.02937" lon="-7.32743">
        <ele>601.6</ele>
        <time>2016-07-14T07:22:14Z</time>
      </trkpt>
      <trkpt lat="43.02935" lon="-7.32755">
        <ele>601.8</ele>
        <time>2016-07-14T07:22:24Z</time>
      </trkpt>
      <trkpt lat="43.02935" lon="-7.32768">
        <ele>602.1</ele>
        <time>2016-07-14T07:22:31Z</time>
      </trkpt>
      <trkpt lat="43.02938" lon="-7.32781">
        <ele>602.3</ele>
        <time>2016-07-14T07:22:38Z</time>
      </trkpt>
      <trkpt lat="43.02939" lon="-7.32794">
        <ele>602.6</ele>
        <time>2016-07-14T07:22:46Z</time>
      </trkpt>
      <trkpt lat="43.02934" lon="-7.32805">
        <ele>603.1</ele>
        <time>2016-07-14T07:22:54Z</time>
      </trkpt>
      <trkpt lat="43.02929" lon="-7.32816">
        <ele>603.5</ele>
        <time>2016-07-14T07:23:02Z</time>
      </trkpt>
      <trkpt lat="43.02925" lon="-7.32828">
        <ele>604</ele>
        <time>2016-07-14T07:23:11Z</time>
      </trkpt>
      <trkpt lat="43.02924" lon="-7.32841">
        <ele>604.7</ele>
        <time>2016-07-14T07:23:21Z</time>
      </trkpt>
      <trkpt lat="43.02924" lon="-7.32854">
        <ele>605</ele>
        <time>2016-07-14T07:23:28Z</time>
      </trkpt>
      <trkpt lat="43.02927" lon="-7.32866">
        <ele>605.2</ele>
        <time>2016-07-14T07:23:34Z</time>
      </trkpt>
      <trkpt lat="43.02928" lon="-7.32879">
        <ele>605.6</ele>
        <time>2016-07-14T07:23:41Z</time>
      </trkpt>
      <trkpt lat="43.02929" lon="-7.32891">
        <ele>606.3</ele>
        <time>2016-07-14T07:23:47Z</time>
      </trkpt>
      <trkpt lat="43.02931" lon="-7.32903">
        <ele>606.6</ele>
        <time>2016-07-14T07:23:55Z</time>
      </trkpt>
      <trkpt lat="43.02933" lon="-7.32917">
        <ele>606.4</ele>
        <time>2016-07-14T07:24:02Z</time>
      </trkpt>
      <trkpt lat="43.02935" lon="-7.3293">
        <ele>610.6</ele>
        <time>2016-07-14T07:24:09Z</time>
      </trkpt>
      <trkpt lat="43.02934" lon="-7.32943">
        <ele>611.3</ele>
        <time>2016-07-14T07:24:17Z</time>
      </trkpt>
      <trkpt lat="43.02935" lon="-7.32956">
        <ele>611.2</ele>
        <time>2016-07-14T07:24:25Z</time>
      </trkpt>
      <trkpt lat="43.02936" lon="-7.32969">
        <ele>611</ele>
        <time>2016-07-14T07:24:32Z</time>
      </trkpt>
      <trkpt lat="43.02936" lon="-7.32982">
        <ele>610.7</ele>
        <time>2016-07-14T07:24:38Z</time>
      </trkpt>
      <trkpt lat="43.02935" lon="-7.32994">
        <ele>610.5</ele>
        <time>2016-07-14T07:24:45Z</time>
      </trkpt>
      <trkpt lat="43.02937" lon="-7.33006">
        <ele>610.4</ele>
        <time>2016-07-14T07:24:53Z</time>
      </trkpt>
      <trkpt lat="43.02938" lon="-7.33019">
        <ele>610.8</ele>
        <time>2016-07-14T07:25:01Z</time>
      </trkpt>
      <trkpt lat="43.02939" lon="-7.33032">
        <ele>610.6</ele>
        <time>2016-07-14T07:25:09Z</time>
      </trkpt>
      <trkpt lat="43.02939" lon="-7.33045">
        <ele>610.3</ele>
        <time>2016-07-14T07:25:15Z</time>
      </trkpt>
      <trkpt lat="43.02939" lon="-7.33059">
        <ele>609.1</ele>
        <time>2016-07-14T07:25:22Z</time>
      </trkpt>
      <trkpt lat="43.02938" lon="-7.33072">
        <ele>608.2</ele>
        <time>2016-07-14T07:25:28Z</time>
      </trkpt>
      <trkpt lat="43.02938" lon="-7.33086">
        <ele>606.8</ele>
        <time>2016-07-14T07:25:34Z</time>
      </trkpt>
      <trkpt lat="43.02942" lon="-7.33098">
        <ele>605.7</ele>
        <time>2016-07-14T07:25:40Z</time>
      </trkpt>
      <trkpt lat="43.02947" lon="-7.33109">
        <ele>604.4</ele>
        <time>2016-07-14T07:25:49Z</time>
      </trkpt>
      <trkpt lat="43.02952" lon="-7.33121">
        <ele>603</ele>
        <time>2016-07-14T07:26:00Z</time>
      </trkpt>
      <trkpt lat="43.02959" lon="-7.3313">
        <ele>602.1</ele>
        <time>2016-07-14T07:26:07Z</time>
      </trkpt>
      <trkpt lat="43.02959" lon="-7.33143">
        <ele>601.2</ele>
        <time>2016-07-14T07:26:15Z</time>
      </trkpt>
      <trkpt lat="43.02953" lon="-7.33153">
        <ele>600.7</ele>
        <time>2016-07-14T07:26:22Z</time>
      </trkpt>
      <trkpt lat="43.0295" lon="-7.33166">
        <ele>599.9</ele>
        <time>2016-07-14T07:26:30Z</time>
      </trkpt>
      <trkpt lat="43.02936" lon="-7.33181">
        <ele>597</ele>
        <time>2016-07-14T07:26:43Z</time>
      </trkpt>
      <trkpt lat="43.02932" lon="-7.33195">
        <ele>595.9</ele>
        <time>2016-07-14T07:26:50Z</time>
      </trkpt>
      <trkpt lat="43.02929" lon="-7.33208">
        <ele>594.8</ele>
        <time>2016-07-14T07:26:55Z</time>
      </trkpt>
      <trkpt lat="43.02923" lon="-7.33219">
        <ele>593.2</ele>
        <time>2016-07-14T07:27:01Z</time>
      </trkpt>
      <trkpt lat="43.02918" lon="-7.33231">
        <ele>592</ele>
        <time>2016-07-14T07:27:07Z</time>
      </trkpt>
      <trkpt lat="43.02913" lon="-7.33243">
        <ele>590.5</ele>
        <time>2016-07-14T07:27:14Z</time>
      </trkpt>
      <trkpt lat="43.02908" lon="-7.33255">
        <ele>588.8</ele>
        <time>2016-07-14T07:27:22Z</time>
      </trkpt>
      <trkpt lat="43.02904" lon="-7.33267">
        <ele>587.6</ele>
        <time>2016-07-14T07:27:29Z</time>
      </trkpt>
      <trkpt lat="43.02899" lon="-7.33278">
        <ele>586.3</ele>
        <time>2016-07-14T07:27:35Z</time>
      </trkpt>
      <trkpt lat="43.02897" lon="-7.33292">
        <ele>584.8</ele>
        <time>2016-07-14T07:27:43Z</time>
      </trkpt>
      <trkpt lat="43.02896" lon="-7.33305">
        <ele>583.3</ele>
        <time>2016-07-14T07:27:50Z</time>
      </trkpt>
      <trkpt lat="43.02898" lon="-7.33319">
        <ele>582.2</ele>
        <time>2016-07-14T07:27:56Z</time>
      </trkpt>
      <trkpt lat="43.02897" lon="-7.33331">
        <ele>580.9</ele>
        <time>2016-07-14T07:28:02Z</time>
      </trkpt>
      <trkpt lat="43.02896" lon="-7.33344">
        <ele>579.8</ele>
        <time>2016-07-14T07:28:08Z</time>
      </trkpt>
      <trkpt lat="43.02894" lon="-7.33357">
        <ele>578.3</ele>
        <time>2016-07-14T07:28:14Z</time>
      </trkpt>
      <trkpt lat="43.02891" lon="-7.33369">
        <ele>576.8</ele>
        <time>2016-07-14T07:28:20Z</time>
      </trkpt>
      <trkpt lat="43.02886" lon="-7.3338">
        <ele>575.2</ele>
        <time>2016-07-14T07:28:27Z</time>
      </trkpt>
      <trkpt lat="43.02879" lon="-7.33389">
        <ele>573.6</ele>
        <time>2016-07-14T07:28:33Z</time>
      </trkpt>
      <trkpt lat="43.02875" lon="-7.33402">
        <ele>572.1</ele>
        <time>2016-07-14T07:28:39Z</time>
      </trkpt>
      <trkpt lat="43.02871" lon="-7.33415">
        <ele>570.5</ele>
        <time>2016-07-14T07:28:44Z</time>
      </trkpt>
      <trkpt lat="43.02868" lon="-7.33428">
        <ele>569.3</ele>
        <time>2016-07-14T07:28:49Z</time>
      </trkpt>
      <trkpt lat="43.02864" lon="-7.3344">
        <ele>568.2</ele>
        <time>2016-07-14T07:28:55Z</time>
      </trkpt>
      <trkpt lat="43.02858" lon="-7.33451">
        <ele>567.2</ele>
        <time>2016-07-14T07:29:01Z</time>
      </trkpt>
      <trkpt lat="43.02853" lon="-7.33461">
        <ele>566.5</ele>
        <time>2016-07-14T07:29:07Z</time>
      </trkpt>
      <trkpt lat="43.02846" lon="-7.3347">
        <ele>565.5</ele>
        <time>2016-07-14T07:29:14Z</time>
      </trkpt>
      <trkpt lat="43.02839" lon="-7.3348">
        <ele>564.4</ele>
        <time>2016-07-14T07:29:21Z</time>
      </trkpt>
      <trkpt lat="43.02833" lon="-7.33491">
        <ele>563.6</ele>
        <time>2016-07-14T07:29:28Z</time>
      </trkpt>
      <trkpt lat="43.02826" lon="-7.33501">
        <ele>562.5</ele>
        <time>2016-07-14T07:29:35Z</time>
      </trkpt>
      <trkpt lat="43.02818" lon="-7.33508">
        <ele>561.4</ele>
        <time>2016-07-14T07:29:44Z</time>
      </trkpt>
      <trkpt lat="43.02808" lon="-7.33511">
        <ele>560.8</ele>
        <time>2016-07-14T07:29:50Z</time>
      </trkpt>
      <trkpt lat="43.02798" lon="-7.33515">
        <ele>560.1</ele>
        <time>2016-07-14T07:29:57Z</time>
      </trkpt>
      <trkpt lat="43.02792" lon="-7.33525">
        <ele>559.7</ele>
        <time>2016-07-14T07:30:04Z</time>
      </trkpt>
      <trkpt lat="43.02785" lon="-7.33536">
        <ele>559.2</ele>
        <time>2016-07-14T07:30:12Z</time>
      </trkpt>
      <trkpt lat="43.02782" lon="-7.33547">
        <ele>558.7</ele>
        <time>2016-07-14T07:30:19Z</time>
      </trkpt>
      <trkpt lat="43.02779" lon="-7.33561">
        <ele>557.8</ele>
        <time>2016-07-14T07:30:26Z</time>
      </trkpt>
      <trkpt lat="43.02774" lon="-7.33572">
        <ele>557.4</ele>
        <time>2016-07-14T07:30:33Z</time>
      </trkpt>
      <trkpt lat="43.02772" lon="-7.33584">
        <ele>557.1</ele>
        <time>2016-07-14T07:30:39Z</time>
      </trkpt>
      <trkpt lat="43.0277" lon="-7.33598">
        <ele>557</ele>
        <time>2016-07-14T07:30:45Z</time>
      </trkpt>
      <trkpt lat="43.02768" lon="-7.33611">
        <ele>556.2</ele>
        <time>2016-07-14T07:30:52Z</time>
      </trkpt>
      <trkpt lat="43.02767" lon="-7.33624">
        <ele>555.6</ele>
        <time>2016-07-14T07:30:59Z</time>
      </trkpt>
      <trkpt lat="43.02765" lon="-7.33637">
        <ele>555.2</ele>
        <time>2016-07-14T07:31:06Z</time>
      </trkpt>
      <trkpt lat="43.02764" lon="-7.33651">
        <ele>554.6</ele>
        <time>2016-07-14T07:31:13Z</time>
      </trkpt>
      <trkpt lat="43.02763" lon="-7.33664">
        <ele>554</ele>
        <time>2016-07-14T07:31:19Z</time>
      </trkpt>
      <trkpt lat="43.02761" lon="-7.33678">
        <ele>553.2</ele>
        <time>2016-07-14T07:31:26Z</time>
      </trkpt>
      <trkpt lat="43.02757" lon="-7.33689">
        <ele>552.6</ele>
        <time>2016-07-14T07:31:32Z</time>
      </trkpt>
      <trkpt lat="43.02752" lon="-7.33702">
        <ele>552.1</ele>
        <time>2016-07-14T07:31:38Z</time>
      </trkpt>
      <trkpt lat="43.02747" lon="-7.33714">
        <ele>551.9</ele>
        <time>2016-07-14T07:31:44Z</time>
      </trkpt>
      <trkpt lat="43.02742" lon="-7.33727">
        <ele>551.5</ele>
        <time>2016-07-14T07:31:50Z</time>
      </trkpt>
      <trkpt lat="43.02737" lon="-7.33738">
        <ele>551.3</ele>
        <time>2016-07-14T07:31:56Z</time>
      </trkpt>
      <trkpt lat="43.02734" lon="-7.33751">
        <ele>551.2</ele>
        <time>2016-07-14T07:32:02Z</time>
      </trkpt>
      <trkpt lat="43.02728" lon="-7.33762">
        <ele>551</ele>
        <time>2016-07-14T07:32:08Z</time>
      </trkpt>
      <trkpt lat="43.02725" lon="-7.33774">
        <ele>550.9</ele>
        <time>2016-07-14T07:32:14Z</time>
      </trkpt>
      <trkpt lat="43.0272" lon="-7.33785">
        <ele>550.7</ele>
        <time>2016-07-14T07:32:20Z</time>
      </trkpt>
      <trkpt lat="43.02716" lon="-7.33796">
        <ele>550.2</ele>
        <time>2016-07-14T07:32:27Z</time>
      </trkpt>
      <trkpt lat="43.02712" lon="-7.33808">
        <ele>549.5</ele>
        <time>2016-07-14T07:32:35Z</time>
      </trkpt>
      <trkpt lat="43.0271" lon="-7.33822">
        <ele>549</ele>
        <time>2016-07-14T07:32:43Z</time>
      </trkpt>
      <trkpt lat="43.02712" lon="-7.33836">
        <ele>548.7</ele>
        <time>2016-07-14T07:32:50Z</time>
      </trkpt>
      <trkpt lat="43.02713" lon="-7.33849">
        <ele>548.4</ele>
        <time>2016-07-14T07:32:58Z</time>
      </trkpt>
      <trkpt lat="43.02716" lon="-7.33861">
        <ele>547.8</ele>
        <time>2016-07-14T07:33:05Z</time>
      </trkpt>
      <trkpt lat="43.0272" lon="-7.33873">
        <ele>547.2</ele>
        <time>2016-07-14T07:33:12Z</time>
      </trkpt>
      <trkpt lat="43.02723" lon="-7.33885">
        <ele>546.6</ele>
        <time>2016-07-14T07:33:19Z</time>
      </trkpt>
      <trkpt lat="43.02726" lon="-7.33899">
        <ele>546.1</ele>
        <time>2016-07-14T07:33:26Z</time>
      </trkpt>
      <trkpt lat="43.02729" lon="-7.33911">
        <ele>545.6</ele>
        <time>2016-07-14T07:33:33Z</time>
      </trkpt>
      <trkpt lat="43.02732" lon="-7.33923">
        <ele>545</ele>
        <time>2016-07-14T07:33:40Z</time>
      </trkpt>
      <trkpt lat="43.02733" lon="-7.33937">
        <ele>544.7</ele>
        <time>2016-07-14T07:33:47Z</time>
      </trkpt>
      <trkpt lat="43.02732" lon="-7.33949">
        <ele>544.2</ele>
        <time>2016-07-14T07:33:54Z</time>
      </trkpt>
      <trkpt lat="43.02729" lon="-7.33961">
        <ele>543.8</ele>
        <time>2016-07-14T07:34:00Z</time>
      </trkpt>
      <trkpt lat="43.02728" lon="-7.33975">
        <ele>543.6</ele>
        <time>2016-07-14T07:34:07Z</time>
      </trkpt>
      <trkpt lat="43.02725" lon="-7.33988">
        <ele>543.3</ele>
        <time>2016-07-14T07:34:14Z</time>
      </trkpt>
      <trkpt lat="43.02723" lon="-7.34001">
        <ele>543.5</ele>
        <time>2016-07-14T07:34:23Z</time>
      </trkpt>
      <trkpt lat="43.02723" lon="-7.34014">
        <ele>543.6</ele>
        <time>2016-07-14T07:34:30Z</time>
      </trkpt>
      <trkpt lat="43.02721" lon="-7.34026">
        <ele>543</ele>
        <time>2016-07-14T07:34:37Z</time>
      </trkpt>
      <trkpt lat="43.02719" lon="-7.34039">
        <ele>542.7</ele>
        <time>2016-07-14T07:34:43Z</time>
      </trkpt>
      <trkpt lat="43.02715" lon="-7.34051">
        <ele>542.5</ele>
        <time>2016-07-14T07:34:49Z</time>
      </trkpt>
      <trkpt lat="43.02709" lon="-7.34063">
        <ele>542.4</ele>
        <time>2016-07-14T07:34:55Z</time>
      </trkpt>
      <trkpt lat="43.02703" lon="-7.34072">
        <ele>542.3</ele>
        <time>2016-07-14T07:35:00Z</time>
      </trkpt>
      <trkpt lat="43.02696" lon="-7.34082">
        <ele>541.7</ele>
        <time>2016-07-14T07:35:06Z</time>
      </trkpt>
      <trkpt lat="43.0269" lon="-7.34094">
        <ele>541.2</ele>
        <time>2016-07-14T07:35:14Z</time>
      </trkpt>
      <trkpt lat="43.02682" lon="-7.34101">
        <ele>540.9</ele>
        <time>2016-07-14T07:35:21Z</time>
      </trkpt>
      <trkpt lat="43.02674" lon="-7.34108">
        <ele>540.7</ele>
        <time>2016-07-14T07:35:27Z</time>
      </trkpt>
      <trkpt lat="43.02666" lon="-7.34112">
        <ele>540.5</ele>
        <time>2016-07-14T07:35:33Z</time>
      </trkpt>
      <trkpt lat="43.0266" lon="-7.34121">
        <ele>539.6</ele>
        <time>2016-07-14T07:35:42Z</time>
      </trkpt>
      <trkpt lat="43.02651" lon="-7.34127">
        <ele>538.3</ele>
        <time>2016-07-14T07:35:52Z</time>
      </trkpt>
      <trkpt lat="43.02642" lon="-7.34133">
        <ele>537.5</ele>
        <time>2016-07-14T07:35:59Z</time>
      </trkpt>
      <trkpt lat="43.02633" lon="-7.34135">
        <ele>536.9</ele>
        <time>2016-07-14T07:36:04Z</time>
      </trkpt>
      <trkpt lat="43.02623" lon="-7.34137">
        <ele>536.4</ele>
        <time>2016-07-14T07:36:09Z</time>
      </trkpt>
      <trkpt lat="43.02613" lon="-7.3414">
        <ele>535.9</ele>
        <time>2016-07-14T07:36:15Z</time>
      </trkpt>
      <trkpt lat="43.02603" lon="-7.34145">
        <ele>535</ele>
        <time>2016-07-14T07:36:22Z</time>
      </trkpt>
      <trkpt lat="43.02594" lon="-7.34151">
        <ele>534.4</ele>
        <time>2016-07-14T07:36:28Z</time>
      </trkpt>
      <trkpt lat="43.02585" lon="-7.34157">
        <ele>534</ele>
        <time>2016-07-14T07:36:33Z</time>
      </trkpt>
      <trkpt lat="43.02578" lon="-7.34165">
        <ele>533.6</ele>
        <time>2016-07-14T07:36:39Z</time>
      </trkpt>
      <trkpt lat="43.02572" lon="-7.34176">
        <ele>533.3</ele>
        <time>2016-07-14T07:36:45Z</time>
      </trkpt>
      <trkpt lat="43.02571" lon="-7.3419">
        <ele>533</ele>
        <time>2016-07-14T07:36:51Z</time>
      </trkpt>
      <trkpt lat="43.02567" lon="-7.34203">
        <ele>532.6</ele>
        <time>2016-07-14T07:36:57Z</time>
      </trkpt>
      <trkpt lat="43.02563" lon="-7.34215">
        <ele>532.2</ele>
        <time>2016-07-14T07:37:03Z</time>
      </trkpt>
      <trkpt lat="43.02558" lon="-7.34227">
        <ele>531.7</ele>
        <time>2016-07-14T07:37:09Z</time>
      </trkpt>
      <trkpt lat="43.02553" lon="-7.34239">
        <ele>531.4</ele>
        <time>2016-07-14T07:37:15Z</time>
      </trkpt>
      <trkpt lat="43.02549" lon="-7.3425">
        <ele>530.2</ele>
        <time>2016-07-14T07:37:21Z</time>
      </trkpt>
      <trkpt lat="43.02546" lon="-7.34263">
        <ele>529.1</ele>
        <time>2016-07-14T07:37:27Z</time>
      </trkpt>
      <trkpt lat="43.02542" lon="-7.34275">
        <ele>528.1</ele>
        <time>2016-07-14T07:37:34Z</time>
      </trkpt>
      <trkpt lat="43.02538" lon="-7.34288">
        <ele>526.6</ele>
        <time>2016-07-14T07:37:41Z</time>
      </trkpt>
      <trkpt lat="43.02533" lon="-7.343">
        <ele>525.3</ele>
        <time>2016-07-14T07:37:49Z</time>
      </trkpt>
      <trkpt lat="43.02528" lon="-7.34311">
        <ele>524.3</ele>
        <time>2016-07-14T07:37:56Z</time>
      </trkpt>
      <trkpt lat="43.02523" lon="-7.34322">
        <ele>523.4</ele>
        <time>2016-07-14T07:38:02Z</time>
      </trkpt>
      <trkpt lat="43.02518" lon="-7.34335">
        <ele>522.2</ele>
        <time>2016-07-14T07:38:09Z</time>
      </trkpt>
      <trkpt lat="43.02515" lon="-7.34346">
        <ele>521</ele>
        <time>2016-07-14T07:38:16Z</time>
      </trkpt>
      <trkpt lat="43.02511" lon="-7.3436">
        <ele>520.3</ele>
        <time>2016-07-14T07:38:23Z</time>
      </trkpt>
      <trkpt lat="43.02506" lon="-7.34371">
        <ele>519.1</ele>
        <time>2016-07-14T07:38:29Z</time>
      </trkpt>
      <trkpt lat="43.02502" lon="-7.34383">
        <ele>518.2</ele>
        <time>2016-07-14T07:38:36Z</time>
      </trkpt>
      <trkpt lat="43.02499" lon="-7.34396">
        <ele>517.7</ele>
        <time>2016-07-14T07:38:42Z</time>
      </trkpt>
      <trkpt lat="43.02497" lon="-7.34408">
        <ele>517.2</ele>
        <time>2016-07-14T07:38:48Z</time>
      </trkpt>
      <trkpt lat="43.02492" lon="-7.3442">
        <ele>516.8</ele>
        <time>2016-07-14T07:38:55Z</time>
      </trkpt>
      <trkpt lat="43.02487" lon="-7.34432">
        <ele>516.7</ele>
        <time>2016-07-14T07:39:02Z</time>
      </trkpt>
      <trkpt lat="43.02483" lon="-7.34443">
        <ele>516.5</ele>
        <time>2016-07-14T07:39:08Z</time>
      </trkpt>
      <trkpt lat="43.02478" lon="-7.34455">
        <ele>516.3</ele>
        <time>2016-07-14T07:39:15Z</time>
      </trkpt>
      <trkpt lat="43.02474" lon="-7.34467">
        <ele>515.6</ele>
        <time>2016-07-14T07:39:21Z</time>
      </trkpt>
      <trkpt lat="43.02471" lon="-7.34479">
        <ele>515.1</ele>
        <time>2016-07-14T07:39:27Z</time>
      </trkpt>
      <trkpt lat="43.02467" lon="-7.34491">
        <ele>515.2</ele>
        <time>2016-07-14T07:39:34Z</time>
      </trkpt>
      <trkpt lat="43.02463" lon="-7.34504">
        <ele>515.1</ele>
        <time>2016-07-14T07:39:41Z</time>
      </trkpt>
      <trkpt lat="43.02459" lon="-7.34517">
        <ele>514.9</ele>
        <time>2016-07-14T07:39:48Z</time>
      </trkpt>
      <trkpt lat="43.02455" lon="-7.34529">
        <ele>514.5</ele>
        <time>2016-07-14T07:39:56Z</time>
      </trkpt>
      <trkpt lat="43.02451" lon="-7.3454">
        <ele>513.9</ele>
        <time>2016-07-14T07:40:04Z</time>
      </trkpt>
      <trkpt lat="43.02445" lon="-7.34551">
        <ele>512.6</ele>
        <time>2016-07-14T07:40:11Z</time>
      </trkpt>
      <trkpt lat="43.02437" lon="-7.34558">
        <ele>511.5</ele>
        <time>2016-07-14T07:40:17Z</time>
      </trkpt>
      <trkpt lat="43.0243" lon="-7.34564">
        <ele>510.8</ele>
        <time>2016-07-14T07:40:23Z</time>
      </trkpt>
      <trkpt lat="43.02422" lon="-7.34573">
        <ele>510.1</ele>
        <time>2016-07-14T07:40:30Z</time>
      </trkpt>
      <trkpt lat="43.02416" lon="-7.34583">
        <ele>509.7</ele>
        <time>2016-07-14T07:40:36Z</time>
      </trkpt>
      <trkpt lat="43.02412" lon="-7.34594">
        <ele>509.4</ele>
        <time>2016-07-14T07:40:42Z</time>
      </trkpt>
      <trkpt lat="43.02408" lon="-7.34606">
        <ele>509</ele>
        <time>2016-07-14T07:40:48Z</time>
      </trkpt>
      <trkpt lat="43.02403" lon="-7.34617">
        <ele>508.8</ele>
        <time>2016-07-14T07:40:55Z</time>
      </trkpt>
      <trkpt lat="43.02399" lon="-7.34628">
        <ele>508.8</ele>
        <time>2016-07-14T07:41:02Z</time>
      </trkpt>
      <trkpt lat="43.02395" lon="-7.3464">
        <ele>508.7</ele>
        <time>2016-07-14T07:41:09Z</time>
      </trkpt>
      <trkpt lat="43.02391" lon="-7.34651">
        <ele>508.4</ele>
        <time>2016-07-14T07:41:15Z</time>
      </trkpt>
      <trkpt lat="43.02385" lon="-7.34662">
        <ele>508.3</ele>
        <time>2016-07-14T07:41:22Z</time>
      </trkpt>
      <trkpt lat="43.02379" lon="-7.34672">
        <ele>508.1</ele>
        <time>2016-07-14T07:41:30Z</time>
      </trkpt>
      <trkpt lat="43.02373" lon="-7.34683">
        <ele>507.7</ele>
        <time>2016-07-14T07:41:37Z</time>
      </trkpt>
      <trkpt lat="43.02366" lon="-7.34691">
        <ele>507.7</ele>
        <time>2016-07-14T07:41:44Z</time>
      </trkpt>
      <trkpt lat="43.0236" lon="-7.34701">
        <ele>507.8</ele>
        <time>2016-07-14T07:41:52Z</time>
      </trkpt>
      <trkpt lat="43.02359" lon="-7.34715">
        <ele>507.9</ele>
        <time>2016-07-14T07:42:00Z</time>
      </trkpt>
      <trkpt lat="43.02354" lon="-7.34726">
        <ele>508.1</ele>
        <time>2016-07-14T07:42:07Z</time>
      </trkpt>
      <trkpt lat="43.02351" lon="-7.34739">
        <ele>508.6</ele>
        <time>2016-07-14T07:42:14Z</time>
      </trkpt>
      <trkpt lat="43.02351" lon="-7.34751">
        <ele>509.3</ele>
        <time>2016-07-14T07:42:21Z</time>
      </trkpt>
      <trkpt lat="43.0235" lon="-7.34764">
        <ele>510.3</ele>
        <time>2016-07-14T07:42:30Z</time>
      </trkpt>
      <trkpt lat="43.02348" lon="-7.34776">
        <ele>510.8</ele>
        <time>2016-07-14T07:42:36Z</time>
      </trkpt>
      <trkpt lat="43.02347" lon="-7.34789">
        <ele>511.4</ele>
        <time>2016-07-14T07:42:43Z</time>
      </trkpt>
      <trkpt lat="43.02346" lon="-7.34803">
        <ele>511.8</ele>
        <time>2016-07-14T07:42:51Z</time>
      </trkpt>
      <trkpt lat="43.02344" lon="-7.34815">
        <ele>512.3</ele>
        <time>2016-07-14T07:42:58Z</time>
      </trkpt>
      <trkpt lat="43.02343" lon="-7.34828">
        <ele>512.4</ele>
        <time>2016-07-14T07:43:04Z</time>
      </trkpt>
      <trkpt lat="43.02344" lon="-7.3484">
        <ele>512.5</ele>
        <time>2016-07-14T07:43:12Z</time>
      </trkpt>
      <trkpt lat="43.02343" lon="-7.34853">
        <ele>512.4</ele>
        <time>2016-07-14T07:43:19Z</time>
      </trkpt>
      <trkpt lat="43.02341" lon="-7.34866">
        <ele>511.6</ele>
        <time>2016-07-14T07:43:28Z</time>
      </trkpt>
      <trkpt lat="43.02339" lon="-7.34878">
        <ele>511.2</ele>
        <time>2016-07-14T07:43:34Z</time>
      </trkpt>
      <trkpt lat="43.02333" lon="-7.34889">
        <ele>510.7</ele>
        <time>2016-07-14T07:43:40Z</time>
      </trkpt>
      <trkpt lat="43.02328" lon="-7.349">
        <ele>511</ele>
        <time>2016-07-14T07:43:50Z</time>
      </trkpt>
      <trkpt lat="43.0232" lon="-7.34907">
        <ele>510.3</ele>
        <time>2016-07-14T07:44:15Z</time>
      </trkpt>
      <trkpt lat="43.02311" lon="-7.34912">
        <ele>511.7</ele>
        <time>2016-07-14T07:44:25Z</time>
      </trkpt>
      <trkpt lat="43.02302" lon="-7.34915">
        <ele>511.6</ele>
        <time>2016-07-14T07:44:33Z</time>
      </trkpt>
      <trkpt lat="43.02294" lon="-7.3492">
        <ele>511.6</ele>
        <time>2016-07-14T07:44:40Z</time>
      </trkpt>
      <trkpt lat="43.02285" lon="-7.34923">
        <ele>511.8</ele>
        <time>2016-07-14T07:44:46Z</time>
      </trkpt>
      <trkpt lat="43.02276" lon="-7.34927">
        <ele>511.8</ele>
        <time>2016-07-14T07:44:52Z</time>
      </trkpt>
      <trkpt lat="43.02267" lon="-7.34929">
        <ele>511.5</ele>
        <time>2016-07-14T07:44:57Z</time>
      </trkpt>
      <trkpt lat="43.02258" lon="-7.34932">
        <ele>511.2</ele>
        <time>2016-07-14T07:45:03Z</time>
      </trkpt>
      <trkpt lat="43.02249" lon="-7.34939">
        <ele>510.8</ele>
        <time>2016-07-14T07:45:10Z</time>
      </trkpt>
      <trkpt lat="43.02245" lon="-7.34951">
        <ele>510.4</ele>
        <time>2016-07-14T07:45:19Z</time>
      </trkpt>
      <trkpt lat="43.02241" lon="-7.34964">
        <ele>509.7</ele>
        <time>2016-07-14T07:45:27Z</time>
      </trkpt>
      <trkpt lat="43.02237" lon="-7.34976">
        <ele>509.9</ele>
        <time>2016-07-14T07:45:34Z</time>
      </trkpt>
      <trkpt lat="43.02234" lon="-7.34988">
        <ele>510</ele>
        <time>2016-07-14T07:45:40Z</time>
      </trkpt>
      <trkpt lat="43.02231" lon="-7.35">
        <ele>510.1</ele>
        <time>2016-07-14T07:45:46Z</time>
      </trkpt>
      <trkpt lat="43.02227" lon="-7.35011">
        <ele>510</ele>
        <time>2016-07-14T07:45:52Z</time>
      </trkpt>
      <trkpt lat="43.02223" lon="-7.35023">
        <ele>510</ele>
        <time>2016-07-14T07:45:59Z</time>
      </trkpt>
      <trkpt lat="43.02218" lon="-7.35035">
        <ele>510.3</ele>
        <time>2016-07-14T07:46:07Z</time>
      </trkpt>
      <trkpt lat="43.02213" lon="-7.35046">
        <ele>510.5</ele>
        <time>2016-07-14T07:46:13Z</time>
      </trkpt>
      <trkpt lat="43.02209" lon="-7.35057">
        <ele>510.6</ele>
        <time>2016-07-14T07:46:20Z</time>
      </trkpt>
      <trkpt lat="43.02204" lon="-7.35067">
        <ele>510.6</ele>
        <time>2016-07-14T07:46:26Z</time>
      </trkpt>
      <trkpt lat="43.02197" lon="-7.35077">
        <ele>510.6</ele>
        <time>2016-07-14T07:46:32Z</time>
      </trkpt>
      <trkpt lat="43.02192" lon="-7.35087">
        <ele>510.4</ele>
        <time>2016-07-14T07:46:39Z</time>
      </trkpt>
      <trkpt lat="43.02185" lon="-7.35096">
        <ele>510.2</ele>
        <time>2016-07-14T07:46:47Z</time>
      </trkpt>
      <trkpt lat="43.02178" lon="-7.35108">
        <ele>510.4</ele>
        <time>2016-07-14T07:46:55Z</time>
      </trkpt>
      <trkpt lat="43.02172" lon="-7.35117">
        <ele>510.1</ele>
        <time>2016-07-14T07:47:02Z</time>
      </trkpt>
      <trkpt lat="43.02165" lon="-7.35127">
        <ele>510</ele>
        <time>2016-07-14T07:47:08Z</time>
      </trkpt>
      <trkpt lat="43.02158" lon="-7.35135">
        <ele>509.6</ele>
        <time>2016-07-14T07:47:14Z</time>
      </trkpt>
      <trkpt lat="43.02152" lon="-7.35147">
        <ele>509.1</ele>
        <time>2016-07-14T07:47:20Z</time>
      </trkpt>
      <trkpt lat="43.02147" lon="-7.35157">
        <ele>508.8</ele>
        <time>2016-07-14T07:47:25Z</time>
      </trkpt>
      <trkpt lat="43.02142" lon="-7.35168">
        <ele>508.6</ele>
        <time>2016-07-14T07:47:31Z</time>
      </trkpt>
      <trkpt lat="43.02137" lon="-7.3518">
        <ele>508.5</ele>
        <time>2016-07-14T07:47:38Z</time>
      </trkpt>
      <trkpt lat="43.02132" lon="-7.35192">
        <ele>508.6</ele>
        <time>2016-07-14T07:47:45Z</time>
      </trkpt>
      <trkpt lat="43.02127" lon="-7.35203">
        <ele>508.9</ele>
        <time>2016-07-14T07:47:53Z</time>
      </trkpt>
      <trkpt lat="43.02123" lon="-7.35214">
        <ele>509.2</ele>
        <time>2016-07-14T07:48:10Z</time>
      </trkpt>
      <trkpt lat="43.0212" lon="-7.35226">
        <ele>509.3</ele>
        <time>2016-07-14T07:48:20Z</time>
      </trkpt>
      <trkpt lat="43.02113" lon="-7.35235">
        <ele>508.9</ele>
        <time>2016-07-14T07:48:30Z</time>
      </trkpt>
      <trkpt lat="43.02104" lon="-7.35238">
        <ele>508.1</ele>
        <time>2016-07-14T07:48:38Z</time>
      </trkpt>
      <trkpt lat="43.02095" lon="-7.35243">
        <ele>507.5</ele>
        <time>2016-07-14T07:48:44Z</time>
      </trkpt>
      <trkpt lat="43.02093" lon="-7.35256">
        <ele>506.6</ele>
        <time>2016-07-14T07:48:59Z</time>
      </trkpt>
      <trkpt lat="43.02094" lon="-7.35268">
        <ele>506.5</ele>
        <time>2016-07-14T07:49:09Z</time>
      </trkpt>
      <trkpt lat="43.0209" lon="-7.35257">
        <ele>506.3</ele>
        <time>2016-07-14T07:49:27Z</time>
      </trkpt>
      <trkpt lat="43.02082" lon="-7.3525">
        <ele>504.8</ele>
        <time>2016-07-14T07:53:08Z</time>
      </trkpt>
      <trkpt lat="43.02086" lon="-7.35262">
        <ele>504.6</ele>
        <time>2016-07-14T07:53:29Z</time>
      </trkpt>
      <trkpt lat="43.02085" lon="-7.35275">
        <ele>505.1</ele>
        <time>2016-07-14T07:53:40Z</time>
      </trkpt>
      <trkpt lat="43.02082" lon="-7.35288">
        <ele>505.8</ele>
        <time>2016-07-14T07:53:50Z</time>
      </trkpt>
      <trkpt lat="43.02079" lon="-7.353">
        <ele>506.6</ele>
        <time>2016-07-14T07:53:59Z</time>
      </trkpt>
      <trkpt lat="43.02076" lon="-7.35313">
        <ele>507.6</ele>
        <time>2016-07-14T07:54:08Z</time>
      </trkpt>
      <trkpt lat="43.02073" lon="-7.35325">
        <ele>508.6</ele>
        <time>2016-07-14T07:54:16Z</time>
      </trkpt>
      <trkpt lat="43.0207" lon="-7.35338">
        <ele>509.7</ele>
        <time>2016-07-14T07:54:24Z</time>
      </trkpt>
      <trkpt lat="43.02068" lon="-7.3535">
        <ele>511.2</ele>
        <time>2016-07-14T07:54:32Z</time>
      </trkpt>
      <trkpt lat="43.02064" lon="-7.35363">
        <ele>511.9</ele>
        <time>2016-07-14T07:54:40Z</time>
      </trkpt>
      <trkpt lat="43.02062" lon="-7.35377">
        <ele>513.4</ele>
        <time>2016-07-14T07:54:48Z</time>
      </trkpt>
      <trkpt lat="43.02061" lon="-7.35389">
        <ele>514.4</ele>
        <time>2016-07-14T07:54:55Z</time>
      </trkpt>
      <trkpt lat="43.0206" lon="-7.35402">
        <ele>515.4</ele>
        <time>2016-07-14T07:55:02Z</time>
      </trkpt>
      <trkpt lat="43.0206" lon="-7.35416">
        <ele>516.5</ele>
        <time>2016-07-14T07:55:10Z</time>
      </trkpt>
      <trkpt lat="43.0206" lon="-7.35429">
        <ele>517.2</ele>
        <time>2016-07-14T07:55:17Z</time>
      </trkpt>
      <trkpt lat="43.02061" lon="-7.35441">
        <ele>517.8</ele>
        <time>2016-07-14T07:55:24Z</time>
      </trkpt>
      <trkpt lat="43.02061" lon="-7.35454">
        <ele>518.5</ele>
        <time>2016-07-14T07:55:31Z</time>
      </trkpt>
      <trkpt lat="43.02061" lon="-7.35468">
        <ele>519.2</ele>
        <time>2016-07-14T07:55:39Z</time>
      </trkpt>
      <trkpt lat="43.02063" lon="-7.35481">
        <ele>519.5</ele>
        <time>2016-07-14T07:55:47Z</time>
      </trkpt>
      <trkpt lat="43.02067" lon="-7.35492">
        <ele>519.1</ele>
        <time>2016-07-14T07:55:54Z</time>
      </trkpt>
      <trkpt lat="43.02068" lon="-7.35505">
        <ele>518</ele>
        <time>2016-07-14T07:56:02Z</time>
      </trkpt>
      <trkpt lat="43.02066" lon="-7.35519">
        <ele>516.3</ele>
        <time>2016-07-14T07:56:09Z</time>
      </trkpt>
      <trkpt lat="43.02061" lon="-7.35531">
        <ele>513.8</ele>
        <time>2016-07-14T07:56:18Z</time>
      </trkpt>
      <trkpt lat="43.02055" lon="-7.35542">
        <ele>511.4</ele>
        <time>2016-07-14T07:56:26Z</time>
      </trkpt>
      <trkpt lat="43.0205" lon="-7.35553">
        <ele>509.5</ele>
        <time>2016-07-14T07:56:32Z</time>
      </trkpt>
      <trkpt lat="43.02045" lon="-7.35565">
        <ele>508.2</ele>
        <time>2016-07-14T07:56:39Z</time>
      </trkpt>
      <trkpt lat="43.0204" lon="-7.35576">
        <ele>507.3</ele>
        <time>2016-07-14T07:56:46Z</time>
      </trkpt>
      <trkpt lat="43.02038" lon="-7.35589">
        <ele>506.6</ele>
        <time>2016-07-14T07:56:52Z</time>
      </trkpt>
      <trkpt lat="43.02041" lon="-7.35602">
        <ele>505.3</ele>
        <time>2016-07-14T07:57:00Z</time>
      </trkpt>
      <trkpt lat="43.02045" lon="-7.35614">
        <ele>504.3</ele>
        <time>2016-07-14T07:57:08Z</time>
      </trkpt>
      <trkpt lat="43.02046" lon="-7.35626">
        <ele>503.8</ele>
        <time>2016-07-14T07:57:15Z</time>
      </trkpt>
      <trkpt lat="43.02047" lon="-7.35639">
        <ele>503.5</ele>
        <time>2016-07-14T07:57:23Z</time>
      </trkpt>
      <trkpt lat="43.02046" lon="-7.35652">
        <ele>503.3</ele>
        <time>2016-07-14T07:57:29Z</time>
      </trkpt>
      <trkpt lat="43.02045" lon="-7.35665">
        <ele>503.1</ele>
        <time>2016-07-14T07:57:36Z</time>
      </trkpt>
      <trkpt lat="43.02045" lon="-7.35679">
        <ele>503</ele>
        <time>2016-07-14T07:57:43Z</time>
      </trkpt>
      <trkpt lat="43.02043" lon="-7.35692">
        <ele>503.7</ele>
        <time>2016-07-14T07:57:51Z</time>
      </trkpt>
      <trkpt lat="43.02044" lon="-7.35704">
        <ele>504.2</ele>
        <time>2016-07-14T07:57:58Z</time>
      </trkpt>
      <trkpt lat="43.02043" lon="-7.35717">
        <ele>504.5</ele>
        <time>2016-07-14T07:58:05Z</time>
      </trkpt>
      <trkpt lat="43.02041" lon="-7.35729">
        <ele>505.2</ele>
        <time>2016-07-14T07:58:13Z</time>
      </trkpt>
      <trkpt lat="43.02037" lon="-7.35743">
        <ele>505.7</ele>
        <time>2016-07-14T07:58:21Z</time>
      </trkpt>
      <trkpt lat="43.02034" lon="-7.35755">
        <ele>506.1</ele>
        <time>2016-07-14T07:58:28Z</time>
      </trkpt>
      <trkpt lat="43.02033" lon="-7.35768">
        <ele>506.8</ele>
        <time>2016-07-14T07:58:35Z</time>
      </trkpt>
      <trkpt lat="43.02028" lon="-7.3578">
        <ele>507.3</ele>
        <time>2016-07-14T07:58:42Z</time>
      </trkpt>
      <trkpt lat="43.02022" lon="-7.35791">
        <ele>507.6</ele>
        <time>2016-07-14T07:58:49Z</time>
      </trkpt>
      <trkpt lat="43.02016" lon="-7.35802">
        <ele>507.8</ele>
        <time>2016-07-14T07:58:55Z</time>
      </trkpt>
      <trkpt lat="43.02011" lon="-7.35813">
        <ele>507.7</ele>
        <time>2016-07-14T07:59:01Z</time>
      </trkpt>
      <trkpt lat="43.02007" lon="-7.35826">
        <ele>507.3</ele>
        <time>2016-07-14T07:59:07Z</time>
      </trkpt>
      <trkpt lat="43.02003" lon="-7.35838">
        <ele>507</ele>
        <time>2016-07-14T07:59:14Z</time>
      </trkpt>
      <trkpt lat="43.01999" lon="-7.35851">
        <ele>506.9</ele>
        <time>2016-07-14T07:59:21Z</time>
      </trkpt>
      <trkpt lat="43.01997" lon="-7.35863">
        <ele>506.7</ele>
        <time>2016-07-14T07:59:28Z</time>
      </trkpt>
      <trkpt lat="43.01995" lon="-7.35877">
        <ele>506.7</ele>
        <time>2016-07-14T07:59:34Z</time>
      </trkpt>
      <trkpt lat="43.01995" lon="-7.3589">
        <ele>506.6</ele>
        <time>2016-07-14T07:59:42Z</time>
      </trkpt>
      <trkpt lat="43.01994" lon="-7.35903">
        <ele>506.5</ele>
        <time>2016-07-14T07:59:49Z</time>
      </trkpt>
      <trkpt lat="43.01993" lon="-7.35917">
        <ele>506.1</ele>
        <time>2016-07-14T07:59:56Z</time>
      </trkpt>
      <trkpt lat="43.01989" lon="-7.3593">
        <ele>505.7</ele>
        <time>2016-07-14T08:00:03Z</time>
      </trkpt>
      <trkpt lat="43.01985" lon="-7.3594">
        <ele>505.4</ele>
        <time>2016-07-14T08:00:09Z</time>
      </trkpt>
      <trkpt lat="43.01979" lon="-7.35952">
        <ele>505.3</ele>
        <time>2016-07-14T08:00:15Z</time>
      </trkpt>
      <trkpt lat="43.01973" lon="-7.35962">
        <ele>505.6</ele>
        <time>2016-07-14T08:00:20Z</time>
      </trkpt>
      <trkpt lat="43.01967" lon="-7.35974">
        <ele>505.8</ele>
        <time>2016-07-14T08:00:26Z</time>
      </trkpt>
      <trkpt lat="43.01961" lon="-7.35985">
        <ele>506.5</ele>
        <time>2016-07-14T08:00:32Z</time>
      </trkpt>
      <trkpt lat="43.01957" lon="-7.35997">
        <ele>506.9</ele>
        <time>2016-07-14T08:00:39Z</time>
      </trkpt>
      <trkpt lat="43.01951" lon="-7.36008">
        <ele>507.5</ele>
        <time>2016-07-14T08:00:48Z</time>
      </trkpt>
      <trkpt lat="43.01948" lon="-7.36021">
        <ele>507.9</ele>
        <time>2016-07-14T08:00:57Z</time>
      </trkpt>
      <trkpt lat="43.01944" lon="-7.36033">
        <ele>508.2</ele>
        <time>2016-07-14T08:01:03Z</time>
      </trkpt>
      <trkpt lat="43.01939" lon="-7.36044">
        <ele>508.5</ele>
        <time>2016-07-14T08:01:09Z</time>
      </trkpt>
      <trkpt lat="43.01935" lon="-7.36056">
        <ele>508.6</ele>
        <time>2016-07-14T08:01:16Z</time>
      </trkpt>
      <trkpt lat="43.01931" lon="-7.36068">
        <ele>509.3</ele>
        <time>2016-07-14T08:01:24Z</time>
      </trkpt>
      <trkpt lat="43.01925" lon="-7.36078">
        <ele>510.3</ele>
        <time>2016-07-14T08:01:31Z</time>
      </trkpt>
      <trkpt lat="43.01921" lon="-7.36089">
        <ele>511.3</ele>
        <time>2016-07-14T08:01:39Z</time>
      </trkpt>
      <trkpt lat="43.01918" lon="-7.36102">
        <ele>512.5</ele>
        <time>2016-07-14T08:01:48Z</time>
      </trkpt>
      <trkpt lat="43.01914" lon="-7.36115">
        <ele>513.3</ele>
        <time>2016-07-14T08:01:56Z</time>
      </trkpt>
      <trkpt lat="43.01912" lon="-7.36127">
        <ele>514.3</ele>
        <time>2016-07-14T08:02:03Z</time>
      </trkpt>
      <trkpt lat="43.01911" lon="-7.3614">
        <ele>515.4</ele>
        <time>2016-07-14T08:02:10Z</time>
      </trkpt>
      <trkpt lat="43.01914" lon="-7.36151">
        <ele>516.7</ele>
        <time>2016-07-14T08:02:18Z</time>
      </trkpt>
      <trkpt lat="43.01916" lon="-7.36164">
        <ele>518</ele>
        <time>2016-07-14T08:02:27Z</time>
      </trkpt>
      <trkpt lat="43.01921" lon="-7.36176">
        <ele>519.2</ele>
        <time>2016-07-14T08:02:36Z</time>
      </trkpt>
      <trkpt lat="43.01926" lon="-7.36187">
        <ele>520.8</ele>
        <time>2016-07-14T08:02:45Z</time>
      </trkpt>
      <trkpt lat="43.01931" lon="-7.36198">
        <ele>522.2</ele>
        <time>2016-07-14T08:02:54Z</time>
      </trkpt>
      <trkpt lat="43.01933" lon="-7.3621">
        <ele>523.3</ele>
        <time>2016-07-14T08:03:03Z</time>
      </trkpt>
      <trkpt lat="43.01934" lon="-7.36223">
        <ele>524</ele>
        <time>2016-07-14T08:03:10Z</time>
      </trkpt>
      <trkpt lat="43.01935" lon="-7.36236">
        <ele>524.4</ele>
        <time>2016-07-14T08:03:18Z</time>
      </trkpt>
      <trkpt lat="43.01932" lon="-7.36249">
        <ele>524.7</ele>
        <time>2016-07-14T08:03:25Z</time>
      </trkpt>
      <trkpt lat="43.01932" lon="-7.36261">
        <ele>525</ele>
        <time>2016-07-14T08:03:33Z</time>
      </trkpt>
      <trkpt lat="43.01933" lon="-7.36275">
        <ele>525.2</ele>
        <time>2016-07-14T08:03:41Z</time>
      </trkpt>
      <trkpt lat="43.01931" lon="-7.36288">
        <ele>525.3</ele>
        <time>2016-07-14T08:03:48Z</time>
      </trkpt>
      <trkpt lat="43.01927" lon="-7.36301">
        <ele>525.3</ele>
        <time>2016-07-14T08:03:55Z</time>
      </trkpt>
      <trkpt lat="43.01925" lon="-7.36313">
        <ele>525.2</ele>
        <time>2016-07-14T08:04:02Z</time>
      </trkpt>
      <trkpt lat="43.01916" lon="-7.36319">
        <ele>524.9</ele>
        <time>2016-07-14T08:04:12Z</time>
      </trkpt>
      <trkpt lat="43.01907" lon="-7.36316">
        <ele>523.4</ele>
        <time>2016-07-14T08:04:41Z</time>
      </trkpt>
      <trkpt lat="43.01902" lon="-7.36327">
        <ele>521.9</ele>
        <time>2016-07-14T08:05:33Z</time>
      </trkpt>
      <trkpt lat="43.01901" lon="-7.36341">
        <ele>521.8</ele>
        <time>2016-07-14T08:05:40Z</time>
      </trkpt>
      <trkpt lat="43.01906" lon="-7.36352">
        <ele>521.6</ele>
        <time>2016-07-14T08:05:47Z</time>
      </trkpt>
      <trkpt lat="43.01912" lon="-7.36362">
        <ele>521.6</ele>
        <time>2016-07-14T08:05:53Z</time>
      </trkpt>
      <trkpt lat="43.01918" lon="-7.36371">
        <ele>521.9</ele>
        <time>2016-07-14T08:05:59Z</time>
      </trkpt>
      <trkpt lat="43.01924" lon="-7.36382">
        <ele>522.1</ele>
        <time>2016-07-14T08:06:06Z</time>
      </trkpt>
      <trkpt lat="43.01929" lon="-7.36393">
        <ele>522.3</ele>
        <time>2016-07-14T08:06:13Z</time>
      </trkpt>
      <trkpt lat="43.01934" lon="-7.36404">
        <ele>522.1</ele>
        <time>2016-07-14T08:06:20Z</time>
      </trkpt>
      <trkpt lat="43.01937" lon="-7.36416">
        <ele>521.7</ele>
        <time>2016-07-14T08:06:27Z</time>
      </trkpt>
      <trkpt lat="43.01938" lon="-7.3643">
        <ele>521.7</ele>
        <time>2016-07-14T08:06:35Z</time>
      </trkpt>
      <trkpt lat="43.01937" lon="-7.36443">
        <ele>521.8</ele>
        <time>2016-07-14T08:06:43Z</time>
      </trkpt>
      <trkpt lat="43.01935" lon="-7.36455">
        <ele>522.3</ele>
        <time>2016-07-14T08:06:50Z</time>
      </trkpt>
      <trkpt lat="43.01937" lon="-7.36467">
        <ele>522.8</ele>
        <time>2016-07-14T08:06:58Z</time>
      </trkpt>
      <trkpt lat="43.01938" lon="-7.3648">
        <ele>523.1</ele>
        <time>2016-07-14T08:07:06Z</time>
      </trkpt>
      <trkpt lat="43.01939" lon="-7.36492">
        <ele>523.2</ele>
        <time>2016-07-14T08:07:14Z</time>
      </trkpt>
      <trkpt lat="43.01935" lon="-7.36504">
        <ele>523.8</ele>
        <time>2016-07-14T08:07:21Z</time>
      </trkpt>
      <trkpt lat="43.0193" lon="-7.36515">
        <ele>524.4</ele>
        <time>2016-07-14T08:07:28Z</time>
      </trkpt>
      <trkpt lat="43.01923" lon="-7.36524">
        <ele>524.8</ele>
        <time>2016-07-14T08:07:35Z</time>
      </trkpt>
      <trkpt lat="43.01915" lon="-7.36533">
        <ele>525</ele>
        <time>2016-07-14T08:07:43Z</time>
      </trkpt>
      <trkpt lat="43.01906" lon="-7.3654">
        <ele>524.9</ele>
        <time>2016-07-14T08:07:51Z</time>
      </trkpt>
      <trkpt lat="43.01897" lon="-7.36546">
        <ele>525.1</ele>
        <time>2016-07-14T08:07:59Z</time>
      </trkpt>
      <trkpt lat="43.01888" lon="-7.36549">
        <ele>524.9</ele>
        <time>2016-07-14T08:08:06Z</time>
      </trkpt>
      <trkpt lat="43.01879" lon="-7.36549">
        <ele>524.7</ele>
        <time>2016-07-14T08:08:13Z</time>
      </trkpt>
      <trkpt lat="43.01869" lon="-7.36548">
        <ele>523.9</ele>
        <time>2016-07-14T08:08:20Z</time>
      </trkpt>
      <trkpt lat="43.01859" lon="-7.36545">
        <ele>523.7</ele>
        <time>2016-07-14T08:08:28Z</time>
      </trkpt>
      <trkpt lat="43.0185" lon="-7.36543">
        <ele>523.4</ele>
        <time>2016-07-14T08:08:35Z</time>
      </trkpt>
      <trkpt lat="43.0184" lon="-7.36545">
        <ele>523</ele>
        <time>2016-07-14T08:08:41Z</time>
      </trkpt>
      <trkpt lat="43.01832" lon="-7.36548">
        <ele>522.5</ele>
        <time>2016-07-14T08:08:47Z</time>
      </trkpt>
      <trkpt lat="43.01823" lon="-7.36556">
        <ele>521.7</ele>
        <time>2016-07-14T08:08:54Z</time>
      </trkpt>
      <trkpt lat="43.0182" lon="-7.36568">
        <ele>520</ele>
        <time>2016-07-14T08:09:20Z</time>
      </trkpt>
      <trkpt lat="43.01818" lon="-7.3658">
        <ele>519.4</ele>
        <time>2016-07-14T08:09:29Z</time>
      </trkpt>
      <trkpt lat="43.01819" lon="-7.36593">
        <ele>519.1</ele>
        <time>2016-07-14T08:09:38Z</time>
      </trkpt>
      <trkpt lat="43.01817" lon="-7.36604">
        <ele>518.9</ele>
        <time>2016-07-14T08:09:46Z</time>
      </trkpt>
      <trkpt lat="43.01809" lon="-7.36611">
        <ele>518.6</ele>
        <time>2016-07-14T08:09:55Z</time>
      </trkpt>
      <trkpt lat="43.01799" lon="-7.36617">
        <ele>518.4</ele>
        <time>2016-07-14T08:10:04Z</time>
      </trkpt>
      <trkpt lat="43.01792" lon="-7.36625">
        <ele>518.3</ele>
        <time>2016-07-14T08:10:13Z</time>
      </trkpt>
      <trkpt lat="43.01789" lon="-7.36637">
        <ele>517.8</ele>
        <time>2016-07-14T08:10:19Z</time>
      </trkpt>
      <trkpt lat="43.01788" lon="-7.36651">
        <ele>517.5</ele>
        <time>2016-07-14T08:10:26Z</time>
      </trkpt>
      <trkpt lat="43.0179" lon="-7.36665">
        <ele>517.4</ele>
        <time>2016-07-14T08:10:34Z</time>
      </trkpt>
      <trkpt lat="43.01792" lon="-7.36679">
        <ele>517.3</ele>
        <time>2016-07-14T08:10:41Z</time>
      </trkpt>
      <trkpt lat="43.01795" lon="-7.36692">
        <ele>516.7</ele>
        <time>2016-07-14T08:10:48Z</time>
      </trkpt>
      <trkpt lat="43.01798" lon="-7.36705">
        <ele>516.2</ele>
        <time>2016-07-14T08:10:54Z</time>
      </trkpt>
      <trkpt lat="43.01802" lon="-7.36717">
        <ele>515.3</ele>
        <time>2016-07-14T08:11:01Z</time>
      </trkpt>
      <trkpt lat="43.01805" lon="-7.36729">
        <ele>514.3</ele>
        <time>2016-07-14T08:11:08Z</time>
      </trkpt>
      <trkpt lat="43.01804" lon="-7.36742">
        <ele>513.2</ele>
        <time>2016-07-14T08:11:16Z</time>
      </trkpt>
      <trkpt lat="43.01805" lon="-7.36755">
        <ele>512.1</ele>
        <time>2016-07-14T08:11:24Z</time>
      </trkpt>
      <trkpt lat="43.01807" lon="-7.36768">
        <ele>511.2</ele>
        <time>2016-07-14T08:11:32Z</time>
      </trkpt>
      <trkpt lat="43.0181" lon="-7.3678">
        <ele>510.5</ele>
        <time>2016-07-14T08:11:39Z</time>
      </trkpt>
      <trkpt lat="43.01814" lon="-7.36793">
        <ele>509.6</ele>
        <time>2016-07-14T08:11:46Z</time>
      </trkpt>
      <trkpt lat="43.01816" lon="-7.36805">
        <ele>508.6</ele>
        <time>2016-07-14T08:11:53Z</time>
      </trkpt>
      <trkpt lat="43.01817" lon="-7.36819">
        <ele>507.6</ele>
        <time>2016-07-14T08:12:01Z</time>
      </trkpt>
      <trkpt lat="43.01817" lon="-7.36833">
        <ele>506.6</ele>
        <time>2016-07-14T08:12:09Z</time>
      </trkpt>
      <trkpt lat="43.01817" lon="-7.36846">
        <ele>505.3</ele>
        <time>2016-07-14T08:12:16Z</time>
      </trkpt>
      <trkpt lat="43.01817" lon="-7.36859">
        <ele>503.8</ele>
        <time>2016-07-14T08:12:24Z</time>
      </trkpt>
      <trkpt lat="43.01819" lon="-7.36872">
        <ele>502.6</ele>
        <time>2016-07-14T08:12:32Z</time>
      </trkpt>
      <trkpt lat="43.01818" lon="-7.36885">
        <ele>501.5</ele>
        <time>2016-07-14T08:12:39Z</time>
      </trkpt>
      <trkpt lat="43.01817" lon="-7.36899">
        <ele>500.1</ele>
        <time>2016-07-14T08:12:46Z</time>
      </trkpt>
      <trkpt lat="43.01815" lon="-7.36911">
        <ele>499.1</ele>
        <time>2016-07-14T08:12:53Z</time>
      </trkpt>
      <trkpt lat="43.01814" lon="-7.36925">
        <ele>498.2</ele>
        <time>2016-07-14T08:13:00Z</time>
      </trkpt>
      <trkpt lat="43.01812" lon="-7.36937">
        <ele>497.7</ele>
        <time>2016-07-14T08:13:07Z</time>
      </trkpt>
      <trkpt lat="43.01812" lon="-7.36951">
        <ele>497.3</ele>
        <time>2016-07-14T08:13:14Z</time>
      </trkpt>
      <trkpt lat="43.01814" lon="-7.36964">
        <ele>496.8</ele>
        <time>2016-07-14T08:13:21Z</time>
      </trkpt>
      <trkpt lat="43.01814" lon="-7.36977">
        <ele>496.5</ele>
        <time>2016-07-14T08:13:28Z</time>
      </trkpt>
      <trkpt lat="43.01816" lon="-7.36989">
        <ele>496</ele>
        <time>2016-07-14T08:13:37Z</time>
      </trkpt>
      <trkpt lat="43.01817" lon="-7.37003">
        <ele>495.6</ele>
        <time>2016-07-14T08:13:45Z</time>
      </trkpt>
      <trkpt lat="43.01816" lon="-7.37017">
        <ele>495.1</ele>
        <time>2016-07-14T08:13:52Z</time>
      </trkpt>
      <trkpt lat="43.01813" lon="-7.37029">
        <ele>495</ele>
        <time>2016-07-14T08:14:01Z</time>
      </trkpt>
      <trkpt lat="43.01809" lon="-7.3704">
        <ele>495.4</ele>
        <time>2016-07-14T08:14:08Z</time>
      </trkpt>
      <trkpt lat="43.01804" lon="-7.37053">
        <ele>496.1</ele>
        <time>2016-07-14T08:14:16Z</time>
      </trkpt>
      <trkpt lat="43.01798" lon="-7.37063">
        <ele>496.4</ele>
        <time>2016-07-14T08:14:24Z</time>
      </trkpt>
      <trkpt lat="43.01793" lon="-7.37074">
        <ele>496.6</ele>
        <time>2016-07-14T08:14:30Z</time>
      </trkpt>
      <trkpt lat="43.01786" lon="-7.37085">
        <ele>497</ele>
        <time>2016-07-14T08:14:37Z</time>
      </trkpt>
      <trkpt lat="43.0178" lon="-7.37095">
        <ele>497.3</ele>
        <time>2016-07-14T08:14:44Z</time>
      </trkpt>
      <trkpt lat="43.01775" lon="-7.37107">
        <ele>497.8</ele>
        <time>2016-07-14T08:14:52Z</time>
      </trkpt>
      <trkpt lat="43.01771" lon="-7.37118">
        <ele>498.4</ele>
        <time>2016-07-14T08:14:59Z</time>
      </trkpt>
      <trkpt lat="43.01768" lon="-7.3713">
        <ele>498.7</ele>
        <time>2016-07-14T08:15:06Z</time>
      </trkpt>
      <trkpt lat="43.01764" lon="-7.37142">
        <ele>499</ele>
        <time>2016-07-14T08:15:13Z</time>
      </trkpt>
      <trkpt lat="43.0176" lon="-7.37154">
        <ele>499.3</ele>
        <time>2016-07-14T08:15:20Z</time>
      </trkpt>
      <trkpt lat="43.01757" lon="-7.37168">
        <ele>499.9</ele>
        <time>2016-07-14T08:15:27Z</time>
      </trkpt>
      <trkpt lat="43.01754" lon="-7.3718">
        <ele>500.5</ele>
        <time>2016-07-14T08:15:34Z</time>
      </trkpt>
      <trkpt lat="43.01747" lon="-7.3719">
        <ele>501.2</ele>
        <time>2016-07-14T08:15:42Z</time>
      </trkpt>
      <trkpt lat="43.01742" lon="-7.372">
        <ele>501.7</ele>
        <time>2016-07-14T08:15:50Z</time>
      </trkpt>
      <trkpt lat="43.01737" lon="-7.37211">
        <ele>502.1</ele>
        <time>2016-07-14T08:15:57Z</time>
      </trkpt>
      <trkpt lat="43.01731" lon="-7.37221">
        <ele>502.9</ele>
        <time>2016-07-14T08:16:05Z</time>
      </trkpt>
      <trkpt lat="43.01726" lon="-7.37232">
        <ele>503.7</ele>
        <time>2016-07-14T08:16:13Z</time>
      </trkpt>
      <trkpt lat="43.01721" lon="-7.37243">
        <ele>504.3</ele>
        <time>2016-07-14T08:16:19Z</time>
      </trkpt>
      <trkpt lat="43.01714" lon="-7.37253">
        <ele>504.9</ele>
        <time>2016-07-14T08:16:26Z</time>
      </trkpt>
      <trkpt lat="43.01708" lon="-7.37263">
        <ele>505.4</ele>
        <time>2016-07-14T08:16:34Z</time>
      </trkpt>
      <trkpt lat="43.01704" lon="-7.37276">
        <ele>506.2</ele>
        <time>2016-07-14T08:16:41Z</time>
      </trkpt>
      <trkpt lat="43.01702" lon="-7.37289">
        <ele>507.1</ele>
        <time>2016-07-14T08:16:48Z</time>
      </trkpt>
      <trkpt lat="43.017" lon="-7.37301">
        <ele>507.7</ele>
        <time>2016-07-14T08:16:55Z</time>
      </trkpt>
      <trkpt lat="43.01697" lon="-7.37314">
        <ele>508.1</ele>
        <time>2016-07-14T08:17:03Z</time>
      </trkpt>
      <trkpt lat="43.01695" lon="-7.37327">
        <ele>508.3</ele>
        <time>2016-07-14T08:17:11Z</time>
      </trkpt>
      <trkpt lat="43.01694" lon="-7.3734">
        <ele>508.7</ele>
        <time>2016-07-14T08:17:20Z</time>
      </trkpt>
      <trkpt lat="43.01692" lon="-7.37353">
        <ele>509</ele>
        <time>2016-07-14T08:17:26Z</time>
      </trkpt>
      <trkpt lat="43.01688" lon="-7.37366">
        <ele>509.3</ele>
        <time>2016-07-14T08:17:35Z</time>
      </trkpt>
      <trkpt lat="43.01685" lon="-7.37378">
        <ele>509.5</ele>
        <time>2016-07-14T08:17:42Z</time>
      </trkpt>
      <trkpt lat="43.01684" lon="-7.37391">
        <ele>510.1</ele>
        <time>2016-07-14T08:17:49Z</time>
      </trkpt>
      <trkpt lat="43.01682" lon="-7.37403">
        <ele>510.6</ele>
        <time>2016-07-14T08:17:56Z</time>
      </trkpt>
      <trkpt lat="43.01683" lon="-7.37416">
        <ele>511</ele>
        <time>2016-07-14T08:18:03Z</time>
      </trkpt>
      <trkpt lat="43.01686" lon="-7.37429">
        <ele>511.8</ele>
        <time>2016-07-14T08:18:10Z</time>
      </trkpt>
      <trkpt lat="43.01689" lon="-7.37441">
        <ele>512.6</ele>
        <time>2016-07-14T08:18:17Z</time>
      </trkpt>
      <trkpt lat="43.01694" lon="-7.37453">
        <ele>513.5</ele>
        <time>2016-07-14T08:18:25Z</time>
      </trkpt>
      <trkpt lat="43.017" lon="-7.37464">
        <ele>514.3</ele>
        <time>2016-07-14T08:18:32Z</time>
      </trkpt>
      <trkpt lat="43.01707" lon="-7.37475">
        <ele>514.8</ele>
        <time>2016-07-14T08:18:39Z</time>
      </trkpt>
      <trkpt lat="43.01714" lon="-7.37485">
        <ele>515.2</ele>
        <time>2016-07-14T08:18:48Z</time>
      </trkpt>
      <trkpt lat="43.01721" lon="-7.37495">
        <ele>515.8</ele>
        <time>2016-07-14T08:18:56Z</time>
      </trkpt>
      <trkpt lat="43.01727" lon="-7.37505">
        <ele>516.5</ele>
        <time>2016-07-14T08:19:03Z</time>
      </trkpt>
      <trkpt lat="43.01733" lon="-7.37516">
        <ele>517.3</ele>
        <time>2016-07-14T08:19:11Z</time>
      </trkpt>
      <trkpt lat="43.0174" lon="-7.37525">
        <ele>518.2</ele>
        <time>2016-07-14T08:19:19Z</time>
      </trkpt>
      <trkpt lat="43.01747" lon="-7.37535">
        <ele>518.7</ele>
        <time>2016-07-14T08:19:26Z</time>
      </trkpt>
      <trkpt lat="43.01752" lon="-7.37545">
        <ele>519.5</ele>
        <time>2016-07-14T08:19:35Z</time>
      </trkpt>
      <trkpt lat="43.01755" lon="-7.37558">
        <ele>520.8</ele>
        <time>2016-07-14T08:19:46Z</time>
      </trkpt>
      <trkpt lat="43.01759" lon="-7.37571">
        <ele>521.8</ele>
        <time>2016-07-14T08:19:56Z</time>
      </trkpt>
      <trkpt lat="43.01761" lon="-7.37583">
        <ele>522.7</ele>
        <time>2016-07-14T08:20:05Z</time>
      </trkpt>
      <trkpt lat="43.01764" lon="-7.37595">
        <ele>523.6</ele>
        <time>2016-07-14T08:20:14Z</time>
      </trkpt>
      <trkpt lat="43.01768" lon="-7.37606">
        <ele>524.5</ele>
        <time>2016-07-14T08:20:22Z</time>
      </trkpt>
      <trkpt lat="43.01773" lon="-7.37617">
        <ele>525.7</ele>
        <time>2016-07-14T08:20:30Z</time>
      </trkpt>
      <trkpt lat="43.01776" lon="-7.3763">
        <ele>526.7</ele>
        <time>2016-07-14T08:20:39Z</time>
      </trkpt>
      <trkpt lat="43.01777" lon="-7.37643">
        <ele>527.2</ele>
        <time>2016-07-14T08:20:46Z</time>
      </trkpt>
      <trkpt lat="43.01778" lon="-7.37657">
        <ele>527.7</ele>
        <time>2016-07-14T08:20:53Z</time>
      </trkpt>
      <trkpt lat="43.01774" lon="-7.3767">
        <ele>528</ele>
        <time>2016-07-14T08:21:00Z</time>
      </trkpt>
      <trkpt lat="43.01778" lon="-7.37682">
        <ele>528.3</ele>
        <time>2016-07-14T08:21:08Z</time>
      </trkpt>
      <trkpt lat="43.01779" lon="-7.37694">
        <ele>528.6</ele>
        <time>2016-07-14T08:21:15Z</time>
      </trkpt>
      <trkpt lat="43.01777" lon="-7.37706">
        <ele>529</ele>
        <time>2016-07-14T08:21:21Z</time>
      </trkpt>
      <trkpt lat="43.01773" lon="-7.37719">
        <ele>529.3</ele>
        <time>2016-07-14T08:21:27Z</time>
      </trkpt>
      <trkpt lat="43.01771" lon="-7.37731">
        <ele>529.5</ele>
        <time>2016-07-14T08:21:34Z</time>
      </trkpt>
      <trkpt lat="43.01769" lon="-7.37743">
        <ele>529.6</ele>
        <time>2016-07-14T08:21:41Z</time>
      </trkpt>
      <trkpt lat="43.01767" lon="-7.37756">
        <ele>529.9</ele>
        <time>2016-07-14T08:21:48Z</time>
      </trkpt>
      <trkpt lat="43.01768" lon="-7.3777">
        <ele>530.6</ele>
        <time>2016-07-14T08:21:58Z</time>
      </trkpt>
      <trkpt lat="43.01772" lon="-7.37782">
        <ele>531.7</ele>
        <time>2016-07-14T08:22:06Z</time>
      </trkpt>
      <trkpt lat="43.01776" lon="-7.37795">
        <ele>532.2</ele>
        <time>2016-07-14T08:22:13Z</time>
      </trkpt>
      <trkpt lat="43.01779" lon="-7.37807">
        <ele>532.6</ele>
        <time>2016-07-14T08:22:21Z</time>
      </trkpt>
      <trkpt lat="43.01782" lon="-7.37821">
        <ele>532.8</ele>
        <time>2016-07-14T08:22:28Z</time>
      </trkpt>
      <trkpt lat="43.01785" lon="-7.37832">
        <ele>533.4</ele>
        <time>2016-07-14T08:22:35Z</time>
      </trkpt>
      <trkpt lat="43.0179" lon="-7.37844">
        <ele>533.9</ele>
        <time>2016-07-14T08:22:42Z</time>
      </trkpt>
      <trkpt lat="43.01794" lon="-7.37855">
        <ele>534.4</ele>
        <time>2016-07-14T08:22:49Z</time>
      </trkpt>
      <trkpt lat="43.01799" lon="-7.37866">
        <ele>534.7</ele>
        <time>2016-07-14T08:22:56Z</time>
      </trkpt>
      <trkpt lat="43.01803" lon="-7.37878">
        <ele>535</ele>
        <time>2016-07-14T08:23:04Z</time>
      </trkpt>
      <trkpt lat="43.01808" lon="-7.37889">
        <ele>535.3</ele>
        <time>2016-07-14T08:23:11Z</time>
      </trkpt>
      <trkpt lat="43.01813" lon="-7.37901">
        <ele>535.5</ele>
        <time>2016-07-14T08:23:19Z</time>
      </trkpt>
      <trkpt lat="43.01815" lon="-7.37914">
        <ele>536</ele>
        <time>2016-07-14T08:23:27Z</time>
      </trkpt>
      <trkpt lat="43.01817" lon="-7.37927">
        <ele>536</ele>
        <time>2016-07-14T08:23:34Z</time>
      </trkpt>
      <trkpt lat="43.01817" lon="-7.37941">
        <ele>535.8</ele>
        <time>2016-07-14T08:23:42Z</time>
      </trkpt>
      <trkpt lat="43.01815" lon="-7.37955">
        <ele>535.7</ele>
        <time>2016-07-14T08:23:49Z</time>
      </trkpt>
      <trkpt lat="43.01812" lon="-7.37967">
        <ele>535.4</ele>
        <time>2016-07-14T08:23:55Z</time>
      </trkpt>
      <trkpt lat="43.01809" lon="-7.37979">
        <ele>535.1</ele>
        <time>2016-07-14T08:24:01Z</time>
      </trkpt>
      <trkpt lat="43.01808" lon="-7.37992">
        <ele>534.3</ele>
        <time>2016-07-14T08:24:09Z</time>
      </trkpt>
      <trkpt lat="43.01808" lon="-7.38005">
        <ele>533.8</ele>
        <time>2016-07-14T08:24:17Z</time>
      </trkpt>
      <trkpt lat="43.01809" lon="-7.38019">
        <ele>533.2</ele>
        <time>2016-07-14T08:24:25Z</time>
      </trkpt>
      <trkpt lat="43.01809" lon="-7.38033">
        <ele>532.6</ele>
        <time>2016-07-14T08:24:33Z</time>
      </trkpt>
      <trkpt lat="43.01811" lon="-7.38046">
        <ele>532.2</ele>
        <time>2016-07-14T08:24:38Z</time>
      </trkpt>
      <trkpt lat="43.01814" lon="-7.38058">
        <ele>532.4</ele>
        <time>2016-07-14T08:24:44Z</time>
      </trkpt>
      <trkpt lat="43.01818" lon="-7.3807">
        <ele>531.5</ele>
        <time>2016-07-14T08:24:50Z</time>
      </trkpt>
      <trkpt lat="43.01819" lon="-7.38083">
        <ele>531.6</ele>
        <time>2016-07-14T08:24:56Z</time>
      </trkpt>
      <trkpt lat="43.01821" lon="-7.38097">
        <ele>530.9</ele>
        <time>2016-07-14T08:25:03Z</time>
      </trkpt>
      <trkpt lat="43.0182" lon="-7.38109">
        <ele>531.2</ele>
        <time>2016-07-14T08:25:11Z</time>
      </trkpt>
      <trkpt lat="43.01821" lon="-7.38123">
        <ele>530.8</ele>
        <time>2016-07-14T08:25:18Z</time>
      </trkpt>
      <trkpt lat="43.01821" lon="-7.38136">
        <ele>530.3</ele>
        <time>2016-07-14T08:25:24Z</time>
      </trkpt>
      <trkpt lat="43.01822" lon="-7.38149">
        <ele>529.3</ele>
        <time>2016-07-14T08:25:30Z</time>
      </trkpt>
      <trkpt lat="43.01823" lon="-7.38162">
        <ele>528.4</ele>
        <time>2016-07-14T08:25:36Z</time>
      </trkpt>
      <trkpt lat="43.01822" lon="-7.38174">
        <ele>527.7</ele>
        <time>2016-07-14T08:25:42Z</time>
      </trkpt>
      <trkpt lat="43.01818" lon="-7.38187">
        <ele>527.2</ele>
        <time>2016-07-14T08:25:49Z</time>
      </trkpt>
      <trkpt lat="43.01814" lon="-7.38198">
        <ele>526.5</ele>
        <time>2016-07-14T08:25:55Z</time>
      </trkpt>
      <trkpt lat="43.01809" lon="-7.3821">
        <ele>525.6</ele>
        <time>2016-07-14T08:26:02Z</time>
      </trkpt>
      <trkpt lat="43.01802" lon="-7.3822">
        <ele>524.9</ele>
        <time>2016-07-14T08:26:09Z</time>
      </trkpt>
      <trkpt lat="43.01795" lon="-7.38229">
        <ele>524.3</ele>
        <time>2016-07-14T08:26:16Z</time>
      </trkpt>
      <trkpt lat="43.01789" lon="-7.38238">
        <ele>523.9</ele>
        <time>2016-07-14T08:26:24Z</time>
      </trkpt>
      <trkpt lat="43.01782" lon="-7.38246">
        <ele>523.4</ele>
        <time>2016-07-14T08:26:32Z</time>
      </trkpt>
      <trkpt lat="43.01776" lon="-7.38256">
        <ele>522.4</ele>
        <time>2016-07-14T08:26:43Z</time>
      </trkpt>
      <trkpt lat="43.0177" lon="-7.38267">
        <ele>521.6</ele>
        <time>2016-07-14T08:26:50Z</time>
      </trkpt>
      <trkpt lat="43.01766" lon="-7.38279">
        <ele>520.8</ele>
        <time>2016-07-14T08:26:57Z</time>
      </trkpt>
      <trkpt lat="43.01763" lon="-7.38291">
        <ele>520</ele>
        <time>2016-07-14T08:27:03Z</time>
      </trkpt>
      <trkpt lat="43.01758" lon="-7.38303">
        <ele>518.9</ele>
        <time>2016-07-14T08:27:11Z</time>
      </trkpt>
      <trkpt lat="43.01755" lon="-7.38317">
        <ele>517.2</ele>
        <time>2016-07-14T08:27:20Z</time>
      </trkpt>
      <trkpt lat="43.01753" lon="-7.3833">
        <ele>516.4</ele>
        <time>2016-07-14T08:27:27Z</time>
      </trkpt>
      <trkpt lat="43.01755" lon="-7.38343">
        <ele>515.4</ele>
        <time>2016-07-14T08:27:34Z</time>
      </trkpt>
      <trkpt lat="43.01757" lon="-7.38355">
        <ele>514.8</ele>
        <time>2016-07-14T08:27:40Z</time>
      </trkpt>
      <trkpt lat="43.01761" lon="-7.38368">
        <ele>514.3</ele>
        <time>2016-07-14T08:27:47Z</time>
      </trkpt>
      <trkpt lat="43.01765" lon="-7.3838">
        <ele>513.9</ele>
        <time>2016-07-14T08:27:54Z</time>
      </trkpt>
      <trkpt lat="43.01768" lon="-7.38394">
        <ele>513.6</ele>
        <time>2016-07-14T08:28:01Z</time>
      </trkpt>
      <trkpt lat="43.01769" lon="-7.38407">
        <ele>513.4</ele>
        <time>2016-07-14T08:28:08Z</time>
      </trkpt>
      <trkpt lat="43.01766" lon="-7.38418">
        <ele>513.4</ele>
        <time>2016-07-14T08:28:15Z</time>
      </trkpt>
      <trkpt lat="43.01761" lon="-7.38429">
        <ele>513.3</ele>
        <time>2016-07-14T08:28:22Z</time>
      </trkpt>
      <trkpt lat="43.01754" lon="-7.3844">
        <ele>513.1</ele>
        <time>2016-07-14T08:28:29Z</time>
      </trkpt>
      <trkpt lat="43.01748" lon="-7.3845">
        <ele>512.9</ele>
        <time>2016-07-14T08:28:35Z</time>
      </trkpt>
      <trkpt lat="43.01742" lon="-7.38459">
        <ele>513</ele>
        <time>2016-07-14T08:28:40Z</time>
      </trkpt>
      <trkpt lat="43.01737" lon="-7.38469">
        <ele>513.1</ele>
        <time>2016-07-14T08:28:46Z</time>
      </trkpt>
      <trkpt lat="43.0173" lon="-7.38479">
        <ele>513.2</ele>
        <time>2016-07-14T08:28:52Z</time>
      </trkpt>
      <trkpt lat="43.01725" lon="-7.3849">
        <ele>513.3</ele>
        <time>2016-07-14T08:28:58Z</time>
      </trkpt>
      <trkpt lat="43.01722" lon="-7.38502">
        <ele>513.8</ele>
        <time>2016-07-14T08:29:05Z</time>
      </trkpt>
      <trkpt lat="43.01719" lon="-7.38515">
        <ele>514</ele>
        <time>2016-07-14T08:29:12Z</time>
      </trkpt>
      <trkpt lat="43.01717" lon="-7.38528">
        <ele>514.3</ele>
        <time>2016-07-14T08:29:20Z</time>
      </trkpt>
      <trkpt lat="43.01714" lon="-7.38541">
        <ele>514.5</ele>
        <time>2016-07-14T08:29:28Z</time>
      </trkpt>
      <trkpt lat="43.01711" lon="-7.38553">
        <ele>514.7</ele>
        <time>2016-07-14T08:29:35Z</time>
      </trkpt>
      <trkpt lat="43.01708" lon="-7.38565">
        <ele>515</ele>
        <time>2016-07-14T08:29:42Z</time>
      </trkpt>
      <trkpt lat="43.01704" lon="-7.38576">
        <ele>515.4</ele>
        <time>2016-07-14T08:29:49Z</time>
      </trkpt>
      <trkpt lat="43.01702" lon="-7.38589">
        <ele>515.6</ele>
        <time>2016-07-14T08:29:57Z</time>
      </trkpt>
      <trkpt lat="43.017" lon="-7.38602">
        <ele>515.9</ele>
        <time>2016-07-14T08:30:05Z</time>
      </trkpt>
      <trkpt lat="43.01698" lon="-7.38615">
        <ele>516</ele>
        <time>2016-07-14T08:30:13Z</time>
      </trkpt>
      <trkpt lat="43.01696" lon="-7.38628">
        <ele>516.3</ele>
        <time>2016-07-14T08:30:20Z</time>
      </trkpt>
      <trkpt lat="43.01695" lon="-7.3864">
        <ele>516.5</ele>
        <time>2016-07-14T08:30:27Z</time>
      </trkpt>
      <trkpt lat="43.01695" lon="-7.38654">
        <ele>516.7</ele>
        <time>2016-07-14T08:30:36Z</time>
      </trkpt>
      <trkpt lat="43.01695" lon="-7.38667">
        <ele>516.7</ele>
        <time>2016-07-14T08:30:44Z</time>
      </trkpt>
      <trkpt lat="43.01696" lon="-7.3868">
        <ele>516.7</ele>
        <time>2016-07-14T08:30:51Z</time>
      </trkpt>
      <trkpt lat="43.01697" lon="-7.38693">
        <ele>517</ele>
        <time>2016-07-14T08:30:58Z</time>
      </trkpt>
      <trkpt lat="43.017" lon="-7.38706">
        <ele>517.4</ele>
        <time>2016-07-14T08:31:05Z</time>
      </trkpt>
      <trkpt lat="43.01704" lon="-7.38719">
        <ele>517.6</ele>
        <time>2016-07-14T08:31:13Z</time>
      </trkpt>
      <trkpt lat="43.01709" lon="-7.38731">
        <ele>517.7</ele>
        <time>2016-07-14T08:31:20Z</time>
      </trkpt>
      <trkpt lat="43.01712" lon="-7.38743">
        <ele>517.8</ele>
        <time>2016-07-14T08:31:27Z</time>
      </trkpt>
      <trkpt lat="43.01716" lon="-7.38756">
        <ele>518.6</ele>
        <time>2016-07-14T08:31:36Z</time>
      </trkpt>
      <trkpt lat="43.01718" lon="-7.38769">
        <ele>519.2</ele>
        <time>2016-07-14T08:31:43Z</time>
      </trkpt>
      <trkpt lat="43.0172" lon="-7.38782">
        <ele>519.2</ele>
        <time>2016-07-14T08:31:49Z</time>
      </trkpt>
      <trkpt lat="43.01722" lon="-7.38796">
        <ele>519.5</ele>
        <time>2016-07-14T08:31:56Z</time>
      </trkpt>
      <trkpt lat="43.01725" lon="-7.38808">
        <ele>519.7</ele>
        <time>2016-07-14T08:32:02Z</time>
      </trkpt>
      <trkpt lat="43.01725" lon="-7.38821">
        <ele>519.9</ele>
        <time>2016-07-14T08:32:10Z</time>
      </trkpt>
      <trkpt lat="43.01727" lon="-7.38834">
        <ele>520</ele>
        <time>2016-07-14T08:32:17Z</time>
      </trkpt>
      <trkpt lat="43.01727" lon="-7.38847">
        <ele>520.2</ele>
        <time>2016-07-14T08:32:23Z</time>
      </trkpt>
      <trkpt lat="43.01728" lon="-7.38859">
        <ele>520.4</ele>
        <time>2016-07-14T08:32:29Z</time>
      </trkpt>
      <trkpt lat="43.01728" lon="-7.38872">
        <ele>520.6</ele>
        <time>2016-07-14T08:32:36Z</time>
      </trkpt>
      <trkpt lat="43.0173" lon="-7.38884">
        <ele>521</ele>
        <time>2016-07-14T08:32:51Z</time>
      </trkpt>
      <trkpt lat="43.01731" lon="-7.38898">
        <ele>521.1</ele>
        <time>2016-07-14T08:33:26Z</time>
      </trkpt>
      <trkpt lat="43.01734" lon="-7.3891">
        <ele>520.9</ele>
        <time>2016-07-14T08:33:33Z</time>
      </trkpt>
      <trkpt lat="43.01739" lon="-7.38921">
        <ele>521.2</ele>
        <time>2016-07-14T08:33:40Z</time>
      </trkpt>
      <trkpt lat="43.01744" lon="-7.38933">
        <ele>521.6</ele>
        <time>2016-07-14T08:33:49Z</time>
      </trkpt>
      <trkpt lat="43.01748" lon="-7.38946">
        <ele>521.9</ele>
        <time>2016-07-14T08:33:57Z</time>
      </trkpt>
      <trkpt lat="43.01751" lon="-7.38958">
        <ele>522.2</ele>
        <time>2016-07-14T08:34:04Z</time>
      </trkpt>
      <trkpt lat="43.01754" lon="-7.3897">
        <ele>522.3</ele>
        <time>2016-07-14T08:34:11Z</time>
      </trkpt>
      <trkpt lat="43.01756" lon="-7.38983">
        <ele>522.6</ele>
        <time>2016-07-14T08:34:18Z</time>
      </trkpt>
      <trkpt lat="43.01757" lon="-7.38995">
        <ele>522.9</ele>
        <time>2016-07-14T08:34:25Z</time>
      </trkpt>
      <trkpt lat="43.01759" lon="-7.39008">
        <ele>523.1</ele>
        <time>2016-07-14T08:34:32Z</time>
      </trkpt>
      <trkpt lat="43.01761" lon="-7.39021">
        <ele>523.6</ele>
        <time>2016-07-14T08:34:40Z</time>
      </trkpt>
      <trkpt lat="43.01761" lon="-7.39035">
        <ele>523.9</ele>
        <time>2016-07-14T08:34:48Z</time>
      </trkpt>
      <trkpt lat="43.01761" lon="-7.39048">
        <ele>523.9</ele>
        <time>2016-07-14T08:34:55Z</time>
      </trkpt>
      <trkpt lat="43.01762" lon="-7.3906">
        <ele>524.1</ele>
        <time>2016-07-14T08:35:02Z</time>
      </trkpt>
      <trkpt lat="43.01763" lon="-7.39073">
        <ele>524.4</ele>
        <time>2016-07-14T08:35:09Z</time>
      </trkpt>
      <trkpt lat="43.01763" lon="-7.39086">
        <ele>525.2</ele>
        <time>2016-07-14T08:35:16Z</time>
      </trkpt>
      <trkpt lat="43.01761" lon="-7.39098">
        <ele>525.5</ele>
        <time>2016-07-14T08:35:23Z</time>
      </trkpt>
      <trkpt lat="43.01756" lon="-7.3911">
        <ele>525.8</ele>
        <time>2016-07-14T08:35:30Z</time>
      </trkpt>
      <trkpt lat="43.01753" lon="-7.39122">
        <ele>525.9</ele>
        <time>2016-07-14T08:35:36Z</time>
      </trkpt>
      <trkpt lat="43.01751" lon="-7.39134">
        <ele>526.1</ele>
        <time>2016-07-14T08:35:43Z</time>
      </trkpt>
      <trkpt lat="43.01747" lon="-7.39146">
        <ele>526.2</ele>
        <time>2016-07-14T08:35:49Z</time>
      </trkpt>
      <trkpt lat="43.01743" lon="-7.39158">
        <ele>526.3</ele>
        <time>2016-07-14T08:35:56Z</time>
      </trkpt>
      <trkpt lat="43.01745" lon="-7.3917">
        <ele>526.5</ele>
        <time>2016-07-14T08:36:05Z</time>
      </trkpt>
      <trkpt lat="43.01745" lon="-7.39183">
        <ele>527.3</ele>
        <time>2016-07-14T08:36:14Z</time>
      </trkpt>
      <trkpt lat="43.01748" lon="-7.39195">
        <ele>528</ele>
        <time>2016-07-14T08:36:22Z</time>
      </trkpt>
      <trkpt lat="43.01748" lon="-7.39208">
        <ele>528.5</ele>
        <time>2016-07-14T08:36:29Z</time>
      </trkpt>
      <trkpt lat="43.01751" lon="-7.39221">
        <ele>529.3</ele>
        <time>2016-07-14T08:36:39Z</time>
      </trkpt>
      <trkpt lat="43.01752" lon="-7.39234">
        <ele>529.7</ele>
        <time>2016-07-14T08:36:46Z</time>
      </trkpt>
      <trkpt lat="43.01756" lon="-7.39246">
        <ele>530.1</ele>
        <time>2016-07-14T08:36:54Z</time>
      </trkpt>
      <trkpt lat="43.01756" lon="-7.39258">
        <ele>530.3</ele>
        <time>2016-07-14T08:37:01Z</time>
      </trkpt>
      <trkpt lat="43.01754" lon="-7.39272">
        <ele>530.1</ele>
        <time>2016-07-14T08:37:08Z</time>
      </trkpt>
      <trkpt lat="43.0175" lon="-7.39285">
        <ele>530</ele>
        <time>2016-07-14T08:37:14Z</time>
      </trkpt>
      <trkpt lat="43.01748" lon="-7.39298">
        <ele>529.8</ele>
        <time>2016-07-14T08:37:21Z</time>
      </trkpt>
      <trkpt lat="43.01743" lon="-7.3931">
        <ele>529.4</ele>
        <time>2016-07-14T08:37:28Z</time>
      </trkpt>
      <trkpt lat="43.01739" lon="-7.39323">
        <ele>528.9</ele>
        <time>2016-07-14T08:37:35Z</time>
      </trkpt>
      <trkpt lat="43.01737" lon="-7.39336">
        <ele>528.7</ele>
        <time>2016-07-14T08:37:42Z</time>
      </trkpt>
      <trkpt lat="43.01736" lon="-7.39349">
        <ele>528.6</ele>
        <time>2016-07-14T08:37:49Z</time>
      </trkpt>
      <trkpt lat="43.01735" lon="-7.39363">
        <ele>528.5</ele>
        <time>2016-07-14T08:37:56Z</time>
      </trkpt>
      <trkpt lat="43.01734" lon="-7.39376">
        <ele>528.4</ele>
        <time>2016-07-14T08:38:03Z</time>
      </trkpt>
      <trkpt lat="43.01733" lon="-7.39389">
        <ele>528.3</ele>
        <time>2016-07-14T08:38:09Z</time>
      </trkpt>
      <trkpt lat="43.01735" lon="-7.39403">
        <ele>527.8</ele>
        <time>2016-07-14T08:38:16Z</time>
      </trkpt>
      <trkpt lat="43.01733" lon="-7.39415">
        <ele>526.5</ele>
        <time>2016-07-14T08:38:22Z</time>
      </trkpt>
      <trkpt lat="43.01732" lon="-7.39429">
        <ele>524.1</ele>
        <time>2016-07-14T08:38:28Z</time>
      </trkpt>
      <trkpt lat="43.01733" lon="-7.39442">
        <ele>526.9</ele>
        <time>2016-07-14T08:38:35Z</time>
      </trkpt>
      <trkpt lat="43.01734" lon="-7.39456">
        <ele>530.1</ele>
        <time>2016-07-14T08:38:42Z</time>
      </trkpt>
      <trkpt lat="43.01735" lon="-7.39468">
        <ele>529</ele>
        <time>2016-07-14T08:38:49Z</time>
      </trkpt>
      <trkpt lat="43.01735" lon="-7.39482">
        <ele>530.9</ele>
        <time>2016-07-14T08:38:57Z</time>
      </trkpt>
      <trkpt lat="43.01737" lon="-7.39496">
        <ele>529.7</ele>
        <time>2016-07-14T08:39:05Z</time>
      </trkpt>
      <trkpt lat="43.01739" lon="-7.39508">
        <ele>528.8</ele>
        <time>2016-07-14T08:39:13Z</time>
      </trkpt>
      <trkpt lat="43.01742" lon="-7.39521">
        <ele>528</ele>
        <time>2016-07-14T08:39:20Z</time>
      </trkpt>
      <trkpt lat="43.01745" lon="-7.39533">
        <ele>527.5</ele>
        <time>2016-07-14T08:39:27Z</time>
      </trkpt>
      <trkpt lat="43.01751" lon="-7.39544">
        <ele>526.5</ele>
        <time>2016-07-14T08:39:34Z</time>
      </trkpt>
      <trkpt lat="43.01753" lon="-7.39556">
        <ele>526.2</ele>
        <time>2016-07-14T08:39:41Z</time>
      </trkpt>
      <trkpt lat="43.01756" lon="-7.39569">
        <ele>526.4</ele>
        <time>2016-07-14T08:39:48Z</time>
      </trkpt>
      <trkpt lat="43.01755" lon="-7.39582">
        <ele>526.6</ele>
        <time>2016-07-14T08:39:54Z</time>
      </trkpt>
      <trkpt lat="43.01755" lon="-7.39597">
        <ele>526.4</ele>
        <time>2016-07-14T08:40:00Z</time>
      </trkpt>
      <trkpt lat="43.01753" lon="-7.39609">
        <ele>526.1</ele>
        <time>2016-07-14T08:40:05Z</time>
      </trkpt>
      <trkpt lat="43.01753" lon="-7.39621">
        <ele>525.9</ele>
        <time>2016-07-14T08:40:11Z</time>
      </trkpt>
      <trkpt lat="43.01754" lon="-7.39634">
        <ele>525.7</ele>
        <time>2016-07-14T08:40:18Z</time>
      </trkpt>
      <trkpt lat="43.01757" lon="-7.39646">
        <ele>525.7</ele>
        <time>2016-07-14T08:40:25Z</time>
      </trkpt>
      <trkpt lat="43.01762" lon="-7.39657">
        <ele>525.5</ele>
        <time>2016-07-14T08:40:33Z</time>
      </trkpt>
      <trkpt lat="43.01763" lon="-7.39669">
        <ele>525.2</ele>
        <time>2016-07-14T08:40:41Z</time>
      </trkpt>
      <trkpt lat="43.01764" lon="-7.39683">
        <ele>525</ele>
        <time>2016-07-14T08:40:49Z</time>
      </trkpt>
      <trkpt lat="43.01761" lon="-7.39695">
        <ele>524.9</ele>
        <time>2016-07-14T08:40:55Z</time>
      </trkpt>
      <trkpt lat="43.0176" lon="-7.39709">
        <ele>524.6</ele>
        <time>2016-07-14T08:41:02Z</time>
      </trkpt>
      <trkpt lat="43.01759" lon="-7.39722">
        <ele>524.4</ele>
        <time>2016-07-14T08:41:09Z</time>
      </trkpt>
      <trkpt lat="43.01757" lon="-7.39735">
        <ele>524.1</ele>
        <time>2016-07-14T08:41:15Z</time>
      </trkpt>
      <trkpt lat="43.01756" lon="-7.39748">
        <ele>523.8</ele>
        <time>2016-07-14T08:41:22Z</time>
      </trkpt>
      <trkpt lat="43.01756" lon="-7.39762">
        <ele>523.7</ele>
        <time>2016-07-14T08:41:29Z</time>
      </trkpt>
      <trkpt lat="43.01754" lon="-7.39775">
        <ele>523.6</ele>
        <time>2016-07-14T08:41:36Z</time>
      </trkpt>
      <trkpt lat="43.01752" lon="-7.39787">
        <ele>523.3</ele>
        <time>2016-07-14T08:41:43Z</time>
      </trkpt>
      <trkpt lat="43.01751" lon="-7.398">
        <ele>522.8</ele>
        <time>2016-07-14T08:41:50Z</time>
      </trkpt>
      <trkpt lat="43.01752" lon="-7.39813">
        <ele>522.4</ele>
        <time>2016-07-14T08:41:58Z</time>
      </trkpt>
      <trkpt lat="43.01754" lon="-7.39825">
        <ele>522.2</ele>
        <time>2016-07-14T08:42:05Z</time>
      </trkpt>
      <trkpt lat="43.01756" lon="-7.39839">
        <ele>521.8</ele>
        <time>2016-07-14T08:42:12Z</time>
      </trkpt>
      <trkpt lat="43.01757" lon="-7.39853">
        <ele>521.4</ele>
        <time>2016-07-14T08:42:19Z</time>
      </trkpt>
      <trkpt lat="43.0176" lon="-7.39866">
        <ele>521.1</ele>
        <time>2016-07-14T08:42:26Z</time>
      </trkpt>
      <trkpt lat="43.01762" lon="-7.39879">
        <ele>520.9</ele>
        <time>2016-07-14T08:42:32Z</time>
      </trkpt>
      <trkpt lat="43.01764" lon="-7.39893">
        <ele>520.7</ele>
        <time>2016-07-14T08:42:40Z</time>
      </trkpt>
      <trkpt lat="43.01764" lon="-7.39905">
        <ele>520.5</ele>
        <time>2016-07-14T08:42:47Z</time>
      </trkpt>
      <trkpt lat="43.01765" lon="-7.39917">
        <ele>520.4</ele>
        <time>2016-07-14T08:42:54Z</time>
      </trkpt>
      <trkpt lat="43.01765" lon="-7.39931">
        <ele>520.3</ele>
        <time>2016-07-14T08:43:01Z</time>
      </trkpt>
      <trkpt lat="43.01766" lon="-7.39945">
        <ele>520.2</ele>
        <time>2016-07-14T08:43:08Z</time>
      </trkpt>
      <trkpt lat="43.01765" lon="-7.39958">
        <ele>520.2</ele>
        <time>2016-07-14T08:43:16Z</time>
      </trkpt>
      <trkpt lat="43.01766" lon="-7.39971">
        <ele>520.2</ele>
        <time>2016-07-14T08:43:25Z</time>
      </trkpt>
      <trkpt lat="43.01765" lon="-7.39985">
        <ele>519.9</ele>
        <time>2016-07-14T08:43:34Z</time>
      </trkpt>
      <trkpt lat="43.01766" lon="-7.39997">
        <ele>519.4</ele>
        <time>2016-07-14T08:43:41Z</time>
      </trkpt>
      <trkpt lat="43.01766" lon="-7.40011">
        <ele>519.2</ele>
        <time>2016-07-14T08:43:48Z</time>
      </trkpt>
      <trkpt lat="43.01767" lon="-7.40024">
        <ele>519.2</ele>
        <time>2016-07-14T08:43:56Z</time>
      </trkpt>
      <trkpt lat="43.01768" lon="-7.40037">
        <ele>519.3</ele>
        <time>2016-07-14T08:44:03Z</time>
      </trkpt>
      <trkpt lat="43.01768" lon="-7.40051">
        <ele>519.2</ele>
        <time>2016-07-14T08:44:12Z</time>
      </trkpt>
      <trkpt lat="43.01766" lon="-7.40064">
        <ele>519.2</ele>
        <time>2016-07-14T08:44:20Z</time>
      </trkpt>
      <trkpt lat="43.01766" lon="-7.40077">
        <ele>518.8</ele>
        <time>2016-07-14T08:44:27Z</time>
      </trkpt>
      <trkpt lat="43.01764" lon="-7.40091">
        <ele>518.8</ele>
        <time>2016-07-14T08:44:34Z</time>
      </trkpt>
      <trkpt lat="43.01767" lon="-7.40104">
        <ele>518.9</ele>
        <time>2016-07-14T08:44:42Z</time>
      </trkpt>
      <trkpt lat="43.01773" lon="-7.40113">
        <ele>518.9</ele>
        <time>2016-07-14T08:44:51Z</time>
      </trkpt>
      <trkpt lat="43.0178" lon="-7.4012">
        <ele>518.9</ele>
        <time>2016-07-14T08:44:58Z</time>
      </trkpt>
      <trkpt lat="43.01788" lon="-7.40127">
        <ele>519.5</ele>
        <time>2016-07-14T08:45:11Z</time>
      </trkpt>
      <trkpt lat="43.01797" lon="-7.40126">
        <ele>520.8</ele>
        <time>2016-07-14T08:46:34Z</time>
      </trkpt>
      <trkpt lat="43.0179" lon="-7.40134">
        <ele>520.5</ele>
        <time>2016-07-14T08:47:50Z</time>
      </trkpt>
      <trkpt lat="43.01781" lon="-7.4013">
        <ele>520.3</ele>
        <time>2016-07-14T08:47:58Z</time>
      </trkpt>
      <trkpt lat="43.01774" lon="-7.40137">
        <ele>519.9</ele>
        <time>2016-07-14T08:48:14Z</time>
      </trkpt>
      <trkpt lat="43.01775" lon="-7.4015">
        <ele>519.4</ele>
        <time>2016-07-14T08:48:23Z</time>
      </trkpt>
      <trkpt lat="43.01773" lon="-7.40164">
        <ele>518.8</ele>
        <time>2016-07-14T08:48:29Z</time>
      </trkpt>
      <trkpt lat="43.01774" lon="-7.40178">
        <ele>518.5</ele>
        <time>2016-07-14T08:48:36Z</time>
      </trkpt>
      <trkpt lat="43.01772" lon="-7.4019">
        <ele>518.2</ele>
        <time>2016-07-14T08:48:43Z</time>
      </trkpt>
      <trkpt lat="43.01771" lon="-7.40202">
        <ele>517.4</ele>
        <time>2016-07-14T08:48:52Z</time>
      </trkpt>
      <trkpt lat="43.01772" lon="-7.40216">
        <ele>516.9</ele>
        <time>2016-07-14T08:49:00Z</time>
      </trkpt>
      <trkpt lat="43.01771" lon="-7.40229">
        <ele>516.1</ele>
        <time>2016-07-14T08:49:07Z</time>
      </trkpt>
      <trkpt lat="43.01771" lon="-7.40242">
        <ele>515.3</ele>
        <time>2016-07-14T08:49:16Z</time>
      </trkpt>
      <trkpt lat="43.0177" lon="-7.40256">
        <ele>514.5</ele>
        <time>2016-07-14T08:49:23Z</time>
      </trkpt>
      <trkpt lat="43.0177" lon="-7.40271">
        <ele>513.6</ele>
        <time>2016-07-14T08:49:31Z</time>
      </trkpt>
      <trkpt lat="43.01772" lon="-7.40283">
        <ele>512.9</ele>
        <time>2016-07-14T08:49:37Z</time>
      </trkpt>
      <trkpt lat="43.01776" lon="-7.40295">
        <ele>512.2</ele>
        <time>2016-07-14T08:49:43Z</time>
      </trkpt>
      <trkpt lat="43.01781" lon="-7.40305">
        <ele>511.5</ele>
        <time>2016-07-14T08:49:48Z</time>
      </trkpt>
      <trkpt lat="43.01786" lon="-7.40318">
        <ele>511</ele>
        <time>2016-07-14T08:49:54Z</time>
      </trkpt>
      <trkpt lat="43.01791" lon="-7.40329">
        <ele>509.9</ele>
        <time>2016-07-14T08:50:01Z</time>
      </trkpt>
      <trkpt lat="43.018" lon="-7.40338">
        <ele>508.8</ele>
        <time>2016-07-14T08:50:08Z</time>
      </trkpt>
      <trkpt lat="43.01805" lon="-7.4035">
        <ele>507.7</ele>
        <time>2016-07-14T08:50:15Z</time>
      </trkpt>
      <trkpt lat="43.01812" lon="-7.40357">
        <ele>506.7</ele>
        <time>2016-07-14T08:50:21Z</time>
      </trkpt>
      <trkpt lat="43.0182" lon="-7.40365">
        <ele>505</ele>
        <time>2016-07-14T08:50:29Z</time>
      </trkpt>
      <trkpt lat="43.01827" lon="-7.40375">
        <ele>503.4</ele>
        <time>2016-07-14T08:50:38Z</time>
      </trkpt>
      <trkpt lat="43.01834" lon="-7.40385">
        <ele>502</ele>
        <time>2016-07-14T08:50:46Z</time>
      </trkpt>
      <trkpt lat="43.01841" lon="-7.40395">
        <ele>500.8</ele>
        <time>2016-07-14T08:50:54Z</time>
      </trkpt>
      <trkpt lat="43.01847" lon="-7.40405">
        <ele>499.7</ele>
        <time>2016-07-14T08:51:01Z</time>
      </trkpt>
      <trkpt lat="43.01853" lon="-7.40415">
        <ele>498.4</ele>
        <time>2016-07-14T08:51:08Z</time>
      </trkpt>
      <trkpt lat="43.0186" lon="-7.40424">
        <ele>497.5</ele>
        <time>2016-07-14T08:51:16Z</time>
      </trkpt>
      <trkpt lat="43.01867" lon="-7.40434">
        <ele>496.6</ele>
        <time>2016-07-14T08:51:24Z</time>
      </trkpt>
      <trkpt lat="43.01873" lon="-7.40445">
        <ele>496</ele>
        <time>2016-07-14T08:51:32Z</time>
      </trkpt>
      <trkpt lat="43.01878" lon="-7.40456">
        <ele>495</ele>
        <time>2016-07-14T08:51:42Z</time>
      </trkpt>
      <trkpt lat="43.01884" lon="-7.40466">
        <ele>494</ele>
        <time>2016-07-14T08:51:51Z</time>
      </trkpt>
      <trkpt lat="43.01889" lon="-7.40476">
        <ele>492.9</ele>
        <time>2016-07-14T08:52:02Z</time>
      </trkpt>
      <trkpt lat="43.01894" lon="-7.40488">
        <ele>491.9</ele>
        <time>2016-07-14T08:52:11Z</time>
      </trkpt>
      <trkpt lat="43.01898" lon="-7.40499">
        <ele>491.4</ele>
        <time>2016-07-14T08:52:19Z</time>
      </trkpt>
      <trkpt lat="43.01904" lon="-7.40511">
        <ele>490.9</ele>
        <time>2016-07-14T08:52:27Z</time>
      </trkpt>
      <trkpt lat="43.01907" lon="-7.40522">
        <ele>490.2</ele>
        <time>2016-07-14T08:52:34Z</time>
      </trkpt>
      <trkpt lat="43.0191" lon="-7.40534">
        <ele>489.2</ele>
        <time>2016-07-14T08:52:40Z</time>
      </trkpt>
      <trkpt lat="43.01914" lon="-7.40547">
        <ele>488.5</ele>
        <time>2016-07-14T08:52:47Z</time>
      </trkpt>
      <trkpt lat="43.01918" lon="-7.40558">
        <ele>488</ele>
        <time>2016-07-14T08:52:53Z</time>
      </trkpt>
      <trkpt lat="43.01921" lon="-7.40571">
        <ele>487.6</ele>
        <time>2016-07-14T08:52:59Z</time>
      </trkpt>
      <trkpt lat="43.01925" lon="-7.40584">
        <ele>487</ele>
        <time>2016-07-14T08:53:07Z</time>
      </trkpt>
      <trkpt lat="43.01927" lon="-7.40596">
        <ele>486.2</ele>
        <time>2016-07-14T08:53:13Z</time>
      </trkpt>
      <trkpt lat="43.01933" lon="-7.40607">
        <ele>485.2</ele>
        <time>2016-07-14T08:53:21Z</time>
      </trkpt>
      <trkpt lat="43.01937" lon="-7.4062">
        <ele>484.4</ele>
        <time>2016-07-14T08:53:28Z</time>
      </trkpt>
      <trkpt lat="43.01938" lon="-7.40633">
        <ele>484</ele>
        <time>2016-07-14T08:53:34Z</time>
      </trkpt>
      <trkpt lat="43.01941" lon="-7.40646">
        <ele>483.7</ele>
        <time>2016-07-14T08:53:40Z</time>
      </trkpt>
      <trkpt lat="43.01943" lon="-7.40658">
        <ele>483.5</ele>
        <time>2016-07-14T08:53:46Z</time>
      </trkpt>
      <trkpt lat="43.01945" lon="-7.40671">
        <ele>483.2</ele>
        <time>2016-07-14T08:53:55Z</time>
      </trkpt>
      <trkpt lat="43.01947" lon="-7.40684">
        <ele>482.7</ele>
        <time>2016-07-14T08:54:02Z</time>
      </trkpt>
      <trkpt lat="43.0195" lon="-7.40697">
        <ele>482</ele>
        <time>2016-07-14T08:54:09Z</time>
      </trkpt>
      <trkpt lat="43.01953" lon="-7.4071">
        <ele>481.4</ele>
        <time>2016-07-14T08:54:16Z</time>
      </trkpt>
      <trkpt lat="43.01956" lon="-7.40724">
        <ele>481</ele>
        <time>2016-07-14T08:54:23Z</time>
      </trkpt>
      <trkpt lat="43.01958" lon="-7.40737">
        <ele>480.6</ele>
        <time>2016-07-14T08:54:30Z</time>
      </trkpt>
      <trkpt lat="43.01961" lon="-7.40751">
        <ele>480.2</ele>
        <time>2016-07-14T08:54:37Z</time>
      </trkpt>
      <trkpt lat="43.01963" lon="-7.40763">
        <ele>479.9</ele>
        <time>2016-07-14T08:54:43Z</time>
      </trkpt>
      <trkpt lat="43.01965" lon="-7.40775">
        <ele>479.3</ele>
        <time>2016-07-14T08:54:49Z</time>
      </trkpt>
      <trkpt lat="43.01967" lon="-7.40788">
        <ele>479.6</ele>
        <time>2016-07-14T08:54:56Z</time>
      </trkpt>
      <trkpt lat="43.01968" lon="-7.40802">
        <ele>479.9</ele>
        <time>2016-07-14T08:55:03Z</time>
      </trkpt>
      <trkpt lat="43.01969" lon="-7.40816">
        <ele>477.8</ele>
        <time>2016-07-14T08:55:10Z</time>
      </trkpt>
      <trkpt lat="43.0197" lon="-7.40829">
        <ele>473.1</ele>
        <time>2016-07-14T08:55:17Z</time>
      </trkpt>
      <trkpt lat="43.01972" lon="-7.40842">
        <ele>481.2</ele>
        <time>2016-07-14T08:55:25Z</time>
      </trkpt>
      <trkpt lat="43.01975" lon="-7.40854">
        <ele>480.9</ele>
        <time>2016-07-14T08:55:33Z</time>
      </trkpt>
      <trkpt lat="43.01977" lon="-7.40868">
        <ele>480.2</ele>
        <time>2016-07-14T08:55:40Z</time>
      </trkpt>
      <trkpt lat="43.01979" lon="-7.40882">
        <ele>479.1</ele>
        <time>2016-07-14T08:55:47Z</time>
      </trkpt>
      <trkpt lat="43.01981" lon="-7.40895">
        <ele>478</ele>
        <time>2016-07-14T08:55:54Z</time>
      </trkpt>
      <trkpt lat="43.01984" lon="-7.40907">
        <ele>476.7</ele>
        <time>2016-07-14T08:56:01Z</time>
      </trkpt>
      <trkpt lat="43.01986" lon="-7.40921">
        <ele>475.9</ele>
        <time>2016-07-14T08:56:08Z</time>
      </trkpt>
      <trkpt lat="43.01989" lon="-7.40933">
        <ele>475.4</ele>
        <time>2016-07-14T08:56:15Z</time>
      </trkpt>
      <trkpt lat="43.01992" lon="-7.40945">
        <ele>475.1</ele>
        <time>2016-07-14T08:56:22Z</time>
      </trkpt>
      <trkpt lat="43.01996" lon="-7.40957">
        <ele>474.6</ele>
        <time>2016-07-14T08:56:29Z</time>
      </trkpt>
      <trkpt lat="43.02002" lon="-7.40969">
        <ele>473.9</ele>
        <time>2016-07-14T08:56:36Z</time>
      </trkpt>
      <trkpt lat="43.02008" lon="-7.4098">
        <ele>473.5</ele>
        <time>2016-07-14T08:56:43Z</time>
      </trkpt>
      <trkpt lat="43.02014" lon="-7.4099">
        <ele>473.4</ele>
        <time>2016-07-14T08:56:49Z</time>
      </trkpt>
      <trkpt lat="43.0202" lon="-7.41">
        <ele>473.6</ele>
        <time>2016-07-14T08:56:55Z</time>
      </trkpt>
      <trkpt lat="43.02026" lon="-7.41011">
        <ele>473.8</ele>
        <time>2016-07-14T08:57:02Z</time>
      </trkpt>
      <trkpt lat="43.02032" lon="-7.41022">
        <ele>474</ele>
        <time>2016-07-14T08:57:09Z</time>
      </trkpt>
      <trkpt lat="43.02037" lon="-7.41034">
        <ele>474.2</ele>
        <time>2016-07-14T08:57:16Z</time>
      </trkpt>
      <trkpt lat="43.02041" lon="-7.41046">
        <ele>474.4</ele>
        <time>2016-07-14T08:57:23Z</time>
      </trkpt>
      <trkpt lat="43.02047" lon="-7.41057">
        <ele>474.8</ele>
        <time>2016-07-14T08:57:30Z</time>
      </trkpt>
      <trkpt lat="43.02054" lon="-7.41065">
        <ele>475.2</ele>
        <time>2016-07-14T08:57:36Z</time>
      </trkpt>
      <trkpt lat="43.02061" lon="-7.41075">
        <ele>476.2</ele>
        <time>2016-07-14T08:57:43Z</time>
      </trkpt>
      <trkpt lat="43.02066" lon="-7.41085">
        <ele>476.7</ele>
        <time>2016-07-14T08:57:50Z</time>
      </trkpt>
      <trkpt lat="43.02071" lon="-7.41096">
        <ele>478.1</ele>
        <time>2016-07-14T08:58:34Z</time>
      </trkpt>
      <trkpt lat="43.02078" lon="-7.41104">
        <ele>478.6</ele>
        <time>2016-07-14T08:58:41Z</time>
      </trkpt>
      <trkpt lat="43.02086" lon="-7.4111">
        <ele>478.6</ele>
        <time>2016-07-14T08:58:53Z</time>
      </trkpt>
      <trkpt lat="43.02094" lon="-7.41119">
        <ele>479</ele>
        <time>2016-07-14T08:59:01Z</time>
      </trkpt>
      <trkpt lat="43.02101" lon="-7.41128">
        <ele>479.2</ele>
        <time>2016-07-14T08:59:09Z</time>
      </trkpt>
      <trkpt lat="43.0211" lon="-7.41135">
        <ele>479.4</ele>
        <time>2016-07-14T08:59:17Z</time>
      </trkpt>
      <trkpt lat="43.02117" lon="-7.41145">
        <ele>479.8</ele>
        <time>2016-07-14T08:59:24Z</time>
      </trkpt>
      <trkpt lat="43.02124" lon="-7.41153">
        <ele>480.5</ele>
        <time>2016-07-14T08:59:30Z</time>
      </trkpt>
      <trkpt lat="43.02131" lon="-7.41161">
        <ele>481.2</ele>
        <time>2016-07-14T08:59:36Z</time>
      </trkpt>
      <trkpt lat="43.02138" lon="-7.41172">
        <ele>481.5</ele>
        <time>2016-07-14T08:59:43Z</time>
      </trkpt>
      <trkpt lat="43.02146" lon="-7.41179">
        <ele>481.5</ele>
        <time>2016-07-14T08:59:50Z</time>
      </trkpt>
      <trkpt lat="43.02151" lon="-7.41191">
        <ele>481.7</ele>
        <time>2016-07-14T08:59:58Z</time>
      </trkpt>
      <trkpt lat="43.02157" lon="-7.41202">
        <ele>482</ele>
        <time>2016-07-14T09:00:04Z</time>
      </trkpt>
      <trkpt lat="43.02163" lon="-7.41212">
        <ele>482.1</ele>
        <time>2016-07-14T09:00:10Z</time>
      </trkpt>
      <trkpt lat="43.02168" lon="-7.41223">
        <ele>482</ele>
        <time>2016-07-14T09:00:16Z</time>
      </trkpt>
      <trkpt lat="43.02173" lon="-7.41234">
        <ele>482.4</ele>
        <time>2016-07-14T09:00:22Z</time>
      </trkpt>
      <trkpt lat="43.02178" lon="-7.41245">
        <ele>482.7</ele>
        <time>2016-07-14T09:00:28Z</time>
      </trkpt>
      <trkpt lat="43.02182" lon="-7.41257">
        <ele>482.8</ele>
        <time>2016-07-14T09:00:34Z</time>
      </trkpt>
      <trkpt lat="43.02188" lon="-7.41269">
        <ele>482.7</ele>
        <time>2016-07-14T09:00:41Z</time>
      </trkpt>
      <trkpt lat="43.02194" lon="-7.4128">
        <ele>482.2</ele>
        <time>2016-07-14T09:00:48Z</time>
      </trkpt>
      <trkpt lat="43.02199" lon="-7.41291">
        <ele>482</ele>
        <time>2016-07-14T09:00:54Z</time>
      </trkpt>
      <trkpt lat="43.02203" lon="-7.41303">
        <ele>482</ele>
        <time>2016-07-14T09:01:01Z</time>
      </trkpt>
      <trkpt lat="43.02209" lon="-7.41314">
        <ele>481.6</ele>
        <time>2016-07-14T09:01:08Z</time>
      </trkpt>
      <trkpt lat="43.02213" lon="-7.41325">
        <ele>481.5</ele>
        <time>2016-07-14T09:01:15Z</time>
      </trkpt>
      <trkpt lat="43.02219" lon="-7.41337">
        <ele>481.9</ele>
        <time>2016-07-14T09:01:23Z</time>
      </trkpt>
      <trkpt lat="43.02225" lon="-7.41347">
        <ele>482.1</ele>
        <time>2016-07-14T09:01:30Z</time>
      </trkpt>
      <trkpt lat="43.0223" lon="-7.41358">
        <ele>482.2</ele>
        <time>2016-07-14T09:01:37Z</time>
      </trkpt>
      <trkpt lat="43.0223" lon="-7.4137">
        <ele>482.2</ele>
        <time>2016-07-14T09:01:45Z</time>
      </trkpt>
      <trkpt lat="43.02234" lon="-7.41382">
        <ele>482.2</ele>
        <time>2016-07-14T09:01:53Z</time>
      </trkpt>
      <trkpt lat="43.02238" lon="-7.41393">
        <ele>482.2</ele>
        <time>2016-07-14T09:02:00Z</time>
      </trkpt>
      <trkpt lat="43.02241" lon="-7.41405">
        <ele>482.2</ele>
        <time>2016-07-14T09:02:07Z</time>
      </trkpt>
      <trkpt lat="43.02243" lon="-7.41418">
        <ele>482.2</ele>
        <time>2016-07-14T09:02:13Z</time>
      </trkpt>
      <trkpt lat="43.02247" lon="-7.41431">
        <ele>482</ele>
        <time>2016-07-14T09:02:20Z</time>
      </trkpt>
      <trkpt lat="43.0225" lon="-7.41444">
        <ele>481.8</ele>
        <time>2016-07-14T09:02:27Z</time>
      </trkpt>
      <trkpt lat="43.02254" lon="-7.41457">
        <ele>481.6</ele>
        <time>2016-07-14T09:02:34Z</time>
      </trkpt>
      <trkpt lat="43.02259" lon="-7.41468">
        <ele>481.5</ele>
        <time>2016-07-14T09:02:41Z</time>
      </trkpt>
      <trkpt lat="43.02265" lon="-7.41479">
        <ele>481.4</ele>
        <time>2016-07-14T09:02:49Z</time>
      </trkpt>
      <trkpt lat="43.0227" lon="-7.41489">
        <ele>481.2</ele>
        <time>2016-07-14T09:02:56Z</time>
      </trkpt>
      <trkpt lat="43.02276" lon="-7.41499">
        <ele>480.9</ele>
        <time>2016-07-14T09:03:03Z</time>
      </trkpt>
      <trkpt lat="43.02284" lon="-7.41506">
        <ele>480.5</ele>
        <time>2016-07-14T09:03:10Z</time>
      </trkpt>
      <trkpt lat="43.02293" lon="-7.41514">
        <ele>480.4</ele>
        <time>2016-07-14T09:03:17Z</time>
      </trkpt>
      <trkpt lat="43.023" lon="-7.41521">
        <ele>480.5</ele>
        <time>2016-07-14T09:03:24Z</time>
      </trkpt>
      <trkpt lat="43.02307" lon="-7.4153">
        <ele>480.3</ele>
        <time>2016-07-14T09:03:31Z</time>
      </trkpt>
      <trkpt lat="43.02313" lon="-7.4154">
        <ele>480.2</ele>
        <time>2016-07-14T09:03:38Z</time>
      </trkpt>
      <trkpt lat="43.02317" lon="-7.41551">
        <ele>480.5</ele>
        <time>2016-07-14T09:03:45Z</time>
      </trkpt>
      <trkpt lat="43.0232" lon="-7.41563">
        <ele>480.7</ele>
        <time>2016-07-14T09:03:52Z</time>
      </trkpt>
      <trkpt lat="43.02324" lon="-7.41576">
        <ele>480.7</ele>
        <time>2016-07-14T09:04:00Z</time>
      </trkpt>
      <trkpt lat="43.02328" lon="-7.41589">
        <ele>480.7</ele>
        <time>2016-07-14T09:04:08Z</time>
      </trkpt>
      <trkpt lat="43.02331" lon="-7.41602">
        <ele>481</ele>
        <time>2016-07-14T09:04:16Z</time>
      </trkpt>
      <trkpt lat="43.02333" lon="-7.41615">
        <ele>481.2</ele>
        <time>2016-07-14T09:04:23Z</time>
      </trkpt>
      <trkpt lat="43.02335" lon="-7.41629">
        <ele>481.4</ele>
        <time>2016-07-14T09:04:31Z</time>
      </trkpt>
      <trkpt lat="43.02335" lon="-7.41642">
        <ele>482</ele>
        <time>2016-07-14T09:04:39Z</time>
      </trkpt>
      <trkpt lat="43.02333" lon="-7.41656">
        <ele>482.7</ele>
        <time>2016-07-14T09:04:48Z</time>
      </trkpt>
      <trkpt lat="43.02329" lon="-7.41669">
        <ele>483.1</ele>
        <time>2016-07-14T09:04:56Z</time>
      </trkpt>
      <trkpt lat="43.02322" lon="-7.4168">
        <ele>483.8</ele>
        <time>2016-07-14T09:05:03Z</time>
      </trkpt>
      <trkpt lat="43.02317" lon="-7.41691">
        <ele>484.4</ele>
        <time>2016-07-14T09:05:13Z</time>
      </trkpt>
      <trkpt lat="43.02312" lon="-7.41701">
        <ele>484.8</ele>
        <time>2016-07-14T09:05:21Z</time>
      </trkpt>
      <trkpt lat="43.02305" lon="-7.41711">
        <ele>485.7</ele>
        <time>2016-07-14T09:05:30Z</time>
      </trkpt>
      <trkpt lat="43.02299" lon="-7.41721">
        <ele>486.2</ele>
        <time>2016-07-14T09:05:37Z</time>
      </trkpt>
      <trkpt lat="43.02293" lon="-7.41731">
        <ele>486.7</ele>
        <time>2016-07-14T09:05:43Z</time>
      </trkpt>
      <trkpt lat="43.02288" lon="-7.4174">
        <ele>487.3</ele>
        <time>2016-07-14T09:05:50Z</time>
      </trkpt>
      <trkpt lat="43.02281" lon="-7.4175">
        <ele>488.2</ele>
        <time>2016-07-14T09:05:57Z</time>
      </trkpt>
      <trkpt lat="43.02275" lon="-7.41761">
        <ele>489</ele>
        <time>2016-07-14T09:06:05Z</time>
      </trkpt>
      <trkpt lat="43.02269" lon="-7.41773">
        <ele>489.6</ele>
        <time>2016-07-14T09:06:12Z</time>
      </trkpt>
      <trkpt lat="43.02266" lon="-7.41785">
        <ele>490.5</ele>
        <time>2016-07-14T09:06:19Z</time>
      </trkpt>
      <trkpt lat="43.02263" lon="-7.41798">
        <ele>491.5</ele>
        <time>2016-07-14T09:06:27Z</time>
      </trkpt>
      <trkpt lat="43.02262" lon="-7.41811">
        <ele>492.1</ele>
        <time>2016-07-14T09:06:35Z</time>
      </trkpt>
      <trkpt lat="43.0226" lon="-7.41823">
        <ele>492.9</ele>
        <time>2016-07-14T09:06:42Z</time>
      </trkpt>
      <trkpt lat="43.02259" lon="-7.41836">
        <ele>494</ele>
        <time>2016-07-14T09:06:50Z</time>
      </trkpt>
      <trkpt lat="43.02258" lon="-7.4185">
        <ele>495.4</ele>
        <time>2016-07-14T09:06:58Z</time>
      </trkpt>
      <trkpt lat="43.02255" lon="-7.41862">
        <ele>496.2</ele>
        <time>2016-07-14T09:07:05Z</time>
      </trkpt>
      <trkpt lat="43.0225" lon="-7.41874">
        <ele>496.7</ele>
        <time>2016-07-14T09:07:12Z</time>
      </trkpt>
      <trkpt lat="43.02245" lon="-7.41886">
        <ele>497.3</ele>
        <time>2016-07-14T09:07:19Z</time>
      </trkpt>
      <trkpt lat="43.02241" lon="-7.41897">
        <ele>497.8</ele>
        <time>2016-07-14T09:07:26Z</time>
      </trkpt>
      <trkpt lat="43.02239" lon="-7.4191">
        <ele>498.1</ele>
        <time>2016-07-14T09:07:34Z</time>
      </trkpt>
      <trkpt lat="43.02235" lon="-7.41922">
        <ele>498.3</ele>
        <time>2016-07-14T09:07:42Z</time>
      </trkpt>
      <trkpt lat="43.02232" lon="-7.41934">
        <ele>498.4</ele>
        <time>2016-07-14T09:07:50Z</time>
      </trkpt>
      <trkpt lat="43.02227" lon="-7.41946">
        <ele>498.4</ele>
        <time>2016-07-14T09:07:58Z</time>
      </trkpt>
      <trkpt lat="43.02224" lon="-7.41959">
        <ele>498.5</ele>
        <time>2016-07-14T09:08:06Z</time>
      </trkpt>
      <trkpt lat="43.0222" lon="-7.4197">
        <ele>498.4</ele>
        <time>2016-07-14T09:08:13Z</time>
      </trkpt>
      <trkpt lat="43.02216" lon="-7.41982">
        <ele>498.3</ele>
        <time>2016-07-14T09:08:21Z</time>
      </trkpt>
      <trkpt lat="43.02213" lon="-7.41994">
        <ele>498</ele>
        <time>2016-07-14T09:08:28Z</time>
      </trkpt>
      <trkpt lat="43.02212" lon="-7.42006">
        <ele>497.9</ele>
        <time>2016-07-14T09:08:35Z</time>
      </trkpt>
      <trkpt lat="43.02213" lon="-7.42019">
        <ele>497.8</ele>
        <time>2016-07-14T09:08:42Z</time>
      </trkpt>
      <trkpt lat="43.02214" lon="-7.42033">
        <ele>497.4</ele>
        <time>2016-07-14T09:08:49Z</time>
      </trkpt>
      <trkpt lat="43.02214" lon="-7.42046">
        <ele>497</ele>
        <time>2016-07-14T09:08:56Z</time>
      </trkpt>
      <trkpt lat="43.02216" lon="-7.4206">
        <ele>497.1</ele>
        <time>2016-07-14T09:09:03Z</time>
      </trkpt>
      <trkpt lat="43.02216" lon="-7.42072">
        <ele>497.1</ele>
        <time>2016-07-14T09:09:09Z</time>
      </trkpt>
      <trkpt lat="43.02217" lon="-7.42086">
        <ele>497.1</ele>
        <time>2016-07-14T09:09:16Z</time>
      </trkpt>
      <trkpt lat="43.02216" lon="-7.42099">
        <ele>496.9</ele>
        <time>2016-07-14T09:09:23Z</time>
      </trkpt>
      <trkpt lat="43.02215" lon="-7.42113">
        <ele>496.9</ele>
        <time>2016-07-14T09:09:31Z</time>
      </trkpt>
      <trkpt lat="43.02214" lon="-7.42125">
        <ele>496.8</ele>
        <time>2016-07-14T09:09:38Z</time>
      </trkpt>
      <trkpt lat="43.02215" lon="-7.42139">
        <ele>496.5</ele>
        <time>2016-07-14T09:09:46Z</time>
      </trkpt>
      <trkpt lat="43.02216" lon="-7.42152">
        <ele>496.2</ele>
        <time>2016-07-14T09:09:53Z</time>
      </trkpt>
      <trkpt lat="43.02209" lon="-7.42163">
        <ele>496</ele>
        <time>2016-07-14T09:10:00Z</time>
      </trkpt>
      <trkpt lat="43.02205" lon="-7.42175">
        <ele>495.7</ele>
        <time>2016-07-14T09:10:06Z</time>
      </trkpt>
      <trkpt lat="43.022" lon="-7.42187">
        <ele>495.3</ele>
        <time>2016-07-14T09:10:12Z</time>
      </trkpt>
      <trkpt lat="43.02196" lon="-7.422">
        <ele>494.9</ele>
        <time>2016-07-14T09:10:19Z</time>
      </trkpt>
      <trkpt lat="43.02191" lon="-7.42212">
        <ele>494.4</ele>
        <time>2016-07-14T09:10:26Z</time>
      </trkpt>
      <trkpt lat="43.02185" lon="-7.42221">
        <ele>494</ele>
        <time>2016-07-14T09:10:32Z</time>
      </trkpt>
      <trkpt lat="43.02179" lon="-7.42232">
        <ele>493.7</ele>
        <time>2016-07-14T09:10:39Z</time>
      </trkpt>
      <trkpt lat="43.02174" lon="-7.42243">
        <ele>493.4</ele>
        <time>2016-07-14T09:10:46Z</time>
      </trkpt>
      <trkpt lat="43.02167" lon="-7.42253">
        <ele>493.2</ele>
        <time>2016-07-14T09:10:53Z</time>
      </trkpt>
      <trkpt lat="43.02159" lon="-7.4226">
        <ele>493</ele>
        <time>2016-07-14T09:10:59Z</time>
      </trkpt>
      <trkpt lat="43.0215" lon="-7.42266">
        <ele>492.8</ele>
        <time>2016-07-14T09:11:05Z</time>
      </trkpt>
      <trkpt lat="43.0214" lon="-7.42276">
        <ele>492</ele>
        <time>2016-07-14T09:11:14Z</time>
      </trkpt>
      <trkpt lat="43.02132" lon="-7.42282">
        <ele>491.4</ele>
        <time>2016-07-14T09:11:21Z</time>
      </trkpt>
      <trkpt lat="43.02123" lon="-7.42288">
        <ele>490.7</ele>
        <time>2016-07-14T09:11:29Z</time>
      </trkpt>
      <trkpt lat="43.02114" lon="-7.42292">
        <ele>490.5</ele>
        <time>2016-07-14T09:11:35Z</time>
      </trkpt>
      <trkpt lat="43.02105" lon="-7.42296">
        <ele>490.3</ele>
        <time>2016-07-14T09:11:40Z</time>
      </trkpt>
      <trkpt lat="43.02096" lon="-7.42303">
        <ele>490.1</ele>
        <time>2016-07-14T09:11:48Z</time>
      </trkpt>
      <trkpt lat="43.02088" lon="-7.42312">
        <ele>489.5</ele>
        <time>2016-07-14T09:12:06Z</time>
      </trkpt>
      <trkpt lat="43.0208" lon="-7.42318">
        <ele>489.4</ele>
        <time>2016-07-14T09:12:12Z</time>
      </trkpt>
      <trkpt lat="43.02072" lon="-7.42325">
        <ele>489.2</ele>
        <time>2016-07-14T09:12:19Z</time>
      </trkpt>
      <trkpt lat="43.02062" lon="-7.42331">
        <ele>488.6</ele>
        <time>2016-07-14T09:12:26Z</time>
      </trkpt>
      <trkpt lat="43.02054" lon="-7.42336">
        <ele>488.1</ele>
        <time>2016-07-14T09:12:33Z</time>
      </trkpt>
      <trkpt lat="43.02046" lon="-7.42343">
        <ele>487.6</ele>
        <time>2016-07-14T09:12:40Z</time>
      </trkpt>
      <trkpt lat="43.02036" lon="-7.42348">
        <ele>487.1</ele>
        <time>2016-07-14T09:12:47Z</time>
      </trkpt>
      <trkpt lat="43.02028" lon="-7.42353">
        <ele>486.7</ele>
        <time>2016-07-14T09:12:53Z</time>
      </trkpt>
      <trkpt lat="43.02019" lon="-7.42357">
        <ele>486.4</ele>
        <time>2016-07-14T09:12:59Z</time>
      </trkpt>
      <trkpt lat="43.0201" lon="-7.42361">
        <ele>485.6</ele>
        <time>2016-07-14T09:13:05Z</time>
      </trkpt>
      <trkpt lat="43.02" lon="-7.42366">
        <ele>485.2</ele>
        <time>2016-07-14T09:13:12Z</time>
      </trkpt>
      <trkpt lat="43.01991" lon="-7.42369">
        <ele>484.9</ele>
        <time>2016-07-14T09:13:19Z</time>
      </trkpt>
      <trkpt lat="43.01981" lon="-7.42373">
        <ele>484.4</ele>
        <time>2016-07-14T09:13:25Z</time>
      </trkpt>
      <trkpt lat="43.01972" lon="-7.42378">
        <ele>483.8</ele>
        <time>2016-07-14T09:13:31Z</time>
      </trkpt>
      <trkpt lat="43.01963" lon="-7.42385">
        <ele>483.3</ele>
        <time>2016-07-14T09:13:37Z</time>
      </trkpt>
      <trkpt lat="43.01956" lon="-7.42392">
        <ele>483.2</ele>
        <time>2016-07-14T09:13:43Z</time>
      </trkpt>
      <trkpt lat="43.01947" lon="-7.424">
        <ele>483.1</ele>
        <time>2016-07-14T09:13:50Z</time>
      </trkpt>
      <trkpt lat="43.01943" lon="-7.42413">
        <ele>482.5</ele>
        <time>2016-07-14T09:13:57Z</time>
      </trkpt>
      <trkpt lat="43.01945" lon="-7.42425">
        <ele>482.3</ele>
        <time>2016-07-14T09:14:04Z</time>
      </trkpt>
      <trkpt lat="43.01949" lon="-7.42436">
        <ele>482.3</ele>
        <time>2016-07-14T09:14:10Z</time>
      </trkpt>
      <trkpt lat="43.01953" lon="-7.42448">
        <ele>482.3</ele>
        <time>2016-07-14T09:14:17Z</time>
      </trkpt>
      <trkpt lat="43.01956" lon="-7.42461">
        <ele>482.2</ele>
        <time>2016-07-14T09:14:24Z</time>
      </trkpt>
      <trkpt lat="43.01959" lon="-7.42474">
        <ele>482.2</ele>
        <time>2016-07-14T09:14:30Z</time>
      </trkpt>
      <trkpt lat="43.0196" lon="-7.42487">
        <ele>481.7</ele>
        <time>2016-07-14T09:14:37Z</time>
      </trkpt>
      <trkpt lat="43.01958" lon="-7.42501">
        <ele>481.5</ele>
        <time>2016-07-14T09:14:45Z</time>
      </trkpt>
      <trkpt lat="43.01955" lon="-7.42515">
        <ele>481.3</ele>
        <time>2016-07-14T09:14:52Z</time>
      </trkpt>
      <trkpt lat="43.01951" lon="-7.42528">
        <ele>480.9</ele>
        <time>2016-07-14T09:14:59Z</time>
      </trkpt>
      <trkpt lat="43.01947" lon="-7.4254">
        <ele>480.9</ele>
        <time>2016-07-14T09:15:05Z</time>
      </trkpt>
      <trkpt lat="43.01943" lon="-7.42552">
        <ele>481.1</ele>
        <time>2016-07-14T09:15:11Z</time>
      </trkpt>
      <trkpt lat="43.01938" lon="-7.42565">
        <ele>481.3</ele>
        <time>2016-07-14T09:15:18Z</time>
      </trkpt>
      <trkpt lat="43.0193" lon="-7.42574">
        <ele>481.4</ele>
        <time>2016-07-14T09:15:24Z</time>
      </trkpt>
      <trkpt lat="43.01922" lon="-7.42584">
        <ele>481.5</ele>
        <time>2016-07-14T09:15:30Z</time>
      </trkpt>
      <trkpt lat="43.01916" lon="-7.42592">
        <ele>481.5</ele>
        <time>2016-07-14T09:15:35Z</time>
      </trkpt>
      <trkpt lat="43.01909" lon="-7.42602">
        <ele>481.7</ele>
        <time>2016-07-14T09:15:41Z</time>
      </trkpt>
      <trkpt lat="43.01903" lon="-7.42612">
        <ele>482</ele>
        <time>2016-07-14T09:15:48Z</time>
      </trkpt>
      <trkpt lat="43.01899" lon="-7.42624">
        <ele>482.4</ele>
        <time>2016-07-14T09:15:55Z</time>
      </trkpt>
      <trkpt lat="43.019" lon="-7.42638">
        <ele>482.9</ele>
        <time>2016-07-14T09:16:03Z</time>
      </trkpt>
      <trkpt lat="43.01901" lon="-7.42652">
        <ele>483.4</ele>
        <time>2016-07-14T09:16:11Z</time>
      </trkpt>
      <trkpt lat="43.01902" lon="-7.42665">
        <ele>484.2</ele>
        <time>2016-07-14T09:16:19Z</time>
      </trkpt>
      <trkpt lat="43.01905" lon="-7.42677">
        <ele>485</ele>
        <time>2016-07-14T09:16:27Z</time>
      </trkpt>
      <trkpt lat="43.01911" lon="-7.42688">
        <ele>485.9</ele>
        <time>2016-07-14T09:16:34Z</time>
      </trkpt>
      <trkpt lat="43.01914" lon="-7.42701">
        <ele>487.1</ele>
        <time>2016-07-14T09:16:42Z</time>
      </trkpt>
      <trkpt lat="43.01916" lon="-7.42713">
        <ele>488.4</ele>
        <time>2016-07-14T09:16:51Z</time>
      </trkpt>
      <trkpt lat="43.01918" lon="-7.42726">
        <ele>489.6</ele>
        <time>2016-07-14T09:17:00Z</time>
      </trkpt>
      <trkpt lat="43.0192" lon="-7.42739">
        <ele>491</ele>
        <time>2016-07-14T09:17:09Z</time>
      </trkpt>
      <trkpt lat="43.01923" lon="-7.42752">
        <ele>492</ele>
        <time>2016-07-14T09:17:17Z</time>
      </trkpt>
      <trkpt lat="43.01923" lon="-7.42765">
        <ele>493.3</ele>
        <time>2016-07-14T09:17:24Z</time>
      </trkpt>
      <trkpt lat="43.01921" lon="-7.42778">
        <ele>494.4</ele>
        <time>2016-07-14T09:17:32Z</time>
      </trkpt>
      <trkpt lat="43.0192" lon="-7.42791">
        <ele>495.2</ele>
        <time>2016-07-14T09:17:39Z</time>
      </trkpt>
      <trkpt lat="43.01919" lon="-7.42804">
        <ele>496.4</ele>
        <time>2016-07-14T09:17:46Z</time>
      </trkpt>
      <trkpt lat="43.01918" lon="-7.42816">
        <ele>497.5</ele>
        <time>2016-07-14T09:17:53Z</time>
      </trkpt>
      <trkpt lat="43.01917" lon="-7.4283">
        <ele>498.5</ele>
        <time>2016-07-14T09:18:00Z</time>
      </trkpt>
      <trkpt lat="43.01914" lon="-7.42842">
        <ele>499.2</ele>
        <time>2016-07-14T09:18:07Z</time>
      </trkpt>
      <trkpt lat="43.01913" lon="-7.42855">
        <ele>500.3</ele>
        <time>2016-07-14T09:18:15Z</time>
      </trkpt>
      <trkpt lat="43.01912" lon="-7.42869">
        <ele>500</ele>
        <time>2016-07-14T09:18:22Z</time>
      </trkpt>
      <trkpt lat="43.0191" lon="-7.42882">
        <ele>501.2</ele>
        <time>2016-07-14T09:18:30Z</time>
      </trkpt>
      <trkpt lat="43.01908" lon="-7.42894">
        <ele>501.2</ele>
        <time>2016-07-14T09:18:37Z</time>
      </trkpt>
      <trkpt lat="43.01905" lon="-7.42906">
        <ele>501.1</ele>
        <time>2016-07-14T09:18:44Z</time>
      </trkpt>
      <trkpt lat="43.019" lon="-7.42918">
        <ele>501.5</ele>
        <time>2016-07-14T09:18:52Z</time>
      </trkpt>
      <trkpt lat="43.01895" lon="-7.42929">
        <ele>502</ele>
        <time>2016-07-14T09:18:59Z</time>
      </trkpt>
      <trkpt lat="43.0189" lon="-7.42941">
        <ele>502.5</ele>
        <time>2016-07-14T09:19:07Z</time>
      </trkpt>
      <trkpt lat="43.01884" lon="-7.42951">
        <ele>502.8</ele>
        <time>2016-07-14T09:19:13Z</time>
      </trkpt>
      <trkpt lat="43.01878" lon="-7.42962">
        <ele>503.1</ele>
        <time>2016-07-14T09:19:20Z</time>
      </trkpt>
      <trkpt lat="43.01873" lon="-7.42974">
        <ele>503.5</ele>
        <time>2016-07-14T09:19:28Z</time>
      </trkpt>
      <trkpt lat="43.01868" lon="-7.42985">
        <ele>503.9</ele>
        <time>2016-07-14T09:19:35Z</time>
      </trkpt>
      <trkpt lat="43.01862" lon="-7.42995">
        <ele>504</ele>
        <time>2016-07-14T09:19:42Z</time>
      </trkpt>
      <trkpt lat="43.01858" lon="-7.43007">
        <ele>504.1</ele>
        <time>2016-07-14T09:19:49Z</time>
      </trkpt>
      <trkpt lat="43.01854" lon="-7.43019">
        <ele>504.7</ele>
        <time>2016-07-14T09:19:57Z</time>
      </trkpt>
      <trkpt lat="43.0185" lon="-7.4303">
        <ele>505.3</ele>
        <time>2016-07-14T09:20:04Z</time>
      </trkpt>
      <trkpt lat="43.01844" lon="-7.43041">
        <ele>506</ele>
        <time>2016-07-14T09:20:12Z</time>
      </trkpt>
      <trkpt lat="43.01838" lon="-7.43052">
        <ele>506.5</ele>
        <time>2016-07-14T09:20:20Z</time>
      </trkpt>
      <trkpt lat="43.01833" lon="-7.43063">
        <ele>507</ele>
        <time>2016-07-14T09:20:27Z</time>
      </trkpt>
      <trkpt lat="43.01833" lon="-7.43076">
        <ele>507.8</ele>
        <time>2016-07-14T09:20:35Z</time>
      </trkpt>
      <trkpt lat="43.01835" lon="-7.43089">
        <ele>508.4</ele>
        <time>2016-07-14T09:20:42Z</time>
      </trkpt>
      <trkpt lat="43.01834" lon="-7.43102">
        <ele>509.1</ele>
        <time>2016-07-14T09:20:50Z</time>
      </trkpt>
      <trkpt lat="43.01831" lon="-7.43114">
        <ele>509.7</ele>
        <time>2016-07-14T09:20:57Z</time>
      </trkpt>
      <trkpt lat="43.01827" lon="-7.43126">
        <ele>510.7</ele>
        <time>2016-07-14T09:21:04Z</time>
      </trkpt>
      <trkpt lat="43.01823" lon="-7.43138">
        <ele>511.4</ele>
        <time>2016-07-14T09:21:12Z</time>
      </trkpt>
      <trkpt lat="43.01822" lon="-7.43152">
        <ele>511.9</ele>
        <time>2016-07-14T09:21:20Z</time>
      </trkpt>
      <trkpt lat="43.01818" lon="-7.43164">
        <ele>513.1</ele>
        <time>2016-07-14T09:21:29Z</time>
      </trkpt>
      <trkpt lat="43.01815" lon="-7.43176">
        <ele>514.2</ele>
        <time>2016-07-14T09:21:38Z</time>
      </trkpt>
      <trkpt lat="43.01811" lon="-7.43187">
        <ele>515</ele>
        <time>2016-07-14T09:21:46Z</time>
      </trkpt>
      <trkpt lat="43.01807" lon="-7.43199">
        <ele>515.8</ele>
        <time>2016-07-14T09:21:54Z</time>
      </trkpt>
      <trkpt lat="43.01802" lon="-7.43212">
        <ele>516.8</ele>
        <time>2016-07-14T09:22:03Z</time>
      </trkpt>
      <trkpt lat="43.018" lon="-7.43224">
        <ele>518.1</ele>
        <time>2016-07-14T09:22:11Z</time>
      </trkpt>
      <trkpt lat="43.01796" lon="-7.43236">
        <ele>519.3</ele>
        <time>2016-07-14T09:22:20Z</time>
      </trkpt>
      <trkpt lat="43.01793" lon="-7.43248">
        <ele>520.7</ele>
        <time>2016-07-14T09:22:28Z</time>
      </trkpt>
      <trkpt lat="43.01789" lon="-7.4326">
        <ele>521.7</ele>
        <time>2016-07-14T09:22:35Z</time>
      </trkpt>
      <trkpt lat="43.01786" lon="-7.43272">
        <ele>522.7</ele>
        <time>2016-07-14T09:22:43Z</time>
      </trkpt>
      <trkpt lat="43.01784" lon="-7.43284">
        <ele>523.6</ele>
        <time>2016-07-14T09:22:50Z</time>
      </trkpt>
      <trkpt lat="43.01781" lon="-7.43297">
        <ele>524.3</ele>
        <time>2016-07-14T09:22:58Z</time>
      </trkpt>
      <trkpt lat="43.0178" lon="-7.4331">
        <ele>525.3</ele>
        <time>2016-07-14T09:23:06Z</time>
      </trkpt>
      <trkpt lat="43.01776" lon="-7.43322">
        <ele>526.2</ele>
        <time>2016-07-14T09:23:14Z</time>
      </trkpt>
      <trkpt lat="43.01772" lon="-7.43336">
        <ele>527</ele>
        <time>2016-07-14T09:23:22Z</time>
      </trkpt>
      <trkpt lat="43.01769" lon="-7.43348">
        <ele>527.9</ele>
        <time>2016-07-14T09:23:29Z</time>
      </trkpt>
      <trkpt lat="43.01767" lon="-7.43361">
        <ele>528.6</ele>
        <time>2016-07-14T09:23:36Z</time>
      </trkpt>
      <trkpt lat="43.01763" lon="-7.43374">
        <ele>529.5</ele>
        <time>2016-07-14T09:23:44Z</time>
      </trkpt>
      <trkpt lat="43.0176" lon="-7.43387">
        <ele>530.5</ele>
        <time>2016-07-14T09:23:52Z</time>
      </trkpt>
      <trkpt lat="43.01756" lon="-7.43399">
        <ele>531.3</ele>
        <time>2016-07-14T09:23:59Z</time>
      </trkpt>
      <trkpt lat="43.01754" lon="-7.43412">
        <ele>532.4</ele>
        <time>2016-07-14T09:24:07Z</time>
      </trkpt>
      <trkpt lat="43.01751" lon="-7.43424">
        <ele>533.6</ele>
        <time>2016-07-14T09:24:15Z</time>
      </trkpt>
      <trkpt lat="43.01752" lon="-7.43437">
        <ele>534.7</ele>
        <time>2016-07-14T09:24:23Z</time>
      </trkpt>
      <trkpt lat="43.01752" lon="-7.4345">
        <ele>535.4</ele>
        <time>2016-07-14T09:24:31Z</time>
      </trkpt>
      <trkpt lat="43.01754" lon="-7.43463">
        <ele>536.2</ele>
        <time>2016-07-14T09:24:39Z</time>
      </trkpt>
      <trkpt lat="43.01756" lon="-7.43475">
        <ele>536.9</ele>
        <time>2016-07-14T09:24:47Z</time>
      </trkpt>
      <trkpt lat="43.0176" lon="-7.43487">
        <ele>537.8</ele>
        <time>2016-07-14T09:24:55Z</time>
      </trkpt>
      <trkpt lat="43.01764" lon="-7.435">
        <ele>538.9</ele>
        <time>2016-07-14T09:25:02Z</time>
      </trkpt>
      <trkpt lat="43.01765" lon="-7.43512">
        <ele>539.4</ele>
        <time>2016-07-14T09:25:09Z</time>
      </trkpt>
      <trkpt lat="43.01765" lon="-7.43526">
        <ele>540.1</ele>
        <time>2016-07-14T09:25:16Z</time>
      </trkpt>
      <trkpt lat="43.01765" lon="-7.43538">
        <ele>540.7</ele>
        <time>2016-07-14T09:25:22Z</time>
      </trkpt>
      <trkpt lat="43.01764" lon="-7.43551">
        <ele>541.1</ele>
        <time>2016-07-14T09:25:28Z</time>
      </trkpt>
      <trkpt lat="43.01761" lon="-7.43563">
        <ele>542.1</ele>
        <time>2016-07-14T09:25:35Z</time>
      </trkpt>
      <trkpt lat="43.0176" lon="-7.43576">
        <ele>543</ele>
        <time>2016-07-14T09:25:42Z</time>
      </trkpt>
      <trkpt lat="43.01758" lon="-7.43588">
        <ele>544</ele>
        <time>2016-07-14T09:25:49Z</time>
      </trkpt>
      <trkpt lat="43.01754" lon="-7.43601">
        <ele>544.9</ele>
        <time>2016-07-14T09:25:57Z</time>
      </trkpt>
      <trkpt lat="43.01752" lon="-7.43614">
        <ele>545.6</ele>
        <time>2016-07-14T09:26:06Z</time>
      </trkpt>
      <trkpt lat="43.0175" lon="-7.43627">
        <ele>546.2</ele>
        <time>2016-07-14T09:26:14Z</time>
      </trkpt>
      <trkpt lat="43.0175" lon="-7.4364">
        <ele>546.6</ele>
        <time>2016-07-14T09:26:22Z</time>
      </trkpt>
      <trkpt lat="43.01749" lon="-7.43653">
        <ele>547.4</ele>
        <time>2016-07-14T09:26:30Z</time>
      </trkpt>
      <trkpt lat="43.01749" lon="-7.43667">
        <ele>547.8</ele>
        <time>2016-07-14T09:26:38Z</time>
      </trkpt>
      <trkpt lat="43.01748" lon="-7.4368">
        <ele>548.2</ele>
        <time>2016-07-14T09:26:46Z</time>
      </trkpt>
      <trkpt lat="43.01746" lon="-7.43694">
        <ele>548.9</ele>
        <time>2016-07-14T09:26:54Z</time>
      </trkpt>
      <trkpt lat="43.01745" lon="-7.43707">
        <ele>549.6</ele>
        <time>2016-07-14T09:27:02Z</time>
      </trkpt>
      <trkpt lat="43.01743" lon="-7.43721">
        <ele>550.1</ele>
        <time>2016-07-14T09:27:10Z</time>
      </trkpt>
      <trkpt lat="43.01743" lon="-7.43734">
        <ele>550.7</ele>
        <time>2016-07-14T09:27:17Z</time>
      </trkpt>
      <trkpt lat="43.01742" lon="-7.43746">
        <ele>551</ele>
        <time>2016-07-14T09:27:23Z</time>
      </trkpt>
      <trkpt lat="43.0174" lon="-7.4376">
        <ele>551.6</ele>
        <time>2016-07-14T09:27:30Z</time>
      </trkpt>
      <trkpt lat="43.0174" lon="-7.43772">
        <ele>552.2</ele>
        <time>2016-07-14T09:27:37Z</time>
      </trkpt>
      <trkpt lat="43.01739" lon="-7.43786">
        <ele>552.9</ele>
        <time>2016-07-14T09:27:45Z</time>
      </trkpt>
      <trkpt lat="43.01739" lon="-7.438">
        <ele>553.5</ele>
        <time>2016-07-14T09:27:53Z</time>
      </trkpt>
      <trkpt lat="43.01737" lon="-7.43813">
        <ele>554</ele>
        <time>2016-07-14T09:28:01Z</time>
      </trkpt>
      <trkpt lat="43.01736" lon="-7.43827">
        <ele>554.5</ele>
        <time>2016-07-14T09:28:09Z</time>
      </trkpt>
      <trkpt lat="43.01736" lon="-7.43841">
        <ele>555.2</ele>
        <time>2016-07-14T09:28:17Z</time>
      </trkpt>
      <trkpt lat="43.01737" lon="-7.43853">
        <ele>555.7</ele>
        <time>2016-07-14T09:28:25Z</time>
      </trkpt>
      <trkpt lat="43.01739" lon="-7.43866">
        <ele>555.7</ele>
        <time>2016-07-14T09:28:33Z</time>
      </trkpt>
      <trkpt lat="43.0174" lon="-7.43879">
        <ele>555.9</ele>
        <time>2016-07-14T09:28:42Z</time>
      </trkpt>
      <trkpt lat="43.01742" lon="-7.43891">
        <ele>556.4</ele>
        <time>2016-07-14T09:28:50Z</time>
      </trkpt>
      <trkpt lat="43.01743" lon="-7.43904">
        <ele>556.6</ele>
        <time>2016-07-14T09:28:58Z</time>
      </trkpt>
      <trkpt lat="43.01742" lon="-7.43916">
        <ele>557.2</ele>
        <time>2016-07-14T09:29:24Z</time>
      </trkpt>
      <trkpt lat="43.01743" lon="-7.4393">
        <ele>556.5</ele>
        <time>2016-07-14T09:29:48Z</time>
      </trkpt>
      <trkpt lat="43.01742" lon="-7.43944">
        <ele>556.2</ele>
        <time>2016-07-14T09:29:55Z</time>
      </trkpt>
      <trkpt lat="43.01741" lon="-7.43957">
        <ele>555.8</ele>
        <time>2016-07-14T09:30:03Z</time>
      </trkpt>
      <trkpt lat="43.01741" lon="-7.4397">
        <ele>555.4</ele>
        <time>2016-07-14T09:30:11Z</time>
      </trkpt>
      <trkpt lat="43.01741" lon="-7.43983">
        <ele>554.7</ele>
        <time>2016-07-14T09:30:19Z</time>
      </trkpt>
      <trkpt lat="43.0174" lon="-7.43996">
        <ele>554.1</ele>
        <time>2016-07-14T09:30:27Z</time>
      </trkpt>
      <trkpt lat="43.0174" lon="-7.4401">
        <ele>553.8</ele>
        <time>2016-07-14T09:30:35Z</time>
      </trkpt>
      <trkpt lat="43.01739" lon="-7.44023">
        <ele>553.4</ele>
        <time>2016-07-14T09:30:43Z</time>
      </trkpt>
      <trkpt lat="43.01738" lon="-7.44036">
        <ele>552.5</ele>
        <time>2016-07-14T09:30:51Z</time>
      </trkpt>
      <trkpt lat="43.01737" lon="-7.44049">
        <ele>552</ele>
        <time>2016-07-14T09:30:58Z</time>
      </trkpt>
      <trkpt lat="43.01739" lon="-7.44062">
        <ele>551.6</ele>
        <time>2016-07-14T09:31:06Z</time>
      </trkpt>
      <trkpt lat="43.0174" lon="-7.44075">
        <ele>551.4</ele>
        <time>2016-07-14T09:31:13Z</time>
      </trkpt>
      <trkpt lat="43.01739" lon="-7.44088">
        <ele>551.1</ele>
        <time>2016-07-14T09:31:20Z</time>
      </trkpt>
      <trkpt lat="43.01736" lon="-7.441">
        <ele>550.7</ele>
        <time>2016-07-14T09:31:27Z</time>
      </trkpt>
      <trkpt lat="43.01731" lon="-7.4411">
        <ele>550.4</ele>
        <time>2016-07-14T09:31:34Z</time>
      </trkpt>
      <trkpt lat="43.01725" lon="-7.44121">
        <ele>550</ele>
        <time>2016-07-14T09:31:41Z</time>
      </trkpt>
      <trkpt lat="43.01721" lon="-7.44132">
        <ele>549.4</ele>
        <time>2016-07-14T09:31:49Z</time>
      </trkpt>
      <trkpt lat="43.01718" lon="-7.44145">
        <ele>548.7</ele>
        <time>2016-07-14T09:31:59Z</time>
      </trkpt>
      <trkpt lat="43.01714" lon="-7.44156">
        <ele>547.6</ele>
        <time>2016-07-14T09:32:08Z</time>
      </trkpt>
      <trkpt lat="43.0171" lon="-7.44167">
        <ele>546.6</ele>
        <time>2016-07-14T09:32:17Z</time>
      </trkpt>
      <trkpt lat="43.01707" lon="-7.4418">
        <ele>546</ele>
        <time>2016-07-14T09:32:27Z</time>
      </trkpt>
      <trkpt lat="43.01704" lon="-7.44192">
        <ele>544.8</ele>
        <time>2016-07-14T09:32:37Z</time>
      </trkpt>
      <trkpt lat="43.01705" lon="-7.44206">
        <ele>542.9</ele>
        <time>2016-07-14T09:32:47Z</time>
      </trkpt>
      <trkpt lat="43.01703" lon="-7.44218">
        <ele>541.5</ele>
        <time>2016-07-14T09:32:55Z</time>
      </trkpt>
      <trkpt lat="43.01704" lon="-7.44232">
        <ele>540.2</ele>
        <time>2016-07-14T09:33:04Z</time>
      </trkpt>
      <trkpt lat="43.01703" lon="-7.44245">
        <ele>538.9</ele>
        <time>2016-07-14T09:33:12Z</time>
      </trkpt>
      <trkpt lat="43.01701" lon="-7.44259">
        <ele>537.4</ele>
        <time>2016-07-14T09:33:20Z</time>
      </trkpt>
      <trkpt lat="43.01699" lon="-7.44271">
        <ele>536.3</ele>
        <time>2016-07-14T09:33:27Z</time>
      </trkpt>
      <trkpt lat="43.01701" lon="-7.44283">
        <ele>534.1</ele>
        <time>2016-07-14T09:33:37Z</time>
      </trkpt>
      <trkpt lat="43.01701" lon="-7.44296">
        <ele>531.5</ele>
        <time>2016-07-14T09:33:46Z</time>
      </trkpt>
      <trkpt lat="43.01705" lon="-7.44309">
        <ele>529.6</ele>
        <time>2016-07-14T09:33:55Z</time>
      </trkpt>
      <trkpt lat="43.01707" lon="-7.44322">
        <ele>527.7</ele>
        <time>2016-07-14T09:34:03Z</time>
      </trkpt>
      <trkpt lat="43.01708" lon="-7.44336">
        <ele>525.8</ele>
        <time>2016-07-14T09:34:13Z</time>
      </trkpt>
      <trkpt lat="43.01708" lon="-7.4435">
        <ele>524.3</ele>
        <time>2016-07-14T09:34:20Z</time>
      </trkpt>
      <trkpt lat="43.01715" lon="-7.44359">
        <ele>522.9</ele>
        <time>2016-07-14T09:34:27Z</time>
      </trkpt>
      <trkpt lat="43.01722" lon="-7.44366">
        <ele>522</ele>
        <time>2016-07-14T09:34:34Z</time>
      </trkpt>
      <trkpt lat="43.0173" lon="-7.44373">
        <ele>521.1</ele>
        <time>2016-07-14T09:34:42Z</time>
      </trkpt>
      <trkpt lat="43.01738" lon="-7.4438">
        <ele>520.7</ele>
        <time>2016-07-14T09:34:49Z</time>
      </trkpt>
      <trkpt lat="43.01746" lon="-7.44385">
        <ele>520.4</ele>
        <time>2016-07-14T09:34:55Z</time>
      </trkpt>
      <trkpt lat="43.01756" lon="-7.44391">
        <ele>520.3</ele>
        <time>2016-07-14T09:35:01Z</time>
      </trkpt>
      <trkpt lat="43.01764" lon="-7.44398">
        <ele>520.2</ele>
        <time>2016-07-14T09:35:08Z</time>
      </trkpt>
      <trkpt lat="43.01772" lon="-7.44407">
        <ele>520.1</ele>
        <time>2016-07-14T09:35:15Z</time>
      </trkpt>
      <trkpt lat="43.0178" lon="-7.44413">
        <ele>520</ele>
        <time>2016-07-14T09:35:22Z</time>
      </trkpt>
      <trkpt lat="43.01788" lon="-7.4442">
        <ele>519.9</ele>
        <time>2016-07-14T09:35:30Z</time>
      </trkpt>
      <trkpt lat="43.01798" lon="-7.44424">
        <ele>520.1</ele>
        <time>2016-07-14T09:35:37Z</time>
      </trkpt>
      <trkpt lat="43.01807" lon="-7.44424">
        <ele>520.1</ele>
        <time>2016-07-14T09:35:44Z</time>
      </trkpt>
      <trkpt lat="43.01817" lon="-7.44423">
        <ele>520.4</ele>
        <time>2016-07-14T09:35:51Z</time>
      </trkpt>
      <trkpt lat="43.01827" lon="-7.44423">
        <ele>520.8</ele>
        <time>2016-07-14T09:35:57Z</time>
      </trkpt>
      <trkpt lat="43.01837" lon="-7.44421">
        <ele>520.9</ele>
        <time>2016-07-14T09:36:03Z</time>
      </trkpt>
      <trkpt lat="43.01847" lon="-7.44418">
        <ele>520.9</ele>
        <time>2016-07-14T09:36:09Z</time>
      </trkpt>
      <trkpt lat="43.01856" lon="-7.44416">
        <ele>521</ele>
        <time>2016-07-14T09:36:15Z</time>
      </trkpt>
      <trkpt lat="43.01866" lon="-7.44415">
        <ele>521.1</ele>
        <time>2016-07-14T09:36:23Z</time>
      </trkpt>
      <trkpt lat="43.01875" lon="-7.44415">
        <ele>521.1</ele>
        <time>2016-07-14T09:36:30Z</time>
      </trkpt>
      <trkpt lat="43.01884" lon="-7.44419">
        <ele>521.6</ele>
        <time>2016-07-14T09:36:39Z</time>
      </trkpt>
      <trkpt lat="43.01891" lon="-7.44428">
        <ele>521.8</ele>
        <time>2016-07-14T09:36:46Z</time>
      </trkpt>
      <trkpt lat="43.01896" lon="-7.4444">
        <ele>521.9</ele>
        <time>2016-07-14T09:36:53Z</time>
      </trkpt>
      <trkpt lat="43.01897" lon="-7.44452">
        <ele>522</ele>
        <time>2016-07-14T09:37:01Z</time>
      </trkpt>
      <trkpt lat="43.01896" lon="-7.44465">
        <ele>522.2</ele>
        <time>2016-07-14T09:37:21Z</time>
      </trkpt>
      <trkpt lat="43.01897" lon="-7.44478">
        <ele>522</ele>
        <time>2016-07-14T09:37:30Z</time>
      </trkpt>
      <trkpt lat="43.01899" lon="-7.44491">
        <ele>521.2</ele>
        <time>2016-07-14T09:38:35Z</time>
      </trkpt>
      <trkpt lat="43.01905" lon="-7.44501">
        <ele>520.9</ele>
        <time>2016-07-14T09:39:09Z</time>
      </trkpt>
      <trkpt lat="43.01912" lon="-7.4451">
        <ele>520.6</ele>
        <time>2016-07-14T09:39:17Z</time>
      </trkpt>
      <trkpt lat="43.01922" lon="-7.44512">
        <ele>520.3</ele>
        <time>2016-07-14T09:39:25Z</time>
      </trkpt>
      <trkpt lat="43.01932" lon="-7.4451">
        <ele>519.7</ele>
        <time>2016-07-14T09:39:32Z</time>
      </trkpt>
      <trkpt lat="43.01941" lon="-7.44507">
        <ele>519</ele>
        <time>2016-07-14T09:39:39Z</time>
      </trkpt>
      <trkpt lat="43.01951" lon="-7.44505">
        <ele>518</ele>
        <time>2016-07-14T09:39:47Z</time>
      </trkpt>
      <trkpt lat="43.01961" lon="-7.44509">
        <ele>516.5</ele>
        <time>2016-07-14T09:39:57Z</time>
      </trkpt>
      <trkpt lat="43.0197" lon="-7.44515">
        <ele>515.3</ele>
        <time>2016-07-14T09:40:04Z</time>
      </trkpt>
      <trkpt lat="43.01979" lon="-7.4452">
        <ele>513.9</ele>
        <time>2016-07-14T09:40:12Z</time>
      </trkpt>
      <trkpt lat="43.01989" lon="-7.44526">
        <ele>513.1</ele>
        <time>2016-07-14T09:40:19Z</time>
      </trkpt>
      <trkpt lat="43.01997" lon="-7.44532">
        <ele>512.7</ele>
        <time>2016-07-14T09:40:25Z</time>
      </trkpt>
      <trkpt lat="43.02006" lon="-7.44539">
        <ele>512.2</ele>
        <time>2016-07-14T09:40:32Z</time>
      </trkpt>
      <trkpt lat="43.02012" lon="-7.4455">
        <ele>510.3</ele>
        <time>2016-07-14T09:40:39Z</time>
      </trkpt>
      <trkpt lat="43.02018" lon="-7.4456">
        <ele>511.6</ele>
        <time>2016-07-14T09:40:46Z</time>
      </trkpt>
      <trkpt lat="43.02023" lon="-7.44571">
        <ele>511.1</ele>
        <time>2016-07-14T09:40:54Z</time>
      </trkpt>
      <trkpt lat="43.02025" lon="-7.44584">
        <ele>511.7</ele>
        <time>2016-07-14T09:41:08Z</time>
      </trkpt>
      <trkpt lat="43.02029" lon="-7.44596">
        <ele>511.5</ele>
        <time>2016-07-14T09:41:15Z</time>
      </trkpt>
      <trkpt lat="43.02033" lon="-7.44607">
        <ele>511.5</ele>
        <time>2016-07-14T09:41:22Z</time>
      </trkpt>
      <trkpt lat="43.02033" lon="-7.4462">
        <ele>511.5</ele>
        <time>2016-07-14T09:41:30Z</time>
      </trkpt>
      <trkpt lat="43.02029" lon="-7.44631">
        <ele>511.5</ele>
        <time>2016-07-14T09:41:38Z</time>
      </trkpt>
      <trkpt lat="43.02023" lon="-7.44641">
        <ele>511.5</ele>
        <time>2016-07-14T09:41:45Z</time>
      </trkpt>
      <trkpt lat="43.02015" lon="-7.44649">
        <ele>511.5</ele>
        <time>2016-07-14T09:41:53Z</time>
      </trkpt>
      <trkpt lat="43.02006" lon="-7.44655">
        <ele>511.4</ele>
        <time>2016-07-14T09:42:00Z</time>
      </trkpt>
      <trkpt lat="43.01998" lon="-7.44663">
        <ele>511.2</ele>
        <time>2016-07-14T09:42:07Z</time>
      </trkpt>
      <trkpt lat="43.01992" lon="-7.44672">
        <ele>511</ele>
        <time>2016-07-14T09:42:13Z</time>
      </trkpt>
      <trkpt lat="43.01986" lon="-7.44683">
        <ele>510.9</ele>
        <time>2016-07-14T09:42:20Z</time>
      </trkpt>
      <trkpt lat="43.01982" lon="-7.44695">
        <ele>510.9</ele>
        <time>2016-07-14T09:42:27Z</time>
      </trkpt>
      <trkpt lat="43.01978" lon="-7.44708">
        <ele>510.8</ele>
        <time>2016-07-14T09:42:34Z</time>
      </trkpt>
      <trkpt lat="43.01976" lon="-7.4472">
        <ele>510.4</ele>
        <time>2016-07-14T09:42:45Z</time>
      </trkpt>
      <trkpt lat="43.01975" lon="-7.44734">
        <ele>509.6</ele>
        <time>2016-07-14T09:42:53Z</time>
      </trkpt>
      <trkpt lat="43.01975" lon="-7.44748">
        <ele>508.7</ele>
        <time>2016-07-14T09:43:02Z</time>
      </trkpt>
      <trkpt lat="43.01975" lon="-7.44762">
        <ele>508</ele>
        <time>2016-07-14T09:43:10Z</time>
      </trkpt>
      <trkpt lat="43.01974" lon="-7.44774">
        <ele>507.6</ele>
        <time>2016-07-14T09:43:17Z</time>
      </trkpt>
      <trkpt lat="43.01972" lon="-7.44787">
        <ele>507.3</ele>
        <time>2016-07-14T09:43:24Z</time>
      </trkpt>
      <trkpt lat="43.01969" lon="-7.448">
        <ele>506.6</ele>
        <time>2016-07-14T09:43:31Z</time>
      </trkpt>
      <trkpt lat="43.01967" lon="-7.44813">
        <ele>505.9</ele>
        <time>2016-07-14T09:43:39Z</time>
      </trkpt>
      <trkpt lat="43.01964" lon="-7.44827">
        <ele>505.6</ele>
        <time>2016-07-14T09:43:47Z</time>
      </trkpt>
      <trkpt lat="43.01963" lon="-7.4484">
        <ele>505.4</ele>
        <time>2016-07-14T09:43:54Z</time>
      </trkpt>
      <trkpt lat="43.01963" lon="-7.44853">
        <ele>505.3</ele>
        <time>2016-07-14T09:44:01Z</time>
      </trkpt>
      <trkpt lat="43.01967" lon="-7.44865">
        <ele>505.2</ele>
        <time>2016-07-14T09:44:08Z</time>
      </trkpt>
      <trkpt lat="43.01973" lon="-7.44876">
        <ele>505.3</ele>
        <time>2016-07-14T09:44:15Z</time>
      </trkpt>
      <trkpt lat="43.01978" lon="-7.44886">
        <ele>505.5</ele>
        <time>2016-07-14T09:44:29Z</time>
      </trkpt>
      <trkpt lat="43.01985" lon="-7.44895">
        <ele>505.4</ele>
        <time>2016-07-14T09:44:38Z</time>
      </trkpt>
      <trkpt lat="43.0199" lon="-7.44905">
        <ele>505.7</ele>
        <time>2016-07-14T09:44:48Z</time>
      </trkpt>
      <trkpt lat="43.01995" lon="-7.44915">
        <ele>505.9</ele>
        <time>2016-07-14T09:44:57Z</time>
      </trkpt>
      <trkpt lat="43.01998" lon="-7.44927">
        <ele>506.4</ele>
        <time>2016-07-14T09:45:06Z</time>
      </trkpt>
      <trkpt lat="43.02002" lon="-7.44939">
        <ele>507</ele>
        <time>2016-07-14T09:45:13Z</time>
      </trkpt>
      <trkpt lat="43.02004" lon="-7.44952">
        <ele>507.5</ele>
        <time>2016-07-14T09:45:20Z</time>
      </trkpt>
      <trkpt lat="43.02008" lon="-7.44965">
        <ele>508.2</ele>
        <time>2016-07-14T09:45:28Z</time>
      </trkpt>
      <trkpt lat="43.02012" lon="-7.44976">
        <ele>508.9</ele>
        <time>2016-07-14T09:45:34Z</time>
      </trkpt>
      <trkpt lat="43.02016" lon="-7.44988">
        <ele>509.4</ele>
        <time>2016-07-14T09:45:41Z</time>
      </trkpt>
      <trkpt lat="43.0202" lon="-7.45">
        <ele>510.2</ele>
        <time>2016-07-14T09:45:48Z</time>
      </trkpt>
      <trkpt lat="43.02025" lon="-7.4501">
        <ele>510.9</ele>
        <time>2016-07-14T09:45:55Z</time>
      </trkpt>
      <trkpt lat="43.0203" lon="-7.45021">
        <ele>511.5</ele>
        <time>2016-07-14T09:46:03Z</time>
      </trkpt>
      <trkpt lat="43.02036" lon="-7.45031">
        <ele>512.3</ele>
        <time>2016-07-14T09:46:11Z</time>
      </trkpt>
      <trkpt lat="43.02043" lon="-7.45041">
        <ele>514</ele>
        <time>2016-07-14T09:46:25Z</time>
      </trkpt>
      <trkpt lat="43.02048" lon="-7.45052">
        <ele>514.9</ele>
        <time>2016-07-14T09:46:34Z</time>
      </trkpt>
      <trkpt lat="43.02051" lon="-7.45064">
        <ele>516</ele>
        <time>2016-07-14T09:46:42Z</time>
      </trkpt>
      <trkpt lat="43.02053" lon="-7.45077">
        <ele>517</ele>
        <time>2016-07-14T09:46:51Z</time>
      </trkpt>
      <trkpt lat="43.02052" lon="-7.45089">
        <ele>517.3</ele>
        <time>2016-07-14T09:46:59Z</time>
      </trkpt>
      <trkpt lat="43.02048" lon="-7.45101">
        <ele>517.8</ele>
        <time>2016-07-14T09:47:08Z</time>
      </trkpt>
      <trkpt lat="43.02041" lon="-7.45109">
        <ele>518.2</ele>
        <time>2016-07-14T09:47:16Z</time>
      </trkpt>
      <trkpt lat="43.02033" lon="-7.45117">
        <ele>518.5</ele>
        <time>2016-07-14T09:47:26Z</time>
      </trkpt>
      <trkpt lat="43.02024" lon="-7.45121">
        <ele>518.8</ele>
        <time>2016-07-14T09:47:34Z</time>
      </trkpt>
      <trkpt lat="43.02015" lon="-7.45126">
        <ele>519.1</ele>
        <time>2016-07-14T09:47:42Z</time>
      </trkpt>
      <trkpt lat="43.02006" lon="-7.45129">
        <ele>519.3</ele>
        <time>2016-07-14T09:47:49Z</time>
      </trkpt>
      <trkpt lat="43.01999" lon="-7.45135">
        <ele>519.4</ele>
        <time>2016-07-14T09:47:57Z</time>
      </trkpt>
      <trkpt lat="43.01991" lon="-7.45144">
        <ele>519.3</ele>
        <time>2016-07-14T09:48:05Z</time>
      </trkpt>
      <trkpt lat="43.01983" lon="-7.45154">
        <ele>519.2</ele>
        <time>2016-07-14T09:48:13Z</time>
      </trkpt>
      <trkpt lat="43.01974" lon="-7.4516">
        <ele>519.3</ele>
        <time>2016-07-14T09:48:21Z</time>
      </trkpt>
      <trkpt lat="43.01966" lon="-7.45168">
        <ele>519.2</ele>
        <time>2016-07-14T09:48:29Z</time>
      </trkpt>
      <trkpt lat="43.01958" lon="-7.45175">
        <ele>519</ele>
        <time>2016-07-14T09:48:37Z</time>
      </trkpt>
      <trkpt lat="43.0195" lon="-7.45181">
        <ele>518.8</ele>
        <time>2016-07-14T09:48:44Z</time>
      </trkpt>
      <trkpt lat="43.01942" lon="-7.45187">
        <ele>518.8</ele>
        <time>2016-07-14T09:48:50Z</time>
      </trkpt>
      <trkpt lat="43.01933" lon="-7.45193">
        <ele>518.6</ele>
        <time>2016-07-14T09:48:57Z</time>
      </trkpt>
      <trkpt lat="43.01925" lon="-7.452">
        <ele>518.5</ele>
        <time>2016-07-14T09:49:04Z</time>
      </trkpt>
      <trkpt lat="43.01917" lon="-7.45208">
        <ele>518.3</ele>
        <time>2016-07-14T09:49:11Z</time>
      </trkpt>
      <trkpt lat="43.01909" lon="-7.45215">
        <ele>518</ele>
        <time>2016-07-14T09:49:18Z</time>
      </trkpt>
      <trkpt lat="43.019" lon="-7.45221">
        <ele>517.9</ele>
        <time>2016-07-14T09:49:25Z</time>
      </trkpt>
      <trkpt lat="43.01892" lon="-7.45226">
        <ele>517.8</ele>
        <time>2016-07-14T09:49:32Z</time>
      </trkpt>
      <trkpt lat="43.01884" lon="-7.45233">
        <ele>517.8</ele>
        <time>2016-07-14T09:49:39Z</time>
      </trkpt>
      <trkpt lat="43.01875" lon="-7.45239">
        <ele>517.9</ele>
        <time>2016-07-14T09:49:47Z</time>
      </trkpt>
      <trkpt lat="43.01868" lon="-7.45248">
        <ele>518</ele>
        <time>2016-07-14T09:49:54Z</time>
      </trkpt>
      <trkpt lat="43.0186" lon="-7.45256">
        <ele>518</ele>
        <time>2016-07-14T09:50:02Z</time>
      </trkpt>
      <trkpt lat="43.01853" lon="-7.45267">
        <ele>518.4</ele>
        <time>2016-07-14T09:50:10Z</time>
      </trkpt>
      <trkpt lat="43.01848" lon="-7.45278">
        <ele>518.5</ele>
        <time>2016-07-14T09:50:17Z</time>
      </trkpt>
      <trkpt lat="43.01843" lon="-7.4529">
        <ele>518.7</ele>
        <time>2016-07-14T09:50:24Z</time>
      </trkpt>
      <trkpt lat="43.01839" lon="-7.45301">
        <ele>518.8</ele>
        <time>2016-07-14T09:50:31Z</time>
      </trkpt>
      <trkpt lat="43.01835" lon="-7.45313">
        <ele>519</ele>
        <time>2016-07-14T09:50:37Z</time>
      </trkpt>
      <trkpt lat="43.01834" lon="-7.45326">
        <ele>519.3</ele>
        <time>2016-07-14T09:50:44Z</time>
      </trkpt>
      <trkpt lat="43.01832" lon="-7.4534">
        <ele>519.6</ele>
        <time>2016-07-14T09:50:52Z</time>
      </trkpt>
      <trkpt lat="43.0183" lon="-7.45352">
        <ele>519.7</ele>
        <time>2016-07-14T09:50:59Z</time>
      </trkpt>
      <trkpt lat="43.01828" lon="-7.45364">
        <ele>519.8</ele>
        <time>2016-07-14T09:51:06Z</time>
      </trkpt>
      <trkpt lat="43.01826" lon="-7.45378">
        <ele>519.9</ele>
        <time>2016-07-14T09:51:14Z</time>
      </trkpt>
      <trkpt lat="43.01823" lon="-7.45391">
        <ele>519.9</ele>
        <time>2016-07-14T09:51:21Z</time>
      </trkpt>
      <trkpt lat="43.0182" lon="-7.45404">
        <ele>519.9</ele>
        <time>2016-07-14T09:51:28Z</time>
      </trkpt>
      <trkpt lat="43.01817" lon="-7.45416">
        <ele>519.9</ele>
        <time>2016-07-14T09:51:35Z</time>
      </trkpt>
      <trkpt lat="43.01813" lon="-7.45428">
        <ele>519.9</ele>
        <time>2016-07-14T09:51:42Z</time>
      </trkpt>
      <trkpt lat="43.01808" lon="-7.4544">
        <ele>520.1</ele>
        <time>2016-07-14T09:51:50Z</time>
      </trkpt>
      <trkpt lat="43.01802" lon="-7.4545">
        <ele>520.4</ele>
        <time>2016-07-14T09:51:57Z</time>
      </trkpt>
      <trkpt lat="43.01796" lon="-7.45461">
        <ele>520.3</ele>
        <time>2016-07-14T09:52:05Z</time>
      </trkpt>
      <trkpt lat="43.01789" lon="-7.45471">
        <ele>520.2</ele>
        <time>2016-07-14T09:52:13Z</time>
      </trkpt>
      <trkpt lat="43.01782" lon="-7.45481">
        <ele>520.1</ele>
        <time>2016-07-14T09:52:20Z</time>
      </trkpt>
      <trkpt lat="43.01778" lon="-7.45492">
        <ele>520</ele>
        <time>2016-07-14T09:52:27Z</time>
      </trkpt>
      <trkpt lat="43.01773" lon="-7.45504">
        <ele>519.6</ele>
        <time>2016-07-14T09:52:34Z</time>
      </trkpt>
      <trkpt lat="43.01767" lon="-7.45515">
        <ele>519.5</ele>
        <time>2016-07-14T09:52:41Z</time>
      </trkpt>
      <trkpt lat="43.0176" lon="-7.45524">
        <ele>519.1</ele>
        <time>2016-07-14T09:52:48Z</time>
      </trkpt>
      <trkpt lat="43.01756" lon="-7.45536">
        <ele>518.5</ele>
        <time>2016-07-14T09:52:55Z</time>
      </trkpt>
      <trkpt lat="43.01753" lon="-7.45549">
        <ele>518.1</ele>
        <time>2016-07-14T09:53:02Z</time>
      </trkpt>
      <trkpt lat="43.01753" lon="-7.45562">
        <ele>517.7</ele>
        <time>2016-07-14T09:53:09Z</time>
      </trkpt>
      <trkpt lat="43.01758" lon="-7.45575">
        <ele>517.3</ele>
        <time>2016-07-14T09:53:16Z</time>
      </trkpt>
      <trkpt lat="43.01759" lon="-7.45588">
        <ele>517.1</ele>
        <time>2016-07-14T09:53:23Z</time>
      </trkpt>
      <trkpt lat="43.01752" lon="-7.45595">
        <ele>516.1</ele>
        <time>2016-07-14T09:54:05Z</time>
      </trkpt>
      <trkpt lat="43.01755" lon="-7.45607">
        <ele>515.8</ele>
        <time>2016-07-14T09:54:18Z</time>
      </trkpt>
      <trkpt lat="43.01758" lon="-7.4562">
        <ele>515.7</ele>
        <time>2016-07-14T09:54:25Z</time>
      </trkpt>
      <trkpt lat="43.01763" lon="-7.45631">
        <ele>515.6</ele>
        <time>2016-07-14T09:54:31Z</time>
      </trkpt>
      <trkpt lat="43.01766" lon="-7.45642">
        <ele>515.7</ele>
        <time>2016-07-14T09:54:37Z</time>
      </trkpt>
      <trkpt lat="43.01771" lon="-7.45653">
        <ele>515.6</ele>
        <time>2016-07-14T09:54:44Z</time>
      </trkpt>
      <trkpt lat="43.01776" lon="-7.45665">
        <ele>515.4</ele>
        <time>2016-07-14T09:54:51Z</time>
      </trkpt>
      <trkpt lat="43.01781" lon="-7.45676">
        <ele>515.6</ele>
        <time>2016-07-14T09:54:58Z</time>
      </trkpt>
      <trkpt lat="43.01785" lon="-7.45688">
        <ele>515.8</ele>
        <time>2016-07-14T09:55:05Z</time>
      </trkpt>
      <trkpt lat="43.0179" lon="-7.45699">
        <ele>515.7</ele>
        <time>2016-07-14T09:55:12Z</time>
      </trkpt>
      <trkpt lat="43.01792" lon="-7.45712">
        <ele>515.5</ele>
        <time>2016-07-14T09:55:19Z</time>
      </trkpt>
      <trkpt lat="43.01793" lon="-7.45725">
        <ele>515.7</ele>
        <time>2016-07-14T09:55:26Z</time>
      </trkpt>
      <trkpt lat="43.01796" lon="-7.45738">
        <ele>516.4</ele>
        <time>2016-07-14T09:55:33Z</time>
      </trkpt>
      <trkpt lat="43.018" lon="-7.4575">
        <ele>516.9</ele>
        <time>2016-07-14T09:55:40Z</time>
      </trkpt>
      <trkpt lat="43.01807" lon="-7.4576">
        <ele>517.3</ele>
        <time>2016-07-14T09:55:47Z</time>
      </trkpt>
      <trkpt lat="43.01812" lon="-7.45772">
        <ele>517.5</ele>
        <time>2016-07-14T09:55:55Z</time>
      </trkpt>
      <trkpt lat="43.01818" lon="-7.45782">
        <ele>517.6</ele>
        <time>2016-07-14T09:56:02Z</time>
      </trkpt>
      <trkpt lat="43.01823" lon="-7.45793">
        <ele>518.3</ele>
        <time>2016-07-14T09:56:10Z</time>
      </trkpt>
      <trkpt lat="43.01826" lon="-7.45806">
        <ele>519</ele>
        <time>2016-07-14T09:56:19Z</time>
      </trkpt>
      <trkpt lat="43.01829" lon="-7.45818">
        <ele>519.3</ele>
        <time>2016-07-14T09:56:27Z</time>
      </trkpt>
      <trkpt lat="43.01829" lon="-7.45831">
        <ele>519.5</ele>
        <time>2016-07-14T09:56:36Z</time>
      </trkpt>
      <trkpt lat="43.01829" lon="-7.45844">
        <ele>519.8</ele>
        <time>2016-07-14T09:56:43Z</time>
      </trkpt>
      <trkpt lat="43.01829" lon="-7.45857">
        <ele>520</ele>
        <time>2016-07-14T09:56:51Z</time>
      </trkpt>
      <trkpt lat="43.0183" lon="-7.4587">
        <ele>520.2</ele>
        <time>2016-07-14T09:57:01Z</time>
      </trkpt>
      <trkpt lat="43.0183" lon="-7.45883">
        <ele>520.3</ele>
        <time>2016-07-14T09:57:08Z</time>
      </trkpt>
      <trkpt lat="43.01831" lon="-7.45898">
        <ele>520.4</ele>
        <time>2016-07-14T09:57:15Z</time>
      </trkpt>
      <trkpt lat="43.01834" lon="-7.45911">
        <ele>520.4</ele>
        <time>2016-07-14T09:57:22Z</time>
      </trkpt>
      <trkpt lat="43.01835" lon="-7.45924">
        <ele>520.5</ele>
        <time>2016-07-14T09:57:28Z</time>
      </trkpt>
      <trkpt lat="43.01834" lon="-7.45937">
        <ele>521</ele>
        <time>2016-07-14T09:57:35Z</time>
      </trkpt>
      <trkpt lat="43.01833" lon="-7.45951">
        <ele>521.4</ele>
        <time>2016-07-14T09:57:42Z</time>
      </trkpt>
      <trkpt lat="43.01833" lon="-7.45964">
        <ele>521.6</ele>
        <time>2016-07-14T09:57:49Z</time>
      </trkpt>
      <trkpt lat="43.01832" lon="-7.45977">
        <ele>521.8</ele>
        <time>2016-07-14T09:57:57Z</time>
      </trkpt>
      <trkpt lat="43.01834" lon="-7.45989">
        <ele>522.3</ele>
        <time>2016-07-14T09:58:05Z</time>
      </trkpt>
      <trkpt lat="43.01834" lon="-7.46003">
        <ele>522.7</ele>
        <time>2016-07-14T09:58:12Z</time>
      </trkpt>
      <trkpt lat="43.01834" lon="-7.46015">
        <ele>522.6</ele>
        <time>2016-07-14T09:58:20Z</time>
      </trkpt>
      <trkpt lat="43.01836" lon="-7.46028">
        <ele>522.7</ele>
        <time>2016-07-14T09:58:27Z</time>
      </trkpt>
      <trkpt lat="43.0184" lon="-7.4604">
        <ele>523.1</ele>
        <time>2016-07-14T09:58:33Z</time>
      </trkpt>
      <trkpt lat="43.01842" lon="-7.46053">
        <ele>523.4</ele>
        <time>2016-07-14T09:58:40Z</time>
      </trkpt>
      <trkpt lat="43.01843" lon="-7.46066">
        <ele>523.7</ele>
        <time>2016-07-14T09:58:47Z</time>
      </trkpt>
      <trkpt lat="43.01846" lon="-7.46079">
        <ele>523.9</ele>
        <time>2016-07-14T09:58:54Z</time>
      </trkpt>
      <trkpt lat="43.01844" lon="-7.46091">
        <ele>523.9</ele>
        <time>2016-07-14T09:59:02Z</time>
      </trkpt>
      <trkpt lat="43.01838" lon="-7.46102">
        <ele>524.4</ele>
        <time>2016-07-14T09:59:09Z</time>
      </trkpt>
      <trkpt lat="43.01832" lon="-7.46112">
        <ele>524.4</ele>
        <time>2016-07-14T09:59:16Z</time>
      </trkpt>
      <trkpt lat="43.01827" lon="-7.46123">
        <ele>524.1</ele>
        <time>2016-07-14T09:59:24Z</time>
      </trkpt>
      <trkpt lat="43.0182" lon="-7.46133">
        <ele>524.2</ele>
        <time>2016-07-14T09:59:32Z</time>
      </trkpt>
      <trkpt lat="43.01813" lon="-7.46143">
        <ele>524.5</ele>
        <time>2016-07-14T09:59:41Z</time>
      </trkpt>
      <trkpt lat="43.01805" lon="-7.46151">
        <ele>524.8</ele>
        <time>2016-07-14T09:59:48Z</time>
      </trkpt>
      <trkpt lat="43.01799" lon="-7.46162">
        <ele>524.7</ele>
        <time>2016-07-14T09:59:55Z</time>
      </trkpt>
      <trkpt lat="43.01793" lon="-7.46171">
        <ele>524.5</ele>
        <time>2016-07-14T10:00:01Z</time>
      </trkpt>
      <trkpt lat="43.01786" lon="-7.46181">
        <ele>524.4</ele>
        <time>2016-07-14T10:00:09Z</time>
      </trkpt>
      <trkpt lat="43.01781" lon="-7.46192">
        <ele>524.2</ele>
        <time>2016-07-14T10:00:18Z</time>
      </trkpt>
      <trkpt lat="43.01777" lon="-7.46204">
        <ele>524.2</ele>
        <time>2016-07-14T10:00:25Z</time>
      </trkpt>
      <trkpt lat="43.01775" lon="-7.46217">
        <ele>523.3</ele>
        <time>2016-07-14T10:01:13Z</time>
      </trkpt>
      <trkpt lat="43.01773" lon="-7.4623">
        <ele>523.2</ele>
        <time>2016-07-14T10:01:21Z</time>
      </trkpt>
      <trkpt lat="43.0177" lon="-7.46242">
        <ele>523</ele>
        <time>2016-07-14T10:01:29Z</time>
      </trkpt>
      <trkpt lat="43.01768" lon="-7.46255">
        <ele>522.7</ele>
        <time>2016-07-14T10:01:37Z</time>
      </trkpt>
      <trkpt lat="43.01768" lon="-7.46268">
        <ele>523.2</ele>
        <time>2016-07-14T10:01:44Z</time>
      </trkpt>
      <trkpt lat="43.01769" lon="-7.46282">
        <ele>521.9</ele>
        <time>2016-07-14T10:01:51Z</time>
      </trkpt>
      <trkpt lat="43.01768" lon="-7.46294">
        <ele>523.6</ele>
        <time>2016-07-14T10:01:58Z</time>
      </trkpt>
      <trkpt lat="43.01768" lon="-7.46307">
        <ele>521</ele>
        <time>2016-07-14T10:02:05Z</time>
      </trkpt>
      <trkpt lat="43.01767" lon="-7.46321">
        <ele>524.1</ele>
        <time>2016-07-14T10:02:13Z</time>
      </trkpt>
      <trkpt lat="43.01767" lon="-7.46334">
        <ele>525.1</ele>
        <time>2016-07-14T10:02:21Z</time>
      </trkpt>
      <trkpt lat="43.01766" lon="-7.46347">
        <ele>523.1</ele>
        <time>2016-07-14T10:02:29Z</time>
      </trkpt>
      <trkpt lat="43.01763" lon="-7.46359">
        <ele>524</ele>
        <time>2016-07-14T10:02:38Z</time>
      </trkpt>
      <trkpt lat="43.01758" lon="-7.46371">
        <ele>522.8</ele>
        <time>2016-07-14T10:02:49Z</time>
      </trkpt>
      <trkpt lat="43.01755" lon="-7.46384">
        <ele>522.1</ele>
        <time>2016-07-14T10:02:58Z</time>
      </trkpt>
      <trkpt lat="43.01753" lon="-7.46397">
        <ele>521.8</ele>
        <time>2016-07-14T10:03:06Z</time>
      </trkpt>
      <trkpt lat="43.01751" lon="-7.4641">
        <ele>521.6</ele>
        <time>2016-07-14T10:03:14Z</time>
      </trkpt>
      <trkpt lat="43.01751" lon="-7.46423">
        <ele>521.4</ele>
        <time>2016-07-14T10:03:22Z</time>
      </trkpt>
      <trkpt lat="43.01748" lon="-7.46435">
        <ele>520.6</ele>
        <time>2016-07-14T10:03:50Z</time>
      </trkpt>
      <trkpt lat="43.01746" lon="-7.46449">
        <ele>520.5</ele>
        <time>2016-07-14T10:03:58Z</time>
      </trkpt>
      <trkpt lat="43.01743" lon="-7.46461">
        <ele>520.6</ele>
        <time>2016-07-14T10:04:06Z</time>
      </trkpt>
      <trkpt lat="43.01742" lon="-7.46475">
        <ele>520.6</ele>
        <time>2016-07-14T10:04:14Z</time>
      </trkpt>
      <trkpt lat="43.01741" lon="-7.46488">
        <ele>520.2</ele>
        <time>2016-07-14T10:04:22Z</time>
      </trkpt>
      <trkpt lat="43.0174" lon="-7.465">
        <ele>520.2</ele>
        <time>2016-07-14T10:04:29Z</time>
      </trkpt>
      <trkpt lat="43.01739" lon="-7.46513">
        <ele>520.2</ele>
        <time>2016-07-14T10:04:36Z</time>
      </trkpt>
      <trkpt lat="43.01739" lon="-7.46526">
        <ele>520.2</ele>
        <time>2016-07-14T10:04:43Z</time>
      </trkpt>
      <trkpt lat="43.01736" lon="-7.46539">
        <ele>519.8</ele>
        <time>2016-07-14T10:04:51Z</time>
      </trkpt>
      <trkpt lat="43.01736" lon="-7.46552">
        <ele>519.6</ele>
        <time>2016-07-14T10:04:58Z</time>
      </trkpt>
      <trkpt lat="43.01735" lon="-7.46565">
        <ele>519.5</ele>
        <time>2016-07-14T10:05:05Z</time>
      </trkpt>
      <trkpt lat="43.01733" lon="-7.46578">
        <ele>519.4</ele>
        <time>2016-07-14T10:05:12Z</time>
      </trkpt>
      <trkpt lat="43.01729" lon="-7.46591">
        <ele>519.2</ele>
        <time>2016-07-14T10:05:20Z</time>
      </trkpt>
      <trkpt lat="43.01726" lon="-7.46603">
        <ele>519.1</ele>
        <time>2016-07-14T10:05:27Z</time>
      </trkpt>
      <trkpt lat="43.01724" lon="-7.46616">
        <ele>518.8</ele>
        <time>2016-07-14T10:05:34Z</time>
      </trkpt>
      <trkpt lat="43.01724" lon="-7.4663">
        <ele>518.6</ele>
        <time>2016-07-14T10:05:42Z</time>
      </trkpt>
      <trkpt lat="43.01723" lon="-7.46642">
        <ele>518.1</ele>
        <time>2016-07-14T10:05:49Z</time>
      </trkpt>
      <trkpt lat="43.0172" lon="-7.46655">
        <ele>517.4</ele>
        <time>2016-07-14T10:05:56Z</time>
      </trkpt>
      <trkpt lat="43.01716" lon="-7.46668">
        <ele>517</ele>
        <time>2016-07-14T10:06:03Z</time>
      </trkpt>
      <trkpt lat="43.01713" lon="-7.4668">
        <ele>516.5</ele>
        <time>2016-07-14T10:06:10Z</time>
      </trkpt>
      <trkpt lat="43.01711" lon="-7.46694">
        <ele>515.7</ele>
        <time>2016-07-14T10:06:17Z</time>
      </trkpt>
      <trkpt lat="43.01707" lon="-7.46707">
        <ele>514.9</ele>
        <time>2016-07-14T10:06:24Z</time>
      </trkpt>
      <trkpt lat="43.01704" lon="-7.46718">
        <ele>514.3</ele>
        <time>2016-07-14T10:06:31Z</time>
      </trkpt>
      <trkpt lat="43.01702" lon="-7.46732">
        <ele>513.7</ele>
        <time>2016-07-14T10:06:38Z</time>
      </trkpt>
      <trkpt lat="43.01698" lon="-7.46744">
        <ele>513.2</ele>
        <time>2016-07-14T10:06:45Z</time>
      </trkpt>
      <trkpt lat="43.01693" lon="-7.46757">
        <ele>512.2</ele>
        <time>2016-07-14T10:06:52Z</time>
      </trkpt>
      <trkpt lat="43.0169" lon="-7.46769">
        <ele>511.8</ele>
        <time>2016-07-14T10:06:58Z</time>
      </trkpt>
      <trkpt lat="43.01686" lon="-7.46781">
        <ele>511.2</ele>
        <time>2016-07-14T10:07:05Z</time>
      </trkpt>
      <trkpt lat="43.01683" lon="-7.46794">
        <ele>510.7</ele>
        <time>2016-07-14T10:07:12Z</time>
      </trkpt>
      <trkpt lat="43.0168" lon="-7.46807">
        <ele>510.2</ele>
        <time>2016-07-14T10:07:19Z</time>
      </trkpt>
      <trkpt lat="43.01678" lon="-7.4682">
        <ele>509.6</ele>
        <time>2016-07-14T10:07:26Z</time>
      </trkpt>
      <trkpt lat="43.01673" lon="-7.46832">
        <ele>509.1</ele>
        <time>2016-07-14T10:07:34Z</time>
      </trkpt>
      <trkpt lat="43.01668" lon="-7.46842">
        <ele>508.7</ele>
        <time>2016-07-14T10:07:41Z</time>
      </trkpt>
      <trkpt lat="43.01662" lon="-7.46852">
        <ele>508.5</ele>
        <time>2016-07-14T10:07:48Z</time>
      </trkpt>
      <trkpt lat="43.01658" lon="-7.46865">
        <ele>508.3</ele>
        <time>2016-07-14T10:07:55Z</time>
      </trkpt>
      <trkpt lat="43.01654" lon="-7.46877">
        <ele>507.8</ele>
        <time>2016-07-14T10:08:02Z</time>
      </trkpt>
      <trkpt lat="43.01653" lon="-7.4689">
        <ele>507.6</ele>
        <time>2016-07-14T10:08:08Z</time>
      </trkpt>
      <trkpt lat="43.01649" lon="-7.46903">
        <ele>507</ele>
        <time>2016-07-14T10:08:15Z</time>
      </trkpt>
      <trkpt lat="43.01646" lon="-7.46915">
        <ele>506.8</ele>
        <time>2016-07-14T10:08:22Z</time>
      </trkpt>
      <trkpt lat="43.01643" lon="-7.46927">
        <ele>506.6</ele>
        <time>2016-07-14T10:08:29Z</time>
      </trkpt>
      <trkpt lat="43.0164" lon="-7.4694">
        <ele>506.3</ele>
        <time>2016-07-14T10:08:36Z</time>
      </trkpt>
      <trkpt lat="43.01638" lon="-7.46953">
        <ele>506.1</ele>
        <time>2016-07-14T10:08:43Z</time>
      </trkpt>
      <trkpt lat="43.01635" lon="-7.46967">
        <ele>505.8</ele>
        <time>2016-07-14T10:08:50Z</time>
      </trkpt>
      <trkpt lat="43.01633" lon="-7.46979">
        <ele>505.5</ele>
        <time>2016-07-14T10:08:57Z</time>
      </trkpt>
      <trkpt lat="43.0163" lon="-7.46992">
        <ele>505.3</ele>
        <time>2016-07-14T10:09:04Z</time>
      </trkpt>
      <trkpt lat="43.01626" lon="-7.47003">
        <ele>505.4</ele>
        <time>2016-07-14T10:09:11Z</time>
      </trkpt>
      <trkpt lat="43.01622" lon="-7.47016">
        <ele>505.5</ele>
        <time>2016-07-14T10:09:19Z</time>
      </trkpt>
      <trkpt lat="43.01618" lon="-7.47029">
        <ele>505.3</ele>
        <time>2016-07-14T10:09:27Z</time>
      </trkpt>
      <trkpt lat="43.01612" lon="-7.47039">
        <ele>505</ele>
        <time>2016-07-14T10:09:34Z</time>
      </trkpt>
      <trkpt lat="43.01609" lon="-7.47051">
        <ele>505</ele>
        <time>2016-07-14T10:09:41Z</time>
      </trkpt>
      <trkpt lat="43.01607" lon="-7.47063">
        <ele>504.9</ele>
        <time>2016-07-14T10:09:48Z</time>
      </trkpt>
      <trkpt lat="43.01606" lon="-7.47075">
        <ele>504.8</ele>
        <time>2016-07-14T10:09:55Z</time>
      </trkpt>
      <trkpt lat="43.01606" lon="-7.47089">
        <ele>504.7</ele>
        <time>2016-07-14T10:10:02Z</time>
      </trkpt>
      <trkpt lat="43.01604" lon="-7.47102">
        <ele>504.1</ele>
        <time>2016-07-14T10:10:09Z</time>
      </trkpt>
      <trkpt lat="43.01602" lon="-7.47116">
        <ele>503.6</ele>
        <time>2016-07-14T10:10:16Z</time>
      </trkpt>
      <trkpt lat="43.01601" lon="-7.47129">
        <ele>503.4</ele>
        <time>2016-07-14T10:10:23Z</time>
      </trkpt>
      <trkpt lat="43.016" lon="-7.47143">
        <ele>502.8</ele>
        <time>2016-07-14T10:10:30Z</time>
      </trkpt>
      <trkpt lat="43.016" lon="-7.47155">
        <ele>502.6</ele>
        <time>2016-07-14T10:10:36Z</time>
      </trkpt>
      <trkpt lat="43.01599" lon="-7.47168">
        <ele>502.3</ele>
        <time>2016-07-14T10:10:43Z</time>
      </trkpt>
      <trkpt lat="43.01596" lon="-7.47181">
        <ele>502.1</ele>
        <time>2016-07-14T10:10:50Z</time>
      </trkpt>
      <trkpt lat="43.01595" lon="-7.47193">
        <ele>502</ele>
        <time>2016-07-14T10:10:57Z</time>
      </trkpt>
      <trkpt lat="43.01592" lon="-7.47205">
        <ele>501.8</ele>
        <time>2016-07-14T10:11:04Z</time>
      </trkpt>
      <trkpt lat="43.0159" lon="-7.47218">
        <ele>501.6</ele>
        <time>2016-07-14T10:11:12Z</time>
      </trkpt>
      <trkpt lat="43.01589" lon="-7.47231">
        <ele>501</ele>
        <time>2016-07-14T10:11:19Z</time>
      </trkpt>
      <trkpt lat="43.0159" lon="-7.47244">
        <ele>500.4</ele>
        <time>2016-07-14T10:11:26Z</time>
      </trkpt>
      <trkpt lat="43.01591" lon="-7.47258">
        <ele>500</ele>
        <time>2016-07-14T10:11:33Z</time>
      </trkpt>
      <trkpt lat="43.01591" lon="-7.47271">
        <ele>499.6</ele>
        <time>2016-07-14T10:11:39Z</time>
      </trkpt>
      <trkpt lat="43.01592" lon="-7.47284">
        <ele>499.2</ele>
        <time>2016-07-14T10:11:46Z</time>
      </trkpt>
      <trkpt lat="43.01592" lon="-7.47298">
        <ele>499</ele>
        <time>2016-07-14T10:11:53Z</time>
      </trkpt>
      <trkpt lat="43.01594" lon="-7.47311">
        <ele>498.9</ele>
        <time>2016-07-14T10:12:00Z</time>
      </trkpt>
      <trkpt lat="43.01596" lon="-7.47325">
        <ele>498.9</ele>
        <time>2016-07-14T10:12:07Z</time>
      </trkpt>
      <trkpt lat="43.01598" lon="-7.47337">
        <ele>499.2</ele>
        <time>2016-07-14T10:12:14Z</time>
      </trkpt>
      <trkpt lat="43.01598" lon="-7.4735">
        <ele>499.3</ele>
        <time>2016-07-14T10:12:22Z</time>
      </trkpt>
      <trkpt lat="43.01598" lon="-7.47364">
        <ele>499.3</ele>
        <time>2016-07-14T10:12:30Z</time>
      </trkpt>
      <trkpt lat="43.01598" lon="-7.47377">
        <ele>499.3</ele>
        <time>2016-07-14T10:12:37Z</time>
      </trkpt>
      <trkpt lat="43.01599" lon="-7.4739">
        <ele>499.2</ele>
        <time>2016-07-14T10:12:44Z</time>
      </trkpt>
      <trkpt lat="43.01599" lon="-7.47403">
        <ele>499.2</ele>
        <time>2016-07-14T10:12:51Z</time>
      </trkpt>
      <trkpt lat="43.01601" lon="-7.47416">
        <ele>499.3</ele>
        <time>2016-07-14T10:12:58Z</time>
      </trkpt>
      <trkpt lat="43.01601" lon="-7.47429">
        <ele>499.3</ele>
        <time>2016-07-14T10:13:06Z</time>
      </trkpt>
      <trkpt lat="43.01602" lon="-7.47441">
        <ele>499.4</ele>
        <time>2016-07-14T10:13:13Z</time>
      </trkpt>
      <trkpt lat="43.01601" lon="-7.47454">
        <ele>499.8</ele>
        <time>2016-07-14T10:13:20Z</time>
      </trkpt>
      <trkpt lat="43.01602" lon="-7.47467">
        <ele>500.1</ele>
        <time>2016-07-14T10:13:27Z</time>
      </trkpt>
      <trkpt lat="43.01602" lon="-7.47481">
        <ele>500.5</ele>
        <time>2016-07-14T10:13:35Z</time>
      </trkpt>
      <trkpt lat="43.01603" lon="-7.47493">
        <ele>501.2</ele>
        <time>2016-07-14T10:13:42Z</time>
      </trkpt>
      <trkpt lat="43.01604" lon="-7.47506">
        <ele>501.6</ele>
        <time>2016-07-14T10:13:49Z</time>
      </trkpt>
      <trkpt lat="43.01605" lon="-7.47519">
        <ele>502</ele>
        <time>2016-07-14T10:13:58Z</time>
      </trkpt>
      <trkpt lat="43.01606" lon="-7.47532">
        <ele>502.1</ele>
        <time>2016-07-14T10:14:05Z</time>
      </trkpt>
      <trkpt lat="43.01607" lon="-7.47545">
        <ele>502.2</ele>
        <time>2016-07-14T10:14:12Z</time>
      </trkpt>
      <trkpt lat="43.01608" lon="-7.47559">
        <ele>502.5</ele>
        <time>2016-07-14T10:14:20Z</time>
      </trkpt>
      <trkpt lat="43.01609" lon="-7.47572">
        <ele>502.9</ele>
        <time>2016-07-14T10:14:28Z</time>
      </trkpt>
      <trkpt lat="43.0161" lon="-7.47585">
        <ele>503.5</ele>
        <time>2016-07-14T10:14:36Z</time>
      </trkpt>
      <trkpt lat="43.0161" lon="-7.47597">
        <ele>503.7</ele>
        <time>2016-07-14T10:14:44Z</time>
      </trkpt>
      <trkpt lat="43.01609" lon="-7.47611">
        <ele>503.9</ele>
        <time>2016-07-14T10:14:53Z</time>
      </trkpt>
      <trkpt lat="43.0161" lon="-7.47624">
        <ele>504.3</ele>
        <time>2016-07-14T10:15:03Z</time>
      </trkpt>
      <trkpt lat="43.01611" lon="-7.47637">
        <ele>504.8</ele>
        <time>2016-07-14T10:15:11Z</time>
      </trkpt>
      <trkpt lat="43.01613" lon="-7.47649">
        <ele>505</ele>
        <time>2016-07-14T10:15:17Z</time>
      </trkpt>
      <trkpt lat="43.01615" lon="-7.47662">
        <ele>505.1</ele>
        <time>2016-07-14T10:15:25Z</time>
      </trkpt>
      <trkpt lat="43.01617" lon="-7.47674">
        <ele>505</ele>
        <time>2016-07-14T10:15:33Z</time>
      </trkpt>
      <trkpt lat="43.01621" lon="-7.47686">
        <ele>505.2</ele>
        <time>2016-07-14T10:15:41Z</time>
      </trkpt>
      <trkpt lat="43.01629" lon="-7.47695">
        <ele>505.4</ele>
        <time>2016-07-14T10:15:49Z</time>
      </trkpt>
      <trkpt lat="43.01634" lon="-7.47707">
        <ele>505.3</ele>
        <time>2016-07-14T10:15:56Z</time>
      </trkpt>
      <trkpt lat="43.01636" lon="-7.4772">
        <ele>505.1</ele>
        <time>2016-07-14T10:16:03Z</time>
      </trkpt>
      <trkpt lat="43.01639" lon="-7.47733">
        <ele>505.4</ele>
        <time>2016-07-14T10:16:10Z</time>
      </trkpt>
      <trkpt lat="43.01644" lon="-7.47746">
        <ele>505.9</ele>
        <time>2016-07-14T10:16:16Z</time>
      </trkpt>
      <trkpt lat="43.0165" lon="-7.47756">
        <ele>505.9</ele>
        <time>2016-07-14T10:16:21Z</time>
      </trkpt>
      <trkpt lat="43.01657" lon="-7.47765">
        <ele>505.7</ele>
        <time>2016-07-14T10:16:27Z</time>
      </trkpt>
      <trkpt lat="43.01663" lon="-7.47776">
        <ele>505.5</ele>
        <time>2016-07-14T10:16:33Z</time>
      </trkpt>
      <trkpt lat="43.01671" lon="-7.47785">
        <ele>505.4</ele>
        <time>2016-07-14T10:16:40Z</time>
      </trkpt>
      <trkpt lat="43.01678" lon="-7.47792">
        <ele>505.8</ele>
        <time>2016-07-14T10:16:46Z</time>
      </trkpt>
      <trkpt lat="43.01688" lon="-7.47796">
        <ele>506.4</ele>
        <time>2016-07-14T10:16:54Z</time>
      </trkpt>
      <trkpt lat="43.01698" lon="-7.47799">
        <ele>506.7</ele>
        <time>2016-07-14T10:17:02Z</time>
      </trkpt>
      <trkpt lat="43.01708" lon="-7.47803">
        <ele>506.9</ele>
        <time>2016-07-14T10:17:10Z</time>
      </trkpt>
      <trkpt lat="43.01717" lon="-7.47806">
        <ele>507.6</ele>
        <time>2016-07-14T10:17:18Z</time>
      </trkpt>
      <trkpt lat="43.01727" lon="-7.47809">
        <ele>508.2</ele>
        <time>2016-07-14T10:17:26Z</time>
      </trkpt>
      <trkpt lat="43.01736" lon="-7.47812">
        <ele>508.3</ele>
        <time>2016-07-14T10:17:34Z</time>
      </trkpt>
      <trkpt lat="43.01745" lon="-7.47815">
        <ele>508.4</ele>
        <time>2016-07-14T10:17:42Z</time>
      </trkpt>
      <trkpt lat="43.01754" lon="-7.4782">
        <ele>508.5</ele>
        <time>2016-07-14T10:17:49Z</time>
      </trkpt>
      <trkpt lat="43.01763" lon="-7.47824">
        <ele>508.4</ele>
        <time>2016-07-14T10:17:57Z</time>
      </trkpt>
      <trkpt lat="43.01773" lon="-7.47828">
        <ele>508.3</ele>
        <time>2016-07-14T10:18:05Z</time>
      </trkpt>
      <trkpt lat="43.01781" lon="-7.47832">
        <ele>508.2</ele>
        <time>2016-07-14T10:18:13Z</time>
      </trkpt>
      <trkpt lat="43.0179" lon="-7.47837">
        <ele>508.1</ele>
        <time>2016-07-14T10:18:21Z</time>
      </trkpt>
      <trkpt lat="43.01799" lon="-7.47843">
        <ele>508.1</ele>
        <time>2016-07-14T10:18:29Z</time>
      </trkpt>
      <trkpt lat="43.01808" lon="-7.4785">
        <ele>507.9</ele>
        <time>2016-07-14T10:18:37Z</time>
      </trkpt>
      <trkpt lat="43.01815" lon="-7.47857">
        <ele>507.7</ele>
        <time>2016-07-14T10:18:44Z</time>
      </trkpt>
      <trkpt lat="43.01824" lon="-7.47864">
        <ele>507.6</ele>
        <time>2016-07-14T10:18:52Z</time>
      </trkpt>
      <trkpt lat="43.0183" lon="-7.47873">
        <ele>507.6</ele>
        <time>2016-07-14T10:19:00Z</time>
      </trkpt>
      <trkpt lat="43.01839" lon="-7.47878">
        <ele>507.1</ele>
        <time>2016-07-14T10:19:09Z</time>
      </trkpt>
      <trkpt lat="43.01848" lon="-7.47881">
        <ele>506.7</ele>
        <time>2016-07-14T10:19:17Z</time>
      </trkpt>
      <trkpt lat="43.01856" lon="-7.47888">
        <ele>506.7</ele>
        <time>2016-07-14T10:19:26Z</time>
      </trkpt>
      <trkpt lat="43.01864" lon="-7.47896">
        <ele>506.6</ele>
        <time>2016-07-14T10:19:37Z</time>
      </trkpt>
      <trkpt lat="43.01871" lon="-7.47904">
        <ele>504.9</ele>
        <time>2016-07-14T10:20:02Z</time>
      </trkpt>
      <trkpt lat="43.01863" lon="-7.47898">
        <ele>504.3</ele>
        <time>2016-07-14T10:20:48Z</time>
      </trkpt>
      <trkpt lat="43.01854" lon="-7.47901">
        <ele>504.5</ele>
        <time>2016-07-14T10:21:05Z</time>
      </trkpt>
      <trkpt lat="43.01863" lon="-7.47903">
        <ele>504.5</ele>
        <time>2016-07-14T10:21:22Z</time>
      </trkpt>
      <trkpt lat="43.01872" lon="-7.47904">
        <ele>504.6</ele>
        <time>2016-07-14T10:21:35Z</time>
      </trkpt>
      <trkpt lat="43.01882" lon="-7.47905">
        <ele>504.7</ele>
        <time>2016-07-14T10:21:49Z</time>
      </trkpt>
      <trkpt lat="43.01891" lon="-7.47904">
        <ele>504.1</ele>
        <time>2016-07-14T10:22:06Z</time>
      </trkpt>
      <trkpt lat="43.01899" lon="-7.47898">
        <ele>503</ele>
        <time>2016-07-14T10:22:54Z</time>
      </trkpt>
      <trkpt lat="43.0189" lon="-7.47898">
        <ele>505.5</ele>
        <time>2016-07-14T10:23:22Z</time>
      </trkpt>
      <trkpt lat="43.0188" lon="-7.47901">
        <ele>504.9</ele>
        <time>2016-07-14T10:23:43Z</time>
      </trkpt>
      <trkpt lat="43.0189" lon="-7.479">
        <ele>505</ele>
        <time>2016-07-14T10:25:48Z</time>
      </trkpt>
      <trkpt lat="43.01882" lon="-7.47893">
        <ele>505.7</ele>
        <time>2016-07-14T10:26:41Z</time>
      </trkpt>
      <trkpt lat="43.01873" lon="-7.47887">
        <ele>505.3</ele>
        <time>2016-07-14T10:26:51Z</time>
      </trkpt>
      <trkpt lat="43.01865" lon="-7.47881">
        <ele>505.3</ele>
        <time>2016-07-14T10:27:01Z</time>
      </trkpt>
      <trkpt lat="43.01856" lon="-7.47876">
        <ele>505.4</ele>
        <time>2016-07-14T10:27:08Z</time>
      </trkpt>
      <trkpt lat="43.01847" lon="-7.47873">
        <ele>505</ele>
        <time>2016-07-14T10:27:16Z</time>
      </trkpt>
      <trkpt lat="43.01853" lon="-7.47883">
        <ele>504.5</ele>
        <time>2016-07-14T10:27:44Z</time>
      </trkpt>
      <trkpt lat="43.01861" lon="-7.47889">
        <ele>504.5</ele>
        <time>2016-07-14T10:27:57Z</time>
      </trkpt>
      <trkpt lat="43.01869" lon="-7.47896">
        <ele>504.8</ele>
        <time>2016-07-14T10:28:36Z</time>
      </trkpt>
      <trkpt lat="43.01878" lon="-7.47897">
        <ele>504.8</ele>
        <time>2016-07-14T10:28:45Z</time>
      </trkpt>
      <trkpt lat="43.01887" lon="-7.47897">
        <ele>504.9</ele>
        <time>2016-07-14T10:28:54Z</time>
      </trkpt>
      <trkpt lat="43.01896" lon="-7.47897">
        <ele>504.9</ele>
        <time>2016-07-14T10:29:05Z</time>
      </trkpt>
      <trkpt lat="43.01887" lon="-7.47899">
        <ele>504.8</ele>
        <time>2016-07-14T10:30:35Z</time>
      </trkpt>
      <trkpt lat="43.01878" lon="-7.47899">
        <ele>504.9</ele>
        <time>2016-07-14T10:31:17Z</time>
      </trkpt>
      <trkpt lat="43.0187" lon="-7.47892">
        <ele>505.1</ele>
        <time>2016-07-14T10:32:44Z</time>
      </trkpt>
      <trkpt lat="43.01863" lon="-7.47884">
        <ele>506</ele>
        <time>2016-07-14T10:33:17Z</time>
      </trkpt>
      <trkpt lat="43.01868" lon="-7.47894">
        <ele>505.1</ele>
        <time>2016-07-14T10:33:51Z</time>
      </trkpt>
      <trkpt lat="43.0187" lon="-7.47906">
        <ele>504.9</ele>
        <time>2016-07-14T10:34:44Z</time>
      </trkpt>
      <trkpt lat="43.01864" lon="-7.47916">
        <ele>504.5</ele>
        <time>2016-07-14T10:35:14Z</time>
      </trkpt>
      <trkpt lat="43.01866" lon="-7.47928">
        <ele>504.2</ele>
        <time>2016-07-14T10:35:26Z</time>
      </trkpt>
      <trkpt lat="43.0187" lon="-7.47941">
        <ele>503.9</ele>
        <time>2016-07-14T10:35:35Z</time>
      </trkpt>
      <trkpt lat="43.01876" lon="-7.47951">
        <ele>503.5</ele>
        <time>2016-07-14T10:35:43Z</time>
      </trkpt>
      <trkpt lat="43.01882" lon="-7.47963">
        <ele>502.9</ele>
        <time>2016-07-14T10:35:51Z</time>
      </trkpt>
      <trkpt lat="43.01886" lon="-7.47975">
        <ele>502.3</ele>
        <time>2016-07-14T10:35:57Z</time>
      </trkpt>
      <trkpt lat="43.01891" lon="-7.47986">
        <ele>501.6</ele>
        <time>2016-07-14T10:36:05Z</time>
      </trkpt>
      <trkpt lat="43.01895" lon="-7.47999">
        <ele>501.2</ele>
        <time>2016-07-14T10:36:13Z</time>
      </trkpt>
      <trkpt lat="43.01901" lon="-7.4801">
        <ele>501</ele>
        <time>2016-07-14T10:36:20Z</time>
      </trkpt>
      <trkpt lat="43.01906" lon="-7.48023">
        <ele>500.9</ele>
        <time>2016-07-14T10:36:25Z</time>
      </trkpt>
      <trkpt lat="43.0191" lon="-7.48035">
        <ele>500.7</ele>
        <time>2016-07-14T10:36:32Z</time>
      </trkpt>
      <trkpt lat="43.01911" lon="-7.48048">
        <ele>500.2</ele>
        <time>2016-07-14T10:36:40Z</time>
      </trkpt>
      <trkpt lat="43.01911" lon="-7.48062">
        <ele>499.9</ele>
        <time>2016-07-14T10:36:48Z</time>
      </trkpt>
      <trkpt lat="43.0191" lon="-7.48074">
        <ele>499.6</ele>
        <time>2016-07-14T10:36:56Z</time>
      </trkpt>
      <trkpt lat="43.01914" lon="-7.48086">
        <ele>499.4</ele>
        <time>2016-07-14T10:37:03Z</time>
      </trkpt>
      <trkpt lat="43.01915" lon="-7.48098">
        <ele>499.1</ele>
        <time>2016-07-14T10:37:09Z</time>
      </trkpt>
      <trkpt lat="43.01919" lon="-7.4811">
        <ele>498.4</ele>
        <time>2016-07-14T10:37:16Z</time>
      </trkpt>
      <trkpt lat="43.01921" lon="-7.48123">
        <ele>497.8</ele>
        <time>2016-07-14T10:37:25Z</time>
      </trkpt>
      <trkpt lat="43.01924" lon="-7.48135">
        <ele>496.9</ele>
        <time>2016-07-14T10:37:32Z</time>
      </trkpt>
      <trkpt lat="43.01928" lon="-7.48147">
        <ele>496.1</ele>
        <time>2016-07-14T10:37:38Z</time>
      </trkpt>
      <trkpt lat="43.0193" lon="-7.4816">
        <ele>495.2</ele>
        <time>2016-07-14T10:37:44Z</time>
      </trkpt>
      <trkpt lat="43.01933" lon="-7.48174">
        <ele>494.3</ele>
        <time>2016-07-14T10:37:51Z</time>
      </trkpt>
      <trkpt lat="43.01936" lon="-7.48188">
        <ele>493.7</ele>
        <time>2016-07-14T10:37:57Z</time>
      </trkpt>
      <trkpt lat="43.01935" lon="-7.48201">
        <ele>492.3</ele>
        <time>2016-07-14T10:38:04Z</time>
      </trkpt>
      <trkpt lat="43.01935" lon="-7.48214">
        <ele>491.8</ele>
        <time>2016-07-14T10:38:11Z</time>
      </trkpt>
      <trkpt lat="43.01933" lon="-7.48227">
        <ele>490.6</ele>
        <time>2016-07-14T10:38:18Z</time>
      </trkpt>
      <trkpt lat="43.01933" lon="-7.4824">
        <ele>489.8</ele>
        <time>2016-07-14T10:38:25Z</time>
      </trkpt>
      <trkpt lat="43.01932" lon="-7.48253">
        <ele>489.3</ele>
        <time>2016-07-14T10:38:31Z</time>
      </trkpt>
      <trkpt lat="43.0193" lon="-7.48265">
        <ele>488.9</ele>
        <time>2016-07-14T10:38:37Z</time>
      </trkpt>
      <trkpt lat="43.0193" lon="-7.48279">
        <ele>488.2</ele>
        <time>2016-07-14T10:38:44Z</time>
      </trkpt>
      <trkpt lat="43.01933" lon="-7.48291">
        <ele>487.6</ele>
        <time>2016-07-14T10:38:50Z</time>
      </trkpt>
      <trkpt lat="43.0193" lon="-7.48303">
        <ele>487.2</ele>
        <time>2016-07-14T10:38:57Z</time>
      </trkpt>
      <trkpt lat="43.01927" lon="-7.48316">
        <ele>486.6</ele>
        <time>2016-07-14T10:39:04Z</time>
      </trkpt>
      <trkpt lat="43.01925" lon="-7.48329">
        <ele>485.7</ele>
        <time>2016-07-14T10:39:12Z</time>
      </trkpt>
      <trkpt lat="43.01921" lon="-7.4834">
        <ele>485.2</ele>
        <time>2016-07-14T10:39:18Z</time>
      </trkpt>
      <trkpt lat="43.01914" lon="-7.48348">
        <ele>484.7</ele>
        <time>2016-07-14T10:39:25Z</time>
      </trkpt>
      <trkpt lat="43.01906" lon="-7.48356">
        <ele>484.2</ele>
        <time>2016-07-14T10:39:32Z</time>
      </trkpt>
      <trkpt lat="43.01899" lon="-7.48365">
        <ele>483.7</ele>
        <time>2016-07-14T10:39:38Z</time>
      </trkpt>
      <trkpt lat="43.01892" lon="-7.48373">
        <ele>483.6</ele>
        <time>2016-07-14T10:39:44Z</time>
      </trkpt>
      <trkpt lat="43.01885" lon="-7.48383">
        <ele>482.7</ele>
        <time>2016-07-14T10:39:52Z</time>
      </trkpt>
      <trkpt lat="43.01879" lon="-7.48393">
        <ele>482.6</ele>
        <time>2016-07-14T10:39:59Z</time>
      </trkpt>
      <trkpt lat="43.01878" lon="-7.48406">
        <ele>482.7</ele>
        <time>2016-07-14T10:40:05Z</time>
      </trkpt>
      <trkpt lat="43.01878" lon="-7.4842">
        <ele>482.8</ele>
        <time>2016-07-14T10:40:12Z</time>
      </trkpt>
      <trkpt lat="43.01878" lon="-7.48433">
        <ele>482.6</ele>
        <time>2016-07-14T10:40:18Z</time>
      </trkpt>
      <trkpt lat="43.01875" lon="-7.48446">
        <ele>482.2</ele>
        <time>2016-07-14T10:40:25Z</time>
      </trkpt>
      <trkpt lat="43.0187" lon="-7.48457">
        <ele>481.7</ele>
        <time>2016-07-14T10:40:31Z</time>
      </trkpt>
      <trkpt lat="43.01864" lon="-7.48467">
        <ele>481.5</ele>
        <time>2016-07-14T10:40:38Z</time>
      </trkpt>
      <trkpt lat="43.0186" lon="-7.4848">
        <ele>481.3</ele>
        <time>2016-07-14T10:40:46Z</time>
      </trkpt>
      <trkpt lat="43.01857" lon="-7.48493">
        <ele>481.3</ele>
        <time>2016-07-14T10:40:54Z</time>
      </trkpt>
      <trkpt lat="43.01858" lon="-7.48507">
        <ele>481</ele>
        <time>2016-07-14T10:41:00Z</time>
      </trkpt>
      <trkpt lat="43.01856" lon="-7.48519">
        <ele>481</ele>
        <time>2016-07-14T10:41:06Z</time>
      </trkpt>
      <trkpt lat="43.01854" lon="-7.48532">
        <ele>481</ele>
        <time>2016-07-14T10:41:13Z</time>
      </trkpt>
      <trkpt lat="43.01851" lon="-7.48545">
        <ele>481.2</ele>
        <time>2016-07-14T10:41:20Z</time>
      </trkpt>
      <trkpt lat="43.01847" lon="-7.48558">
        <ele>481.6</ele>
        <time>2016-07-14T10:41:27Z</time>
      </trkpt>
      <trkpt lat="43.01845" lon="-7.4857">
        <ele>482</ele>
        <time>2016-07-14T10:41:33Z</time>
      </trkpt>
      <trkpt lat="43.01844" lon="-7.48584">
        <ele>482.3</ele>
        <time>2016-07-14T10:41:40Z</time>
      </trkpt>
      <trkpt lat="43.01844" lon="-7.48596">
        <ele>482.4</ele>
        <time>2016-07-14T10:41:47Z</time>
      </trkpt>
      <trkpt lat="43.01845" lon="-7.4861">
        <ele>482.3</ele>
        <time>2016-07-14T10:41:54Z</time>
      </trkpt>
      <trkpt lat="43.01846" lon="-7.48622">
        <ele>482.7</ele>
        <time>2016-07-14T10:42:01Z</time>
      </trkpt>
      <trkpt lat="43.01848" lon="-7.48636">
        <ele>483</ele>
        <time>2016-07-14T10:42:08Z</time>
      </trkpt>
      <trkpt lat="43.01847" lon="-7.48649">
        <ele>483.1</ele>
        <time>2016-07-14T10:42:15Z</time>
      </trkpt>
      <trkpt lat="43.01846" lon="-7.48663">
        <ele>483</ele>
        <time>2016-07-14T10:42:22Z</time>
      </trkpt>
      <trkpt lat="43.01846" lon="-7.48676">
        <ele>482.9</ele>
        <time>2016-07-14T10:42:29Z</time>
      </trkpt>
      <trkpt lat="43.01847" lon="-7.48689">
        <ele>483.1</ele>
        <time>2016-07-14T10:42:36Z</time>
      </trkpt>
      <trkpt lat="43.01846" lon="-7.48702">
        <ele>483.4</ele>
        <time>2016-07-14T10:42:44Z</time>
      </trkpt>
      <trkpt lat="43.01845" lon="-7.48716">
        <ele>483.6</ele>
        <time>2016-07-14T10:42:52Z</time>
      </trkpt>
      <trkpt lat="43.01847" lon="-7.48729">
        <ele>483.7</ele>
        <time>2016-07-14T10:42:59Z</time>
      </trkpt>
      <trkpt lat="43.01848" lon="-7.48742">
        <ele>484</ele>
        <time>2016-07-14T10:43:06Z</time>
      </trkpt>
      <trkpt lat="43.01847" lon="-7.48755">
        <ele>484.2</ele>
        <time>2016-07-14T10:43:13Z</time>
      </trkpt>
      <trkpt lat="43.01844" lon="-7.48768">
        <ele>484.6</ele>
        <time>2016-07-14T10:43:21Z</time>
      </trkpt>
      <trkpt lat="43.01842" lon="-7.48781">
        <ele>484.9</ele>
        <time>2016-07-14T10:43:28Z</time>
      </trkpt>
      <trkpt lat="43.01838" lon="-7.48792">
        <ele>485</ele>
        <time>2016-07-14T10:43:35Z</time>
      </trkpt>
      <trkpt lat="43.01834" lon="-7.48804">
        <ele>485.1</ele>
        <time>2016-07-14T10:43:42Z</time>
      </trkpt>
      <trkpt lat="43.01834" lon="-7.48818">
        <ele>485.5</ele>
        <time>2016-07-14T10:43:50Z</time>
      </trkpt>
      <trkpt lat="43.01833" lon="-7.48831">
        <ele>486.1</ele>
        <time>2016-07-14T10:43:57Z</time>
      </trkpt>
      <trkpt lat="43.01832" lon="-7.48844">
        <ele>486.1</ele>
        <time>2016-07-14T10:44:04Z</time>
      </trkpt>
      <trkpt lat="43.01831" lon="-7.48857">
        <ele>486.4</ele>
        <time>2016-07-14T10:44:11Z</time>
      </trkpt>
      <trkpt lat="43.01831" lon="-7.48869">
        <ele>487</ele>
        <time>2016-07-14T10:44:18Z</time>
      </trkpt>
      <trkpt lat="43.0183" lon="-7.48882">
        <ele>487.4</ele>
        <time>2016-07-14T10:44:27Z</time>
      </trkpt>
      <trkpt lat="43.01833" lon="-7.48894">
        <ele>487.6</ele>
        <time>2016-07-14T10:44:34Z</time>
      </trkpt>
      <trkpt lat="43.01836" lon="-7.48906">
        <ele>488.4</ele>
        <time>2016-07-14T10:44:41Z</time>
      </trkpt>
      <trkpt lat="43.01837" lon="-7.48919">
        <ele>489</ele>
        <time>2016-07-14T10:44:48Z</time>
      </trkpt>
      <trkpt lat="43.0184" lon="-7.48931">
        <ele>489.6</ele>
        <time>2016-07-14T10:44:55Z</time>
      </trkpt>
      <trkpt lat="43.01843" lon="-7.48944">
        <ele>489.4</ele>
        <time>2016-07-14T10:45:05Z</time>
      </trkpt>
      <trkpt lat="43.01847" lon="-7.48957">
        <ele>489.5</ele>
        <time>2016-07-14T10:45:13Z</time>
      </trkpt>
      <trkpt lat="43.01852" lon="-7.48969">
        <ele>490.2</ele>
        <time>2016-07-14T10:45:21Z</time>
      </trkpt>
      <trkpt lat="43.01858" lon="-7.48978">
        <ele>490.6</ele>
        <time>2016-07-14T10:45:28Z</time>
      </trkpt>
      <trkpt lat="43.01864" lon="-7.48988">
        <ele>491</ele>
        <time>2016-07-14T10:45:35Z</time>
      </trkpt>
      <trkpt lat="43.0187" lon="-7.48997">
        <ele>491.1</ele>
        <time>2016-07-14T10:45:43Z</time>
      </trkpt>
      <trkpt lat="43.01874" lon="-7.49009">
        <ele>491.6</ele>
        <time>2016-07-14T10:45:50Z</time>
      </trkpt>
      <trkpt lat="43.01876" lon="-7.49021">
        <ele>492.2</ele>
        <time>2016-07-14T10:45:57Z</time>
      </trkpt>
      <trkpt lat="43.01878" lon="-7.49035">
        <ele>492.8</ele>
        <time>2016-07-14T10:46:04Z</time>
      </trkpt>
      <trkpt lat="43.01879" lon="-7.49048">
        <ele>493.6</ele>
        <time>2016-07-14T10:46:13Z</time>
      </trkpt>
      <trkpt lat="43.01881" lon="-7.49061">
        <ele>494.3</ele>
        <time>2016-07-14T10:46:22Z</time>
      </trkpt>
      <trkpt lat="43.01882" lon="-7.49074">
        <ele>494.7</ele>
        <time>2016-07-14T10:46:29Z</time>
      </trkpt>
      <trkpt lat="43.01875" lon="-7.49084">
        <ele>495.8</ele>
        <time>2016-07-14T10:46:39Z</time>
      </trkpt>
      <trkpt lat="43.01871" lon="-7.49095">
        <ele>496.2</ele>
        <time>2016-07-14T10:46:46Z</time>
      </trkpt>
      <trkpt lat="43.01867" lon="-7.49106">
        <ele>496.8</ele>
        <time>2016-07-14T10:46:54Z</time>
      </trkpt>
      <trkpt lat="43.01862" lon="-7.49118">
        <ele>497.5</ele>
        <time>2016-07-14T10:47:02Z</time>
      </trkpt>
      <trkpt lat="43.01859" lon="-7.4913">
        <ele>498.2</ele>
        <time>2016-07-14T10:47:10Z</time>
      </trkpt>
      <trkpt lat="43.01854" lon="-7.49141">
        <ele>499</ele>
        <time>2016-07-14T10:47:18Z</time>
      </trkpt>
      <trkpt lat="43.01854" lon="-7.49153">
        <ele>499.6</ele>
        <time>2016-07-14T10:47:25Z</time>
      </trkpt>
      <trkpt lat="43.01851" lon="-7.49166">
        <ele>500.2</ele>
        <time>2016-07-14T10:47:33Z</time>
      </trkpt>
      <trkpt lat="43.01851" lon="-7.49179">
        <ele>500.9</ele>
        <time>2016-07-14T10:47:40Z</time>
      </trkpt>
      <trkpt lat="43.0185" lon="-7.49192">
        <ele>501.6</ele>
        <time>2016-07-14T10:47:47Z</time>
      </trkpt>
      <trkpt lat="43.01849" lon="-7.49205">
        <ele>502.3</ele>
        <time>2016-07-14T10:47:55Z</time>
      </trkpt>
      <trkpt lat="43.01849" lon="-7.49218">
        <ele>503.2</ele>
        <time>2016-07-14T10:48:02Z</time>
      </trkpt>
      <trkpt lat="43.0185" lon="-7.49231">
        <ele>504.1</ele>
        <time>2016-07-14T10:48:10Z</time>
      </trkpt>
      <trkpt lat="43.01853" lon="-7.49244">
        <ele>504.7</ele>
        <time>2016-07-14T10:48:19Z</time>
      </trkpt>
      <trkpt lat="43.01853" lon="-7.49257">
        <ele>505.1</ele>
        <time>2016-07-14T10:48:27Z</time>
      </trkpt>
      <trkpt lat="43.01853" lon="-7.49271">
        <ele>505.5</ele>
        <time>2016-07-14T10:48:35Z</time>
      </trkpt>
      <trkpt lat="43.01853" lon="-7.49284">
        <ele>506.1</ele>
        <time>2016-07-14T10:48:45Z</time>
      </trkpt>
      <trkpt lat="43.01854" lon="-7.49297">
        <ele>506.6</ele>
        <time>2016-07-14T10:48:52Z</time>
      </trkpt>
      <trkpt lat="43.01857" lon="-7.4931">
        <ele>507.1</ele>
        <time>2016-07-14T10:48:59Z</time>
      </trkpt>
      <trkpt lat="43.0186" lon="-7.49322">
        <ele>508.1</ele>
        <time>2016-07-14T10:49:05Z</time>
      </trkpt>
      <trkpt lat="43.01863" lon="-7.49334">
        <ele>508.5</ele>
        <time>2016-07-14T10:49:11Z</time>
      </trkpt>
      <trkpt lat="43.01865" lon="-7.49348">
        <ele>508.7</ele>
        <time>2016-07-14T10:49:18Z</time>
      </trkpt>
      <trkpt lat="43.01868" lon="-7.49361">
        <ele>508.9</ele>
        <time>2016-07-14T10:49:24Z</time>
      </trkpt>
      <trkpt lat="43.01871" lon="-7.49374">
        <ele>509.2</ele>
        <time>2016-07-14T10:49:30Z</time>
      </trkpt>
      <trkpt lat="43.01875" lon="-7.49387">
        <ele>509.9</ele>
        <time>2016-07-14T10:49:37Z</time>
      </trkpt>
      <trkpt lat="43.01879" lon="-7.49398">
        <ele>510.5</ele>
        <time>2016-07-14T10:49:44Z</time>
      </trkpt>
      <trkpt lat="43.01883" lon="-7.49411">
        <ele>511</ele>
        <time>2016-07-14T10:49:51Z</time>
      </trkpt>
      <trkpt lat="43.01887" lon="-7.49423">
        <ele>510.9</ele>
        <time>2016-07-14T10:49:58Z</time>
      </trkpt>
      <trkpt lat="43.0189" lon="-7.49437">
        <ele>510.9</ele>
        <time>2016-07-14T10:50:05Z</time>
      </trkpt>
      <trkpt lat="43.01892" lon="-7.4945">
        <ele>511.1</ele>
        <time>2016-07-14T10:50:12Z</time>
      </trkpt>
      <trkpt lat="43.01893" lon="-7.49462">
        <ele>511.3</ele>
        <time>2016-07-14T10:50:21Z</time>
      </trkpt>
      <trkpt lat="43.01897" lon="-7.49474">
        <ele>512.2</ele>
        <time>2016-07-14T10:50:30Z</time>
      </trkpt>
      <trkpt lat="43.019" lon="-7.49487">
        <ele>512.6</ele>
        <time>2016-07-14T10:50:38Z</time>
      </trkpt>
      <trkpt lat="43.01902" lon="-7.495">
        <ele>512.9</ele>
        <time>2016-07-14T10:50:45Z</time>
      </trkpt>
      <trkpt lat="43.01904" lon="-7.49513">
        <ele>513</ele>
        <time>2016-07-14T10:50:52Z</time>
      </trkpt>
      <trkpt lat="43.01907" lon="-7.49526">
        <ele>513.1</ele>
        <time>2016-07-14T10:50:59Z</time>
      </trkpt>
      <trkpt lat="43.01908" lon="-7.49539">
        <ele>513.2</ele>
        <time>2016-07-14T10:51:06Z</time>
      </trkpt>
      <trkpt lat="43.01911" lon="-7.49552">
        <ele>513.3</ele>
        <time>2016-07-14T10:51:13Z</time>
      </trkpt>
      <trkpt lat="43.01913" lon="-7.49565">
        <ele>513.8</ele>
        <time>2016-07-14T10:51:21Z</time>
      </trkpt>
      <trkpt lat="43.01914" lon="-7.49578">
        <ele>514.1</ele>
        <time>2016-07-14T10:51:28Z</time>
      </trkpt>
      <trkpt lat="43.01917" lon="-7.49591">
        <ele>514.1</ele>
        <time>2016-07-14T10:51:36Z</time>
      </trkpt>
      <trkpt lat="43.01917" lon="-7.49604">
        <ele>514.2</ele>
        <time>2016-07-14T10:51:43Z</time>
      </trkpt>
      <trkpt lat="43.01918" lon="-7.49617">
        <ele>514.2</ele>
        <time>2016-07-14T10:51:51Z</time>
      </trkpt>
      <trkpt lat="43.01917" lon="-7.49631">
        <ele>514.2</ele>
        <time>2016-07-14T10:51:59Z</time>
      </trkpt>
      <trkpt lat="43.01915" lon="-7.49643">
        <ele>514.2</ele>
        <time>2016-07-14T10:52:07Z</time>
      </trkpt>
      <trkpt lat="43.01916" lon="-7.49656">
        <ele>514</ele>
        <time>2016-07-14T10:52:15Z</time>
      </trkpt>
      <trkpt lat="43.01916" lon="-7.4967">
        <ele>513.9</ele>
        <time>2016-07-14T10:52:23Z</time>
      </trkpt>
      <trkpt lat="43.01915" lon="-7.49682">
        <ele>513.8</ele>
        <time>2016-07-14T10:52:31Z</time>
      </trkpt>
      <trkpt lat="43.01914" lon="-7.49695">
        <ele>513.7</ele>
        <time>2016-07-14T10:52:41Z</time>
      </trkpt>
      <trkpt lat="43.01913" lon="-7.49709">
        <ele>513.3</ele>
        <time>2016-07-14T10:52:50Z</time>
      </trkpt>
      <trkpt lat="43.01915" lon="-7.49721">
        <ele>513.3</ele>
        <time>2016-07-14T10:52:57Z</time>
      </trkpt>
      <trkpt lat="43.01916" lon="-7.49734">
        <ele>513.2</ele>
        <time>2016-07-14T10:53:04Z</time>
      </trkpt>
      <trkpt lat="43.01918" lon="-7.49748">
        <ele>513</ele>
        <time>2016-07-14T10:53:12Z</time>
      </trkpt>
      <trkpt lat="43.01924" lon="-7.49758">
        <ele>512.5</ele>
        <time>2016-07-14T10:53:19Z</time>
      </trkpt>
      <trkpt lat="43.01932" lon="-7.49765">
        <ele>512.6</ele>
        <time>2016-07-14T10:53:27Z</time>
      </trkpt>
      <trkpt lat="43.01941" lon="-7.49772">
        <ele>512.6</ele>
        <time>2016-07-14T10:53:36Z</time>
      </trkpt>
      <trkpt lat="43.01948" lon="-7.4978">
        <ele>512.6</ele>
        <time>2016-07-14T10:53:44Z</time>
      </trkpt>
      <trkpt lat="43.01955" lon="-7.49788">
        <ele>513.1</ele>
        <time>2016-07-14T10:53:51Z</time>
      </trkpt>
      <trkpt lat="43.01962" lon="-7.49798">
        <ele>513.5</ele>
        <time>2016-07-14T10:53:59Z</time>
      </trkpt>
      <trkpt lat="43.01969" lon="-7.49806">
        <ele>513.9</ele>
        <time>2016-07-14T10:54:06Z</time>
      </trkpt>
      <trkpt lat="43.01976" lon="-7.49816">
        <ele>514</ele>
        <time>2016-07-14T10:54:14Z</time>
      </trkpt>
      <trkpt lat="43.01983" lon="-7.49825">
        <ele>514.3</ele>
        <time>2016-07-14T10:54:22Z</time>
      </trkpt>
      <trkpt lat="43.0199" lon="-7.49832">
        <ele>515</ele>
        <time>2016-07-14T10:54:39Z</time>
      </trkpt>
      <trkpt lat="43.01999" lon="-7.49837">
        <ele>514.6</ele>
        <time>2016-07-14T10:55:09Z</time>
      </trkpt>
      <trkpt lat="43.02004" lon="-7.49848">
        <ele>514.4</ele>
        <time>2016-07-14T10:55:27Z</time>
      </trkpt>
      <trkpt lat="43.02003" lon="-7.49861">
        <ele>514.4</ele>
        <time>2016-07-14T10:55:35Z</time>
      </trkpt>
      <trkpt lat="43.02003" lon="-7.49874">
        <ele>514.4</ele>
        <time>2016-07-14T10:55:42Z</time>
      </trkpt>
      <trkpt lat="43.02001" lon="-7.49887">
        <ele>514.5</ele>
        <time>2016-07-14T10:55:49Z</time>
      </trkpt>
      <trkpt lat="43.02" lon="-7.499">
        <ele>514.6</ele>
        <time>2016-07-14T10:55:57Z</time>
      </trkpt>
      <trkpt lat="43.02" lon="-7.49914">
        <ele>514.3</ele>
        <time>2016-07-14T10:56:05Z</time>
      </trkpt>
      <trkpt lat="43.01997" lon="-7.49926">
        <ele>512.8</ele>
        <time>2016-07-14T10:56:13Z</time>
      </trkpt>
      <trkpt lat="43.01994" lon="-7.49939">
        <ele>512.3</ele>
        <time>2016-07-14T10:56:20Z</time>
      </trkpt>
      <trkpt lat="43.0199" lon="-7.49951">
        <ele>509.5</ele>
        <time>2016-07-14T10:56:28Z</time>
      </trkpt>
      <trkpt lat="43.01986" lon="-7.49964">
        <ele>509.8</ele>
        <time>2016-07-14T10:56:36Z</time>
      </trkpt>
      <trkpt lat="43.0198" lon="-7.49976">
        <ele>509.8</ele>
        <time>2016-07-14T10:56:43Z</time>
      </trkpt>
      <trkpt lat="43.01976" lon="-7.49989">
        <ele>509.6</ele>
        <time>2016-07-14T10:56:50Z</time>
      </trkpt>
      <trkpt lat="43.01973" lon="-7.50001">
        <ele>509.4</ele>
        <time>2016-07-14T10:56:56Z</time>
      </trkpt>
      <trkpt lat="43.01971" lon="-7.50014">
        <ele>508.9</ele>
        <time>2016-07-14T10:57:03Z</time>
      </trkpt>
      <trkpt lat="43.01974" lon="-7.50027">
        <ele>507.8</ele>
        <time>2016-07-14T10:57:11Z</time>
      </trkpt>
      <trkpt lat="43.01976" lon="-7.50041">
        <ele>505.9</ele>
        <time>2016-07-14T10:57:18Z</time>
      </trkpt>
      <trkpt lat="43.01979" lon="-7.50053">
        <ele>505.9</ele>
        <time>2016-07-14T10:57:24Z</time>
      </trkpt>
      <trkpt lat="43.01982" lon="-7.50066">
        <ele>506.1</ele>
        <time>2016-07-14T10:57:31Z</time>
      </trkpt>
      <trkpt lat="43.01986" lon="-7.50078">
        <ele>506.1</ele>
        <time>2016-07-14T10:57:38Z</time>
      </trkpt>
      <trkpt lat="43.0199" lon="-7.5009">
        <ele>505.9</ele>
        <time>2016-07-14T10:57:45Z</time>
      </trkpt>
      <trkpt lat="43.0199" lon="-7.50103">
        <ele>505.8</ele>
        <time>2016-07-14T10:57:52Z</time>
      </trkpt>
      <trkpt lat="43.01985" lon="-7.50114">
        <ele>505.5</ele>
        <time>2016-07-14T10:57:59Z</time>
      </trkpt>
      <trkpt lat="43.01981" lon="-7.50126">
        <ele>505.2</ele>
        <time>2016-07-14T10:58:07Z</time>
      </trkpt>
      <trkpt lat="43.01975" lon="-7.50137">
        <ele>505.1</ele>
        <time>2016-07-14T10:58:14Z</time>
      </trkpt>
      <trkpt lat="43.01969" lon="-7.50145">
        <ele>505</ele>
        <time>2016-07-14T10:58:20Z</time>
      </trkpt>
      <trkpt lat="43.0196" lon="-7.50151">
        <ele>505</ele>
        <time>2016-07-14T10:58:26Z</time>
      </trkpt>
      <trkpt lat="43.01952" lon="-7.50159">
        <ele>505.5</ele>
        <time>2016-07-14T10:58:34Z</time>
      </trkpt>
      <trkpt lat="43.01943" lon="-7.50166">
        <ele>505.7</ele>
        <time>2016-07-14T10:58:41Z</time>
      </trkpt>
      <trkpt lat="43.01936" lon="-7.50175">
        <ele>505.6</ele>
        <time>2016-07-14T10:58:49Z</time>
      </trkpt>
      <trkpt lat="43.01926" lon="-7.50181">
        <ele>505.8</ele>
        <time>2016-07-14T10:58:57Z</time>
      </trkpt>
      <trkpt lat="43.01918" lon="-7.50188">
        <ele>505.9</ele>
        <time>2016-07-14T10:59:04Z</time>
      </trkpt>
      <trkpt lat="43.01911" lon="-7.50198">
        <ele>505.7</ele>
        <time>2016-07-14T10:59:11Z</time>
      </trkpt>
      <trkpt lat="43.01903" lon="-7.50206">
        <ele>505.7</ele>
        <time>2016-07-14T10:59:20Z</time>
      </trkpt>
      <trkpt lat="43.01895" lon="-7.50214">
        <ele>505.6</ele>
        <time>2016-07-14T10:59:28Z</time>
      </trkpt>
      <trkpt lat="43.01887" lon="-7.50221">
        <ele>505.9</ele>
        <time>2016-07-14T10:59:35Z</time>
      </trkpt>
      <trkpt lat="43.0188" lon="-7.50229">
        <ele>506</ele>
        <time>2016-07-14T10:59:42Z</time>
      </trkpt>
      <trkpt lat="43.01871" lon="-7.50237">
        <ele>506.1</ele>
        <time>2016-07-14T10:59:49Z</time>
      </trkpt>
      <trkpt lat="43.01862" lon="-7.50241">
        <ele>506.2</ele>
        <time>2016-07-14T10:59:55Z</time>
      </trkpt>
      <trkpt lat="43.01854" lon="-7.50249">
        <ele>506</ele>
        <time>2016-07-14T11:00:02Z</time>
      </trkpt>
      <trkpt lat="43.01846" lon="-7.50257">
        <ele>505.7</ele>
        <time>2016-07-14T11:00:09Z</time>
      </trkpt>
      <trkpt lat="43.01838" lon="-7.50265">
        <ele>505.5</ele>
        <time>2016-07-14T11:00:16Z</time>
      </trkpt>
      <trkpt lat="43.0183" lon="-7.50273">
        <ele>505.4</ele>
        <time>2016-07-14T11:00:24Z</time>
      </trkpt>
      <trkpt lat="43.01822" lon="-7.5028">
        <ele>505.2</ele>
        <time>2016-07-14T11:00:32Z</time>
      </trkpt>
      <trkpt lat="43.01816" lon="-7.50289">
        <ele>505.1</ele>
        <time>2016-07-14T11:00:38Z</time>
      </trkpt>
      <trkpt lat="43.0181" lon="-7.50298">
        <ele>505.1</ele>
        <time>2016-07-14T11:00:44Z</time>
      </trkpt>
      <trkpt lat="43.01803" lon="-7.50307">
        <ele>505.2</ele>
        <time>2016-07-14T11:00:50Z</time>
      </trkpt>
      <trkpt lat="43.01798" lon="-7.50318">
        <ele>505.2</ele>
        <time>2016-07-14T11:00:57Z</time>
      </trkpt>
      <trkpt lat="43.01792" lon="-7.50329">
        <ele>505.4</ele>
        <time>2016-07-14T11:01:05Z</time>
      </trkpt>
      <trkpt lat="43.01786" lon="-7.5034">
        <ele>505.6</ele>
        <time>2016-07-14T11:01:13Z</time>
      </trkpt>
      <trkpt lat="43.0178" lon="-7.50349">
        <ele>505.7</ele>
        <time>2016-07-14T11:01:20Z</time>
      </trkpt>
      <trkpt lat="43.01775" lon="-7.50361">
        <ele>505.9</ele>
        <time>2016-07-14T11:01:29Z</time>
      </trkpt>
      <trkpt lat="43.01769" lon="-7.5037">
        <ele>506.3</ele>
        <time>2016-07-14T11:01:36Z</time>
      </trkpt>
      <trkpt lat="43.01765" lon="-7.50382">
        <ele>506.5</ele>
        <time>2016-07-14T11:01:45Z</time>
      </trkpt>
      <trkpt lat="43.01762" lon="-7.50396">
        <ele>506.4</ele>
        <time>2016-07-14T11:01:52Z</time>
      </trkpt>
      <trkpt lat="43.01759" lon="-7.50408">
        <ele>506.4</ele>
        <time>2016-07-14T11:01:59Z</time>
      </trkpt>
      <trkpt lat="43.01755" lon="-7.5042">
        <ele>506.8</ele>
        <time>2016-07-14T11:02:06Z</time>
      </trkpt>
      <trkpt lat="43.01753" lon="-7.50433">
        <ele>507.1</ele>
        <time>2016-07-14T11:02:14Z</time>
      </trkpt>
      <trkpt lat="43.01751" lon="-7.50446">
        <ele>507.4</ele>
        <time>2016-07-14T11:02:21Z</time>
      </trkpt>
      <trkpt lat="43.0175" lon="-7.50459">
        <ele>507.6</ele>
        <time>2016-07-14T11:02:28Z</time>
      </trkpt>
      <trkpt lat="43.01749" lon="-7.50472">
        <ele>507.6</ele>
        <time>2016-07-14T11:02:34Z</time>
      </trkpt>
      <trkpt lat="43.01749" lon="-7.50484">
        <ele>507.7</ele>
        <time>2016-07-14T11:02:41Z</time>
      </trkpt>
      <trkpt lat="43.01748" lon="-7.50497">
        <ele>507.9</ele>
        <time>2016-07-14T11:02:48Z</time>
      </trkpt>
      <trkpt lat="43.01748" lon="-7.50509">
        <ele>508.2</ele>
        <time>2016-07-14T11:02:55Z</time>
      </trkpt>
      <trkpt lat="43.01748" lon="-7.50522">
        <ele>508.6</ele>
        <time>2016-07-14T11:03:02Z</time>
      </trkpt>
      <trkpt lat="43.0175" lon="-7.50534">
        <ele>508.9</ele>
        <time>2016-07-14T11:03:09Z</time>
      </trkpt>
      <trkpt lat="43.01751" lon="-7.50547">
        <ele>509.2</ele>
        <time>2016-07-14T11:03:16Z</time>
      </trkpt>
      <trkpt lat="43.01752" lon="-7.5056">
        <ele>509.3</ele>
        <time>2016-07-14T11:03:23Z</time>
      </trkpt>
      <trkpt lat="43.01753" lon="-7.50575">
        <ele>509.5</ele>
        <time>2016-07-14T11:03:30Z</time>
      </trkpt>
      <trkpt lat="43.01754" lon="-7.50587">
        <ele>509.8</ele>
        <time>2016-07-14T11:03:36Z</time>
      </trkpt>
      <trkpt lat="43.01757" lon="-7.506">
        <ele>510</ele>
        <time>2016-07-14T11:03:43Z</time>
      </trkpt>
      <trkpt lat="43.01758" lon="-7.50613">
        <ele>510.4</ele>
        <time>2016-07-14T11:03:50Z</time>
      </trkpt>
      <trkpt lat="43.01759" lon="-7.50626">
        <ele>510.8</ele>
        <time>2016-07-14T11:03:58Z</time>
      </trkpt>
      <trkpt lat="43.0176" lon="-7.5064">
        <ele>510.4</ele>
        <time>2016-07-14T11:04:06Z</time>
      </trkpt>
      <trkpt lat="43.01761" lon="-7.50653">
        <ele>510.4</ele>
        <time>2016-07-14T11:04:14Z</time>
      </trkpt>
      <trkpt lat="43.01758" lon="-7.50666">
        <ele>510.4</ele>
        <time>2016-07-14T11:04:22Z</time>
      </trkpt>
      <trkpt lat="43.01754" lon="-7.50678">
        <ele>510.2</ele>
        <time>2016-07-14T11:04:28Z</time>
      </trkpt>
      <trkpt lat="43.01749" lon="-7.50689">
        <ele>510.1</ele>
        <time>2016-07-14T11:04:35Z</time>
      </trkpt>
      <trkpt lat="43.01744" lon="-7.507">
        <ele>510.1</ele>
        <time>2016-07-14T11:04:43Z</time>
      </trkpt>
      <trkpt lat="43.0174" lon="-7.50713">
        <ele>510.1</ele>
        <time>2016-07-14T11:04:51Z</time>
      </trkpt>
      <trkpt lat="43.01737" lon="-7.50725">
        <ele>509.7</ele>
        <time>2016-07-14T11:04:58Z</time>
      </trkpt>
      <trkpt lat="43.01733" lon="-7.50737">
        <ele>509.7</ele>
        <time>2016-07-14T11:05:06Z</time>
      </trkpt>
      <trkpt lat="43.01729" lon="-7.50748">
        <ele>509.8</ele>
        <time>2016-07-14T11:05:14Z</time>
      </trkpt>
      <trkpt lat="43.01726" lon="-7.50761">
        <ele>510</ele>
        <time>2016-07-14T11:05:23Z</time>
      </trkpt>
      <trkpt lat="43.01724" lon="-7.50773">
        <ele>510</ele>
        <time>2016-07-14T11:05:30Z</time>
      </trkpt>
      <trkpt lat="43.0172" lon="-7.50785">
        <ele>510.1</ele>
        <time>2016-07-14T11:05:37Z</time>
      </trkpt>
      <trkpt lat="43.01715" lon="-7.50796">
        <ele>510.1</ele>
        <time>2016-07-14T11:05:44Z</time>
      </trkpt>
      <trkpt lat="43.01711" lon="-7.50808">
        <ele>510.2</ele>
        <time>2016-07-14T11:05:51Z</time>
      </trkpt>
      <trkpt lat="43.01706" lon="-7.50818">
        <ele>510.4</ele>
        <time>2016-07-14T11:05:59Z</time>
      </trkpt>
      <trkpt lat="43.01702" lon="-7.50831">
        <ele>510.3</ele>
        <time>2016-07-14T11:06:07Z</time>
      </trkpt>
      <trkpt lat="43.01696" lon="-7.50842">
        <ele>510.2</ele>
        <time>2016-07-14T11:06:13Z</time>
      </trkpt>
      <trkpt lat="43.0169" lon="-7.50852">
        <ele>510.2</ele>
        <time>2016-07-14T11:06:19Z</time>
      </trkpt>
      <trkpt lat="43.01685" lon="-7.50864">
        <ele>509.8</ele>
        <time>2016-07-14T11:06:25Z</time>
      </trkpt>
      <trkpt lat="43.01679" lon="-7.50875">
        <ele>509.5</ele>
        <time>2016-07-14T11:06:32Z</time>
      </trkpt>
      <trkpt lat="43.01677" lon="-7.50887">
        <ele>509.2</ele>
        <time>2016-07-14T11:06:39Z</time>
      </trkpt>
      <trkpt lat="43.01673" lon="-7.50899">
        <ele>508.6</ele>
        <time>2016-07-14T11:06:45Z</time>
      </trkpt>
      <trkpt lat="43.01671" lon="-7.50912">
        <ele>508.3</ele>
        <time>2016-07-14T11:06:52Z</time>
      </trkpt>
      <trkpt lat="43.01671" lon="-7.50926">
        <ele>507.7</ele>
        <time>2016-07-14T11:07:00Z</time>
      </trkpt>
      <trkpt lat="43.01671" lon="-7.50939">
        <ele>507.4</ele>
        <time>2016-07-14T11:07:07Z</time>
      </trkpt>
      <trkpt lat="43.01669" lon="-7.50952">
        <ele>507.1</ele>
        <time>2016-07-14T11:07:14Z</time>
      </trkpt>
      <trkpt lat="43.01666" lon="-7.50964">
        <ele>506.7</ele>
        <time>2016-07-14T11:07:20Z</time>
      </trkpt>
      <trkpt lat="43.01662" lon="-7.50977">
        <ele>506.1</ele>
        <time>2016-07-14T11:07:27Z</time>
      </trkpt>
      <trkpt lat="43.01659" lon="-7.5099">
        <ele>505.7</ele>
        <time>2016-07-14T11:07:34Z</time>
      </trkpt>
      <trkpt lat="43.01654" lon="-7.51002">
        <ele>505.4</ele>
        <time>2016-07-14T11:07:41Z</time>
      </trkpt>
      <trkpt lat="43.0165" lon="-7.51014">
        <ele>505.1</ele>
        <time>2016-07-14T11:07:47Z</time>
      </trkpt>
      <trkpt lat="43.01645" lon="-7.51025">
        <ele>504.9</ele>
        <time>2016-07-14T11:07:54Z</time>
      </trkpt>
      <trkpt lat="43.01639" lon="-7.51034">
        <ele>504.3</ele>
        <time>2016-07-14T11:08:00Z</time>
      </trkpt>
      <trkpt lat="43.01634" lon="-7.51045">
        <ele>503.7</ele>
        <time>2016-07-14T11:08:06Z</time>
      </trkpt>
      <trkpt lat="43.0163" lon="-7.51057">
        <ele>503.2</ele>
        <time>2016-07-14T11:08:13Z</time>
      </trkpt>
      <trkpt lat="43.01626" lon="-7.51069">
        <ele>502.4</ele>
        <time>2016-07-14T11:08:20Z</time>
      </trkpt>
      <trkpt lat="43.01622" lon="-7.51081">
        <ele>501.8</ele>
        <time>2016-07-14T11:08:26Z</time>
      </trkpt>
      <trkpt lat="43.01617" lon="-7.51092">
        <ele>501.1</ele>
        <time>2016-07-14T11:08:33Z</time>
      </trkpt>
      <trkpt lat="43.01613" lon="-7.51103">
        <ele>500.5</ele>
        <time>2016-07-14T11:08:40Z</time>
      </trkpt>
      <trkpt lat="43.01612" lon="-7.51117">
        <ele>499.9</ele>
        <time>2016-07-14T11:08:48Z</time>
      </trkpt>
      <trkpt lat="43.01608" lon="-7.51129">
        <ele>499.4</ele>
        <time>2016-07-14T11:08:55Z</time>
      </trkpt>
      <trkpt lat="43.01603" lon="-7.5114">
        <ele>499</ele>
        <time>2016-07-14T11:09:01Z</time>
      </trkpt>
      <trkpt lat="43.01599" lon="-7.51151">
        <ele>498.5</ele>
        <time>2016-07-14T11:09:08Z</time>
      </trkpt>
      <trkpt lat="43.01593" lon="-7.51162">
        <ele>498</ele>
        <time>2016-07-14T11:09:15Z</time>
      </trkpt>
      <trkpt lat="43.01586" lon="-7.51173">
        <ele>497.3</ele>
        <time>2016-07-14T11:09:23Z</time>
      </trkpt>
      <trkpt lat="43.01579" lon="-7.51183">
        <ele>496.9</ele>
        <time>2016-07-14T11:09:31Z</time>
      </trkpt>
      <trkpt lat="43.01575" lon="-7.51195">
        <ele>496.5</ele>
        <time>2016-07-14T11:09:40Z</time>
      </trkpt>
      <trkpt lat="43.0157" lon="-7.51206">
        <ele>496.3</ele>
        <time>2016-07-14T11:09:47Z</time>
      </trkpt>
      <trkpt lat="43.01565" lon="-7.51217">
        <ele>495.9</ele>
        <time>2016-07-14T11:09:54Z</time>
      </trkpt>
      <trkpt lat="43.01561" lon="-7.51228">
        <ele>495.5</ele>
        <time>2016-07-14T11:10:01Z</time>
      </trkpt>
      <trkpt lat="43.01556" lon="-7.5124">
        <ele>495.2</ele>
        <time>2016-07-14T11:10:08Z</time>
      </trkpt>
      <trkpt lat="43.0155" lon="-7.51251">
        <ele>495.1</ele>
        <time>2016-07-14T11:10:15Z</time>
      </trkpt>
      <trkpt lat="43.01545" lon="-7.51262">
        <ele>494.8</ele>
        <time>2016-07-14T11:10:22Z</time>
      </trkpt>
      <trkpt lat="43.01539" lon="-7.51272">
        <ele>494.5</ele>
        <time>2016-07-14T11:10:29Z</time>
      </trkpt>
      <trkpt lat="43.01533" lon="-7.51284">
        <ele>494.2</ele>
        <time>2016-07-14T11:10:37Z</time>
      </trkpt>
      <trkpt lat="43.01528" lon="-7.51295">
        <ele>494</ele>
        <time>2016-07-14T11:10:43Z</time>
      </trkpt>
      <trkpt lat="43.01522" lon="-7.51304">
        <ele>493.7</ele>
        <time>2016-07-14T11:10:49Z</time>
      </trkpt>
      <trkpt lat="43.01517" lon="-7.51315">
        <ele>493.4</ele>
        <time>2016-07-14T11:10:55Z</time>
      </trkpt>
      <trkpt lat="43.01512" lon="-7.51326">
        <ele>493.4</ele>
        <time>2016-07-14T11:11:02Z</time>
      </trkpt>
      <trkpt lat="43.01508" lon="-7.51338">
        <ele>493.3</ele>
        <time>2016-07-14T11:11:10Z</time>
      </trkpt>
      <trkpt lat="43.01505" lon="-7.5135">
        <ele>493</ele>
        <time>2016-07-14T11:11:18Z</time>
      </trkpt>
      <trkpt lat="43.01501" lon="-7.51363">
        <ele>492.8</ele>
        <time>2016-07-14T11:11:26Z</time>
      </trkpt>
      <trkpt lat="43.01497" lon="-7.51374">
        <ele>492.7</ele>
        <time>2016-07-14T11:11:33Z</time>
      </trkpt>
      <trkpt lat="43.01493" lon="-7.51385">
        <ele>492.3</ele>
        <time>2016-07-14T11:11:41Z</time>
      </trkpt>
      <trkpt lat="43.01489" lon="-7.51398">
        <ele>492.2</ele>
        <time>2016-07-14T11:11:48Z</time>
      </trkpt>
      <trkpt lat="43.01484" lon="-7.51409">
        <ele>492.5</ele>
        <time>2016-07-14T11:11:55Z</time>
      </trkpt>
      <trkpt lat="43.01482" lon="-7.51421">
        <ele>492.6</ele>
        <time>2016-07-14T11:12:01Z</time>
      </trkpt>
      <trkpt lat="43.01479" lon="-7.51435">
        <ele>492.7</ele>
        <time>2016-07-14T11:12:07Z</time>
      </trkpt>
      <trkpt lat="43.01476" lon="-7.51447">
        <ele>492.6</ele>
        <time>2016-07-14T11:12:13Z</time>
      </trkpt>
      <trkpt lat="43.01474" lon="-7.5146">
        <ele>492.6</ele>
        <time>2016-07-14T11:12:20Z</time>
      </trkpt>
      <trkpt lat="43.0147" lon="-7.51472">
        <ele>492.5</ele>
        <time>2016-07-14T11:12:27Z</time>
      </trkpt>
      <trkpt lat="43.01466" lon="-7.51483">
        <ele>492.4</ele>
        <time>2016-07-14T11:12:35Z</time>
      </trkpt>
      <trkpt lat="43.01465" lon="-7.51496">
        <ele>492.3</ele>
        <time>2016-07-14T11:12:44Z</time>
      </trkpt>
      <trkpt lat="43.01464" lon="-7.5151">
        <ele>492.4</ele>
        <time>2016-07-14T11:12:53Z</time>
      </trkpt>
      <trkpt lat="43.01463" lon="-7.51522">
        <ele>492.3</ele>
        <time>2016-07-14T11:13:01Z</time>
      </trkpt>
      <trkpt lat="43.01461" lon="-7.51536">
        <ele>492.2</ele>
        <time>2016-07-14T11:13:08Z</time>
      </trkpt>
      <trkpt lat="43.01459" lon="-7.51549">
        <ele>492.1</ele>
        <time>2016-07-14T11:13:15Z</time>
      </trkpt>
      <trkpt lat="43.0146" lon="-7.51562">
        <ele>491.8</ele>
        <time>2016-07-14T11:13:22Z</time>
      </trkpt>
      <trkpt lat="43.01461" lon="-7.51575">
        <ele>491.5</ele>
        <time>2016-07-14T11:13:29Z</time>
      </trkpt>
      <trkpt lat="43.01466" lon="-7.51586">
        <ele>491.4</ele>
        <time>2016-07-14T11:13:35Z</time>
      </trkpt>
      <trkpt lat="43.01475" lon="-7.51593">
        <ele>491.3</ele>
        <time>2016-07-14T11:13:42Z</time>
      </trkpt>
      <trkpt lat="43.01484" lon="-7.51594">
        <ele>491.1</ele>
        <time>2016-07-14T11:13:50Z</time>
      </trkpt>
      <trkpt lat="43.01494" lon="-7.51594">
        <ele>490.9</ele>
        <time>2016-07-14T11:13:58Z</time>
      </trkpt>
      <trkpt lat="43.01503" lon="-7.51594">
        <ele>490.8</ele>
        <time>2016-07-14T11:14:04Z</time>
      </trkpt>
      <trkpt lat="43.01512" lon="-7.51595">
        <ele>490.7</ele>
        <time>2016-07-14T11:14:13Z</time>
      </trkpt>
      <trkpt lat="43.01522" lon="-7.51594">
        <ele>490.7</ele>
        <time>2016-07-14T11:14:20Z</time>
      </trkpt>
      <trkpt lat="43.01531" lon="-7.51597">
        <ele>490.6</ele>
        <time>2016-07-14T11:14:29Z</time>
      </trkpt>
      <trkpt lat="43.01541" lon="-7.51599">
        <ele>490.7</ele>
        <time>2016-07-14T11:14:39Z</time>
      </trkpt>
      <trkpt lat="43.01551" lon="-7.51601">
        <ele>490.5</ele>
        <time>2016-07-14T11:14:48Z</time>
      </trkpt>
      <trkpt lat="43.0156" lon="-7.51603">
        <ele>490.4</ele>
        <time>2016-07-14T11:14:56Z</time>
      </trkpt>
      <trkpt lat="43.01569" lon="-7.51606">
        <ele>490.4</ele>
        <time>2016-07-14T11:15:02Z</time>
      </trkpt>
      <trkpt lat="43.01579" lon="-7.5161">
        <ele>490.1</ele>
        <time>2016-07-14T11:15:08Z</time>
      </trkpt>
      <trkpt lat="43.01588" lon="-7.51614">
        <ele>490</ele>
        <time>2016-07-14T11:15:14Z</time>
      </trkpt>
      <trkpt lat="43.01597" lon="-7.51618">
        <ele>490.1</ele>
        <time>2016-07-14T11:15:21Z</time>
      </trkpt>
      <trkpt lat="43.01606" lon="-7.51622">
        <ele>490.1</ele>
        <time>2016-07-14T11:15:28Z</time>
      </trkpt>
      <trkpt lat="43.01615" lon="-7.51626">
        <ele>490.2</ele>
        <time>2016-07-14T11:15:35Z</time>
      </trkpt>
      <trkpt lat="43.01624" lon="-7.51629">
        <ele>490.3</ele>
        <time>2016-07-14T11:15:42Z</time>
      </trkpt>
      <trkpt lat="43.01634" lon="-7.51631">
        <ele>490.3</ele>
        <time>2016-07-14T11:15:50Z</time>
      </trkpt>
      <trkpt lat="43.01644" lon="-7.51634">
        <ele>490.8</ele>
        <time>2016-07-14T11:15:58Z</time>
      </trkpt>
      <trkpt lat="43.01654" lon="-7.51636">
        <ele>490.8</ele>
        <time>2016-07-14T11:16:06Z</time>
      </trkpt>
      <trkpt lat="43.01664" lon="-7.51638">
        <ele>491.2</ele>
        <time>2016-07-14T11:16:14Z</time>
      </trkpt>
      <trkpt lat="43.01673" lon="-7.51636">
        <ele>491.6</ele>
        <time>2016-07-14T11:16:21Z</time>
      </trkpt>
      <trkpt lat="43.01682" lon="-7.51636">
        <ele>491.8</ele>
        <time>2016-07-14T11:16:29Z</time>
      </trkpt>
      <trkpt lat="43.01692" lon="-7.51639">
        <ele>491.9</ele>
        <time>2016-07-14T11:16:39Z</time>
      </trkpt>
      <trkpt lat="43.01702" lon="-7.51643">
        <ele>492</ele>
        <time>2016-07-14T11:16:46Z</time>
      </trkpt>
      <trkpt lat="43.0171" lon="-7.51651">
        <ele>492.1</ele>
        <time>2016-07-14T11:16:53Z</time>
      </trkpt>
      <trkpt lat="43.01718" lon="-7.51659">
        <ele>492</ele>
        <time>2016-07-14T11:17:00Z</time>
      </trkpt>
      <trkpt lat="43.01726" lon="-7.51666">
        <ele>492</ele>
        <time>2016-07-14T11:17:07Z</time>
      </trkpt>
      <trkpt lat="43.01733" lon="-7.51674">
        <ele>492.2</ele>
        <time>2016-07-14T11:17:15Z</time>
      </trkpt>
      <trkpt lat="43.0174" lon="-7.51682">
        <ele>492.2</ele>
        <time>2016-07-14T11:17:23Z</time>
      </trkpt>
      <trkpt lat="43.01746" lon="-7.51692">
        <ele>492.3</ele>
        <time>2016-07-14T11:17:30Z</time>
      </trkpt>
      <trkpt lat="43.01752" lon="-7.51703">
        <ele>492.3</ele>
        <time>2016-07-14T11:17:37Z</time>
      </trkpt>
      <trkpt lat="43.01758" lon="-7.51715">
        <ele>492.4</ele>
        <time>2016-07-14T11:17:45Z</time>
      </trkpt>
      <trkpt lat="43.01763" lon="-7.51727">
        <ele>492.5</ele>
        <time>2016-07-14T11:17:52Z</time>
      </trkpt>
      <trkpt lat="43.01769" lon="-7.51738">
        <ele>492.6</ele>
        <time>2016-07-14T11:17:59Z</time>
      </trkpt>
      <trkpt lat="43.01775" lon="-7.51749">
        <ele>492.7</ele>
        <time>2016-07-14T11:18:06Z</time>
      </trkpt>
      <trkpt lat="43.0178" lon="-7.5176">
        <ele>492.9</ele>
        <time>2016-07-14T11:18:13Z</time>
      </trkpt>
      <trkpt lat="43.01786" lon="-7.51771">
        <ele>493.3</ele>
        <time>2016-07-14T11:18:21Z</time>
      </trkpt>
      <trkpt lat="43.01791" lon="-7.51781">
        <ele>493.6</ele>
        <time>2016-07-14T11:18:28Z</time>
      </trkpt>
      <trkpt lat="43.01797" lon="-7.51792">
        <ele>493.6</ele>
        <time>2016-07-14T11:18:36Z</time>
      </trkpt>
      <trkpt lat="43.01803" lon="-7.51804">
        <ele>493.5</ele>
        <time>2016-07-14T11:18:44Z</time>
      </trkpt>
      <trkpt lat="43.01808" lon="-7.51815">
        <ele>493.6</ele>
        <time>2016-07-14T11:18:51Z</time>
      </trkpt>
      <trkpt lat="43.01812" lon="-7.51827">
        <ele>493.8</ele>
        <time>2016-07-14T11:18:59Z</time>
      </trkpt>
      <trkpt lat="43.01816" lon="-7.51838">
        <ele>493.8</ele>
        <time>2016-07-14T11:19:06Z</time>
      </trkpt>
      <trkpt lat="43.01818" lon="-7.5185">
        <ele>493.9</ele>
        <time>2016-07-14T11:19:13Z</time>
      </trkpt>
      <trkpt lat="43.01819" lon="-7.51863">
        <ele>494.1</ele>
        <time>2016-07-14T11:19:21Z</time>
      </trkpt>
      <trkpt lat="43.01819" lon="-7.51876">
        <ele>494.4</ele>
        <time>2016-07-14T11:19:29Z</time>
      </trkpt>
      <trkpt lat="43.01817" lon="-7.5189">
        <ele>494.8</ele>
        <time>2016-07-14T11:19:37Z</time>
      </trkpt>
      <trkpt lat="43.01815" lon="-7.51903">
        <ele>495.4</ele>
        <time>2016-07-14T11:19:45Z</time>
      </trkpt>
      <trkpt lat="43.01813" lon="-7.51915">
        <ele>496</ele>
        <time>2016-07-14T11:19:53Z</time>
      </trkpt>
      <trkpt lat="43.01811" lon="-7.51929">
        <ele>496.7</ele>
        <time>2016-07-14T11:20:01Z</time>
      </trkpt>
      <trkpt lat="43.0181" lon="-7.51942">
        <ele>497.5</ele>
        <time>2016-07-14T11:20:09Z</time>
      </trkpt>
      <trkpt lat="43.0181" lon="-7.51955">
        <ele>498.1</ele>
        <time>2016-07-14T11:20:17Z</time>
      </trkpt>
      <trkpt lat="43.01807" lon="-7.51968">
        <ele>498.5</ele>
        <time>2016-07-14T11:20:25Z</time>
      </trkpt>
      <trkpt lat="43.01806" lon="-7.51981">
        <ele>499</ele>
        <time>2016-07-14T11:20:32Z</time>
      </trkpt>
      <trkpt lat="43.01804" lon="-7.51994">
        <ele>499.4</ele>
        <time>2016-07-14T11:20:39Z</time>
      </trkpt>
      <trkpt lat="43.01803" lon="-7.52007">
        <ele>499.7</ele>
        <time>2016-07-14T11:20:46Z</time>
      </trkpt>
      <trkpt lat="43.01801" lon="-7.52019">
        <ele>499.7</ele>
        <time>2016-07-14T11:20:53Z</time>
      </trkpt>
      <trkpt lat="43.01799" lon="-7.52033">
        <ele>499.3</ele>
        <time>2016-07-14T11:21:01Z</time>
      </trkpt>
      <trkpt lat="43.01796" lon="-7.52045">
        <ele>499.2</ele>
        <time>2016-07-14T11:21:08Z</time>
      </trkpt>
      <trkpt lat="43.01793" lon="-7.52058">
        <ele>499.1</ele>
        <time>2016-07-14T11:21:15Z</time>
      </trkpt>
      <trkpt lat="43.01789" lon="-7.5207">
        <ele>498.9</ele>
        <time>2016-07-14T11:21:22Z</time>
      </trkpt>
      <trkpt lat="43.01783" lon="-7.52082">
        <ele>498.6</ele>
        <time>2016-07-14T11:21:29Z</time>
      </trkpt>
      <trkpt lat="43.01779" lon="-7.52094">
        <ele>497.6</ele>
        <time>2016-07-14T11:21:36Z</time>
      </trkpt>
      <trkpt lat="43.01773" lon="-7.52104">
        <ele>496.8</ele>
        <time>2016-07-14T11:21:44Z</time>
      </trkpt>
      <trkpt lat="43.0177" lon="-7.52117">
        <ele>495.8</ele>
        <time>2016-07-14T11:21:53Z</time>
      </trkpt>
      <trkpt lat="43.01765" lon="-7.52127">
        <ele>495.1</ele>
        <time>2016-07-14T11:22:01Z</time>
      </trkpt>
      <trkpt lat="43.0176" lon="-7.52139">
        <ele>494.1</ele>
        <time>2016-07-14T11:22:09Z</time>
      </trkpt>
      <trkpt lat="43.01756" lon="-7.5215">
        <ele>493.6</ele>
        <time>2016-07-14T11:22:15Z</time>
      </trkpt>
      <trkpt lat="43.01751" lon="-7.52161">
        <ele>492.6</ele>
        <time>2016-07-14T11:22:24Z</time>
      </trkpt>
      <trkpt lat="43.01747" lon="-7.52174">
        <ele>492</ele>
        <time>2016-07-14T11:22:32Z</time>
      </trkpt>
      <trkpt lat="43.01742" lon="-7.52186">
        <ele>491.7</ele>
        <time>2016-07-14T11:22:40Z</time>
      </trkpt>
      <trkpt lat="43.01742" lon="-7.52199">
        <ele>491.9</ele>
        <time>2016-07-14T11:22:50Z</time>
      </trkpt>
      <trkpt lat="43.01738" lon="-7.52211">
        <ele>491.8</ele>
        <time>2016-07-14T11:22:56Z</time>
      </trkpt>
      <trkpt lat="43.01734" lon="-7.52224">
        <ele>491.9</ele>
        <time>2016-07-14T11:23:02Z</time>
      </trkpt>
      <trkpt lat="43.01733" lon="-7.52237">
        <ele>492</ele>
        <time>2016-07-14T11:23:09Z</time>
      </trkpt>
      <trkpt lat="43.01729" lon="-7.52249">
        <ele>492.1</ele>
        <time>2016-07-14T11:23:16Z</time>
      </trkpt>
      <trkpt lat="43.01724" lon="-7.5226">
        <ele>492.2</ele>
        <time>2016-07-14T11:23:23Z</time>
      </trkpt>
      <trkpt lat="43.01718" lon="-7.52271">
        <ele>492.2</ele>
        <time>2016-07-14T11:23:30Z</time>
      </trkpt>
      <trkpt lat="43.01711" lon="-7.52282">
        <ele>492.2</ele>
        <time>2016-07-14T11:23:37Z</time>
      </trkpt>
      <trkpt lat="43.01705" lon="-7.52292">
        <ele>492.2</ele>
        <time>2016-07-14T11:23:44Z</time>
      </trkpt>
      <trkpt lat="43.01698" lon="-7.52302">
        <ele>492.3</ele>
        <time>2016-07-14T11:23:51Z</time>
      </trkpt>
      <trkpt lat="43.01692" lon="-7.52311">
        <ele>492.4</ele>
        <time>2016-07-14T11:23:58Z</time>
      </trkpt>
      <trkpt lat="43.01684" lon="-7.5232">
        <ele>492.5</ele>
        <time>2016-07-14T11:24:05Z</time>
      </trkpt>
      <trkpt lat="43.01678" lon="-7.52329">
        <ele>492.8</ele>
        <time>2016-07-14T11:24:12Z</time>
      </trkpt>
      <trkpt lat="43.01671" lon="-7.52338">
        <ele>493.1</ele>
        <time>2016-07-14T11:24:19Z</time>
      </trkpt>
      <trkpt lat="43.01666" lon="-7.5235">
        <ele>493.4</ele>
        <time>2016-07-14T11:24:27Z</time>
      </trkpt>
      <trkpt lat="43.01658" lon="-7.52359">
        <ele>494.2</ele>
        <time>2016-07-14T11:24:35Z</time>
      </trkpt>
      <trkpt lat="43.01649" lon="-7.52364">
        <ele>494.2</ele>
        <time>2016-07-14T11:24:43Z</time>
      </trkpt>
      <trkpt lat="43.01641" lon="-7.5237">
        <ele>494.9</ele>
        <time>2016-07-14T11:24:54Z</time>
      </trkpt>
      <trkpt lat="43.01634" lon="-7.52378">
        <ele>495.2</ele>
        <time>2016-07-14T11:25:02Z</time>
      </trkpt>
      <trkpt lat="43.01627" lon="-7.52386">
        <ele>495.3</ele>
        <time>2016-07-14T11:25:09Z</time>
      </trkpt>
      <trkpt lat="43.01619" lon="-7.52394">
        <ele>495.3</ele>
        <time>2016-07-14T11:25:17Z</time>
      </trkpt>
      <trkpt lat="43.01611" lon="-7.52402">
        <ele>495.6</ele>
        <time>2016-07-14T11:25:25Z</time>
      </trkpt>
      <trkpt lat="43.01603" lon="-7.52408">
        <ele>495.7</ele>
        <time>2016-07-14T11:25:32Z</time>
      </trkpt>
      <trkpt lat="43.01595" lon="-7.52416">
        <ele>495.9</ele>
        <time>2016-07-14T11:25:39Z</time>
      </trkpt>
      <trkpt lat="43.01588" lon="-7.52424">
        <ele>495.9</ele>
        <time>2016-07-14T11:25:46Z</time>
      </trkpt>
      <trkpt lat="43.01582" lon="-7.52433">
        <ele>496</ele>
        <time>2016-07-14T11:25:53Z</time>
      </trkpt>
      <trkpt lat="43.01573" lon="-7.52437">
        <ele>495.9</ele>
        <time>2016-07-14T11:26:00Z</time>
      </trkpt>
      <trkpt lat="43.01564" lon="-7.52434">
        <ele>495.5</ele>
        <time>2016-07-14T11:26:08Z</time>
      </trkpt>
      <trkpt lat="43.01555" lon="-7.5243">
        <ele>495.3</ele>
        <time>2016-07-14T11:26:16Z</time>
      </trkpt>
      <trkpt lat="43.01546" lon="-7.52427">
        <ele>494.7</ele>
        <time>2016-07-14T11:26:24Z</time>
      </trkpt>
      <trkpt lat="43.01537" lon="-7.52422">
        <ele>493.9</ele>
        <time>2016-07-14T11:26:31Z</time>
      </trkpt>
      <trkpt lat="43.01529" lon="-7.52418">
        <ele>493.4</ele>
        <time>2016-07-14T11:26:38Z</time>
      </trkpt>
      <trkpt lat="43.0152" lon="-7.52413">
        <ele>492.5</ele>
        <time>2016-07-14T11:26:45Z</time>
      </trkpt>
      <trkpt lat="43.01511" lon="-7.52408">
        <ele>491</ele>
        <time>2016-07-14T11:26:53Z</time>
      </trkpt>
      <trkpt lat="43.01501" lon="-7.52408">
        <ele>491.5</ele>
        <time>2016-07-14T11:27:00Z</time>
      </trkpt>
      <trkpt lat="43.01493" lon="-7.52414">
        <ele>491.8</ele>
        <time>2016-07-14T11:27:08Z</time>
      </trkpt>
      <trkpt lat="43.01486" lon="-7.52424">
        <ele>492</ele>
        <time>2016-07-14T11:27:16Z</time>
      </trkpt>
      <trkpt lat="43.01481" lon="-7.52435">
        <ele>492.2</ele>
        <time>2016-07-14T11:27:23Z</time>
      </trkpt>
      <trkpt lat="43.01475" lon="-7.52445">
        <ele>492.4</ele>
        <time>2016-07-14T11:27:30Z</time>
      </trkpt>
      <trkpt lat="43.01467" lon="-7.52452">
        <ele>492.3</ele>
        <time>2016-07-14T11:27:37Z</time>
      </trkpt>
      <trkpt lat="43.0146" lon="-7.5246">
        <ele>492.2</ele>
        <time>2016-07-14T11:27:44Z</time>
      </trkpt>
      <trkpt lat="43.01453" lon="-7.52467">
        <ele>492.3</ele>
        <time>2016-07-14T11:27:51Z</time>
      </trkpt>
      <trkpt lat="43.01446" lon="-7.52477">
        <ele>492.5</ele>
        <time>2016-07-14T11:27:58Z</time>
      </trkpt>
      <trkpt lat="43.01443" lon="-7.5249">
        <ele>492.8</ele>
        <time>2016-07-14T11:28:05Z</time>
      </trkpt>
      <trkpt lat="43.01444" lon="-7.52503">
        <ele>493.5</ele>
        <time>2016-07-14T11:28:12Z</time>
      </trkpt>
      <trkpt lat="43.01445" lon="-7.52515">
        <ele>494</ele>
        <time>2016-07-14T11:28:19Z</time>
      </trkpt>
      <trkpt lat="43.01447" lon="-7.52528">
        <ele>494.3</ele>
        <time>2016-07-14T11:28:26Z</time>
      </trkpt>
      <trkpt lat="43.01449" lon="-7.52541">
        <ele>494.4</ele>
        <time>2016-07-14T11:28:33Z</time>
      </trkpt>
      <trkpt lat="43.01451" lon="-7.52554">
        <ele>495</ele>
        <time>2016-07-14T11:28:40Z</time>
      </trkpt>
      <trkpt lat="43.01452" lon="-7.52566">
        <ele>495.3</ele>
        <time>2016-07-14T11:28:47Z</time>
      </trkpt>
      <trkpt lat="43.01453" lon="-7.52579">
        <ele>495.2</ele>
        <time>2016-07-14T11:28:54Z</time>
      </trkpt>
      <trkpt lat="43.01452" lon="-7.52592">
        <ele>495</ele>
        <time>2016-07-14T11:29:02Z</time>
      </trkpt>
      <trkpt lat="43.01451" lon="-7.52605">
        <ele>494.5</ele>
        <time>2016-07-14T11:29:10Z</time>
      </trkpt>
      <trkpt lat="43.0145" lon="-7.52618">
        <ele>493.8</ele>
        <time>2016-07-14T11:29:17Z</time>
      </trkpt>
      <trkpt lat="43.01452" lon="-7.52631">
        <ele>493.1</ele>
        <time>2016-07-14T11:29:24Z</time>
      </trkpt>
      <trkpt lat="43.01454" lon="-7.52643">
        <ele>492.4</ele>
        <time>2016-07-14T11:29:30Z</time>
      </trkpt>
      <trkpt lat="43.01457" lon="-7.52655">
        <ele>491.7</ele>
        <time>2016-07-14T11:29:37Z</time>
      </trkpt>
      <trkpt lat="43.01461" lon="-7.52667">
        <ele>491.2</ele>
        <time>2016-07-14T11:29:44Z</time>
      </trkpt>
      <trkpt lat="43.01464" lon="-7.52679">
        <ele>490</ele>
        <time>2016-07-14T11:29:52Z</time>
      </trkpt>
      <trkpt lat="43.01468" lon="-7.52692">
        <ele>489.7</ele>
        <time>2016-07-14T11:30:00Z</time>
      </trkpt>
      <trkpt lat="43.01472" lon="-7.52704">
        <ele>489.7</ele>
        <time>2016-07-14T11:30:09Z</time>
      </trkpt>
      <trkpt lat="43.01475" lon="-7.52717">
        <ele>489.7</ele>
        <time>2016-07-14T11:30:18Z</time>
      </trkpt>
      <trkpt lat="43.01474" lon="-7.52731">
        <ele>489.8</ele>
        <time>2016-07-14T11:30:25Z</time>
      </trkpt>
      <trkpt lat="43.01475" lon="-7.52744">
        <ele>489.9</ele>
        <time>2016-07-14T11:30:33Z</time>
      </trkpt>
      <trkpt lat="43.01476" lon="-7.52757">
        <ele>490.5</ele>
        <time>2016-07-14T11:30:42Z</time>
      </trkpt>
      <trkpt lat="43.01476" lon="-7.5277">
        <ele>490.6</ele>
        <time>2016-07-14T11:30:50Z</time>
      </trkpt>
      <trkpt lat="43.01477" lon="-7.52783">
        <ele>490.6</ele>
        <time>2016-07-14T11:30:58Z</time>
      </trkpt>
      <trkpt lat="43.01479" lon="-7.52797">
        <ele>490.5</ele>
        <time>2016-07-14T11:31:05Z</time>
      </trkpt>
      <trkpt lat="43.0148" lon="-7.5281">
        <ele>490.4</ele>
        <time>2016-07-14T11:31:13Z</time>
      </trkpt>
      <trkpt lat="43.01479" lon="-7.52822">
        <ele>490.2</ele>
        <time>2016-07-14T11:31:21Z</time>
      </trkpt>
      <trkpt lat="43.01481" lon="-7.52836">
        <ele>490.1</ele>
        <time>2016-07-14T11:31:29Z</time>
      </trkpt>
      <trkpt lat="43.01483" lon="-7.52849">
        <ele>490.1</ele>
        <time>2016-07-14T11:31:37Z</time>
      </trkpt>
      <trkpt lat="43.01484" lon="-7.52862">
        <ele>489.9</ele>
        <time>2016-07-14T11:31:44Z</time>
      </trkpt>
      <trkpt lat="43.01485" lon="-7.52876">
        <ele>489.8</ele>
        <time>2016-07-14T11:31:52Z</time>
      </trkpt>
      <trkpt lat="43.01489" lon="-7.52888">
        <ele>489.7</ele>
        <time>2016-07-14T11:32:00Z</time>
      </trkpt>
      <trkpt lat="43.01491" lon="-7.52901">
        <ele>489.6</ele>
        <time>2016-07-14T11:32:08Z</time>
      </trkpt>
      <trkpt lat="43.01491" lon="-7.52914">
        <ele>489.6</ele>
        <time>2016-07-14T11:32:15Z</time>
      </trkpt>
      <trkpt lat="43.01488" lon="-7.52926">
        <ele>489.1</ele>
        <time>2016-07-14T11:32:22Z</time>
      </trkpt>
      <trkpt lat="43.01481" lon="-7.52935">
        <ele>488.8</ele>
        <time>2016-07-14T11:32:28Z</time>
      </trkpt>
      <trkpt lat="43.01473" lon="-7.52944">
        <ele>488.5</ele>
        <time>2016-07-14T11:32:35Z</time>
      </trkpt>
      <trkpt lat="43.01464" lon="-7.52953">
        <ele>488.1</ele>
        <time>2016-07-14T11:32:43Z</time>
      </trkpt>
      <trkpt lat="43.01456" lon="-7.52962">
        <ele>487.5</ele>
        <time>2016-07-14T11:32:51Z</time>
      </trkpt>
      <trkpt lat="43.01448" lon="-7.52969">
        <ele>486.5</ele>
        <time>2016-07-14T11:32:59Z</time>
      </trkpt>
      <trkpt lat="43.01445" lon="-7.52982">
        <ele>485.9</ele>
        <time>2016-07-14T11:33:08Z</time>
      </trkpt>
      <trkpt lat="43.01449" lon="-7.52994">
        <ele>485.6</ele>
        <time>2016-07-14T11:33:16Z</time>
      </trkpt>
      <trkpt lat="43.01453" lon="-7.53006">
        <ele>485.3</ele>
        <time>2016-07-14T11:33:24Z</time>
      </trkpt>
      <trkpt lat="43.01458" lon="-7.53018">
        <ele>485.1</ele>
        <time>2016-07-14T11:33:33Z</time>
      </trkpt>
      <trkpt lat="43.01463" lon="-7.53028">
        <ele>484.7</ele>
        <time>2016-07-14T11:33:42Z</time>
      </trkpt>
      <trkpt lat="43.01464" lon="-7.53041">
        <ele>484.7</ele>
        <time>2016-07-14T11:33:52Z</time>
      </trkpt>
      <trkpt lat="43.01462" lon="-7.53054">
        <ele>484.4</ele>
        <time>2016-07-14T11:34:01Z</time>
      </trkpt>
      <trkpt lat="43.01459" lon="-7.53067">
        <ele>484.2</ele>
        <time>2016-07-14T11:34:08Z</time>
      </trkpt>
      <trkpt lat="43.01455" lon="-7.53078">
        <ele>484.2</ele>
        <time>2016-07-14T11:34:15Z</time>
      </trkpt>
      <trkpt lat="43.01451" lon="-7.53091">
        <ele>484.1</ele>
        <time>2016-07-14T11:34:23Z</time>
      </trkpt>
      <trkpt lat="43.01449" lon="-7.53104">
        <ele>484.1</ele>
        <time>2016-07-14T11:34:32Z</time>
      </trkpt>
      <trkpt lat="43.01447" lon="-7.53118">
        <ele>483.6</ele>
        <time>2016-07-14T11:34:40Z</time>
      </trkpt>
      <trkpt lat="43.01444" lon="-7.53129">
        <ele>483.5</ele>
        <time>2016-07-14T11:34:47Z</time>
      </trkpt>
      <trkpt lat="43.01439" lon="-7.53141">
        <ele>483.5</ele>
        <time>2016-07-14T11:34:54Z</time>
      </trkpt>
      <trkpt lat="43.01436" lon="-7.53154">
        <ele>483.6</ele>
        <time>2016-07-14T11:35:02Z</time>
      </trkpt>
      <trkpt lat="43.01434" lon="-7.53166">
        <ele>483.6</ele>
        <time>2016-07-14T11:35:09Z</time>
      </trkpt>
      <trkpt lat="43.0143" lon="-7.53179">
        <ele>483.6</ele>
        <time>2016-07-14T11:35:17Z</time>
      </trkpt>
      <trkpt lat="43.01428" lon="-7.53192">
        <ele>483.5</ele>
        <time>2016-07-14T11:35:26Z</time>
      </trkpt>
      <trkpt lat="43.01431" lon="-7.53204">
        <ele>483.5</ele>
        <time>2016-07-14T11:35:36Z</time>
      </trkpt>
      <trkpt lat="43.0143" lon="-7.53218">
        <ele>483.7</ele>
        <time>2016-07-14T11:35:44Z</time>
      </trkpt>
      <trkpt lat="43.0143" lon="-7.53232">
        <ele>483.7</ele>
        <time>2016-07-14T11:35:52Z</time>
      </trkpt>
      <trkpt lat="43.01429" lon="-7.53245">
        <ele>483.5</ele>
        <time>2016-07-14T11:36:01Z</time>
      </trkpt>
      <trkpt lat="43.01425" lon="-7.53257">
        <ele>483.4</ele>
        <time>2016-07-14T11:36:09Z</time>
      </trkpt>
      <trkpt lat="43.01422" lon="-7.5327">
        <ele>483.2</ele>
        <time>2016-07-14T11:36:16Z</time>
      </trkpt>
      <trkpt lat="43.01419" lon="-7.53282">
        <ele>482.9</ele>
        <time>2016-07-14T11:36:23Z</time>
      </trkpt>
      <trkpt lat="43.01415" lon="-7.53294">
        <ele>482.1</ele>
        <time>2016-07-14T11:36:32Z</time>
      </trkpt>
      <trkpt lat="43.01409" lon="-7.53305">
        <ele>481.4</ele>
        <time>2016-07-14T11:36:39Z</time>
      </trkpt>
      <trkpt lat="43.01402" lon="-7.53314">
        <ele>480.8</ele>
        <time>2016-07-14T11:36:46Z</time>
      </trkpt>
      <trkpt lat="43.01397" lon="-7.53325">
        <ele>480</ele>
        <time>2016-07-14T11:36:53Z</time>
      </trkpt>
      <trkpt lat="43.01392" lon="-7.53336">
        <ele>479.3</ele>
        <time>2016-07-14T11:37:02Z</time>
      </trkpt>
      <trkpt lat="43.01386" lon="-7.53346">
        <ele>478.4</ele>
        <time>2016-07-14T11:37:11Z</time>
      </trkpt>
      <trkpt lat="43.01381" lon="-7.53356">
        <ele>477.3</ele>
        <time>2016-07-14T11:37:27Z</time>
      </trkpt>
      <trkpt lat="43.01378" lon="-7.53367">
        <ele>474.8</ele>
        <time>2016-07-14T11:38:27Z</time>
      </trkpt>
      <trkpt lat="43.01371" lon="-7.53377">
        <ele>474.6</ele>
        <time>2016-07-14T11:38:37Z</time>
      </trkpt>
      <trkpt lat="43.01361" lon="-7.5338">
        <ele>474.3</ele>
        <time>2016-07-14T11:38:45Z</time>
      </trkpt>
      <trkpt lat="43.01351" lon="-7.53384">
        <ele>473.5</ele>
        <time>2016-07-14T11:38:53Z</time>
      </trkpt>
      <trkpt lat="43.01347" lon="-7.53394">
        <ele>472.3</ele>
        <time>2016-07-14T11:39:04Z</time>
      </trkpt>
      <trkpt lat="43.01348" lon="-7.53407">
        <ele>471.3</ele>
        <time>2016-07-14T11:39:12Z</time>
      </trkpt>
      <trkpt lat="43.01354" lon="-7.53417">
        <ele>470.2</ele>
        <time>2016-07-14T11:39:23Z</time>
      </trkpt>
      <trkpt lat="43.01361" lon="-7.53426">
        <ele>469.5</ele>
        <time>2016-07-14T11:39:31Z</time>
      </trkpt>
      <trkpt lat="43.01368" lon="-7.53436">
        <ele>468.8</ele>
        <time>2016-07-14T11:39:39Z</time>
      </trkpt>
      <trkpt lat="43.01374" lon="-7.53448">
        <ele>467.9</ele>
        <time>2016-07-14T11:39:47Z</time>
      </trkpt>
      <trkpt lat="43.01379" lon="-7.53458">
        <ele>467.2</ele>
        <time>2016-07-14T11:39:55Z</time>
      </trkpt>
      <trkpt lat="43.01377" lon="-7.53471">
        <ele>466.7</ele>
        <time>2016-07-14T11:40:03Z</time>
      </trkpt>
      <trkpt lat="43.01373" lon="-7.53483">
        <ele>466.2</ele>
        <time>2016-07-14T11:40:11Z</time>
      </trkpt>
      <trkpt lat="43.01366" lon="-7.53494">
        <ele>465.9</ele>
        <time>2016-07-14T11:40:23Z</time>
      </trkpt>
      <trkpt lat="43.01361" lon="-7.53504">
        <ele>465.9</ele>
        <time>2016-07-14T11:40:30Z</time>
      </trkpt>
      <trkpt lat="43.01357" lon="-7.53517">
        <ele>465.7</ele>
        <time>2016-07-14T11:40:38Z</time>
      </trkpt>
      <trkpt lat="43.01358" lon="-7.5353">
        <ele>465.3</ele>
        <time>2016-07-14T11:40:47Z</time>
      </trkpt>
      <trkpt lat="43.01357" lon="-7.53544">
        <ele>465.4</ele>
        <time>2016-07-14T11:40:55Z</time>
      </trkpt>
      <trkpt lat="43.01357" lon="-7.53556">
        <ele>465.1</ele>
        <time>2016-07-14T11:41:02Z</time>
      </trkpt>
      <trkpt lat="43.01356" lon="-7.5357">
        <ele>465</ele>
        <time>2016-07-14T11:41:09Z</time>
      </trkpt>
      <trkpt lat="43.01355" lon="-7.53583">
        <ele>465</ele>
        <time>2016-07-14T11:41:17Z</time>
      </trkpt>
      <trkpt lat="43.01355" lon="-7.53597">
        <ele>465.2</ele>
        <time>2016-07-14T11:41:25Z</time>
      </trkpt>
      <trkpt lat="43.01354" lon="-7.53609">
        <ele>465.6</ele>
        <time>2016-07-14T11:41:33Z</time>
      </trkpt>
      <trkpt lat="43.01353" lon="-7.53622">
        <ele>466</ele>
        <time>2016-07-14T11:41:41Z</time>
      </trkpt>
      <trkpt lat="43.01353" lon="-7.53635">
        <ele>466.1</ele>
        <time>2016-07-14T11:41:49Z</time>
      </trkpt>
      <trkpt lat="43.01351" lon="-7.53648">
        <ele>466.2</ele>
        <time>2016-07-14T11:41:57Z</time>
      </trkpt>
      <trkpt lat="43.01349" lon="-7.53661">
        <ele>466.4</ele>
        <time>2016-07-14T11:42:05Z</time>
      </trkpt>
      <trkpt lat="43.01348" lon="-7.53675">
        <ele>466.6</ele>
        <time>2016-07-14T11:42:13Z</time>
      </trkpt>
      <trkpt lat="43.01346" lon="-7.53687">
        <ele>467</ele>
        <time>2016-07-14T11:42:21Z</time>
      </trkpt>
      <trkpt lat="43.0134" lon="-7.53698">
        <ele>467.5</ele>
        <time>2016-07-14T11:42:29Z</time>
      </trkpt>
      <trkpt lat="43.01335" lon="-7.5371">
        <ele>467.8</ele>
        <time>2016-07-14T11:42:38Z</time>
      </trkpt>
      <trkpt lat="43.01329" lon="-7.5372">
        <ele>468.1</ele>
        <time>2016-07-14T11:42:46Z</time>
      </trkpt>
      <trkpt lat="43.01323" lon="-7.5373">
        <ele>468.4</ele>
        <time>2016-07-14T11:42:55Z</time>
      </trkpt>
      <trkpt lat="43.01317" lon="-7.5374">
        <ele>468.7</ele>
        <time>2016-07-14T11:43:04Z</time>
      </trkpt>
      <trkpt lat="43.01311" lon="-7.53749">
        <ele>468.4</ele>
        <time>2016-07-14T11:43:47Z</time>
      </trkpt>
      <trkpt lat="43.01308" lon="-7.53762">
        <ele>467.9</ele>
        <time>2016-07-14T11:43:57Z</time>
      </trkpt>
      <trkpt lat="43.01307" lon="-7.53776">
        <ele>467.6</ele>
        <time>2016-07-14T11:44:07Z</time>
      </trkpt>
      <trkpt lat="43.01305" lon="-7.53789">
        <ele>467.1</ele>
        <time>2016-07-14T11:44:16Z</time>
      </trkpt>
      <trkpt lat="43.01306" lon="-7.53803">
        <ele>466.8</ele>
        <time>2016-07-14T11:44:24Z</time>
      </trkpt>
      <trkpt lat="43.01306" lon="-7.53816">
        <ele>466.4</ele>
        <time>2016-07-14T11:44:32Z</time>
      </trkpt>
      <trkpt lat="43.01304" lon="-7.53829">
        <ele>465.8</ele>
        <time>2016-07-14T11:44:41Z</time>
      </trkpt>
      <trkpt lat="43.01302" lon="-7.53842">
        <ele>465.5</ele>
        <time>2016-07-14T11:44:49Z</time>
      </trkpt>
      <trkpt lat="43.01301" lon="-7.53855">
        <ele>465.4</ele>
        <time>2016-07-14T11:44:58Z</time>
      </trkpt>
      <trkpt lat="43.01298" lon="-7.53868">
        <ele>465.4</ele>
        <time>2016-07-14T11:45:06Z</time>
      </trkpt>
      <trkpt lat="43.01297" lon="-7.53881">
        <ele>465.4</ele>
        <time>2016-07-14T11:45:13Z</time>
      </trkpt>
      <trkpt lat="43.01294" lon="-7.53894">
        <ele>465.5</ele>
        <time>2016-07-14T11:45:21Z</time>
      </trkpt>
      <trkpt lat="43.0129" lon="-7.53905">
        <ele>465.6</ele>
        <time>2016-07-14T11:45:28Z</time>
      </trkpt>
      <trkpt lat="43.01287" lon="-7.53918">
        <ele>465.7</ele>
        <time>2016-07-14T11:45:36Z</time>
      </trkpt>
      <trkpt lat="43.01283" lon="-7.53931">
        <ele>465.9</ele>
        <time>2016-07-14T11:45:44Z</time>
      </trkpt>
      <trkpt lat="43.0128" lon="-7.53944">
        <ele>466</ele>
        <time>2016-07-14T11:45:52Z</time>
      </trkpt>
      <trkpt lat="43.01275" lon="-7.53955">
        <ele>465.7</ele>
        <time>2016-07-14T11:46:00Z</time>
      </trkpt>
      <trkpt lat="43.0127" lon="-7.53966">
        <ele>465.1</ele>
        <time>2016-07-14T11:46:08Z</time>
      </trkpt>
      <trkpt lat="43.01263" lon="-7.53977">
        <ele>464.7</ele>
        <time>2016-07-14T11:46:17Z</time>
      </trkpt>
      <trkpt lat="43.01257" lon="-7.53986">
        <ele>464.3</ele>
        <time>2016-07-14T11:46:26Z</time>
      </trkpt>
      <trkpt lat="43.0125" lon="-7.53995">
        <ele>463.9</ele>
        <time>2016-07-14T11:46:36Z</time>
      </trkpt>
      <trkpt lat="43.01244" lon="-7.54005">
        <ele>463.4</ele>
        <time>2016-07-14T11:46:46Z</time>
      </trkpt>
      <trkpt lat="43.01237" lon="-7.54013">
        <ele>462.8</ele>
        <time>2016-07-14T11:46:54Z</time>
      </trkpt>
      <trkpt lat="43.01229" lon="-7.54023">
        <ele>462.1</ele>
        <time>2016-07-14T11:47:02Z</time>
      </trkpt>
      <trkpt lat="43.01222" lon="-7.54033">
        <ele>461.8</ele>
        <time>2016-07-14T11:47:10Z</time>
      </trkpt>
      <trkpt lat="43.01218" lon="-7.54044">
        <ele>461.4</ele>
        <time>2016-07-14T11:47:18Z</time>
      </trkpt>
      <trkpt lat="43.01214" lon="-7.54056">
        <ele>460.5</ele>
        <time>2016-07-14T11:47:26Z</time>
      </trkpt>
      <trkpt lat="43.01211" lon="-7.54068">
        <ele>460.3</ele>
        <time>2016-07-14T11:47:33Z</time>
      </trkpt>
      <trkpt lat="43.01208" lon="-7.54081">
        <ele>459.8</ele>
        <time>2016-07-14T11:47:41Z</time>
      </trkpt>
      <trkpt lat="43.01205" lon="-7.54093">
        <ele>459.3</ele>
        <time>2016-07-14T11:47:48Z</time>
      </trkpt>
      <trkpt lat="43.01203" lon="-7.54107">
        <ele>458.9</ele>
        <time>2016-07-14T11:47:56Z</time>
      </trkpt>
      <trkpt lat="43.01203" lon="-7.5412">
        <ele>458.4</ele>
        <time>2016-07-14T11:48:05Z</time>
      </trkpt>
      <trkpt lat="43.01203" lon="-7.54132">
        <ele>457.7</ele>
        <time>2016-07-14T11:48:14Z</time>
      </trkpt>
      <trkpt lat="43.01207" lon="-7.54144">
        <ele>457</ele>
        <time>2016-07-14T11:48:22Z</time>
      </trkpt>
      <trkpt lat="43.01211" lon="-7.54155">
        <ele>456.4</ele>
        <time>2016-07-14T11:48:30Z</time>
      </trkpt>
      <trkpt lat="43.01216" lon="-7.54166">
        <ele>456</ele>
        <time>2016-07-14T11:48:38Z</time>
      </trkpt>
      <trkpt lat="43.0122" lon="-7.54177">
        <ele>455.6</ele>
        <time>2016-07-14T11:48:46Z</time>
      </trkpt>
      <trkpt lat="43.01224" lon="-7.54189">
        <ele>455</ele>
        <time>2016-07-14T11:48:55Z</time>
      </trkpt>
      <trkpt lat="43.01225" lon="-7.54202">
        <ele>454.6</ele>
        <time>2016-07-14T11:49:03Z</time>
      </trkpt>
      <trkpt lat="43.01227" lon="-7.54215">
        <ele>453.7</ele>
        <time>2016-07-14T11:49:11Z</time>
      </trkpt>
      <trkpt lat="43.01231" lon="-7.54228">
        <ele>452.8</ele>
        <time>2016-07-14T11:49:20Z</time>
      </trkpt>
      <trkpt lat="43.01235" lon="-7.54239">
        <ele>452.1</ele>
        <time>2016-07-14T11:49:28Z</time>
      </trkpt>
      <trkpt lat="43.01239" lon="-7.54251">
        <ele>451.5</ele>
        <time>2016-07-14T11:49:37Z</time>
      </trkpt>
      <trkpt lat="43.01243" lon="-7.54263">
        <ele>450.3</ele>
        <time>2016-07-14T11:49:46Z</time>
      </trkpt>
      <trkpt lat="43.01246" lon="-7.54275">
        <ele>449.4</ele>
        <time>2016-07-14T11:49:54Z</time>
      </trkpt>
      <trkpt lat="43.0125" lon="-7.54287">
        <ele>448</ele>
        <time>2016-07-14T11:50:03Z</time>
      </trkpt>
      <trkpt lat="43.01255" lon="-7.54298">
        <ele>447.1</ele>
        <time>2016-07-14T11:50:11Z</time>
      </trkpt>
      <trkpt lat="43.01261" lon="-7.54308">
        <ele>446.2</ele>
        <time>2016-07-14T11:50:20Z</time>
      </trkpt>
      <trkpt lat="43.01257" lon="-7.5432">
        <ele>444.5</ele>
        <time>2016-07-14T11:50:38Z</time>
      </trkpt>
      <trkpt lat="43.01262" lon="-7.54331">
        <ele>444</ele>
        <time>2016-07-14T11:50:48Z</time>
      </trkpt>
      <trkpt lat="43.01269" lon="-7.54341">
        <ele>443.1</ele>
        <time>2016-07-14T11:50:58Z</time>
      </trkpt>
      <trkpt lat="43.01273" lon="-7.54352">
        <ele>441.8</ele>
        <time>2016-07-14T11:51:08Z</time>
      </trkpt>
      <trkpt lat="43.01276" lon="-7.54364">
        <ele>439.9</ele>
        <time>2016-07-14T11:51:38Z</time>
      </trkpt>
      <trkpt lat="43.01284" lon="-7.5437">
        <ele>439.4</ele>
        <time>2016-07-14T11:51:49Z</time>
      </trkpt>
      <trkpt lat="43.01292" lon="-7.54378">
        <ele>438.8</ele>
        <time>2016-07-14T11:51:59Z</time>
      </trkpt>
      <trkpt lat="43.01299" lon="-7.54385">
        <ele>438.2</ele>
        <time>2016-07-14T11:52:07Z</time>
      </trkpt>
      <trkpt lat="43.01307" lon="-7.54394">
        <ele>437.4</ele>
        <time>2016-07-14T11:52:16Z</time>
      </trkpt>
      <trkpt lat="43.01314" lon="-7.54403">
        <ele>436.9</ele>
        <time>2016-07-14T11:52:25Z</time>
      </trkpt>
      <trkpt lat="43.01322" lon="-7.54411">
        <ele>436.5</ele>
        <time>2016-07-14T11:52:33Z</time>
      </trkpt>
      <trkpt lat="43.01329" lon="-7.5442">
        <ele>435.5</ele>
        <time>2016-07-14T11:52:42Z</time>
      </trkpt>
      <trkpt lat="43.01336" lon="-7.54429">
        <ele>434.6</ele>
        <time>2016-07-14T11:52:51Z</time>
      </trkpt>
      <trkpt lat="43.0134" lon="-7.54441">
        <ele>434.1</ele>
        <time>2016-07-14T11:52:59Z</time>
      </trkpt>
      <trkpt lat="43.01343" lon="-7.54453">
        <ele>433.5</ele>
        <time>2016-07-14T11:53:07Z</time>
      </trkpt>
      <trkpt lat="43.01345" lon="-7.54466">
        <ele>432.4</ele>
        <time>2016-07-14T11:53:23Z</time>
      </trkpt>
      <trkpt lat="43.01352" lon="-7.54475">
        <ele>431.8</ele>
        <time>2016-07-14T11:53:33Z</time>
      </trkpt>
      <trkpt lat="43.01359" lon="-7.54482">
        <ele>431</ele>
        <time>2016-07-14T11:53:42Z</time>
      </trkpt>
      <trkpt lat="43.01367" lon="-7.5449">
        <ele>430</ele>
        <time>2016-07-14T11:53:50Z</time>
      </trkpt>
      <trkpt lat="43.0137" lon="-7.54502">
        <ele>428.9</ele>
        <time>2016-07-14T11:54:01Z</time>
      </trkpt>
      <trkpt lat="43.01371" lon="-7.54515">
        <ele>428</ele>
        <time>2016-07-14T11:54:10Z</time>
      </trkpt>
      <trkpt lat="43.0137" lon="-7.54528">
        <ele>426.4</ele>
        <time>2016-07-14T11:54:19Z</time>
      </trkpt>
      <trkpt lat="43.01366" lon="-7.5454">
        <ele>424.8</ele>
        <time>2016-07-14T11:54:30Z</time>
      </trkpt>
      <trkpt lat="43.01363" lon="-7.54552">
        <ele>423.4</ele>
        <time>2016-07-14T11:54:40Z</time>
      </trkpt>
      <trkpt lat="43.01356" lon="-7.54562">
        <ele>422.1</ele>
        <time>2016-07-14T11:54:49Z</time>
      </trkpt>
      <trkpt lat="43.0135" lon="-7.54573">
        <ele>420.4</ele>
        <time>2016-07-14T11:54:58Z</time>
      </trkpt>
      <trkpt lat="43.01343" lon="-7.54582">
        <ele>418.9</ele>
        <time>2016-07-14T11:55:06Z</time>
      </trkpt>
      <trkpt lat="43.01342" lon="-7.54595">
        <ele>417.1</ele>
        <time>2016-07-14T11:55:17Z</time>
      </trkpt>
      <trkpt lat="43.0135" lon="-7.54603">
        <ele>416.1</ele>
        <time>2016-07-14T11:55:26Z</time>
      </trkpt>
      <trkpt lat="43.01358" lon="-7.54607">
        <ele>415.3</ele>
        <time>2016-07-14T11:55:35Z</time>
      </trkpt>
      <trkpt lat="43.01368" lon="-7.54612">
        <ele>414.7</ele>
        <time>2016-07-14T11:55:44Z</time>
      </trkpt>
      <trkpt lat="43.01376" lon="-7.54618">
        <ele>414.3</ele>
        <time>2016-07-14T11:55:52Z</time>
      </trkpt>
      <trkpt lat="43.01383" lon="-7.54627">
        <ele>414</ele>
        <time>2016-07-14T11:56:01Z</time>
      </trkpt>
      <trkpt lat="43.0139" lon="-7.54636">
        <ele>414</ele>
        <time>2016-07-14T11:56:09Z</time>
      </trkpt>
      <trkpt lat="43.01398" lon="-7.54643">
        <ele>414.2</ele>
        <time>2016-07-14T11:56:18Z</time>
      </trkpt>
      <trkpt lat="43.01408" lon="-7.54647">
        <ele>414.7</ele>
        <time>2016-07-14T11:56:28Z</time>
      </trkpt>
      <trkpt lat="43.01417" lon="-7.54649">
        <ele>415.3</ele>
        <time>2016-07-14T11:56:36Z</time>
      </trkpt>
      <trkpt lat="43.01426" lon="-7.54651">
        <ele>416.4</ele>
        <time>2016-07-14T11:56:45Z</time>
      </trkpt>
      <trkpt lat="43.01435" lon="-7.54655">
        <ele>417.4</ele>
        <time>2016-07-14T11:56:55Z</time>
      </trkpt>
      <trkpt lat="43.01443" lon="-7.54662">
        <ele>418.2</ele>
        <time>2016-07-14T11:57:04Z</time>
      </trkpt>
      <trkpt lat="43.01446" lon="-7.54675">
        <ele>419.2</ele>
        <time>2016-07-14T11:57:12Z</time>
      </trkpt>
      <trkpt lat="43.01445" lon="-7.54687">
        <ele>419.8</ele>
        <time>2016-07-14T11:57:20Z</time>
      </trkpt>
      <trkpt lat="43.01442" lon="-7.547">
        <ele>420.4</ele>
        <time>2016-07-14T11:57:28Z</time>
      </trkpt>
      <trkpt lat="43.01438" lon="-7.54711">
        <ele>420.9</ele>
        <time>2016-07-14T11:57:37Z</time>
      </trkpt>
      <trkpt lat="43.01432" lon="-7.54721">
        <ele>421.6</ele>
        <time>2016-07-14T11:57:45Z</time>
      </trkpt>
      <trkpt lat="43.01428" lon="-7.54734">
        <ele>422.3</ele>
        <time>2016-07-14T11:57:54Z</time>
      </trkpt>
      <trkpt lat="43.01422" lon="-7.54744">
        <ele>422.8</ele>
        <time>2016-07-14T11:58:03Z</time>
      </trkpt>
      <trkpt lat="43.01417" lon="-7.54755">
        <ele>423.7</ele>
        <time>2016-07-14T11:58:13Z</time>
      </trkpt>
      <trkpt lat="43.01411" lon="-7.54764">
        <ele>424.3</ele>
        <time>2016-07-14T11:58:21Z</time>
      </trkpt>
      <trkpt lat="43.01407" lon="-7.54775">
        <ele>424.7</ele>
        <time>2016-07-14T11:58:29Z</time>
      </trkpt>
      <trkpt lat="43.01399" lon="-7.54784">
        <ele>425.1</ele>
        <time>2016-07-14T11:58:38Z</time>
      </trkpt>
      <trkpt lat="43.01391" lon="-7.54791">
        <ele>425.5</ele>
        <time>2016-07-14T11:58:46Z</time>
      </trkpt>
      <trkpt lat="43.01383" lon="-7.54797">
        <ele>426.2</ele>
        <time>2016-07-14T11:58:53Z</time>
      </trkpt>
      <trkpt lat="43.01375" lon="-7.54804">
        <ele>426.5</ele>
        <time>2016-07-14T11:59:01Z</time>
      </trkpt>
      <trkpt lat="43.01367" lon="-7.54809">
        <ele>426.8</ele>
        <time>2016-07-14T11:59:09Z</time>
      </trkpt>
      <trkpt lat="43.01359" lon="-7.54817">
        <ele>427.4</ele>
        <time>2016-07-14T11:59:18Z</time>
      </trkpt>
      <trkpt lat="43.0135" lon="-7.54821">
        <ele>427.8</ele>
        <time>2016-07-14T11:59:26Z</time>
      </trkpt>
      <trkpt lat="43.01342" lon="-7.54827">
        <ele>428.1</ele>
        <time>2016-07-14T11:59:35Z</time>
      </trkpt>
      <trkpt lat="43.01333" lon="-7.54834">
        <ele>429.3</ele>
        <time>2016-07-14T11:59:45Z</time>
      </trkpt>
      <trkpt lat="43.01326" lon="-7.54841">
        <ele>430.2</ele>
        <time>2016-07-14T11:59:56Z</time>
      </trkpt>
      <trkpt lat="43.01316" lon="-7.54843">
        <ele>430.7</ele>
        <time>2016-07-14T12:00:08Z</time>
      </trkpt>
      <trkpt lat="43.01307" lon="-7.54848">
        <ele>431.2</ele>
        <time>2016-07-14T12:00:15Z</time>
      </trkpt>
      <trkpt lat="43.01298" lon="-7.54852">
        <ele>432.1</ele>
        <time>2016-07-14T12:00:24Z</time>
      </trkpt>
      <trkpt lat="43.0129" lon="-7.54856">
        <ele>433</ele>
        <time>2016-07-14T12:00:35Z</time>
      </trkpt>
      <trkpt lat="43.01284" lon="-7.54866">
        <ele>434.7</ele>
        <time>2016-07-14T12:00:50Z</time>
      </trkpt>
      <trkpt lat="43.01281" lon="-7.54878">
        <ele>435.6</ele>
        <time>2016-07-14T12:01:01Z</time>
      </trkpt>
      <trkpt lat="43.01272" lon="-7.54882">
        <ele>436.1</ele>
        <time>2016-07-14T12:01:10Z</time>
      </trkpt>
      <trkpt lat="43.01265" lon="-7.54892">
        <ele>436.2</ele>
        <time>2016-07-14T12:01:19Z</time>
      </trkpt>
      <trkpt lat="43.01261" lon="-7.54904">
        <ele>438</ele>
        <time>2016-07-14T12:01:42Z</time>
      </trkpt>
      <trkpt lat="43.01255" lon="-7.54914">
        <ele>440.8</ele>
        <time>2016-07-14T12:02:08Z</time>
      </trkpt>
      <trkpt lat="43.01247" lon="-7.5492">
        <ele>441.9</ele>
        <time>2016-07-14T12:02:17Z</time>
      </trkpt>
      <trkpt lat="43.01238" lon="-7.54927">
        <ele>442.5</ele>
        <time>2016-07-14T12:02:25Z</time>
      </trkpt>
      <trkpt lat="43.01229" lon="-7.54931">
        <ele>443.2</ele>
        <time>2016-07-14T12:02:34Z</time>
      </trkpt>
      <trkpt lat="43.01221" lon="-7.54941">
        <ele>443.6</ele>
        <time>2016-07-14T12:02:43Z</time>
      </trkpt>
      <trkpt lat="43.01215" lon="-7.54952">
        <ele>443.6</ele>
        <time>2016-07-14T12:02:48Z</time>
      </trkpt>
      <trkpt lat="43.01208" lon="-7.5496">
        <ele>444.5</ele>
        <time>2016-07-14T12:03:28Z</time>
      </trkpt>
      <trkpt lat="43.01204" lon="-7.54971">
        <ele>445.3</ele>
        <time>2016-07-14T12:03:35Z</time>
      </trkpt>
      <trkpt lat="43.01204" lon="-7.54985">
        <ele>446.1</ele>
        <time>2016-07-14T12:03:45Z</time>
      </trkpt>
      <trkpt lat="43.01199" lon="-7.54997">
        <ele>447</ele>
        <time>2016-07-14T12:03:52Z</time>
      </trkpt>
      <trkpt lat="43.01192" lon="-7.55006">
        <ele>447.7</ele>
        <time>2016-07-14T12:03:58Z</time>
      </trkpt>
      <trkpt lat="43.01184" lon="-7.55014">
        <ele>448.6</ele>
        <time>2016-07-14T12:04:05Z</time>
      </trkpt>
      <trkpt lat="43.01179" lon="-7.55026">
        <ele>449.5</ele>
        <time>2016-07-14T12:04:15Z</time>
      </trkpt>
      <trkpt lat="43.01174" lon="-7.55036">
        <ele>450.1</ele>
        <time>2016-07-14T12:04:23Z</time>
      </trkpt>
      <trkpt lat="43.01171" lon="-7.55048">
        <ele>450.9</ele>
        <time>2016-07-14T12:04:28Z</time>
      </trkpt>
      <trkpt lat="43.01167" lon="-7.5506">
        <ele>451.5</ele>
        <time>2016-07-14T12:04:36Z</time>
      </trkpt>
      <trkpt lat="43.01165" lon="-7.55074">
        <ele>451.9</ele>
        <time>2016-07-14T12:04:43Z</time>
      </trkpt>
      <trkpt lat="43.01163" lon="-7.55087">
        <ele>452.7</ele>
        <time>2016-07-14T12:04:51Z</time>
      </trkpt>
      <trkpt lat="43.01161" lon="-7.55098">
        <ele>453.3</ele>
        <time>2016-07-14T12:04:59Z</time>
      </trkpt>
      <trkpt lat="43.01159" lon="-7.55111">
        <ele>454</ele>
        <time>2016-07-14T12:05:07Z</time>
      </trkpt>
      <trkpt lat="43.01153" lon="-7.5512">
        <ele>454.7</ele>
        <time>2016-07-14T12:05:18Z</time>
      </trkpt>
      <trkpt lat="43.01146" lon="-7.55132">
        <ele>455.3</ele>
        <time>2016-07-14T12:05:25Z</time>
      </trkpt>
      <trkpt lat="43.01142" lon="-7.55144">
        <ele>456.2</ele>
        <time>2016-07-14T12:05:32Z</time>
      </trkpt>
      <trkpt lat="43.01138" lon="-7.55156">
        <ele>456.9</ele>
        <time>2016-07-14T12:05:38Z</time>
      </trkpt>
      <trkpt lat="43.01135" lon="-7.55168">
        <ele>458</ele>
        <time>2016-07-14T12:05:48Z</time>
      </trkpt>
      <trkpt lat="43.01132" lon="-7.55181">
        <ele>458.8</ele>
        <time>2016-07-14T12:05:55Z</time>
      </trkpt>
      <trkpt lat="43.01126" lon="-7.55194">
        <ele>459</ele>
        <time>2016-07-14T12:06:04Z</time>
      </trkpt>
      <trkpt lat="43.0112" lon="-7.55205">
        <ele>460</ele>
        <time>2016-07-14T12:06:12Z</time>
      </trkpt>
      <trkpt lat="43.01111" lon="-7.55215">
        <ele>461</ele>
        <time>2016-07-14T12:06:20Z</time>
      </trkpt>
      <trkpt lat="43.01102" lon="-7.55219">
        <ele>462.2</ele>
        <time>2016-07-14T12:06:27Z</time>
      </trkpt>
      <trkpt lat="43.01093" lon="-7.55223">
        <ele>463.2</ele>
        <time>2016-07-14T12:06:36Z</time>
      </trkpt>
      <trkpt lat="43.01071" lon="-7.55256">
        <ele>464</ele>
        <time>2016-07-14T12:06:59Z</time>
      </trkpt>
      <trkpt lat="43.01055" lon="-7.55277">
        <ele>466.1</ele>
        <time>2016-07-14T12:07:13Z</time>
      </trkpt>
      <trkpt lat="43.01046" lon="-7.55278">
        <ele>469.7</ele>
        <time>2016-07-14T12:07:45Z</time>
      </trkpt>
      <trkpt lat="43.01038" lon="-7.55284">
        <ele>470.5</ele>
        <time>2016-07-14T12:07:59Z</time>
      </trkpt>
      <trkpt lat="43.01032" lon="-7.55293">
        <ele>472.9</ele>
        <time>2016-07-14T12:08:24Z</time>
      </trkpt>
      <trkpt lat="43.01024" lon="-7.55298">
        <ele>472.8</ele>
        <time>2016-07-14T12:08:57Z</time>
      </trkpt>
      <trkpt lat="43.01015" lon="-7.55302">
        <ele>472.1</ele>
        <time>2016-07-14T12:09:20Z</time>
      </trkpt>
      <trkpt lat="43.01025" lon="-7.55305">
        <ele>472.3</ele>
        <time>2016-07-14T12:09:32Z</time>
      </trkpt>
      <trkpt lat="43.01033" lon="-7.55298">
        <ele>474.1</ele>
        <time>2016-07-14T12:10:28Z</time>
      </trkpt>
      <trkpt lat="43.01024" lon="-7.55294">
        <ele>473.8</ele>
        <time>2016-07-14T12:11:21Z</time>
      </trkpt>
      <trkpt lat="43.01016" lon="-7.55299">
        <ele>473.6</ele>
        <time>2016-07-14T12:12:18Z</time>
      </trkpt>
      <trkpt lat="43.01025" lon="-7.55297">
        <ele>473.4</ele>
        <time>2016-07-14T12:13:00Z</time>
      </trkpt>
      <trkpt lat="43.01025" lon="-7.5531">
        <ele>473.7</ele>
        <time>2016-07-14T12:13:07Z</time>
      </trkpt>
      <trkpt lat="43.01031" lon="-7.5532">
        <ele>473.9</ele>
        <time>2016-07-14T12:13:16Z</time>
      </trkpt>
      <trkpt lat="43.01034" lon="-7.55334">
        <ele>474</ele>
        <time>2016-07-14T12:13:24Z</time>
      </trkpt>
      <trkpt lat="43.01034" lon="-7.55347">
        <ele>474.1</ele>
        <time>2016-07-14T12:13:29Z</time>
      </trkpt>
      <trkpt lat="43.01035" lon="-7.5536">
        <ele>474.4</ele>
        <time>2016-07-14T12:13:37Z</time>
      </trkpt>
      <trkpt lat="43.01043" lon="-7.55353">
        <ele>476.1</ele>
        <time>2016-07-14T12:14:01Z</time>
      </trkpt>
      <trkpt lat="43.01046" lon="-7.55366">
        <ele>476</ele>
        <time>2016-07-14T12:14:29Z</time>
      </trkpt>
      <trkpt lat="43.01045" lon="-7.55379">
        <ele>476.7</ele>
        <time>2016-07-14T12:14:40Z</time>
      </trkpt>
      <trkpt lat="43.0105" lon="-7.55392">
        <ele>477.4</ele>
        <time>2016-07-14T12:14:49Z</time>
      </trkpt>
      <trkpt lat="43.01051" lon="-7.55404">
        <ele>477.6</ele>
        <time>2016-07-14T12:14:54Z</time>
      </trkpt>
      <trkpt lat="43.01051" lon="-7.55419">
        <ele>478</ele>
        <time>2016-07-14T12:15:01Z</time>
      </trkpt>
      <trkpt lat="43.01052" lon="-7.55432">
        <ele>478.2</ele>
        <time>2016-07-14T12:15:09Z</time>
      </trkpt>
      <trkpt lat="43.0105" lon="-7.55444">
        <ele>478.4</ele>
        <time>2016-07-14T12:15:17Z</time>
      </trkpt>
      <trkpt lat="43.01052" lon="-7.55457">
        <ele>478.9</ele>
        <time>2016-07-14T12:15:30Z</time>
      </trkpt>
      <trkpt lat="43.01054" lon="-7.55469">
        <ele>479</ele>
        <time>2016-07-14T12:15:39Z</time>
      </trkpt>
      <trkpt lat="43.01054" lon="-7.55482">
        <ele>479.2</ele>
        <time>2016-07-14T12:15:48Z</time>
      </trkpt>
      <trkpt lat="43.01053" lon="-7.55496">
        <ele>478.9</ele>
        <time>2016-07-14T12:15:57Z</time>
      </trkpt>
      <trkpt lat="43.01049" lon="-7.55507">
        <ele>479.4</ele>
        <time>2016-07-14T12:16:04Z</time>
      </trkpt>
      <trkpt lat="43.01044" lon="-7.5552">
        <ele>479.5</ele>
        <time>2016-07-14T12:16:11Z</time>
      </trkpt>
      <trkpt lat="43.01041" lon="-7.55532">
        <ele>479.6</ele>
        <time>2016-07-14T12:16:20Z</time>
      </trkpt>
      <trkpt lat="43.0104" lon="-7.55545">
        <ele>479.4</ele>
        <time>2016-07-14T12:16:28Z</time>
      </trkpt>
      <trkpt lat="43.01037" lon="-7.55557">
        <ele>479</ele>
        <time>2016-07-14T12:16:39Z</time>
      </trkpt>
      <trkpt lat="43.01032" lon="-7.55568">
        <ele>478.7</ele>
        <time>2016-07-14T12:16:48Z</time>
      </trkpt>
      <trkpt lat="43.01023" lon="-7.55571">
        <ele>476.7</ele>
        <time>2016-07-14T12:17:42Z</time>
      </trkpt>
      <trkpt lat="43.01016" lon="-7.55579">
        <ele>476.2</ele>
        <time>2016-07-14T12:17:52Z</time>
      </trkpt>
      <trkpt lat="43.01011" lon="-7.5559">
        <ele>475.8</ele>
        <time>2016-07-14T12:17:59Z</time>
      </trkpt>
      <trkpt lat="43.01007" lon="-7.55602">
        <ele>475.3</ele>
        <time>2016-07-14T12:18:05Z</time>
      </trkpt>
      <trkpt lat="43.01001" lon="-7.55612">
        <ele>475.1</ele>
        <time>2016-07-14T12:18:13Z</time>
      </trkpt>
      <trkpt lat="43.00999" lon="-7.55625">
        <ele>475</ele>
        <time>2016-07-14T12:18:21Z</time>
      </trkpt>
      <trkpt lat="43.01005" lon="-7.55634">
        <ele>474.4</ele>
        <time>2016-07-14T12:18:48Z</time>
      </trkpt>
      <trkpt lat="43.01005" lon="-7.55647">
        <ele>474</ele>
        <time>2016-07-14T12:19:11Z</time>
      </trkpt>
      <trkpt lat="43.00997" lon="-7.55653">
        <ele>474</ele>
        <time>2016-07-14T12:19:17Z</time>
      </trkpt>
      <trkpt lat="43.00989" lon="-7.5566">
        <ele>474.1</ele>
        <time>2016-07-14T12:19:33Z</time>
      </trkpt>
      <trkpt lat="43.0098" lon="-7.55662">
        <ele>474</ele>
        <time>2016-07-14T12:19:42Z</time>
      </trkpt>
      <trkpt lat="43.0097" lon="-7.55662">
        <ele>473</ele>
        <time>2016-07-14T12:19:52Z</time>
      </trkpt>
      <trkpt lat="43.00979" lon="-7.5566">
        <ele>473.2</ele>
        <time>2016-07-14T12:20:06Z</time>
      </trkpt>
      <trkpt lat="43.00988" lon="-7.55664">
        <ele>472</ele>
        <time>2016-07-14T12:20:23Z</time>
      </trkpt>
      <trkpt lat="43.00995" lon="-7.55672">
        <ele>473.8</ele>
        <time>2016-07-14T12:21:04Z</time>
      </trkpt>
      <trkpt lat="43.00998" lon="-7.55662">
        <ele>473.8</ele>
        <time>2016-07-14T12:22:43Z</time>
      </trkpt>
    </trkseg>
  </trk>
</gpx>